<?xml version="1.0" encoding="UTF-8" standalone="no" ?><gpx xmlns="http://www.topografix.com/GPX/1/1" xmlns:gpxx="http://www.garmin.com/xmlschemas/GpxExtensions/v3" xmlns:wptx1="http://www.garmin.com/xmlschemas/WaypointExtension/v1" xmlns:gpxtpx="http://www.garmin.com/xmlschemas/TrackPointExtension/v1" creator="GuideVTT.com" version="1.1" xmlns:xsi="http://www.w3.org/2001/XMLSchema-instance" xsi:schemaLocation="http://www.topografix.com/GPX/1/1 http://www.topografix.com/GPX/1/1/gpx.xsd http://www.garmin.com/xmlschemas/GpxExtensions/v3 http://www8.garmin.com/xmlschemas/GpxExtensionsv3.xsd http://www.garmin.com/xmlschemas/WaypointExtension/v1 http://www8.garmin.com/xmlschemas/WaypointExtensionv1.xsd http://www.garmin.com/xmlschemas/TrackPointExtension/v1 http://www.garmin.com/xmlschemas/TrackPointExtensionv1.xsd">
<metadata><link href="http://www.garmin.com"><text>Garmin International</text></link><time>2013-06-22T15:13:50Z</time></metadata>
<trk><name>08122010.gpx</name><extensions><gpxx:TrackExtension><gpxx:DisplayColor>Cyan</gpxx:DisplayColor></gpxx:TrackExtension></extensions><trkseg>
<trkpt lat="46.14927216" lon="5.97252410"><ele></ele><time>2015-7-3T17:50:56Z</time></trkpt>
<trkpt lat="46.14930133" lon="5.97257179"><ele></ele><time>2015-7-3T17:50:59Z</time></trkpt>
<trkpt lat="46.14933830" lon="5.97260515"><ele></ele><time>2015-7-3T17:51:2Z</time></trkpt>
<trkpt lat="46.14938004" lon="5.97262787"><ele></ele><time>2015-7-3T17:51:5Z</time></trkpt>
<trkpt lat="46.14941658" lon="5.97265972"><ele></ele><time>2015-7-3T17:51:8Z</time></trkpt>
<trkpt lat="46.14945162" lon="5.97268805"><ele></ele><time>2015-7-3T17:51:11Z</time></trkpt>
<trkpt lat="46.14948615" lon="5.97272166"><ele></ele><time>2015-7-3T17:51:14Z</time></trkpt>
<trkpt lat="46.14951532" lon="5.97275879"><ele></ele><time>2015-7-3T17:51:17Z</time></trkpt>
<trkpt lat="46.14954173" lon="5.97280464"><ele></ele><time>2015-7-3T17:51:20Z</time></trkpt>
<trkpt lat="46.14957375" lon="5.97284077"><ele></ele><time>2015-7-3T17:51:23Z</time></trkpt>
<trkpt lat="46.14960233" lon="5.97288578"><ele></ele><time>2015-7-3T17:51:26Z</time></trkpt>
<trkpt lat="46.14963242" lon="5.97293842"><ele></ele><time>2015-7-3T17:51:29Z</time></trkpt>
<trkpt lat="46.14966050" lon="5.97300195"><ele></ele><time>2015-7-3T17:51:32Z</time></trkpt>
<trkpt lat="46.14968900" lon="5.97306255"><ele></ele><time>2015-7-3T17:51:35Z</time></trkpt>
<trkpt lat="46.14971942" lon="5.97311880"><ele></ele><time>2015-7-3T17:51:38Z</time></trkpt>
<trkpt lat="46.14975002" lon="5.97317546"><ele></ele><time>2015-7-3T17:51:41Z</time></trkpt>
<trkpt lat="46.14978388" lon="5.97323036"><ele></ele><time>2015-7-3T17:51:44Z</time></trkpt>
<trkpt lat="46.14981933" lon="5.97328199"><ele></ele><time>2015-7-3T17:51:47Z</time></trkpt>
<trkpt lat="46.14985655" lon="5.97333128"><ele></ele><time>2015-7-3T17:51:50Z</time></trkpt>
<trkpt lat="46.14989636" lon="5.97337889"><ele></ele><time>2015-7-3T17:51:53Z</time></trkpt>
<trkpt lat="46.14993920" lon="5.97342524"><ele></ele><time>2015-7-3T17:51:56Z</time></trkpt>
<trkpt lat="46.14998580" lon="5.97346488"><ele></ele><time>2015-7-3T17:51:59Z</time></trkpt>
<trkpt lat="46.15002846" lon="5.97351367"><ele></ele><time>2015-7-3T17:52:2Z</time></trkpt>
<trkpt lat="46.15006962" lon="5.97356547"><ele></ele><time>2015-7-3T17:52:5Z</time></trkpt>
<trkpt lat="46.15011136" lon="5.97362037"><ele></ele><time>2015-7-3T17:52:8Z</time></trkpt>
<trkpt lat="46.15015419" lon="5.97367393"><ele></ele><time>2015-7-3T17:52:11Z</time></trkpt>
<trkpt lat="46.15019577" lon="5.97372967"><ele></ele><time>2015-7-3T17:52:14Z</time></trkpt>
<trkpt lat="46.15023625" lon="5.97378608"><ele></ele><time>2015-7-3T17:52:17Z</time></trkpt>
<trkpt lat="46.15027632" lon="5.97384274"><ele></ele><time>2015-7-3T17:52:20Z</time></trkpt>
<trkpt lat="46.15031714" lon="5.97389823"><ele></ele><time>2015-7-3T17:52:23Z</time></trkpt>
<trkpt lat="46.15035838" lon="5.97395238"><ele></ele><time>2015-7-3T17:52:26Z</time></trkpt>
<trkpt lat="46.15039878" lon="5.97400644"><ele></ele><time>2015-7-3T17:52:29Z</time></trkpt>
<trkpt lat="46.15043742" lon="5.97406092"><ele></ele><time>2015-7-3T17:52:32Z</time></trkpt>
<trkpt lat="46.15047614" lon="5.97411473"><ele></ele><time>2015-7-3T17:52:35Z</time></trkpt>
<trkpt lat="46.15051252" lon="5.97417399"><ele></ele><time>2015-7-3T17:52:38Z</time></trkpt>
<trkpt lat="46.15054789" lon="5.97423485"><ele></ele><time>2015-7-3T17:52:41Z</time></trkpt>
<trkpt lat="46.15058418" lon="5.97429276"><ele></ele><time>2015-7-3T17:52:44Z</time></trkpt>
<trkpt lat="46.15062064" lon="5.97434859"><ele></ele><time>2015-7-3T17:52:47Z</time></trkpt>
<trkpt lat="46.15065577" lon="5.97440408"><ele></ele><time>2015-7-3T17:52:50Z</time></trkpt>
<trkpt lat="46.15069030" lon="5.97445604"><ele></ele><time>2015-7-3T17:52:53Z</time></trkpt>
<trkpt lat="46.15072475" lon="5.97450684"><ele></ele><time>2015-7-3T17:52:56Z</time></trkpt>
<trkpt lat="46.15076079" lon="5.97455252"><ele></ele><time>2015-7-3T17:52:59Z</time></trkpt>
<trkpt lat="46.15079792" lon="5.97459376"><ele></ele><time>2015-7-3T17:53:2Z</time></trkpt>
<trkpt lat="46.15083673" lon="5.97462318"><ele></ele><time>2015-7-3T17:53:5Z</time></trkpt>
<trkpt lat="46.15087956" lon="5.97464246"><ele></ele><time>2015-7-3T17:53:8Z</time></trkpt>
<trkpt lat="46.15091569" lon="5.97467129"><ele></ele><time>2015-7-3T17:53:11Z</time></trkpt>
<trkpt lat="46.15095332" lon="5.97469878"><ele></ele><time>2015-7-3T17:53:14Z</time></trkpt>
<trkpt lat="46.15099154" lon="5.97470130"><ele></ele><time>2015-7-3T17:53:17Z</time></trkpt>
<trkpt lat="46.15102943" lon="5.97467800"><ele></ele><time>2015-7-3T17:53:20Z</time></trkpt>
<trkpt lat="46.15106413" lon="5.97464229"><ele></ele><time>2015-7-3T17:53:23Z</time></trkpt>
<trkpt lat="46.15109833" lon="5.97460289"><ele></ele><time>2015-7-3T17:53:26Z</time></trkpt>
<trkpt lat="46.15113479" lon="5.97456233"><ele></ele><time>2015-7-3T17:53:29Z</time></trkpt>
<trkpt lat="46.15117259" lon="5.97452117"><ele></ele><time>2015-7-3T17:53:32Z</time></trkpt>
<trkpt lat="46.15121023" lon="5.97447935"><ele></ele><time>2015-7-3T17:53:35Z</time></trkpt>
<trkpt lat="46.15124904" lon="5.97443584"><ele></ele><time>2015-7-3T17:53:38Z</time></trkpt>
<trkpt lat="46.15128768" lon="5.97439435"><ele></ele><time>2015-7-3T17:53:41Z</time></trkpt>
<trkpt lat="46.15132816" lon="5.97435270"><ele></ele><time>2015-7-3T17:53:44Z</time></trkpt>
<trkpt lat="46.15136974" lon="5.97431087"><ele></ele><time>2015-7-3T17:53:47Z</time></trkpt>
<trkpt lat="46.15141357" lon="5.97426854"><ele></ele><time>2015-7-3T17:53:50Z</time></trkpt>
<trkpt lat="46.15145867" lon="5.97422822"><ele></ele><time>2015-7-3T17:53:53Z</time></trkpt>
<trkpt lat="46.15150376" lon="5.97418816"><ele></ele><time>2015-7-3T17:53:56Z</time></trkpt>
<trkpt lat="46.15154970" lon="5.97414935"><ele></ele><time>2015-7-3T17:53:59Z</time></trkpt>
<trkpt lat="46.15159663" lon="5.97411524"><ele></ele><time>2015-7-3T17:54:2Z</time></trkpt>
<trkpt lat="46.15164525" lon="5.97408623"><ele></ele><time>2015-7-3T17:54:5Z</time></trkpt>
<trkpt lat="46.15169344" lon="5.97405832"><ele></ele><time>2015-7-3T17:54:8Z</time></trkpt>
<trkpt lat="46.15173955" lon="5.97402572"><ele></ele><time>2015-7-3T17:54:11Z</time></trkpt>
<trkpt lat="46.15178347" lon="5.97398708"><ele></ele><time>2015-7-3T17:54:14Z</time></trkpt>
<trkpt lat="46.15182823" lon="5.97394978"><ele></ele><time>2015-7-3T17:54:17Z</time></trkpt>
<trkpt lat="46.15187575" lon="5.97391575"><ele></ele><time>2015-7-3T17:54:20Z</time></trkpt>
<trkpt lat="46.15192386" lon="5.97388105"><ele></ele><time>2015-7-3T17:54:23Z</time></trkpt>
<trkpt lat="46.15197189" lon="5.97384509"><ele></ele><time>2015-7-3T17:54:26Z</time></trkpt>
<trkpt lat="46.15202034" lon="5.97380888"><ele></ele><time>2015-7-3T17:54:29Z</time></trkpt>
<trkpt lat="46.15206853" lon="5.97377099"><ele></ele><time>2015-7-3T17:54:32Z</time></trkpt>
<trkpt lat="46.15211623" lon="5.97373109"><ele></ele><time>2015-7-3T17:54:35Z</time></trkpt>
<trkpt lat="46.15216476" lon="5.97369195"><ele></ele><time>2015-7-3T17:54:38Z</time></trkpt>
<trkpt lat="46.15221740" lon="5.97366027"><ele></ele><time>2015-7-3T17:54:41Z</time></trkpt>
<trkpt lat="46.15226928" lon="5.97363386"><ele></ele><time>2015-7-3T17:54:44Z</time></trkpt>
<trkpt lat="46.15231873" lon="5.97360595"><ele></ele><time>2015-7-3T17:54:47Z</time></trkpt>
<trkpt lat="46.15236802" lon="5.97357603"><ele></ele><time>2015-7-3T17:54:50Z</time></trkpt>
<trkpt lat="46.15241739" lon="5.97354577"><ele></ele><time>2015-7-3T17:54:53Z</time></trkpt>
<trkpt lat="46.15246659" lon="5.97351492"><ele></ele><time>2015-7-3T17:54:56Z</time></trkpt>
<trkpt lat="46.15251512" lon="5.97348274"><ele></ele><time>2015-7-3T17:54:59Z</time></trkpt>
<trkpt lat="46.15256357" lon="5.97344980"><ele></ele><time>2015-7-3T17:55:2Z</time></trkpt>
<trkpt lat="46.15261177" lon="5.97341786"><ele></ele><time>2015-7-3T17:55:5Z</time></trkpt>
<trkpt lat="46.15265929" lon="5.97338676"><ele></ele><time>2015-7-3T17:55:8Z</time></trkpt>
<trkpt lat="46.15270673" lon="5.97335609"><ele></ele><time>2015-7-3T17:55:11Z</time></trkpt>
<trkpt lat="46.15275426" lon="5.97332549"><ele></ele><time>2015-7-3T17:55:14Z</time></trkpt>
<trkpt lat="46.15280170" lon="5.97329456"><ele></ele><time>2015-7-3T17:55:17Z</time></trkpt>
<trkpt lat="46.15284914" lon="5.97326372"><ele></ele><time>2015-7-3T17:55:20Z</time></trkpt>
<trkpt lat="46.15289633" lon="5.97323128"><ele></ele><time>2015-7-3T17:55:23Z</time></trkpt>
<trkpt lat="46.15294302" lon="5.97319457"><ele></ele><time>2015-7-3T17:55:26Z</time></trkpt>
<trkpt lat="46.15298904" lon="5.97315350"><ele></ele><time>2015-7-3T17:55:29Z</time></trkpt>
<trkpt lat="46.15303539" lon="5.97310957"><ele></ele><time>2015-7-3T17:55:32Z</time></trkpt>
<trkpt lat="46.15308124" lon="5.97306456"><ele></ele><time>2015-7-3T17:55:35Z</time></trkpt>
<trkpt lat="46.15312507" lon="5.97301804"><ele></ele><time>2015-7-3T17:55:38Z</time></trkpt>
<trkpt lat="46.15316656" lon="5.97296826"><ele></ele><time>2015-7-3T17:55:41Z</time></trkpt>
<trkpt lat="46.15320596" lon="5.97291545"><ele></ele><time>2015-7-3T17:55:44Z</time></trkpt>
<trkpt lat="46.15324276" lon="5.97285778"><ele></ele><time>2015-7-3T17:55:47Z</time></trkpt>
<trkpt lat="46.15327779" lon="5.97279752"><ele></ele><time>2015-7-3T17:55:50Z</time></trkpt>
<trkpt lat="46.15331283" lon="5.97273809"><ele></ele><time>2015-7-3T17:55:53Z</time></trkpt>
<trkpt lat="46.15334946" lon="5.97268017"><ele></ele><time>2015-7-3T17:55:56Z</time></trkpt>
<trkpt lat="46.15338902" lon="5.97262292"><ele></ele><time>2015-7-3T17:55:59Z</time></trkpt>
<trkpt lat="46.15342624" lon="5.97256634"><ele></ele><time>2015-7-3T17:56:2Z</time></trkpt>
<trkpt lat="46.15345918" lon="5.97251077"><ele></ele><time>2015-7-3T17:56:5Z</time></trkpt>
<trkpt lat="46.15349513" lon="5.97246610"><ele></ele><time>2015-7-3T17:56:8Z</time></trkpt>
<trkpt lat="46.15353445" lon="5.97244816"><ele></ele><time>2015-7-3T17:56:11Z</time></trkpt>
<trkpt lat="46.15357837" lon="5.97245160"><ele></ele><time>2015-7-3T17:56:14Z</time></trkpt>
<trkpt lat="46.15362044" lon="5.97247289"><ele></ele><time>2015-7-3T17:56:17Z</time></trkpt>
<trkpt lat="46.15366277" lon="5.97249929"><ele></ele><time>2015-7-3T17:56:20Z</time></trkpt>
<trkpt lat="46.15369898" lon="5.97252804"><ele></ele><time>2015-7-3T17:56:23Z</time></trkpt>
<trkpt lat="46.15373435" lon="5.97255897"><ele></ele><time>2015-7-3T17:56:26Z</time></trkpt>
<trkpt lat="46.15376704" lon="5.97259149"><ele></ele><time>2015-7-3T17:56:29Z</time></trkpt>
<trkpt lat="46.15380066" lon="5.97262544"><ele></ele><time>2015-7-3T17:56:32Z</time></trkpt>
<trkpt lat="46.15383385" lon="5.97266156"><ele></ele><time>2015-7-3T17:56:35Z</time></trkpt>
<trkpt lat="46.15386738" lon="5.97269517"><ele></ele><time>2015-7-3T17:56:38Z</time></trkpt>
<trkpt lat="46.15390065" lon="5.97272803"><ele></ele><time>2015-7-3T17:56:41Z</time></trkpt>
<trkpt lat="46.15393393" lon="5.97276122"><ele></ele><time>2015-7-3T17:56:44Z</time></trkpt>
<trkpt lat="46.15396938" lon="5.97279668"><ele></ele><time>2015-7-3T17:56:47Z</time></trkpt>
<trkpt lat="46.15400434" lon="5.97283188"><ele></ele><time>2015-7-3T17:56:50Z</time></trkpt>
<trkpt lat="46.15404004" lon="5.97286616"><ele></ele><time>2015-7-3T17:56:53Z</time></trkpt>
<trkpt lat="46.15407692" lon="5.97290070"><ele></ele><time>2015-7-3T17:56:56Z</time></trkpt>
<trkpt lat="46.15411296" lon="5.97293808"><ele></ele><time>2015-7-3T17:56:59Z</time></trkpt>
<trkpt lat="46.15414909" lon="5.97297689"><ele></ele><time>2015-7-3T17:57:2Z</time></trkpt>
<trkpt lat="46.15418572" lon="5.97301545"><ele></ele><time>2015-7-3T17:57:5Z</time></trkpt>
<trkpt lat="46.15422344" lon="5.97305199"><ele></ele><time>2015-7-3T17:57:8Z</time></trkpt>
<trkpt lat="46.15426032" lon="5.97309206"><ele></ele><time>2015-7-3T17:57:11Z</time></trkpt>
<trkpt lat="46.15429795" lon="5.97313112"><ele></ele><time>2015-7-3T17:57:14Z</time></trkpt>
<trkpt lat="46.15433609" lon="5.97316699"><ele></ele><time>2015-7-3T17:57:17Z</time></trkpt>
<trkpt lat="46.15437465" lon="5.97320194"><ele></ele><time>2015-7-3T17:57:20Z</time></trkpt>
<trkpt lat="46.15441245" lon="5.97323338"><ele></ele><time>2015-7-3T17:57:23Z</time></trkpt>
<trkpt lat="46.15445587" lon="5.97326523"><ele></ele><time>2015-7-3T17:57:26Z</time></trkpt>
<trkpt lat="46.15449585" lon="5.97329440"><ele></ele><time>2015-7-3T17:57:29Z</time></trkpt>
<trkpt lat="46.15453809" lon="5.97332784"><ele></ele><time>2015-7-3T17:57:32Z</time></trkpt>
<trkpt lat="46.15458076" lon="5.97335969"><ele></ele><time>2015-7-3T17:57:35Z</time></trkpt>
<trkpt lat="46.15462183" lon="5.97338727"><ele></ele><time>2015-7-3T17:57:38Z</time></trkpt>
<trkpt lat="46.15466198" lon="5.97341300"><ele></ele><time>2015-7-3T17:57:41Z</time></trkpt>
<trkpt lat="46.15470699" lon="5.97344242"><ele></ele><time>2015-7-3T17:57:44Z</time></trkpt>
<trkpt lat="46.15474764" lon="5.97346673"><ele></ele><time>2015-7-3T17:57:47Z</time></trkpt>
<trkpt lat="46.15479123" lon="5.97350176"><ele></ele><time>2015-7-3T17:57:50Z</time></trkpt>
<trkpt lat="46.15483523" lon="5.97354007"><ele></ele><time>2015-7-3T17:57:53Z</time></trkpt>
<trkpt lat="46.15487857" lon="5.97357762"><ele></ele><time>2015-7-3T17:57:56Z</time></trkpt>
<trkpt lat="46.15491897" lon="5.97361173"><ele></ele><time>2015-7-3T17:57:59Z</time></trkpt>
<trkpt lat="46.15496398" lon="5.97364903"><ele></ele><time>2015-7-3T17:58:2Z</time></trkpt>
<trkpt lat="46.15500958" lon="5.97368407"><ele></ele><time>2015-7-3T17:58:5Z</time></trkpt>
<trkpt lat="46.15505006" lon="5.97371349"><ele></ele><time>2015-7-3T17:58:8Z</time></trkpt>
<trkpt lat="46.15508954" lon="5.97374367"><ele></ele><time>2015-7-3T17:58:11Z</time></trkpt>
<trkpt lat="46.15512927" lon="5.97377627"><ele></ele><time>2015-7-3T17:58:14Z</time></trkpt>
<trkpt lat="46.15516984" lon="5.97380812"><ele></ele><time>2015-7-3T17:58:17Z</time></trkpt>
<trkpt lat="46.15521208" lon="5.97383872"><ele></ele><time>2015-7-3T17:58:20Z</time></trkpt>
<trkpt lat="46.15525089" lon="5.97386596"><ele></ele><time>2015-7-3T17:58:23Z</time></trkpt>
<trkpt lat="46.15530177" lon="5.97390032"><ele></ele><time>2015-7-3T17:58:26Z</time></trkpt>
<trkpt lat="46.15535265" lon="5.97393184"><ele></ele><time>2015-7-3T17:58:29Z</time></trkpt>
<trkpt lat="46.15539850" lon="5.97395539"><ele></ele><time>2015-7-3T17:58:32Z</time></trkpt>
<trkpt lat="46.15544426" lon="5.97397643"><ele></ele><time>2015-7-3T17:58:35Z</time></trkpt>
<trkpt lat="46.15549682" lon="5.97400703"><ele></ele><time>2015-7-3T17:58:38Z</time></trkpt>
<trkpt lat="46.15554292" lon="5.97402689"><ele></ele><time>2015-7-3T17:58:41Z</time></trkpt>
<trkpt lat="46.15558927" lon="5.97404919"><ele></ele><time>2015-7-3T17:58:44Z</time></trkpt>
<trkpt lat="46.15563562" lon="5.97407735"><ele></ele><time>2015-7-3T17:58:47Z</time></trkpt>
<trkpt lat="46.15568013" lon="5.97411138"><ele></ele><time>2015-7-3T17:58:50Z</time></trkpt>
<trkpt lat="46.15572455" lon="5.97414742"><ele></ele><time>2015-7-3T17:58:53Z</time></trkpt>
<trkpt lat="46.15576680" lon="5.97418455"><ele></ele><time>2015-7-3T17:58:56Z</time></trkpt>
<trkpt lat="46.15581139" lon="5.97423158"><ele></ele><time>2015-7-3T17:58:59Z</time></trkpt>
<trkpt lat="46.15585045" lon="5.97427977"><ele></ele><time>2015-7-3T17:59:2Z</time></trkpt>
<trkpt lat="46.15588674" lon="5.97432797"><ele></ele><time>2015-7-3T17:59:5Z</time></trkpt>
<trkpt lat="46.15592337" lon="5.97437558"><ele></ele><time>2015-7-3T17:59:8Z</time></trkpt>
<trkpt lat="46.15595749" lon="5.97441397"><ele></ele><time>2015-7-3T17:59:11Z</time></trkpt>
<trkpt lat="46.15599940" lon="5.97444012"><ele></ele><time>2015-7-3T17:59:14Z</time></trkpt>
<trkpt lat="46.15604835" lon="5.97446459"><ele></ele><time>2015-7-3T17:59:17Z</time></trkpt>
<trkpt lat="46.15608799" lon="5.97449066"><ele></ele><time>2015-7-3T17:59:20Z</time></trkpt>
<trkpt lat="46.15612957" lon="5.97451958"><ele></ele><time>2015-7-3T17:59:23Z</time></trkpt>
<trkpt lat="46.15616553" lon="5.97454179"><ele></ele><time>2015-7-3T17:59:26Z</time></trkpt>
<trkpt lat="46.15620559" lon="5.97456853"><ele></ele><time>2015-7-3T17:59:29Z</time></trkpt>
<trkpt lat="46.15624515" lon="5.97459007"><ele></ele><time>2015-7-3T17:59:32Z</time></trkpt>
<trkpt lat="46.15628463" lon="5.97461865"><ele></ele><time>2015-7-3T17:59:35Z</time></trkpt>
<trkpt lat="46.15631422" lon="5.97465168"><ele></ele><time>2015-7-3T17:59:38Z</time></trkpt>
<trkpt lat="46.15633979" lon="5.97468370"><ele></ele><time>2015-7-3T17:59:41Z</time></trkpt>
<trkpt lat="46.15636770" lon="5.97471010"><ele></ele><time>2015-7-3T17:59:44Z</time></trkpt>
<trkpt lat="46.15639502" lon="5.97472955"><ele></ele><time>2015-7-3T17:59:47Z</time></trkpt>
<trkpt lat="46.15642545" lon="5.97475042"><ele></ele><time>2015-7-3T17:59:50Z</time></trkpt>
<trkpt lat="46.15645822" lon="5.97477238"><ele></ele><time>2015-7-3T17:59:53Z</time></trkpt>
<trkpt lat="46.15649602" lon="5.97479300"><ele></ele><time>2015-7-3T17:59:56Z</time></trkpt>
<trkpt lat="46.15653249" lon="5.97481487"><ele></ele><time>2015-7-3T17:59:59Z</time></trkpt>
<trkpt lat="46.15656677" lon="5.97483650"><ele></ele><time>2015-7-3T18:0:2Z</time></trkpt>
<trkpt lat="46.15660038" lon="5.97486399"><ele></ele><time>2015-7-3T18:0:5Z</time></trkpt>
<trkpt lat="46.15662879" lon="5.97489475"><ele></ele><time>2015-7-3T18:0:8Z</time></trkpt>
<trkpt lat="46.15665738" lon="5.97492786"><ele></ele><time>2015-7-3T18:0:11Z</time></trkpt>
<trkpt lat="46.15668369" lon="5.97495343"><ele></ele><time>2015-7-3T18:0:14Z</time></trkpt>
<trkpt lat="46.15671412" lon="5.97497312"><ele></ele><time>2015-7-3T18:0:17Z</time></trkpt>
<trkpt lat="46.15674740" lon="5.97499425"><ele></ele><time>2015-7-3T18:0:20Z</time></trkpt>
<trkpt lat="46.15678654" lon="5.97501956"><ele></ele><time>2015-7-3T18:0:23Z</time></trkpt>
<trkpt lat="46.15682116" lon="5.97503926"><ele></ele><time>2015-7-3T18:0:26Z</time></trkpt>
<trkpt lat="46.15685469" lon="5.97506876"><ele></ele><time>2015-7-3T18:0:29Z</time></trkpt>
<trkpt lat="46.15688855" lon="5.97510036"><ele></ele><time>2015-7-3T18:0:32Z</time></trkpt>
<trkpt lat="46.15692375" lon="5.97513196"><ele></ele><time>2015-7-3T18:0:35Z</time></trkpt>
<trkpt lat="46.15695770" lon="5.97516289"><ele></ele><time>2015-7-3T18:0:38Z</time></trkpt>
<trkpt lat="46.15699098" lon="5.97519273"><ele></ele><time>2015-7-3T18:0:41Z</time></trkpt>
<trkpt lat="46.15701914" lon="5.97521796"><ele></ele><time>2015-7-3T18:0:44Z</time></trkpt>
<trkpt lat="46.15705904" lon="5.97523472"><ele></ele><time>2015-7-3T18:0:47Z</time></trkpt>
<trkpt lat="46.15709659" lon="5.97525300"><ele></ele><time>2015-7-3T18:0:50Z</time></trkpt>
<trkpt lat="46.15713414" lon="5.97527579"><ele></ele><time>2015-7-3T18:0:53Z</time></trkpt>
<trkpt lat="46.15717638" lon="5.97530186"><ele></ele><time>2015-7-3T18:0:56Z</time></trkpt>
<trkpt lat="46.15721854" lon="5.97532894"><ele></ele><time>2015-7-3T18:0:59Z</time></trkpt>
<trkpt lat="46.15725752" lon="5.97535576"><ele></ele><time>2015-7-3T18:1:2Z</time></trkpt>
<trkpt lat="46.15729113" lon="5.97538392"><ele></ele><time>2015-7-3T18:1:5Z</time></trkpt>
<trkpt lat="46.15732575" lon="5.97542114"><ele></ele><time>2015-7-3T18:1:8Z</time></trkpt>
<trkpt lat="46.15735710" lon="5.97546095"><ele></ele><time>2015-7-3T18:1:11Z</time></trkpt>
<trkpt lat="46.15738383" lon="5.97550244"><ele></ele><time>2015-7-3T18:1:14Z</time></trkpt>
<trkpt lat="46.15740898" lon="5.97554418"><ele></ele><time>2015-7-3T18:1:17Z</time></trkpt>
<trkpt lat="46.15743312" lon="5.97558467"><ele></ele><time>2015-7-3T18:1:20Z</time></trkpt>
<trkpt lat="46.15746363" lon="5.97561937"><ele></ele><time>2015-7-3T18:1:23Z</time></trkpt>
<trkpt lat="46.15749758" lon="5.97564862"><ele></ele><time>2015-7-3T18:1:26Z</time></trkpt>
<trkpt lat="46.15753706" lon="5.97567930"><ele></ele><time>2015-7-3T18:1:29Z</time></trkpt>
<trkpt lat="46.15757377" lon="5.97569766"><ele></ele><time>2015-7-3T18:1:32Z</time></trkpt>
<trkpt lat="46.15761283" lon="5.97572548"><ele></ele><time>2015-7-3T18:1:35Z</time></trkpt>
<trkpt lat="46.15765876" lon="5.97576119"><ele></ele><time>2015-7-3T18:1:38Z</time></trkpt>
<trkpt lat="46.15769204" lon="5.97579765"><ele></ele><time>2015-7-3T18:1:41Z</time></trkpt>
<trkpt lat="46.15771894" lon="5.97583688"><ele></ele><time>2015-7-3T18:1:44Z</time></trkpt>
<trkpt lat="46.15774778" lon="5.97587435"><ele></ele><time>2015-7-3T18:1:47Z</time></trkpt>
<trkpt lat="46.15777669" lon="5.97590134"><ele></ele><time>2015-7-3T18:1:50Z</time></trkpt>
<trkpt lat="46.15780737" lon="5.97592363"><ele></ele><time>2015-7-3T18:1:53Z</time></trkpt>
<trkpt lat="46.15783394" lon="5.97594442"><ele></ele><time>2015-7-3T18:1:56Z</time></trkpt>
<trkpt lat="46.15786043" lon="5.97597317"><ele></ele><time>2015-7-3T18:1:59Z</time></trkpt>
<trkpt lat="46.15788432" lon="5.97600603"><ele></ele><time>2015-7-3T18:2:2Z</time></trkpt>
<trkpt lat="46.15790578" lon="5.97603729"><ele></ele><time>2015-7-3T18:2:5Z</time></trkpt>
<trkpt lat="46.15792153" lon="5.97606160"><ele></ele><time>2015-7-3T18:2:8Z</time></trkpt>
<trkpt lat="46.15793260" lon="5.97607945"><ele></ele><time>2015-7-3T18:2:11Z</time></trkpt>
<trkpt lat="46.15794266" lon="5.97609219"><ele></ele><time>2015-7-3T18:2:14Z</time></trkpt>
<trkpt lat="46.15795506" lon="5.97610912"><ele></ele><time>2015-7-3T18:2:17Z</time></trkpt>
<trkpt lat="46.15797233" lon="5.97613578"><ele></ele><time>2015-7-3T18:2:20Z</time></trkpt>
<trkpt lat="46.15798909" lon="5.97616629"><ele></ele><time>2015-7-3T18:2:23Z</time></trkpt>
<trkpt lat="46.15800435" lon="5.97620124"><ele></ele><time>2015-7-3T18:2:26Z</time></trkpt>
<trkpt lat="46.15801524" lon="5.97623846"><ele></ele><time>2015-7-3T18:2:29Z</time></trkpt>
<trkpt lat="46.15802757" lon="5.97627525"><ele></ele><time>2015-7-3T18:2:32Z</time></trkpt>
<trkpt lat="46.15803503" lon="5.97631037"><ele></ele><time>2015-7-3T18:2:35Z</time></trkpt>
<trkpt lat="46.15803855" lon="5.97635505"><ele></ele><time>2015-7-3T18:2:38Z</time></trkpt>
<trkpt lat="46.15804106" lon="5.97641137"><ele></ele><time>2015-7-3T18:2:41Z</time></trkpt>
<trkpt lat="46.15804458" lon="5.97646988"><ele></ele><time>2015-7-3T18:2:44Z</time></trkpt>
<trkpt lat="46.15805405" lon="5.97652755"><ele></ele><time>2015-7-3T18:2:47Z</time></trkpt>
<trkpt lat="46.15806989" lon="5.97658396"><ele></ele><time>2015-7-3T18:2:50Z</time></trkpt>
<trkpt lat="46.15808490" lon="5.97664347"><ele></ele><time>2015-7-3T18:2:53Z</time></trkpt>
<trkpt lat="46.15809948" lon="5.97670767"><ele></ele><time>2015-7-3T18:2:56Z</time></trkpt>
<trkpt lat="46.15810770" lon="5.97677079"><ele></ele><time>2015-7-3T18:2:59Z</time></trkpt>
<trkpt lat="46.15811340" lon="5.97683307"><ele></ele><time>2015-7-3T18:3:2Z</time></trkpt>
<trkpt lat="46.15812228" lon="5.97689576"><ele></ele><time>2015-7-3T18:3:5Z</time></trkpt>
<trkpt lat="46.15812714" lon="5.97695243"><ele></ele><time>2015-7-3T18:3:8Z</time></trkpt>
<trkpt lat="46.15813334" lon="5.97700842"><ele></ele><time>2015-7-3T18:3:11Z</time></trkpt>
<trkpt lat="46.15814013" lon="5.97706407"><ele></ele><time>2015-7-3T18:3:14Z</time></trkpt>
<trkpt lat="46.15814500" lon="5.97712115"><ele></ele><time>2015-7-3T18:3:17Z</time></trkpt>
<trkpt lat="46.15814759" lon="5.97717748"><ele></ele><time>2015-7-3T18:3:20Z</time></trkpt>
<trkpt lat="46.15815489" lon="5.97723599"><ele></ele><time>2015-7-3T18:3:23Z</time></trkpt>
<trkpt lat="46.15816595" lon="5.97729449"><ele></ele><time>2015-7-3T18:3:26Z</time></trkpt>
<trkpt lat="46.15817618" lon="5.97735425"><ele></ele><time>2015-7-3T18:3:29Z</time></trkpt>
<trkpt lat="46.15818372" lon="5.97741494"><ele></ele><time>2015-7-3T18:3:32Z</time></trkpt>
<trkpt lat="46.15818774" lon="5.97747462"><ele></ele><time>2015-7-3T18:3:35Z</time></trkpt>
<trkpt lat="46.15819269" lon="5.97753522"><ele></ele><time>2015-7-3T18:3:38Z</time></trkpt>
<trkpt lat="46.15819814" lon="5.97759532"><ele></ele><time>2015-7-3T18:3:41Z</time></trkpt>
<trkpt lat="46.15819872" lon="5.97765164"><ele></ele><time>2015-7-3T18:3:44Z</time></trkpt>
<trkpt lat="46.15820132" lon="5.97770940"><ele></ele><time>2015-7-3T18:3:47Z</time></trkpt>
<trkpt lat="46.15821054" lon="5.97777310"><ele></ele><time>2015-7-3T18:3:50Z</time></trkpt>
<trkpt lat="46.15821633" lon="5.97783496"><ele></ele><time>2015-7-3T18:3:53Z</time></trkpt>
<trkpt lat="46.15822270" lon="5.97790168"><ele></ele><time>2015-7-3T18:3:56Z</time></trkpt>
<trkpt lat="46.15822605" lon="5.97796454"><ele></ele><time>2015-7-3T18:3:59Z</time></trkpt>
<trkpt lat="46.15823074" lon="5.97802715"><ele></ele><time>2015-7-3T18:4:2Z</time></trkpt>
<trkpt lat="46.15823695" lon="5.97808926"><ele></ele><time>2015-7-3T18:4:5Z</time></trkpt>
<trkpt lat="46.15824189" lon="5.97815196"><ele></ele><time>2015-7-3T18:4:8Z</time></trkpt>
<trkpt lat="46.15824600" lon="5.97821290"><ele></ele><time>2015-7-3T18:4:11Z</time></trkpt>
<trkpt lat="46.15824407" lon="5.97826579"><ele></ele><time>2015-7-3T18:4:14Z</time></trkpt>
<trkpt lat="46.15824457" lon="5.97831926"><ele></ele><time>2015-7-3T18:4:17Z</time></trkpt>
<trkpt lat="46.15824617" lon="5.97837576"><ele></ele><time>2015-7-3T18:4:20Z</time></trkpt>
<trkpt lat="46.15824617" lon="5.97843158"><ele></ele><time>2015-7-3T18:4:23Z</time></trkpt>
<trkpt lat="46.15824617" lon="5.97848698"><ele></ele><time>2015-7-3T18:4:26Z</time></trkpt>
<trkpt lat="46.15825086" lon="5.97854373"><ele></ele><time>2015-7-3T18:4:29Z</time></trkpt>
<trkpt lat="46.15825966" lon="5.97860274"><ele></ele><time>2015-7-3T18:4:32Z</time></trkpt>
<trkpt lat="46.15826368" lon="5.97865538"><ele></ele><time>2015-7-3T18:4:35Z</time></trkpt>
<trkpt lat="46.15826846" lon="5.97870508"><ele></ele><time>2015-7-3T18:4:38Z</time></trkpt>
<trkpt lat="46.15827793" lon="5.97875537"><ele></ele><time>2015-7-3T18:4:41Z</time></trkpt>
<trkpt lat="46.15828640" lon="5.97880692"><ele></ele><time>2015-7-3T18:4:44Z</time></trkpt>
<trkpt lat="46.15829067" lon="5.97886375"><ele></ele><time>2015-7-3T18:4:47Z</time></trkpt>
<trkpt lat="46.15828774" lon="5.97892360"><ele></ele><time>2015-7-3T18:4:50Z</time></trkpt>
<trkpt lat="46.15828766" lon="5.97898529"><ele></ele><time>2015-7-3T18:4:53Z</time></trkpt>
<trkpt lat="46.15828782" lon="5.97903759"><ele></ele><time>2015-7-3T18:4:56Z</time></trkpt>
<trkpt lat="46.15829227" lon="5.97908906"><ele></ele><time>2015-7-3T18:4:59Z</time></trkpt>
<trkpt lat="46.15829059" lon="5.97914455"><ele></ele><time>2015-7-3T18:5:2Z</time></trkpt>
<trkpt lat="46.15828875" lon="5.97919484"><ele></ele><time>2015-7-3T18:5:5Z</time></trkpt>
<trkpt lat="46.15828196" lon="5.97924513"><ele></ele><time>2015-7-3T18:5:8Z</time></trkpt>
<trkpt lat="46.15826846" lon="5.97929559"><ele></ele><time>2015-7-3T18:5:11Z</time></trkpt>
<trkpt lat="46.15825078" lon="5.97934982"><ele></ele><time>2015-7-3T18:5:14Z</time></trkpt>
<trkpt lat="46.15823644" lon="5.97940070"><ele></ele><time>2015-7-3T18:5:17Z</time></trkpt>
<trkpt lat="46.15822303" lon="5.97945736"><ele></ele><time>2015-7-3T18:5:20Z</time></trkpt>
<trkpt lat="46.15821574" lon="5.97950757"><ele></ele><time>2015-7-3T18:5:23Z</time></trkpt>
<trkpt lat="46.15820359" lon="5.97955903"><ele></ele><time>2015-7-3T18:5:26Z</time></trkpt>
<trkpt lat="46.15818548" lon="5.97961234"><ele></ele><time>2015-7-3T18:5:29Z</time></trkpt>
<trkpt lat="46.15817592" lon="5.97965576"><ele></ele><time>2015-7-3T18:5:32Z</time></trkpt>
<trkpt lat="46.15815924" lon="5.97969574"><ele></ele><time>2015-7-3T18:5:35Z</time></trkpt>
<trkpt lat="46.15814508" lon="5.97973430"><ele></ele><time>2015-7-3T18:5:38Z</time></trkpt>
<trkpt lat="46.15812748" lon="5.97977059"><ele></ele><time>2015-7-3T18:5:41Z</time></trkpt>
<trkpt lat="46.15810719" lon="5.97980428"><ele></ele><time>2015-7-3T18:5:44Z</time></trkpt>
<trkpt lat="46.15809755" lon="5.97984100"><ele></ele><time>2015-7-3T18:5:47Z</time></trkpt>
<trkpt lat="46.15808699" lon="5.97988903"><ele></ele><time>2015-7-3T18:5:50Z</time></trkpt>
<trkpt lat="46.15807333" lon="5.97993395"><ele></ele><time>2015-7-3T18:5:53Z</time></trkpt>
<trkpt lat="46.15805967" lon="5.97997779"><ele></ele><time>2015-7-3T18:5:56Z</time></trkpt>
<trkpt lat="46.15804232" lon="5.98003110"><ele></ele><time>2015-7-3T18:5:59Z</time></trkpt>
<trkpt lat="46.15802673" lon="5.98008114"><ele></ele><time>2015-7-3T18:6:2Z</time></trkpt>
<trkpt lat="46.15801625" lon="5.98012623"><ele></ele><time>2015-7-3T18:6:5Z</time></trkpt>
<trkpt lat="46.15799957" lon="5.98017946"><ele></ele><time>2015-7-3T18:6:8Z</time></trkpt>
<trkpt lat="46.15798842" lon="5.98022589"><ele></ele><time>2015-7-3T18:6:11Z</time></trkpt>
<trkpt lat="46.15798079" lon="5.98026797"><ele></ele><time>2015-7-3T18:6:14Z</time></trkpt>
<trkpt lat="46.15796939" lon="5.98030812"><ele></ele><time>2015-7-3T18:6:17Z</time></trkpt>
<trkpt lat="46.15795699" lon="5.98035037"><ele></ele><time>2015-7-3T18:6:20Z</time></trkpt>
<trkpt lat="46.15794157" lon="5.98040267"><ele></ele><time>2015-7-3T18:6:23Z</time></trkpt>
<trkpt lat="46.15792589" lon="5.98044785"><ele></ele><time>2015-7-3T18:6:26Z</time></trkpt>
<trkpt lat="46.15791483" lon="5.98048624"><ele></ele><time>2015-7-3T18:6:29Z</time></trkpt>
<trkpt lat="46.15790050" lon="5.98052362"><ele></ele><time>2015-7-3T18:6:32Z</time></trkpt>
<trkpt lat="46.15788206" lon="5.98056285"><ele></ele><time>2015-7-3T18:6:35Z</time></trkpt>
<trkpt lat="46.15786965" lon="5.98060518"><ele></ele><time>2015-7-3T18:6:38Z</time></trkpt>
<trkpt lat="46.15786487" lon="5.98064767"><ele></ele><time>2015-7-3T18:6:41Z</time></trkpt>
<trkpt lat="46.15786378" lon="5.98068824"><ele></ele><time>2015-7-3T18:6:44Z</time></trkpt>
<trkpt lat="46.15786613" lon="5.98072219"><ele></ele><time>2015-7-3T18:6:47Z</time></trkpt>
<trkpt lat="46.15785867" lon="5.98075974"><ele></ele><time>2015-7-3T18:6:50Z</time></trkpt>
<trkpt lat="46.15784300" lon="5.98079955"><ele></ele><time>2015-7-3T18:6:53Z</time></trkpt>
<trkpt lat="46.15782439" lon="5.98084238"><ele></ele><time>2015-7-3T18:6:56Z</time></trkpt>
<trkpt lat="46.15780285" lon="5.98088119"><ele></ele><time>2015-7-3T18:6:59Z</time></trkpt>
<trkpt lat="46.15778164" lon="5.98092025"><ele></ele><time>2015-7-3T18:7:2Z</time></trkpt>
<trkpt lat="46.15775893" lon="5.98095923"><ele></ele><time>2015-7-3T18:7:5Z</time></trkpt>
<trkpt lat="46.15773420" lon="5.98099636"><ele></ele><time>2015-7-3T18:7:8Z</time></trkpt>
<trkpt lat="46.15770679" lon="5.98102779"><ele></ele><time>2015-7-3T18:7:11Z</time></trkpt>
<trkpt lat="46.15767905" lon="5.98104984"><ele></ele><time>2015-7-3T18:7:14Z</time></trkpt>
<trkpt lat="46.15764376" lon="5.98106794"><ele></ele><time>2015-7-3T18:7:17Z</time></trkpt>
<trkpt lat="46.15760822" lon="5.98108219"><ele></ele><time>2015-7-3T18:7:20Z</time></trkpt>
<trkpt lat="46.15757125" lon="5.98109116"><ele></ele><time>2015-7-3T18:7:23Z</time></trkpt>
<trkpt lat="46.15753647" lon="5.98109904"><ele></ele><time>2015-7-3T18:7:26Z</time></trkpt>
<trkpt lat="46.15750009" lon="5.98110373"><ele></ele><time>2015-7-3T18:7:29Z</time></trkpt>
<trkpt lat="46.15746338" lon="5.98110683"><ele></ele><time>2015-7-3T18:7:32Z</time></trkpt>
<trkpt lat="46.15742767" lon="5.98110775"><ele></ele><time>2015-7-3T18:7:35Z</time></trkpt>
<trkpt lat="46.15739264" lon="5.98110633"><ele></ele><time>2015-7-3T18:7:38Z</time></trkpt>
<trkpt lat="46.15736003" lon="5.98110214"><ele></ele><time>2015-7-3T18:7:41Z</time></trkpt>
<trkpt lat="46.15733145" lon="5.98109988"><ele></ele><time>2015-7-3T18:7:44Z</time></trkpt>
<trkpt lat="46.15730362" lon="5.98109460"><ele></ele><time>2015-7-3T18:7:47Z</time></trkpt>
<trkpt lat="46.15727445" lon="5.98108680"><ele></ele><time>2015-7-3T18:7:50Z</time></trkpt>
<trkpt lat="46.15724486" lon="5.98107800"><ele></ele><time>2015-7-3T18:7:53Z</time></trkpt>
<trkpt lat="46.15721502" lon="5.98106869"><ele></ele><time>2015-7-3T18:7:56Z</time></trkpt>
<trkpt lat="46.15718535" lon="5.98105696"><ele></ele><time>2015-7-3T18:7:59Z</time></trkpt>
<trkpt lat="46.15715568" lon="5.98104279"><ele></ele><time>2015-7-3T18:8:2Z</time></trkpt>
<trkpt lat="46.15712559" lon="5.98102653"><ele></ele><time>2015-7-3T18:8:5Z</time></trkpt>
<trkpt lat="46.15709466" lon="5.98100985"><ele></ele><time>2015-7-3T18:8:8Z</time></trkpt>
<trkpt lat="46.15706256" lon="5.98099393"><ele></ele><time>2015-7-3T18:8:11Z</time></trkpt>
<trkpt lat="46.15702895" lon="5.98097775"><ele></ele><time>2015-7-3T18:8:14Z</time></trkpt>
<trkpt lat="46.15699483" lon="5.98096157"><ele></ele><time>2015-7-3T18:8:17Z</time></trkpt>
<trkpt lat="46.15695879" lon="5.98094758"><ele></ele><time>2015-7-3T18:8:20Z</time></trkpt>
<trkpt lat="46.15692249" lon="5.98093324"><ele></ele><time>2015-7-3T18:8:23Z</time></trkpt>
<trkpt lat="46.15688796" lon="5.98091648"><ele></ele><time>2015-7-3T18:8:26Z</time></trkpt>
<trkpt lat="46.15685452" lon="5.98089837"><ele></ele><time>2015-7-3T18:8:29Z</time></trkpt>
<trkpt lat="46.15682283" lon="5.98087985"><ele></ele><time>2015-7-3T18:8:32Z</time></trkpt>
<trkpt lat="46.15679132" lon="5.98086753"><ele></ele><time>2015-7-3T18:8:35Z</time></trkpt>
<trkpt lat="46.15675695" lon="5.98086334"><ele></ele><time>2015-7-3T18:8:38Z</time></trkpt>
<trkpt lat="46.15672133" lon="5.98086082"><ele></ele><time>2015-7-3T18:8:41Z</time></trkpt>
<trkpt lat="46.15669275" lon="5.98086376"><ele></ele><time>2015-7-3T18:8:44Z</time></trkpt>
<trkpt lat="46.15666458" lon="5.98086703"><ele></ele><time>2015-7-3T18:8:47Z</time></trkpt>
<trkpt lat="46.15663667" lon="5.98087172"><ele></ele><time>2015-7-3T18:8:50Z</time></trkpt>
<trkpt lat="46.15661169" lon="5.98087893"><ele></ele><time>2015-7-3T18:8:53Z</time></trkpt>
<trkpt lat="46.15658982" lon="5.98088672"><ele></ele><time>2015-7-3T18:8:56Z</time></trkpt>
<trkpt lat="46.15657213" lon="5.98089050"><ele></ele><time>2015-7-3T18:8:59Z</time></trkpt>
<trkpt lat="46.15655344" lon="5.98089192"><ele></ele><time>2015-7-3T18:9:2Z</time></trkpt>
<trkpt lat="46.15653433" lon="5.98090114"><ele></ele><time>2015-7-3T18:9:5Z</time></trkpt>
<trkpt lat="46.15651723" lon="5.98092034"><ele></ele><time>2015-7-3T18:9:8Z</time></trkpt>
<trkpt lat="46.15651153" lon="5.98095093"><ele></ele><time>2015-7-3T18:9:11Z</time></trkpt>
<trkpt lat="46.15651413" lon="5.98098756"><ele></ele><time>2015-7-3T18:9:14Z</time></trkpt>
<trkpt lat="46.15651673" lon="5.98102494"><ele></ele><time>2015-7-3T18:9:17Z</time></trkpt>
<trkpt lat="46.15652570" lon="5.98106702"><ele></ele><time>2015-7-3T18:9:20Z</time></trkpt>
<trkpt lat="46.15653416" lon="5.98110759"><ele></ele><time>2015-7-3T18:9:23Z</time></trkpt>
<trkpt lat="46.15654464" lon="5.98115335"><ele></ele><time>2015-7-3T18:9:26Z</time></trkpt>
<trkpt lat="46.15655579" lon="5.98120205"><ele></ele><time>2015-7-3T18:9:29Z</time></trkpt>
<trkpt lat="46.15656685" lon="5.98124974"><ele></ele><time>2015-7-3T18:9:32Z</time></trkpt>
<trkpt lat="46.15657993" lon="5.98129819"><ele></ele><time>2015-7-3T18:9:35Z</time></trkpt>
<trkpt lat="46.15658948" lon="5.98134195"><ele></ele><time>2015-7-3T18:9:38Z</time></trkpt>
<trkpt lat="46.15660004" lon="5.98138838"><ele></ele><time>2015-7-3T18:9:41Z</time></trkpt>
<trkpt lat="46.15660725" lon="5.98143624"><ele></ele><time>2015-7-3T18:9:44Z</time></trkpt>
<trkpt lat="46.15660306" lon="5.98148678"><ele></ele><time>2015-7-3T18:9:47Z</time></trkpt>
<trkpt lat="46.15659325" lon="5.98154018"><ele></ele><time>2015-7-3T18:9:50Z</time></trkpt>
<trkpt lat="46.15658370" lon="5.98159533"><ele></ele><time>2015-7-3T18:9:53Z</time></trkpt>
<trkpt lat="46.15657515" lon="5.98165157"><ele></ele><time>2015-7-3T18:9:56Z</time></trkpt>
<trkpt lat="46.15656819" lon="5.98170865"><ele></ele><time>2015-7-3T18:9:59Z</time></trkpt>
<trkpt lat="46.15656040" lon="5.98176632"><ele></ele><time>2015-7-3T18:10:2Z</time></trkpt>
<trkpt lat="46.15655302" lon="5.98182416"><ele></ele><time>2015-7-3T18:10:5Z</time></trkpt>
<trkpt lat="46.15654766" lon="5.98188224"><ele></ele><time>2015-7-3T18:10:8Z</time></trkpt>
<trkpt lat="46.15654003" lon="5.98193488"><ele></ele><time>2015-7-3T18:10:11Z</time></trkpt>
<trkpt lat="46.15653357" lon="5.98198886"><ele></ele><time>2015-7-3T18:10:14Z</time></trkpt>
<trkpt lat="46.15652779" lon="5.98204284"><ele></ele><time>2015-7-3T18:10:17Z</time></trkpt>
<trkpt lat="46.15652318" lon="5.98209137"><ele></ele><time>2015-7-3T18:10:20Z</time></trkpt>
<trkpt lat="46.15651798" lon="5.98214007"><ele></ele><time>2015-7-3T18:10:23Z</time></trkpt>
<trkpt lat="46.15651203" lon="5.98218927"><ele></ele><time>2015-7-3T18:10:26Z</time></trkpt>
<trkpt lat="46.15650323" lon="5.98223646"><ele></ele><time>2015-7-3T18:10:29Z</time></trkpt>
<trkpt lat="46.15649116" lon="5.98228332"><ele></ele><time>2015-7-3T18:10:32Z</time></trkpt>
<trkpt lat="46.15647784" lon="5.98232875"><ele></ele><time>2015-7-3T18:10:35Z</time></trkpt>
<trkpt lat="46.15646518" lon="5.98236060"><ele></ele><time>2015-7-3T18:10:38Z</time></trkpt>
<trkpt lat="46.15645319" lon="5.98239496"><ele></ele><time>2015-7-3T18:10:41Z</time></trkpt>
<trkpt lat="46.15644045" lon="5.98243235"><ele></ele><time>2015-7-3T18:10:44Z</time></trkpt>
<trkpt lat="46.15642503" lon="5.98247333"><ele></ele><time>2015-7-3T18:10:47Z</time></trkpt>
<trkpt lat="46.15641363" lon="5.98251583"><ele></ele><time>2015-7-3T18:10:50Z</time></trkpt>
<trkpt lat="46.15640273" lon="5.98256453"><ele></ele><time>2015-7-3T18:10:53Z</time></trkpt>
<trkpt lat="46.15640827" lon="5.98261868"><ele></ele><time>2015-7-3T18:10:56Z</time></trkpt>
<trkpt lat="46.15641732" lon="5.98267416"><ele></ele><time>2015-7-3T18:10:59Z</time></trkpt>
<trkpt lat="46.15642763" lon="5.98272999"><ele></ele><time>2015-7-3T18:11:2Z</time></trkpt>
<trkpt lat="46.15643836" lon="5.98278807"><ele></ele><time>2015-7-3T18:11:5Z</time></trkpt>
<trkpt lat="46.15644674" lon="5.98284926"><ele></ele><time>2015-7-3T18:11:8Z</time></trkpt>
<trkpt lat="46.15645562" lon="5.98291573"><ele></ele><time>2015-7-3T18:11:11Z</time></trkpt>
<trkpt lat="46.15645504" lon="5.98297516"><ele></ele><time>2015-7-3T18:11:14Z</time></trkpt>
<trkpt lat="46.15645847" lon="5.98303794"><ele></ele><time>2015-7-3T18:11:17Z</time></trkpt>
<trkpt lat="46.15646317" lon="5.98310458"><ele></ele><time>2015-7-3T18:11:20Z</time></trkpt>
<trkpt lat="46.15646099" lon="5.98316283"><ele></ele><time>2015-7-3T18:11:23Z</time></trkpt>
<trkpt lat="46.15646015" lon="5.98322184"><ele></ele><time>2015-7-3T18:11:26Z</time></trkpt>
<trkpt lat="46.15645898" lon="5.98328085"><ele></ele><time>2015-7-3T18:11:29Z</time></trkpt>
<trkpt lat="46.15645747" lon="5.98334145"><ele></ele><time>2015-7-3T18:11:32Z</time></trkpt>
<trkpt lat="46.15645956" lon="5.98340699"><ele></ele><time>2015-7-3T18:11:35Z</time></trkpt>
<trkpt lat="46.15646074" lon="5.98347237"><ele></ele><time>2015-7-3T18:11:38Z</time></trkpt>
<trkpt lat="46.15646308" lon="5.98353918"><ele></ele><time>2015-7-3T18:11:41Z</time></trkpt>
<trkpt lat="46.15646342" lon="5.98360280"><ele></ele><time>2015-7-3T18:11:44Z</time></trkpt>
<trkpt lat="46.15646258" lon="5.98367186"><ele></ele><time>2015-7-3T18:11:47Z</time></trkpt>
<trkpt lat="46.15645437" lon="5.98373389"><ele></ele><time>2015-7-3T18:11:50Z</time></trkpt>
<trkpt lat="46.15645126" lon="5.98380086"><ele></ele><time>2015-7-3T18:11:53Z</time></trkpt>
<trkpt lat="46.15644297" lon="5.98386129"><ele></ele><time>2015-7-3T18:11:56Z</time></trkpt>
<trkpt lat="46.15644003" lon="5.98392516"><ele></ele><time>2015-7-3T18:11:59Z</time></trkpt>
<trkpt lat="46.15643953" lon="5.98399239"><ele></ele><time>2015-7-3T18:12:2Z</time></trkpt>
<trkpt lat="46.15643098" lon="5.98405307"><ele></ele><time>2015-7-3T18:12:5Z</time></trkpt>
<trkpt lat="46.15642679" lon="5.98411384"><ele></ele><time>2015-7-3T18:12:8Z</time></trkpt>
<trkpt lat="46.15642327" lon="5.98417729"><ele></ele><time>2015-7-3T18:12:11Z</time></trkpt>
<trkpt lat="46.15642603" lon="5.98424418"><ele></ele><time>2015-7-3T18:12:14Z</time></trkpt>
<trkpt lat="46.15642847" lon="5.98431056"><ele></ele><time>2015-7-3T18:12:17Z</time></trkpt>
<trkpt lat="46.15643182" lon="5.98437653"><ele></ele><time>2015-7-3T18:12:20Z</time></trkpt>
<trkpt lat="46.15643567" lon="5.98444258"><ele></ele><time>2015-7-3T18:12:23Z</time></trkpt>
<trkpt lat="46.15643928" lon="5.98450804"><ele></ele><time>2015-7-3T18:12:26Z</time></trkpt>
<trkpt lat="46.15644230" lon="5.98457376"><ele></ele><time>2015-7-3T18:12:29Z</time></trkpt>
<trkpt lat="46.15644506" lon="5.98464064"><ele></ele><time>2015-7-3T18:12:32Z</time></trkpt>
<trkpt lat="46.15644867" lon="5.98470795"><ele></ele><time>2015-7-3T18:12:35Z</time></trkpt>
<trkpt lat="46.15645219" lon="5.98477484"><ele></ele><time>2015-7-3T18:12:38Z</time></trkpt>
<trkpt lat="46.15645654" lon="5.98484315"><ele></ele><time>2015-7-3T18:12:41Z</time></trkpt>
<trkpt lat="46.15645495" lon="5.98490417"><ele></ele><time>2015-7-3T18:12:44Z</time></trkpt>
<trkpt lat="46.15645998" lon="5.98496947"><ele></ele><time>2015-7-3T18:12:47Z</time></trkpt>
<trkpt lat="46.15646442" lon="5.98503769"><ele></ele><time>2015-7-3T18:12:50Z</time></trkpt>
<trkpt lat="46.15646778" lon="5.98510710"><ele></ele><time>2015-7-3T18:12:53Z</time></trkpt>
<trkpt lat="46.15647172" lon="5.98517784"><ele></ele><time>2015-7-3T18:12:56Z</time></trkpt>
<trkpt lat="46.15647507" lon="5.98525076"><ele></ele><time>2015-7-3T18:12:59Z</time></trkpt>
<trkpt lat="46.15647758" lon="5.98532335"><ele></ele><time>2015-7-3T18:13:2Z</time></trkpt>
<trkpt lat="46.15648043" lon="5.98539636"><ele></ele><time>2015-7-3T18:13:5Z</time></trkpt>
<trkpt lat="46.15648379" lon="5.98546953"><ele></ele><time>2015-7-3T18:13:8Z</time></trkpt>
<trkpt lat="46.15648773" lon="5.98554245"><ele></ele><time>2015-7-3T18:13:11Z</time></trkpt>
<trkpt lat="46.15649167" lon="5.98561412"><ele></ele><time>2015-7-3T18:13:14Z</time></trkpt>
<trkpt lat="46.15649544" lon="5.98568419"><ele></ele><time>2015-7-3T18:13:17Z</time></trkpt>
<trkpt lat="46.15649854" lon="5.98575342"><ele></ele><time>2015-7-3T18:13:20Z</time></trkpt>
<trkpt lat="46.15650147" lon="5.98582383"><ele></ele><time>2015-7-3T18:13:23Z</time></trkpt>
<trkpt lat="46.15650399" lon="5.98589458"><ele></ele><time>2015-7-3T18:13:26Z</time></trkpt>
<trkpt lat="46.15650734" lon="5.98596415"><ele></ele><time>2015-7-3T18:13:29Z</time></trkpt>
<trkpt lat="46.15651128" lon="5.98603422"><ele></ele><time>2015-7-3T18:13:32Z</time></trkpt>
<trkpt lat="46.15651430" lon="5.98610546"><ele></ele><time>2015-7-3T18:13:35Z</time></trkpt>
<trkpt lat="46.15651589" lon="5.98617730"><ele></ele><time>2015-7-3T18:13:38Z</time></trkpt>
<trkpt lat="46.15651849" lon="5.98624972"><ele></ele><time>2015-7-3T18:13:41Z</time></trkpt>
<trkpt lat="46.15652109" lon="5.98632289"><ele></ele><time>2015-7-3T18:13:44Z</time></trkpt>
<trkpt lat="46.15652368" lon="5.98639598"><ele></ele><time>2015-7-3T18:13:47Z</time></trkpt>
<trkpt lat="46.15652695" lon="5.98646924"><ele></ele><time>2015-7-3T18:13:50Z</time></trkpt>
<trkpt lat="46.15653014" lon="5.98654199"><ele></ele><time>2015-7-3T18:13:53Z</time></trkpt>
<trkpt lat="46.15652544" lon="5.98661425"><ele></ele><time>2015-7-3T18:13:56Z</time></trkpt>
<trkpt lat="46.15652846" lon="5.98668398"><ele></ele><time>2015-7-3T18:13:59Z</time></trkpt>
<trkpt lat="46.15653165" lon="5.98675464"><ele></ele><time>2015-7-3T18:14:2Z</time></trkpt>
<trkpt lat="46.15653408" lon="5.98682622"><ele></ele><time>2015-7-3T18:14:5Z</time></trkpt>
<trkpt lat="46.15653634" lon="5.98689764"><ele></ele><time>2015-7-3T18:14:8Z</time></trkpt>
<trkpt lat="46.15653927" lon="5.98696863"><ele></ele><time>2015-7-3T18:14:11Z</time></trkpt>
<trkpt lat="46.15654179" lon="5.98703988"><ele></ele><time>2015-7-3T18:14:14Z</time></trkpt>
<trkpt lat="46.15654347" lon="5.98711154"><ele></ele><time>2015-7-3T18:14:17Z</time></trkpt>
<trkpt lat="46.15654539" lon="5.98718438"><ele></ele><time>2015-7-3T18:14:20Z</time></trkpt>
<trkpt lat="46.15654648" lon="5.98725789"><ele></ele><time>2015-7-3T18:14:23Z</time></trkpt>
<trkpt lat="46.15654824" lon="5.98733216"><ele></ele><time>2015-7-3T18:14:26Z</time></trkpt>
<trkpt lat="46.15655143" lon="5.98740692"><ele></ele><time>2015-7-3T18:14:29Z</time></trkpt>
<trkpt lat="46.15655453" lon="5.98748244"><ele></ele><time>2015-7-3T18:14:32Z</time></trkpt>
<trkpt lat="46.15655730" lon="5.98755838"><ele></ele><time>2015-7-3T18:14:35Z</time></trkpt>
<trkpt lat="46.15655939" lon="5.98763474"><ele></ele><time>2015-7-3T18:14:38Z</time></trkpt>
<trkpt lat="46.15656123" lon="5.98771152"><ele></ele><time>2015-7-3T18:14:41Z</time></trkpt>
<trkpt lat="46.15656316" lon="5.98778838"><ele></ele><time>2015-7-3T18:14:44Z</time></trkpt>
<trkpt lat="46.15656517" lon="5.98786483"><ele></ele><time>2015-7-3T18:14:47Z</time></trkpt>
<trkpt lat="46.15656308" lon="5.98794378"><ele></ele><time>2015-7-3T18:14:50Z</time></trkpt>
<trkpt lat="46.15656174" lon="5.98802199"><ele></ele><time>2015-7-3T18:14:53Z</time></trkpt>
<trkpt lat="46.15656157" lon="5.98810019"><ele></ele><time>2015-7-3T18:14:56Z</time></trkpt>
<trkpt lat="46.15656509" lon="5.98817496"><ele></ele><time>2015-7-3T18:14:59Z</time></trkpt>
<trkpt lat="46.15656408" lon="5.98825123"><ele></ele><time>2015-7-3T18:15:2Z</time></trkpt>
<trkpt lat="46.15656283" lon="5.98832843"><ele></ele><time>2015-7-3T18:15:5Z</time></trkpt>
<trkpt lat="46.15656258" lon="5.98840445"><ele></ele><time>2015-7-3T18:15:8Z</time></trkpt>
<trkpt lat="46.15656274" lon="5.98848064"><ele></ele><time>2015-7-3T18:15:11Z</time></trkpt>
<trkpt lat="46.15656283" lon="5.98855415"><ele></ele><time>2015-7-3T18:15:14Z</time></trkpt>
<trkpt lat="46.15655545" lon="5.98861610"><ele></ele><time>2015-7-3T18:15:17Z</time></trkpt>
<trkpt lat="46.15654782" lon="5.98868156"><ele></ele><time>2015-7-3T18:15:20Z</time></trkpt>
<trkpt lat="46.15654129" lon="5.98875750"><ele></ele><time>2015-7-3T18:15:23Z</time></trkpt>
<trkpt lat="46.15654036" lon="5.98882866"><ele></ele><time>2015-7-3T18:15:26Z</time></trkpt>
<trkpt lat="46.15654238" lon="5.98889806"><ele></ele><time>2015-7-3T18:15:29Z</time></trkpt>
<trkpt lat="46.15654623" lon="5.98896696"><ele></ele><time>2015-7-3T18:15:32Z</time></trkpt>
<trkpt lat="46.15655235" lon="5.98903435"><ele></ele><time>2015-7-3T18:15:35Z</time></trkpt>
<trkpt lat="46.15655520" lon="5.98910208"><ele></ele><time>2015-7-3T18:15:38Z</time></trkpt>
<trkpt lat="46.15655780" lon="5.98916746"><ele></ele><time>2015-7-3T18:15:41Z</time></trkpt>
<trkpt lat="46.15655939" lon="5.98923309"><ele></ele><time>2015-7-3T18:15:44Z</time></trkpt>
<trkpt lat="46.15655520" lon="5.98928983"><ele></ele><time>2015-7-3T18:15:47Z</time></trkpt>
<trkpt lat="46.15655369" lon="5.98934834"><ele></ele><time>2015-7-3T18:15:50Z</time></trkpt>
<trkpt lat="46.15655906" lon="5.98941489"><ele></ele><time>2015-7-3T18:15:53Z</time></trkpt>
<trkpt lat="46.15656157" lon="5.98948396"><ele></ele><time>2015-7-3T18:15:56Z</time></trkpt>
<trkpt lat="46.15656182" lon="5.98955336"><ele></ele><time>2015-7-3T18:15:59Z</time></trkpt>
<trkpt lat="46.15656492" lon="5.98961757"><ele></ele><time>2015-7-3T18:16:2Z</time></trkpt>
<trkpt lat="46.15656735" lon="5.98968118"><ele></ele><time>2015-7-3T18:16:5Z</time></trkpt>
<trkpt lat="46.15656937" lon="5.98974690"><ele></ele><time>2015-7-3T18:16:8Z</time></trkpt>
<trkpt lat="46.15657037" lon="5.98981345"><ele></ele><time>2015-7-3T18:16:11Z</time></trkpt>
<trkpt lat="46.15657247" lon="5.98988042"><ele></ele><time>2015-7-3T18:16:14Z</time></trkpt>
<trkpt lat="46.15656476" lon="5.98995594"><ele></ele><time>2015-7-3T18:16:17Z</time></trkpt>
<trkpt lat="46.15655906" lon="5.99002426"><ele></ele><time>2015-7-3T18:16:20Z</time></trkpt>
<trkpt lat="46.15655780" lon="5.99008997"><ele></ele><time>2015-7-3T18:16:23Z</time></trkpt>
<trkpt lat="46.15655788" lon="5.99014554"><ele></ele><time>2015-7-3T18:16:26Z</time></trkpt>
<trkpt lat="46.15655059" lon="5.99020958"><ele></ele><time>2015-7-3T18:16:29Z</time></trkpt>
<trkpt lat="46.15654590" lon="5.99027496"><ele></ele><time>2015-7-3T18:16:32Z</time></trkpt>
<trkpt lat="46.15653919" lon="5.99033992"><ele></ele><time>2015-7-3T18:16:35Z</time></trkpt>
<trkpt lat="46.15653165" lon="5.99040580"><ele></ele><time>2015-7-3T18:16:38Z</time></trkpt>
<trkpt lat="46.15652293" lon="5.99047034"><ele></ele><time>2015-7-3T18:16:41Z</time></trkpt>
<trkpt lat="46.15651480" lon="5.99053496"><ele></ele><time>2015-7-3T18:16:44Z</time></trkpt>
<trkpt lat="46.15650424" lon="5.99060018"><ele></ele><time>2015-7-3T18:16:47Z</time></trkpt>
<trkpt lat="46.15648764" lon="5.99065784"><ele></ele><time>2015-7-3T18:16:50Z</time></trkpt>
<trkpt lat="46.15647482" lon="5.99071870"><ele></ele><time>2015-7-3T18:16:53Z</time></trkpt>
<trkpt lat="46.15646065" lon="5.99077972"><ele></ele><time>2015-7-3T18:16:56Z</time></trkpt>
<trkpt lat="46.15644422" lon="5.99084107"><ele></ele><time>2015-7-3T18:16:59Z</time></trkpt>
<trkpt lat="46.15642553" lon="5.99090192"><ele></ele><time>2015-7-3T18:17:2Z</time></trkpt>
<trkpt lat="46.15640659" lon="5.99096194"><ele></ele><time>2015-7-3T18:17:5Z</time></trkpt>
<trkpt lat="46.15638186" lon="5.99101382"><ele></ele><time>2015-7-3T18:17:8Z</time></trkpt>
<trkpt lat="46.15636468" lon="5.99107174"><ele></ele><time>2015-7-3T18:17:11Z</time></trkpt>
<trkpt lat="46.15634574" lon="5.99112815"><ele></ele><time>2015-7-3T18:17:14Z</time></trkpt>
<trkpt lat="46.15632637" lon="5.99118398"><ele></ele><time>2015-7-3T18:17:17Z</time></trkpt>
<trkpt lat="46.15630626" lon="5.99124072"><ele></ele><time>2015-7-3T18:17:20Z</time></trkpt>
<trkpt lat="46.15628656" lon="5.99129587"><ele></ele><time>2015-7-3T18:17:23Z</time></trkpt>
<trkpt lat="46.15626720" lon="5.99135212"><ele></ele><time>2015-7-3T18:17:26Z</time></trkpt>
<trkpt lat="46.15624423" lon="5.99140794"><ele></ele><time>2015-7-3T18:17:29Z</time></trkpt>
<trkpt lat="46.15621925" lon="5.99145957"><ele></ele><time>2015-7-3T18:17:32Z</time></trkpt>
<trkpt lat="46.15619394" lon="5.99151188"><ele></ele><time>2015-7-3T18:17:35Z</time></trkpt>
<trkpt lat="46.15616972" lon="5.99156225"><ele></ele><time>2015-7-3T18:17:38Z</time></trkpt>
<trkpt lat="46.15614373" lon="5.99161154"><ele></ele><time>2015-7-3T18:17:41Z</time></trkpt>
<trkpt lat="46.15611599" lon="5.99166225"><ele></ele><time>2015-7-3T18:17:44Z</time></trkpt>
<trkpt lat="46.15608875" lon="5.99171036"><ele></ele><time>2015-7-3T18:17:47Z</time></trkpt>
<trkpt lat="46.15605916" lon="5.99175503"><ele></ele><time>2015-7-3T18:17:50Z</time></trkpt>
<trkpt lat="46.15602840" lon="5.99179946"><ele></ele><time>2015-7-3T18:17:53Z</time></trkpt>
<trkpt lat="46.15599839" lon="5.99184489"><ele></ele><time>2015-7-3T18:17:56Z</time></trkpt>
<trkpt lat="46.15596905" lon="5.99188948"><ele></ele><time>2015-7-3T18:17:59Z</time></trkpt>
<trkpt lat="46.15593972" lon="5.99193525"><ele></ele><time>2015-7-3T18:18:2Z</time></trkpt>
<trkpt lat="46.15590887" lon="5.99198118"><ele></ele><time>2015-7-3T18:18:5Z</time></trkpt>
<trkpt lat="46.15587836" lon="5.99202652"><ele></ele><time>2015-7-3T18:18:8Z</time></trkpt>
<trkpt lat="46.15584576" lon="5.99207103"><ele></ele><time>2015-7-3T18:18:11Z</time></trkpt>
<trkpt lat="46.15581323" lon="5.99211562"><ele></ele><time>2015-7-3T18:18:14Z</time></trkpt>
<trkpt lat="46.15578189" lon="5.99216072"><ele></ele><time>2015-7-3T18:18:17Z</time></trkpt>
<trkpt lat="46.15575096" lon="5.99220665"><ele></ele><time>2015-7-3T18:18:20Z</time></trkpt>
<trkpt lat="46.15571986" lon="5.99225242"><ele></ele><time>2015-7-3T18:18:23Z</time></trkpt>
<trkpt lat="46.15568709" lon="5.99229609"><ele></ele><time>2015-7-3T18:18:26Z</time></trkpt>
<trkpt lat="46.15565423" lon="5.99233925"><ele></ele><time>2015-7-3T18:18:29Z</time></trkpt>
<trkpt lat="46.15562229" lon="5.99238359"><ele></ele><time>2015-7-3T18:18:32Z</time></trkpt>
<trkpt lat="46.15559019" lon="5.99242793"><ele></ele><time>2015-7-3T18:18:35Z</time></trkpt>
<trkpt lat="46.15555733" lon="5.99247194"><ele></ele><time>2015-7-3T18:18:38Z</time></trkpt>
<trkpt lat="46.15552448" lon="5.99251586"><ele></ele><time>2015-7-3T18:18:41Z</time></trkpt>
<trkpt lat="46.15549212" lon="5.99255995"><ele></ele><time>2015-7-3T18:18:44Z</time></trkpt>
<trkpt lat="46.15546027" lon="5.99260462"><ele></ele><time>2015-7-3T18:18:47Z</time></trkpt>
<trkpt lat="46.15542867" lon="5.99264997"><ele></ele><time>2015-7-3T18:18:50Z</time></trkpt>
<trkpt lat="46.15539724" lon="5.99269523"><ele></ele><time>2015-7-3T18:18:53Z</time></trkpt>
<trkpt lat="46.15536639" lon="5.99274083"><ele></ele><time>2015-7-3T18:18:56Z</time></trkpt>
<trkpt lat="46.15533563" lon="5.99278769"><ele></ele><time>2015-7-3T18:18:59Z</time></trkpt>
<trkpt lat="46.15530512" lon="5.99283597"><ele></ele><time>2015-7-3T18:19:2Z</time></trkpt>
<trkpt lat="46.15527528" lon="5.99288508"><ele></ele><time>2015-7-3T18:19:5Z</time></trkpt>
<trkpt lat="46.15524603" lon="5.99293403"><ele></ele><time>2015-7-3T18:19:8Z</time></trkpt>
<trkpt lat="46.15521829" lon="5.99298349"><ele></ele><time>2015-7-3T18:19:11Z</time></trkpt>
<trkpt lat="46.15519213" lon="5.99303420"><ele></ele><time>2015-7-3T18:19:14Z</time></trkpt>
<trkpt lat="46.15516758" lon="5.99308692"><ele></ele><time>2015-7-3T18:19:17Z</time></trkpt>
<trkpt lat="46.15514285" lon="5.99313939"><ele></ele><time>2015-7-3T18:19:20Z</time></trkpt>
<trkpt lat="46.15511779" lon="5.99319169"><ele></ele><time>2015-7-3T18:19:23Z</time></trkpt>
<trkpt lat="46.15509465" lon="5.99324626"><ele></ele><time>2015-7-3T18:19:26Z</time></trkpt>
<trkpt lat="46.15507370" lon="5.99330083"><ele></ele><time>2015-7-3T18:19:29Z</time></trkpt>
<trkpt lat="46.15504947" lon="5.99335757"><ele></ele><time>2015-7-3T18:19:32Z</time></trkpt>
<trkpt lat="46.15502793" lon="5.99341306"><ele></ele><time>2015-7-3T18:19:35Z</time></trkpt>
<trkpt lat="46.15500120" lon="5.99347316"><ele></ele><time>2015-7-3T18:19:38Z</time></trkpt>
<trkpt lat="46.15497479" lon="5.99353879"><ele></ele><time>2015-7-3T18:19:41Z</time></trkpt>
<trkpt lat="46.15495753" lon="5.99359604"><ele></ele><time>2015-7-3T18:19:44Z</time></trkpt>
<trkpt lat="46.15494403" lon="5.99364339"><ele></ele><time>2015-7-3T18:19:47Z</time></trkpt>
<trkpt lat="46.15493112" lon="5.99369343"><ele></ele><time>2015-7-3T18:19:50Z</time></trkpt>
<trkpt lat="46.15492467" lon="5.99374339"><ele></ele><time>2015-7-3T18:19:53Z</time></trkpt>
<trkpt lat="46.15492039" lon="5.99379418"><ele></ele><time>2015-7-3T18:19:56Z</time></trkpt>
<trkpt lat="46.15491084" lon="5.99384867"><ele></ele><time>2015-7-3T18:19:59Z</time></trkpt>
<trkpt lat="46.15489994" lon="5.99390759"><ele></ele><time>2015-7-3T18:20:2Z</time></trkpt>
<trkpt lat="46.15488008" lon="5.99396383"><ele></ele><time>2015-7-3T18:20:5Z</time></trkpt>
<trkpt lat="46.15486767" lon="5.99401966"><ele></ele><time>2015-7-3T18:20:8Z</time></trkpt>
<trkpt lat="46.15486105" lon="5.99406953"><ele></ele><time>2015-7-3T18:20:11Z</time></trkpt>
<trkpt lat="46.15485149" lon="5.99411915"><ele></ele><time>2015-7-3T18:20:14Z</time></trkpt>
<trkpt lat="46.15484605" lon="5.99416332"><ele></ele><time>2015-7-3T18:20:17Z</time></trkpt>
<trkpt lat="46.15484018" lon="5.99421387"><ele></ele><time>2015-7-3T18:20:20Z</time></trkpt>
<trkpt lat="46.15483624" lon="5.99426726"><ele></ele><time>2015-7-3T18:20:23Z</time></trkpt>
<trkpt lat="46.15482484" lon="5.99432124"><ele></ele><time>2015-7-3T18:20:26Z</time></trkpt>
<trkpt lat="46.15481554" lon="5.99437446"><ele></ele><time>2015-7-3T18:20:29Z</time></trkpt>
<trkpt lat="46.15480296" lon="5.99443305"><ele></ele><time>2015-7-3T18:20:32Z</time></trkpt>
<trkpt lat="46.15478729" lon="5.99449332"><ele></ele><time>2015-7-3T18:20:35Z</time></trkpt>
<trkpt lat="46.15476499" lon="5.99455937"><ele></ele><time>2015-7-3T18:20:38Z</time></trkpt>
<trkpt lat="46.15475460" lon="5.99461469"><ele></ele><time>2015-7-3T18:20:41Z</time></trkpt>
<trkpt lat="46.15473574" lon="5.99467588"><ele></ele><time>2015-7-3T18:20:44Z</time></trkpt>
<trkpt lat="46.15471822" lon="5.99473463"><ele></ele><time>2015-7-3T18:20:47Z</time></trkpt>
<trkpt lat="46.15470925" lon="5.99478560"><ele></ele><time>2015-7-3T18:20:50Z</time></trkpt>
<trkpt lat="46.15470062" lon="5.99483832"><ele></ele><time>2015-7-3T18:20:53Z</time></trkpt>
<trkpt lat="46.15468763" lon="5.99489573"><ele></ele><time>2015-7-3T18:20:56Z</time></trkpt>
<trkpt lat="46.15467958" lon="5.99495273"><ele></ele><time>2015-7-3T18:20:59Z</time></trkpt>
<trkpt lat="46.15467346" lon="5.99500478"><ele></ele><time>2015-7-3T18:21:2Z</time></trkpt>
<trkpt lat="46.15467028" lon="5.99504929"><ele></ele><time>2015-7-3T18:21:5Z</time></trkpt>
<trkpt lat="46.15466055" lon="5.99509983"><ele></ele><time>2015-7-3T18:21:8Z</time></trkpt>
<trkpt lat="46.15464966" lon="5.99515306"><ele></ele><time>2015-7-3T18:21:11Z</time></trkpt>
<trkpt lat="46.15462803" lon="5.99521969"><ele></ele><time>2015-7-3T18:21:14Z</time></trkpt>
<trkpt lat="46.15461135" lon="5.99528113"><ele></ele><time>2015-7-3T18:21:17Z</time></trkpt>
<trkpt lat="46.15459518" lon="5.99533847"><ele></ele><time>2015-7-3T18:21:20Z</time></trkpt>
<trkpt lat="46.15458319" lon="5.99539286"><ele></ele><time>2015-7-3T18:21:23Z</time></trkpt>
<trkpt lat="46.15457338" lon="5.99545028"><ele></ele><time>2015-7-3T18:21:26Z</time></trkpt>
<trkpt lat="46.15455628" lon="5.99552538"><ele></ele><time>2015-7-3T18:21:29Z</time></trkpt>
<trkpt lat="46.15453122" lon="5.99560183"><ele></ele><time>2015-7-3T18:21:32Z</time></trkpt>
<trkpt lat="46.15451052" lon="5.99567433"><ele></ele><time>2015-7-3T18:21:35Z</time></trkpt>
<trkpt lat="46.15449116" lon="5.99574457"><ele></ele><time>2015-7-3T18:21:38Z</time></trkpt>
<trkpt lat="46.15447280" lon="5.99581338"><ele></ele><time>2015-7-3T18:21:41Z</time></trkpt>
<trkpt lat="46.15446065" lon="5.99587793"><ele></ele><time>2015-7-3T18:21:44Z</time></trkpt>
<trkpt lat="46.15445009" lon="5.99593819"><ele></ele><time>2015-7-3T18:21:47Z</time></trkpt>
<trkpt lat="46.15443902" lon="5.99600215"><ele></ele><time>2015-7-3T18:21:50Z</time></trkpt>
<trkpt lat="46.15442636" lon="5.99606585"><ele></ele><time>2015-7-3T18:21:53Z</time></trkpt>
<trkpt lat="46.15441798" lon="5.99613584"><ele></ele><time>2015-7-3T18:21:56Z</time></trkpt>
<trkpt lat="46.15441069" lon="5.99620717"><ele></ele><time>2015-7-3T18:21:59Z</time></trkpt>
<trkpt lat="46.15440373" lon="5.99628168"><ele></ele><time>2015-7-3T18:22:2Z</time></trkpt>
<trkpt lat="46.15439837" lon="5.99635603"><ele></ele><time>2015-7-3T18:22:5Z</time></trkpt>
<trkpt lat="46.15439460" lon="5.99643038"><ele></ele><time>2015-7-3T18:22:8Z</time></trkpt>
<trkpt lat="46.15439275" lon="5.99650489"><ele></ele><time>2015-7-3T18:22:11Z</time></trkpt>
<trkpt lat="46.15439259" lon="5.99657848"><ele></ele><time>2015-7-3T18:22:14Z</time></trkpt>
<trkpt lat="46.15439510" lon="5.99665032"><ele></ele><time>2015-7-3T18:22:17Z</time></trkpt>
<trkpt lat="46.15440005" lon="5.99672274"><ele></ele><time>2015-7-3T18:22:20Z</time></trkpt>
<trkpt lat="46.15440549" lon="5.99679650"><ele></ele><time>2015-7-3T18:22:23Z</time></trkpt>
<trkpt lat="46.15441228" lon="5.99686942"><ele></ele><time>2015-7-3T18:22:26Z</time></trkpt>
<trkpt lat="46.15442050" lon="5.99694218"><ele></ele><time>2015-7-3T18:22:29Z</time></trkpt>
<trkpt lat="46.15442947" lon="5.99701527"><ele></ele><time>2015-7-3T18:22:32Z</time></trkpt>
<trkpt lat="46.15444003" lon="5.99708903"><ele></ele><time>2015-7-3T18:22:35Z</time></trkpt>
<trkpt lat="46.15445302" lon="5.99716354"><ele></ele><time>2015-7-3T18:22:38Z</time></trkpt>
<trkpt lat="46.15446894" lon="5.99723898"><ele></ele><time>2015-7-3T18:22:41Z</time></trkpt>
<trkpt lat="46.15448789" lon="5.99731576"><ele></ele><time>2015-7-3T18:22:44Z</time></trkpt>
<trkpt lat="46.15450809" lon="5.99739027"><ele></ele><time>2015-7-3T18:22:47Z</time></trkpt>
<trkpt lat="46.15452946" lon="5.99746579"><ele></ele><time>2015-7-3T18:22:50Z</time></trkpt>
<trkpt lat="46.15455000" lon="5.99753922"><ele></ele><time>2015-7-3T18:22:53Z</time></trkpt>
<trkpt lat="46.15457087" lon="5.99761348"><ele></ele><time>2015-7-3T18:22:56Z</time></trkpt>
<trkpt lat="46.15459258" lon="5.99768833"><ele></ele><time>2015-7-3T18:22:59Z</time></trkpt>
<trkpt lat="46.15461487" lon="5.99776570"><ele></ele><time>2015-7-3T18:23:2Z</time></trkpt>
<trkpt lat="46.15463625" lon="5.99784222"><ele></ele><time>2015-7-3T18:23:5Z</time></trkpt>
<trkpt lat="46.15465955" lon="5.99792093"><ele></ele><time>2015-7-3T18:23:8Z</time></trkpt>
<trkpt lat="46.15468235" lon="5.99799779"><ele></ele><time>2015-7-3T18:23:11Z</time></trkpt>
<trkpt lat="46.15470540" lon="5.99807717"><ele></ele><time>2015-7-3T18:23:14Z</time></trkpt>
<trkpt lat="46.15472786" lon="5.99815814"><ele></ele><time>2015-7-3T18:23:17Z</time></trkpt>
<trkpt lat="46.15475158" lon="5.99824020"><ele></ele><time>2015-7-3T18:23:20Z</time></trkpt>
<trkpt lat="46.15477648" lon="5.99832284"><ele></ele><time>2015-7-3T18:23:23Z</time></trkpt>
<trkpt lat="46.15480053" lon="5.99840515"><ele></ele><time>2015-7-3T18:23:26Z</time></trkpt>
<trkpt lat="46.15482283" lon="5.99848495"><ele></ele><time>2015-7-3T18:23:29Z</time></trkpt>
<trkpt lat="46.15484647" lon="5.99856726"><ele></ele><time>2015-7-3T18:23:32Z</time></trkpt>
<trkpt lat="46.15486935" lon="5.99864806"><ele></ele><time>2015-7-3T18:23:35Z</time></trkpt>
<trkpt lat="46.15489248" lon="5.99872819"><ele></ele><time>2015-7-3T18:23:38Z</time></trkpt>
<trkpt lat="46.15491536" lon="5.99880908"><ele></ele><time>2015-7-3T18:23:41Z</time></trkpt>
<trkpt lat="46.15493858" lon="5.99889030"><ele></ele><time>2015-7-3T18:23:44Z</time></trkpt>
<trkpt lat="46.15496155" lon="5.99897043"><ele></ele><time>2015-7-3T18:23:47Z</time></trkpt>
<trkpt lat="46.15498418" lon="5.99905123"><ele></ele><time>2015-7-3T18:23:50Z</time></trkpt>
<trkpt lat="46.15500572" lon="5.99913220"><ele></ele><time>2015-7-3T18:23:53Z</time></trkpt>
<trkpt lat="46.15502332" lon="5.99920806"><ele></ele><time>2015-7-3T18:23:56Z</time></trkpt>
<trkpt lat="46.15504495" lon="5.99928819"><ele></ele><time>2015-7-3T18:23:59Z</time></trkpt>
<trkpt lat="46.15506859" lon="5.99936672"><ele></ele><time>2015-7-3T18:24:2Z</time></trkpt>
<trkpt lat="46.15509524" lon="5.99944535"><ele></ele><time>2015-7-3T18:24:5Z</time></trkpt>
<trkpt lat="46.15512148" lon="5.99952204"><ele></ele><time>2015-7-3T18:24:8Z</time></trkpt>
<trkpt lat="46.15514729" lon="5.99959899"><ele></ele><time>2015-7-3T18:24:11Z</time></trkpt>
<trkpt lat="46.15517059" lon="5.99967375"><ele></ele><time>2015-7-3T18:24:14Z</time></trkpt>
<trkpt lat="46.15519549" lon="5.99975162"><ele></ele><time>2015-7-3T18:24:17Z</time></trkpt>
<trkpt lat="46.15521443" lon="5.99982094"><ele></ele><time>2015-7-3T18:24:20Z</time></trkpt>
<trkpt lat="46.15523329" lon="5.99988875"><ele></ele><time>2015-7-3T18:24:23Z</time></trkpt>
<trkpt lat="46.15525852" lon="5.99996553"><ele></ele><time>2015-7-3T18:24:26Z</time></trkpt>
<trkpt lat="46.15528383" lon="6.00004256"><ele></ele><time>2015-7-3T18:24:29Z</time></trkpt>
<trkpt lat="46.15530822" lon="6.00011883"><ele></ele><time>2015-7-3T18:24:32Z</time></trkpt>
<trkpt lat="46.15533312" lon="6.00019595"><ele></ele><time>2015-7-3T18:24:35Z</time></trkpt>
<trkpt lat="46.15535759" lon="6.00027189"><ele></ele><time>2015-7-3T18:24:38Z</time></trkpt>
<trkpt lat="46.15538299" lon="6.00034816"><ele></ele><time>2015-7-3T18:24:41Z</time></trkpt>
<trkpt lat="46.15540906" lon="6.00042477"><ele></ele><time>2015-7-3T18:24:44Z</time></trkpt>
<trkpt lat="46.15543546" lon="6.00050138"><ele></ele><time>2015-7-3T18:24:47Z</time></trkpt>
<trkpt lat="46.15546128" lon="6.00057699"><ele></ele><time>2015-7-3T18:24:50Z</time></trkpt>
<trkpt lat="46.15548676" lon="6.00065293"><ele></ele><time>2015-7-3T18:24:53Z</time></trkpt>
<trkpt lat="46.15551249" lon="6.00072887"><ele></ele><time>2015-7-3T18:24:56Z</time></trkpt>
<trkpt lat="46.15553889" lon="6.00080414"><ele></ele><time>2015-7-3T18:24:59Z</time></trkpt>
<trkpt lat="46.15556563" lon="6.00087932"><ele></ele><time>2015-7-3T18:25:2Z</time></trkpt>
<trkpt lat="46.15559254" lon="6.00095510"><ele></ele><time>2015-7-3T18:25:5Z</time></trkpt>
<trkpt lat="46.15561903" lon="6.00103062"><ele></ele><time>2015-7-3T18:25:8Z</time></trkpt>
<trkpt lat="46.15564576" lon="6.00110597"><ele></ele><time>2015-7-3T18:25:11Z</time></trkpt>
<trkpt lat="46.15567267" lon="6.00118157"><ele></ele><time>2015-7-3T18:25:14Z</time></trkpt>
<trkpt lat="46.15569999" lon="6.00125743"><ele></ele><time>2015-7-3T18:25:17Z</time></trkpt>
<trkpt lat="46.15572799" lon="6.00133329"><ele></ele><time>2015-7-3T18:25:20Z</time></trkpt>
<trkpt lat="46.15575599" lon="6.00140814"><ele></ele><time>2015-7-3T18:25:23Z</time></trkpt>
<trkpt lat="46.15578398" lon="6.00148316"><ele></ele><time>2015-7-3T18:25:26Z</time></trkpt>
<trkpt lat="46.15581206" lon="6.00155935"><ele></ele><time>2015-7-3T18:25:29Z</time></trkpt>
<trkpt lat="46.15584022" lon="6.00163495"><ele></ele><time>2015-7-3T18:25:32Z</time></trkpt>
<trkpt lat="46.15586872" lon="6.00170955"><ele></ele><time>2015-7-3T18:25:35Z</time></trkpt>
<trkpt lat="46.15589739" lon="6.00178432"><ele></ele><time>2015-7-3T18:25:38Z</time></trkpt>
<trkpt lat="46.15592605" lon="6.00185783"><ele></ele><time>2015-7-3T18:25:41Z</time></trkpt>
<trkpt lat="46.15595489" lon="6.00193067"><ele></ele><time>2015-7-3T18:25:44Z</time></trkpt>
<trkpt lat="46.15598288" lon="6.00200485"><ele></ele><time>2015-7-3T18:25:47Z</time></trkpt>
<trkpt lat="46.15601063" lon="6.00207894"><ele></ele><time>2015-7-3T18:25:50Z</time></trkpt>
<trkpt lat="46.15603913" lon="6.00215128"><ele></ele><time>2015-7-3T18:25:53Z</time></trkpt>
<trkpt lat="46.15606779" lon="6.00222336"><ele></ele><time>2015-7-3T18:25:56Z</time></trkpt>
<trkpt lat="46.15609470" lon="6.00229503"><ele></ele><time>2015-7-3T18:25:59Z</time></trkpt>
<trkpt lat="46.15612144" lon="6.00236627"><ele></ele><time>2015-7-3T18:26:2Z</time></trkpt>
<trkpt lat="46.15615086" lon="6.00243484"><ele></ele><time>2015-7-3T18:26:5Z</time></trkpt>
<trkpt lat="46.15618095" lon="6.00250323"><ele></ele><time>2015-7-3T18:26:8Z</time></trkpt>
<trkpt lat="46.15621087" lon="6.00257414"><ele></ele><time>2015-7-3T18:26:11Z</time></trkpt>
<trkpt lat="46.15623853" lon="6.00263986"><ele></ele><time>2015-7-3T18:26:14Z</time></trkpt>
<trkpt lat="46.15627457" lon="6.00270415"><ele></ele><time>2015-7-3T18:26:17Z</time></trkpt>
<trkpt lat="46.15631229" lon="6.00276818"><ele></ele><time>2015-7-3T18:26:20Z</time></trkpt>
<trkpt lat="46.15634398" lon="6.00283817"><ele></ele><time>2015-7-3T18:26:23Z</time></trkpt>
<trkpt lat="46.15636895" lon="6.00291428"><ele></ele><time>2015-7-3T18:26:26Z</time></trkpt>
<trkpt lat="46.15639284" lon="6.00299299"><ele></ele><time>2015-7-3T18:26:29Z</time></trkpt>
<trkpt lat="46.15641204" lon="6.00306164"><ele></ele><time>2015-7-3T18:26:32Z</time></trkpt>
<trkpt lat="46.15644196" lon="6.00313892"><ele></ele><time>2015-7-3T18:26:35Z</time></trkpt>
<trkpt lat="46.15647423" lon="6.00321419"><ele></ele><time>2015-7-3T18:26:38Z</time></trkpt>
<trkpt lat="46.15650734" lon="6.00328937"><ele></ele><time>2015-7-3T18:26:41Z</time></trkpt>
<trkpt lat="46.15654078" lon="6.00336573"><ele></ele><time>2015-7-3T18:26:44Z</time></trkpt>
<trkpt lat="46.15657398" lon="6.00344184"><ele></ele><time>2015-7-3T18:26:47Z</time></trkpt>
<trkpt lat="46.15660608" lon="6.00351686"><ele></ele><time>2015-7-3T18:26:50Z</time></trkpt>
<trkpt lat="46.15663768" lon="6.00359204"><ele></ele><time>2015-7-3T18:26:53Z</time></trkpt>
<trkpt lat="46.15666945" lon="6.00366673"><ele></ele><time>2015-7-3T18:26:56Z</time></trkpt>
<trkpt lat="46.15670205" lon="6.00374099"><ele></ele><time>2015-7-3T18:26:59Z</time></trkpt>
<trkpt lat="46.15673566" lon="6.00381693"><ele></ele><time>2015-7-3T18:27:2Z</time></trkpt>
<trkpt lat="46.15676944" lon="6.00389446"><ele></ele><time>2015-7-3T18:27:5Z</time></trkpt>
<trkpt lat="46.15680406" lon="6.00397325"><ele></ele><time>2015-7-3T18:27:8Z</time></trkpt>
<trkpt lat="46.15683960" lon="6.00405288"><ele></ele><time>2015-7-3T18:27:11Z</time></trkpt>
<trkpt lat="46.15687463" lon="6.00413259"><ele></ele><time>2015-7-3T18:27:14Z</time></trkpt>
<trkpt lat="46.15690967" lon="6.00421264"><ele></ele><time>2015-7-3T18:27:17Z</time></trkpt>
<trkpt lat="46.15694513" lon="6.00429344"><ele></ele><time>2015-7-3T18:27:20Z</time></trkpt>
<trkpt lat="46.15697974" lon="6.00437324"><ele></ele><time>2015-7-3T18:27:23Z</time></trkpt>
<trkpt lat="46.15701495" lon="6.00445295"><ele></ele><time>2015-7-3T18:27:26Z</time></trkpt>
<trkpt lat="46.15704965" lon="6.00453266"><ele></ele><time>2015-7-3T18:27:29Z</time></trkpt>
<trkpt lat="46.15708435" lon="6.00461304"><ele></ele><time>2015-7-3T18:27:32Z</time></trkpt>
<trkpt lat="46.15711863" lon="6.00469292"><ele></ele><time>2015-7-3T18:27:35Z</time></trkpt>
<trkpt lat="46.15715316" lon="6.00477213"><ele></ele><time>2015-7-3T18:27:38Z</time></trkpt>
<trkpt lat="46.15718812" lon="6.00485142"><ele></ele><time>2015-7-3T18:27:41Z</time></trkpt>
<trkpt lat="46.15722416" lon="6.00493264"><ele></ele><time>2015-7-3T18:27:44Z</time></trkpt>
<trkpt lat="46.15726037" lon="6.00501596"><ele></ele><time>2015-7-3T18:27:47Z</time></trkpt>
<trkpt lat="46.15729549" lon="6.00509852"><ele></ele><time>2015-7-3T18:27:50Z</time></trkpt>
<trkpt lat="46.15732935" lon="6.00517907"><ele></ele><time>2015-7-3T18:27:53Z</time></trkpt>
<trkpt lat="46.15736464" lon="6.00525962"><ele></ele><time>2015-7-3T18:27:56Z</time></trkpt>
<trkpt lat="46.15740085" lon="6.00534168"><ele></ele><time>2015-7-3T18:27:59Z</time></trkpt>
<trkpt lat="46.15743605" lon="6.00542407"><ele></ele><time>2015-7-3T18:28:2Z</time></trkpt>
<trkpt lat="46.15747034" lon="6.00550563"><ele></ele><time>2015-7-3T18:28:5Z</time></trkpt>
<trkpt lat="46.15750462" lon="6.00558660"><ele></ele><time>2015-7-3T18:28:8Z</time></trkpt>
<trkpt lat="46.15754024" lon="6.00566799"><ele></ele><time>2015-7-3T18:28:11Z</time></trkpt>
<trkpt lat="46.15757628" lon="6.00575030"><ele></ele><time>2015-7-3T18:28:14Z</time></trkpt>
<trkpt lat="46.15761157" lon="6.00583269"><ele></ele><time>2015-7-3T18:28:17Z</time></trkpt>
<trkpt lat="46.15764719" lon="6.00591576"><ele></ele><time>2015-7-3T18:28:20Z</time></trkpt>
<trkpt lat="46.15768315" lon="6.00599865"><ele></ele><time>2015-7-3T18:28:23Z</time></trkpt>
<trkpt lat="46.15771886" lon="6.00608063"><ele></ele><time>2015-7-3T18:28:26Z</time></trkpt>
<trkpt lat="46.15775448" lon="6.00616327"><ele></ele><time>2015-7-3T18:28:29Z</time></trkpt>
<trkpt lat="46.15779052" lon="6.00624693"><ele></ele><time>2015-7-3T18:28:32Z</time></trkpt>
<trkpt lat="46.15782732" lon="6.00633100"><ele></ele><time>2015-7-3T18:28:35Z</time></trkpt>
<trkpt lat="46.15786412" lon="6.00641523"><ele></ele><time>2015-7-3T18:28:38Z</time></trkpt>
<trkpt lat="46.15790050" lon="6.00649905"><ele></ele><time>2015-7-3T18:28:41Z</time></trkpt>
<trkpt lat="46.15793729" lon="6.00658346"><ele></ele><time>2015-7-3T18:28:44Z</time></trkpt>
<trkpt lat="46.15797359" lon="6.00666745"><ele></ele><time>2015-7-3T18:28:47Z</time></trkpt>
<trkpt lat="46.15800946" lon="6.00675118"><ele></ele><time>2015-7-3T18:28:50Z</time></trkpt>
<trkpt lat="46.15804634" lon="6.00683643"><ele></ele><time>2015-7-3T18:28:53Z</time></trkpt>
<trkpt lat="46.15808372" lon="6.00692192"><ele></ele><time>2015-7-3T18:28:56Z</time></trkpt>
<trkpt lat="46.15812044" lon="6.00700633"><ele></ele><time>2015-7-3T18:28:59Z</time></trkpt>
<trkpt lat="46.15815656" lon="6.00709006"><ele></ele><time>2015-7-3T18:29:2Z</time></trkpt>
<trkpt lat="46.15819219" lon="6.00717380"><ele></ele><time>2015-7-3T18:29:5Z</time></trkpt>
<trkpt lat="46.15822697" lon="6.00725669"><ele></ele><time>2015-7-3T18:29:8Z</time></trkpt>
<trkpt lat="46.15826192" lon="6.00733867"><ele></ele><time>2015-7-3T18:29:11Z</time></trkpt>
<trkpt lat="46.15829755" lon="6.00742064"><ele></ele><time>2015-7-3T18:29:14Z</time></trkpt>
<trkpt lat="46.15833476" lon="6.00750329"><ele></ele><time>2015-7-3T18:29:17Z</time></trkpt>
<trkpt lat="46.15837106" lon="6.00758552"><ele></ele><time>2015-7-3T18:29:20Z</time></trkpt>
<trkpt lat="46.15840492" lon="6.00766716"><ele></ele><time>2015-7-3T18:29:23Z</time></trkpt>
<trkpt lat="46.15844004" lon="6.00775089"><ele></ele><time>2015-7-3T18:29:26Z</time></trkpt>
<trkpt lat="46.15847399" lon="6.00783278"><ele></ele><time>2015-7-3T18:29:29Z</time></trkpt>
<trkpt lat="46.15850852" lon="6.00791492"><ele></ele><time>2015-7-3T18:29:32Z</time></trkpt>
<trkpt lat="46.15854406" lon="6.00799782"><ele></ele><time>2015-7-3T18:29:35Z</time></trkpt>
<trkpt lat="46.15858052" lon="6.00808156"><ele></ele><time>2015-7-3T18:29:38Z</time></trkpt>
<trkpt lat="46.15861849" lon="6.00816663"><ele></ele><time>2015-7-3T18:29:41Z</time></trkpt>
<trkpt lat="46.15865562" lon="6.00825179"><ele></ele><time>2015-7-3T18:29:44Z</time></trkpt>
<trkpt lat="46.15869259" lon="6.00833662"><ele></ele><time>2015-7-3T18:29:47Z</time></trkpt>
<trkpt lat="46.15872896" lon="6.00842128"><ele></ele><time>2015-7-3T18:29:50Z</time></trkpt>
<trkpt lat="46.15876526" lon="6.00850560"><ele></ele><time>2015-7-3T18:29:53Z</time></trkpt>
<trkpt lat="46.15880197" lon="6.00858958"><ele></ele><time>2015-7-3T18:29:56Z</time></trkpt>
<trkpt lat="46.15883843" lon="6.00867399"><ele></ele><time>2015-7-3T18:29:59Z</time></trkpt>
<trkpt lat="46.15887447" lon="6.00875814"><ele></ele><time>2015-7-3T18:30:2Z</time></trkpt>
<trkpt lat="46.15891068" lon="6.00884247"><ele></ele><time>2015-7-3T18:30:5Z</time></trkpt>
<trkpt lat="46.15894740" lon="6.00892763"><ele></ele><time>2015-7-3T18:30:8Z</time></trkpt>
<trkpt lat="46.15898428" lon="6.00901262"><ele></ele><time>2015-7-3T18:30:11Z</time></trkpt>
<trkpt lat="46.15902107" lon="6.00909694"><ele></ele><time>2015-7-3T18:30:14Z</time></trkpt>
<trkpt lat="46.15905762" lon="6.00918168"><ele></ele><time>2015-7-3T18:30:17Z</time></trkpt>
<trkpt lat="46.15909450" lon="6.00926667"><ele></ele><time>2015-7-3T18:30:20Z</time></trkpt>
<trkpt lat="46.15913138" lon="6.00935217"><ele></ele><time>2015-7-3T18:30:23Z</time></trkpt>
<trkpt lat="46.15916767" lon="6.00943775"><ele></ele><time>2015-7-3T18:30:26Z</time></trkpt>
<trkpt lat="46.15920279" lon="6.00952182"><ele></ele><time>2015-7-3T18:30:29Z</time></trkpt>
<trkpt lat="46.15923858" lon="6.00960589"><ele></ele><time>2015-7-3T18:30:32Z</time></trkpt>
<trkpt lat="46.15927462" lon="6.00968988"><ele></ele><time>2015-7-3T18:30:35Z</time></trkpt>
<trkpt lat="46.15931167" lon="6.00977504"><ele></ele><time>2015-7-3T18:30:38Z</time></trkpt>
<trkpt lat="46.15934897" lon="6.00986053"><ele></ele><time>2015-7-3T18:30:41Z</time></trkpt>
<trkpt lat="46.15938644" lon="6.00994569"><ele></ele><time>2015-7-3T18:30:44Z</time></trkpt>
<trkpt lat="46.15942407" lon="6.01003085"><ele></ele><time>2015-7-3T18:30:47Z</time></trkpt>
<trkpt lat="46.15945802" lon="6.01011308"><ele></ele><time>2015-7-3T18:30:50Z</time></trkpt>
<trkpt lat="46.15949247" lon="6.01019598"><ele></ele><time>2015-7-3T18:30:53Z</time></trkpt>
<trkpt lat="46.15952709" lon="6.01027929"><ele></ele><time>2015-7-3T18:30:56Z</time></trkpt>
<trkpt lat="46.15956372" lon="6.01036613"><ele></ele><time>2015-7-3T18:30:59Z</time></trkpt>
<trkpt lat="46.15960060" lon="6.01045322"><ele></ele><time>2015-7-3T18:31:2Z</time></trkpt>
<trkpt lat="46.15963840" lon="6.01054056"><ele></ele><time>2015-7-3T18:31:5Z</time></trkpt>
<trkpt lat="46.15967603" lon="6.01062764"><ele></ele><time>2015-7-3T18:31:8Z</time></trkpt>
<trkpt lat="46.15971342" lon="6.01071473"><ele></ele><time>2015-7-3T18:31:11Z</time></trkpt>
<trkpt lat="46.15975139" lon="6.01080257"><ele></ele><time>2015-7-3T18:31:14Z</time></trkpt>
<trkpt lat="46.15978776" lon="6.01088807"><ele></ele><time>2015-7-3T18:31:17Z</time></trkpt>
<trkpt lat="46.15982473" lon="6.01097474"><ele></ele><time>2015-7-3T18:31:20Z</time></trkpt>
<trkpt lat="46.15986018" lon="6.01106258"><ele></ele><time>2015-7-3T18:31:23Z</time></trkpt>
<trkpt lat="46.15989589" lon="6.01115084"><ele></ele><time>2015-7-3T18:31:26Z</time></trkpt>
<trkpt lat="46.15993286" lon="6.01123877"><ele></ele><time>2015-7-3T18:31:29Z</time></trkpt>
<trkpt lat="46.15997150" lon="6.01132804"><ele></ele><time>2015-7-3T18:31:32Z</time></trkpt>
<trkpt lat="46.16001005" lon="6.01141722"><ele></ele><time>2015-7-3T18:31:35Z</time></trkpt>
<trkpt lat="46.16004970" lon="6.01150825"><ele></ele><time>2015-7-3T18:31:38Z</time></trkpt>
<trkpt lat="46.16008918" lon="6.01160003"><ele></ele><time>2015-7-3T18:31:41Z</time></trkpt>
<trkpt lat="46.16012933" lon="6.01169273"><ele></ele><time>2015-7-3T18:31:44Z</time></trkpt>
<trkpt lat="46.16016990" lon="6.01178518"><ele></ele><time>2015-7-3T18:31:47Z</time></trkpt>
<trkpt lat="46.16021030" lon="6.01187697"><ele></ele><time>2015-7-3T18:31:50Z</time></trkpt>
<trkpt lat="46.16024709" lon="6.01196665"><ele></ele><time>2015-7-3T18:31:53Z</time></trkpt>
<trkpt lat="46.16028666" lon="6.01206003"><ele></ele><time>2015-7-3T18:31:56Z</time></trkpt>
<trkpt lat="46.16032697" lon="6.01215349"><ele></ele><time>2015-7-3T18:31:59Z</time></trkpt>
<trkpt lat="46.16036704" lon="6.01224644"><ele></ele><time>2015-7-3T18:32:2Z</time></trkpt>
<trkpt lat="46.16040702" lon="6.01233965"><ele></ele><time>2015-7-3T18:32:5Z</time></trkpt>
<trkpt lat="46.16044600" lon="6.01243168"><ele></ele><time>2015-7-3T18:32:8Z</time></trkpt>
<trkpt lat="46.16048489" lon="6.01252304"><ele></ele><time>2015-7-3T18:32:11Z</time></trkpt>
<trkpt lat="46.16052420" lon="6.01261508"><ele></ele><time>2015-7-3T18:32:14Z</time></trkpt>
<trkpt lat="46.16056309" lon="6.01270778"><ele></ele><time>2015-7-3T18:32:17Z</time></trkpt>
<trkpt lat="46.16060198" lon="6.01280074"><ele></ele><time>2015-7-3T18:32:20Z</time></trkpt>
<trkpt lat="46.16064096" lon="6.01289327"><ele></ele><time>2015-7-3T18:32:23Z</time></trkpt>
<trkpt lat="46.16067993" lon="6.01298606"><ele></ele><time>2015-7-3T18:32:26Z</time></trkpt>
<trkpt lat="46.16071916" lon="6.01307843"><ele></ele><time>2015-7-3T18:32:29Z</time></trkpt>
<trkpt lat="46.16075872" lon="6.01317013"><ele></ele><time>2015-7-3T18:32:32Z</time></trkpt>
<trkpt lat="46.16079837" lon="6.01326208"><ele></ele><time>2015-7-3T18:32:35Z</time></trkpt>
<trkpt lat="46.16083852" lon="6.01335453"><ele></ele><time>2015-7-3T18:32:38Z</time></trkpt>
<trkpt lat="46.16087800" lon="6.01344648"><ele></ele><time>2015-7-3T18:32:41Z</time></trkpt>
<trkpt lat="46.16091689" lon="6.01353826"><ele></ele><time>2015-7-3T18:32:44Z</time></trkpt>
<trkpt lat="46.16095553" lon="6.01362912"><ele></ele><time>2015-7-3T18:32:47Z</time></trkpt>
<trkpt lat="46.16099384" lon="6.01371956"><ele></ele><time>2015-7-3T18:32:50Z</time></trkpt>
<trkpt lat="46.16103248" lon="6.01380958"><ele></ele><time>2015-7-3T18:32:53Z</time></trkpt>
<trkpt lat="46.16107087" lon="6.01389952"><ele></ele><time>2015-7-3T18:32:56Z</time></trkpt>
<trkpt lat="46.16110917" lon="6.01398954"><ele></ele><time>2015-7-3T18:32:59Z</time></trkpt>
<trkpt lat="46.16114739" lon="6.01407948"><ele></ele><time>2015-7-3T18:33:2Z</time></trkpt>
<trkpt lat="46.16118528" lon="6.01416900"><ele></ele><time>2015-7-3T18:33:5Z</time></trkpt>
<trkpt lat="46.16122333" lon="6.01425785"><ele></ele><time>2015-7-3T18:33:8Z</time></trkpt>
<trkpt lat="46.16126122" lon="6.01434628"><ele></ele><time>2015-7-3T18:33:11Z</time></trkpt>
<trkpt lat="46.16129919" lon="6.01443445"><ele></ele><time>2015-7-3T18:33:14Z</time></trkpt>
<trkpt lat="46.16133582" lon="6.01452045"><ele></ele><time>2015-7-3T18:33:17Z</time></trkpt>
<trkpt lat="46.16137085" lon="6.01460469"><ele></ele><time>2015-7-3T18:33:20Z</time></trkpt>
<trkpt lat="46.16140740" lon="6.01469186"><ele></ele><time>2015-7-3T18:33:23Z</time></trkpt>
<trkpt lat="46.16144395" lon="6.01477996"><ele></ele><time>2015-7-3T18:33:26Z</time></trkpt>
<trkpt lat="46.16148158" lon="6.01486822"><ele></ele><time>2015-7-3T18:33:29Z</time></trkpt>
<trkpt lat="46.16151905" lon="6.01495598"><ele></ele><time>2015-7-3T18:33:32Z</time></trkpt>
<trkpt lat="46.16155643" lon="6.01504298"><ele></ele><time>2015-7-3T18:33:35Z</time></trkpt>
<trkpt lat="46.16159306" lon="6.01512940"><ele></ele><time>2015-7-3T18:33:38Z</time></trkpt>
<trkpt lat="46.16162935" lon="6.01521598"><ele></ele><time>2015-7-3T18:33:41Z</time></trkpt>
<trkpt lat="46.16166615" lon="6.01530240"><ele></ele><time>2015-7-3T18:33:44Z</time></trkpt>
<trkpt lat="46.16170303" lon="6.01538848"><ele></ele><time>2015-7-3T18:33:47Z</time></trkpt>
<trkpt lat="46.16174008" lon="6.01547423"><ele></ele><time>2015-7-3T18:33:50Z</time></trkpt>
<trkpt lat="46.16177545" lon="6.01555872"><ele></ele><time>2015-7-3T18:33:53Z</time></trkpt>
<trkpt lat="46.16181208" lon="6.01564463"><ele></ele><time>2015-7-3T18:33:56Z</time></trkpt>
<trkpt lat="46.16184879" lon="6.01572962"><ele></ele><time>2015-7-3T18:33:59Z</time></trkpt>
<trkpt lat="46.16188525" lon="6.01581495"><ele></ele><time>2015-7-3T18:34:2Z</time></trkpt>
<trkpt lat="46.16192113" lon="6.01589953"><ele></ele><time>2015-7-3T18:34:5Z</time></trkpt>
<trkpt lat="46.16195633" lon="6.01598410"><ele></ele><time>2015-7-3T18:34:8Z</time></trkpt>
<trkpt lat="46.16199120" lon="6.01606783"><ele></ele><time>2015-7-3T18:34:11Z</time></trkpt>
<trkpt lat="46.16202758" lon="6.01615308"><ele></ele><time>2015-7-3T18:34:14Z</time></trkpt>
<trkpt lat="46.16206362" lon="6.01623866"><ele></ele><time>2015-7-3T18:34:17Z</time></trkpt>
<trkpt lat="46.16210008" lon="6.01632323"><ele></ele><time>2015-7-3T18:34:20Z</time></trkpt>
<trkpt lat="46.16213696" lon="6.01640688"><ele></ele><time>2015-7-3T18:34:23Z</time></trkpt>
<trkpt lat="46.16217334" lon="6.01649062"><ele></ele><time>2015-7-3T18:34:26Z</time></trkpt>
<trkpt lat="46.16220854" lon="6.01657494"><ele></ele><time>2015-7-3T18:34:29Z</time></trkpt>
<trkpt lat="46.16224366" lon="6.01665909"><ele></ele><time>2015-7-3T18:34:32Z</time></trkpt>
<trkpt lat="46.16227979" lon="6.01674275"><ele></ele><time>2015-7-3T18:34:35Z</time></trkpt>
<trkpt lat="46.16231667" lon="6.01682640"><ele></ele><time>2015-7-3T18:34:38Z</time></trkpt>
<trkpt lat="46.16235279" lon="6.01690955"><ele></ele><time>2015-7-3T18:34:41Z</time></trkpt>
<trkpt lat="46.16238733" lon="6.01699194"><ele></ele><time>2015-7-3T18:34:44Z</time></trkpt>
<trkpt lat="46.16242127" lon="6.01707274"><ele></ele><time>2015-7-3T18:34:47Z</time></trkpt>
<trkpt lat="46.16245463" lon="6.01715187"><ele></ele><time>2015-7-3T18:34:50Z</time></trkpt>
<trkpt lat="46.16248749" lon="6.01722999"><ele></ele><time>2015-7-3T18:34:53Z</time></trkpt>
<trkpt lat="46.16252035" lon="6.01730676"><ele></ele><time>2015-7-3T18:34:56Z</time></trkpt>
<trkpt lat="46.16255287" lon="6.01738136"><ele></ele><time>2015-7-3T18:34:59Z</time></trkpt>
<trkpt lat="46.16258405" lon="6.01745437"><ele></ele><time>2015-7-3T18:35:2Z</time></trkpt>
<trkpt lat="46.16261473" lon="6.01752603"><ele></ele><time>2015-7-3T18:35:5Z</time></trkpt>
<trkpt lat="46.16264465" lon="6.01759426"><ele></ele><time>2015-7-3T18:35:8Z</time></trkpt>
<trkpt lat="46.16267407" lon="6.01765662"><ele></ele><time>2015-7-3T18:35:11Z</time></trkpt>
<trkpt lat="46.16270819" lon="6.01770599"><ele></ele><time>2015-7-3T18:35:14Z</time></trkpt>
<trkpt lat="46.16274867" lon="6.01773717"><ele></ele><time>2015-7-3T18:35:17Z</time></trkpt>
<trkpt lat="46.16278832" lon="6.01775494"><ele></ele><time>2015-7-3T18:35:20Z</time></trkpt>
<trkpt lat="46.16282185" lon="6.01777238"><ele></ele><time>2015-7-3T18:35:23Z</time></trkpt>
<trkpt lat="46.16284733" lon="6.01779384"><ele></ele><time>2015-7-3T18:35:26Z</time></trkpt>
<trkpt lat="46.16286635" lon="6.01781538"><ele></ele><time>2015-7-3T18:35:29Z</time></trkpt>
<trkpt lat="46.16287834" lon="6.01783114"><ele></ele><time>2015-7-3T18:35:32Z</time></trkpt>
<trkpt lat="46.16288697" lon="6.01784589"><ele></ele><time>2015-7-3T18:35:35Z</time></trkpt>
<trkpt lat="46.16289737" lon="6.01786382"><ele></ele><time>2015-7-3T18:35:38Z</time></trkpt>
<trkpt lat="46.16290768" lon="6.01789014"><ele></ele><time>2015-7-3T18:35:41Z</time></trkpt>
<trkpt lat="46.16291229" lon="6.01792719"><ele></ele><time>2015-7-3T18:35:44Z</time></trkpt>
<trkpt lat="46.16291287" lon="6.01797296"><ele></ele><time>2015-7-3T18:35:47Z</time></trkpt>
<trkpt lat="46.16291002" lon="6.01802526"><ele></ele><time>2015-7-3T18:35:50Z</time></trkpt>
<trkpt lat="46.16290525" lon="6.01808175"><ele></ele><time>2015-7-3T18:35:53Z</time></trkpt>
<trkpt lat="46.16290927" lon="6.01814370"><ele></ele><time>2015-7-3T18:35:56Z</time></trkpt>
<trkpt lat="46.16292469" lon="6.01820723"><ele></ele><time>2015-7-3T18:35:59Z</time></trkpt>
<trkpt lat="46.16294774" lon="6.01827026"><ele></ele><time>2015-7-3T18:36:2Z</time></trkpt>
<trkpt lat="46.16297322" lon="6.01833346"><ele></ele><time>2015-7-3T18:36:5Z</time></trkpt>
<trkpt lat="46.16299979" lon="6.01839775"><ele></ele><time>2015-7-3T18:36:8Z</time></trkpt>
<trkpt lat="46.16302829" lon="6.01846447"><ele></ele><time>2015-7-3T18:36:11Z</time></trkpt>
<trkpt lat="46.16305687" lon="6.01853346"><ele></ele><time>2015-7-3T18:36:14Z</time></trkpt>
<trkpt lat="46.16308453" lon="6.01860152"><ele></ele><time>2015-7-3T18:36:17Z</time></trkpt>
<trkpt lat="46.16311362" lon="6.01867000"><ele></ele><time>2015-7-3T18:36:20Z</time></trkpt>
<trkpt lat="46.16314438" lon="6.01873965"><ele></ele><time>2015-7-3T18:36:23Z</time></trkpt>
<trkpt lat="46.16317472" lon="6.01881098"><ele></ele><time>2015-7-3T18:36:26Z</time></trkpt>
<trkpt lat="46.16320632" lon="6.01888658"><ele></ele><time>2015-7-3T18:36:29Z</time></trkpt>
<trkpt lat="46.16323868" lon="6.01896412"><ele></ele><time>2015-7-3T18:36:32Z</time></trkpt>
<trkpt lat="46.16327154" lon="6.01904450"><ele></ele><time>2015-7-3T18:36:35Z</time></trkpt>
<trkpt lat="46.16330238" lon="6.01912614"><ele></ele><time>2015-7-3T18:36:38Z</time></trkpt>
<trkpt lat="46.16333222" lon="6.01920795"><ele></ele><time>2015-7-3T18:36:41Z</time></trkpt>
<trkpt lat="46.16336499" lon="6.01929252"><ele></ele><time>2015-7-3T18:36:44Z</time></trkpt>
<trkpt lat="46.16340363" lon="6.01937659"><ele></ele><time>2015-7-3T18:36:47Z</time></trkpt>
<trkpt lat="46.16343213" lon="6.01946209"><ele></ele><time>2015-7-3T18:36:50Z</time></trkpt>
<trkpt lat="46.16347647" lon="6.01956292"><ele></ele><time>2015-7-3T18:36:53Z</time></trkpt>
<trkpt lat="46.16350874" lon="6.01965286"><ele></ele><time>2015-7-3T18:36:56Z</time></trkpt>
<trkpt lat="46.16353439" lon="6.01971983"><ele></ele><time>2015-7-3T18:36:59Z</time></trkpt>
<trkpt lat="46.16354655" lon="6.01975914"><ele></ele><time>2015-7-3T18:37:2Z</time></trkpt>
<trkpt lat="46.16357613" lon="6.01979879"><ele></ele><time>2015-7-3T18:37:5Z</time></trkpt>
<trkpt lat="46.16359466" lon="6.01982075"><ele></ele><time>2015-7-3T18:37:8Z</time></trkpt>
<trkpt lat="46.16361209" lon="6.01985084"><ele></ele><time>2015-7-3T18:37:11Z</time></trkpt>
<trkpt lat="46.16362793" lon="6.01990239"><ele></ele><time>2015-7-3T18:37:14Z</time></trkpt>
<trkpt lat="46.16364713" lon="6.01996408"><ele></ele><time>2015-7-3T18:37:17Z</time></trkpt>
<trkpt lat="46.16367395" lon="6.02003080"><ele></ele><time>2015-7-3T18:37:20Z</time></trkpt>
<trkpt lat="46.16370413" lon="6.02010397"><ele></ele><time>2015-7-3T18:37:23Z</time></trkpt>
<trkpt lat="46.16373464" lon="6.02018427"><ele></ele><time>2015-7-3T18:37:26Z</time></trkpt>
<trkpt lat="46.16377219" lon="6.02026859"><ele></ele><time>2015-7-3T18:37:29Z</time></trkpt>
<trkpt lat="46.16381024" lon="6.02035585"><ele></ele><time>2015-7-3T18:37:32Z</time></trkpt>
<trkpt lat="46.16384419" lon="6.02044243"><ele></ele><time>2015-7-3T18:37:35Z</time></trkpt>
<trkpt lat="46.16388090" lon="6.02052726"><ele></ele><time>2015-7-3T18:37:38Z</time></trkpt>
<trkpt lat="46.16391074" lon="6.02061175"><ele></ele><time>2015-7-3T18:37:41Z</time></trkpt>
<trkpt lat="46.16394494" lon="6.02069599"><ele></ele><time>2015-7-3T18:37:44Z</time></trkpt>
<trkpt lat="46.16398098" lon="6.02078165"><ele></ele><time>2015-7-3T18:37:47Z</time></trkpt>
<trkpt lat="46.16401769" lon="6.02086832"><ele></ele><time>2015-7-3T18:37:50Z</time></trkpt>
<trkpt lat="46.16405306" lon="6.02095482"><ele></ele><time>2015-7-3T18:37:53Z</time></trkpt>
<trkpt lat="46.16408919" lon="6.02104182"><ele></ele><time>2015-7-3T18:37:56Z</time></trkpt>
<trkpt lat="46.16412632" lon="6.02113084"><ele></ele><time>2015-7-3T18:37:59Z</time></trkpt>
<trkpt lat="46.16416454" lon="6.02122036"><ele></ele><time>2015-7-3T18:38:2Z</time></trkpt>
<trkpt lat="46.16420377" lon="6.02130979"><ele></ele><time>2015-7-3T18:38:5Z</time></trkpt>
<trkpt lat="46.16423889" lon="6.02139386"><ele></ele><time>2015-7-3T18:38:8Z</time></trkpt>
<trkpt lat="46.16427527" lon="6.02147894"><ele></ele><time>2015-7-3T18:38:11Z</time></trkpt>
<trkpt lat="46.16431156" lon="6.02156360"><ele></ele><time>2015-7-3T18:38:14Z</time></trkpt>
<trkpt lat="46.16434802" lon="6.02164825"><ele></ele><time>2015-7-3T18:38:17Z</time></trkpt>
<trkpt lat="46.16438474" lon="6.02173107"><ele></ele><time>2015-7-3T18:38:20Z</time></trkpt>
<trkpt lat="46.16442187" lon="6.02181246"><ele></ele><time>2015-7-3T18:38:23Z</time></trkpt>
<trkpt lat="46.16445699" lon="6.02189435"><ele></ele><time>2015-7-3T18:38:26Z</time></trkpt>
<trkpt lat="46.16449194" lon="6.02197724"><ele></ele><time>2015-7-3T18:38:29Z</time></trkpt>
<trkpt lat="46.16452798" lon="6.02205989"><ele></ele><time>2015-7-3T18:38:32Z</time></trkpt>
<trkpt lat="46.16456394" lon="6.02214329"><ele></ele><time>2015-7-3T18:38:35Z</time></trkpt>
<trkpt lat="46.16459973" lon="6.02222736"><ele></ele><time>2015-7-3T18:38:38Z</time></trkpt>
<trkpt lat="46.16463854" lon="6.02231562"><ele></ele><time>2015-7-3T18:38:41Z</time></trkpt>
<trkpt lat="46.16467576" lon="6.02240195"><ele></ele><time>2015-7-3T18:38:44Z</time></trkpt>
<trkpt lat="46.16471314" lon="6.02248619"><ele></ele><time>2015-7-3T18:38:47Z</time></trkpt>
<trkpt lat="46.16475044" lon="6.02257018"><ele></ele><time>2015-7-3T18:38:50Z</time></trkpt>
<trkpt lat="46.16478774" lon="6.02265584"><ele></ele><time>2015-7-3T18:38:53Z</time></trkpt>
<trkpt lat="46.16482403" lon="6.02274092"><ele></ele><time>2015-7-3T18:38:56Z</time></trkpt>
<trkpt lat="46.16485982" lon="6.02282616"><ele></ele><time>2015-7-3T18:38:59Z</time></trkpt>
<trkpt lat="46.16489754" lon="6.02291275"><ele></ele><time>2015-7-3T18:39:2Z</time></trkpt>
<trkpt lat="46.16493492" lon="6.02299925"><ele></ele><time>2015-7-3T18:39:5Z</time></trkpt>
<trkpt lat="46.16497264" lon="6.02308533"><ele></ele><time>2015-7-3T18:39:8Z</time></trkpt>
<trkpt lat="46.16500952" lon="6.02317284"><ele></ele><time>2015-7-3T18:39:11Z</time></trkpt>
<trkpt lat="46.16504783" lon="6.02326412"><ele></ele><time>2015-7-3T18:39:14Z</time></trkpt>
<trkpt lat="46.16508798" lon="6.02335959"><ele></ele><time>2015-7-3T18:39:17Z</time></trkpt>
<trkpt lat="46.16512704" lon="6.02345405"><ele></ele><time>2015-7-3T18:39:20Z</time></trkpt>
<trkpt lat="46.16516593" lon="6.02354592"><ele></ele><time>2015-7-3T18:39:23Z</time></trkpt>
<trkpt lat="46.16520373" lon="6.02363703"><ele></ele><time>2015-7-3T18:39:26Z</time></trkpt>
<trkpt lat="46.16523994" lon="6.02372495"><ele></ele><time>2015-7-3T18:39:29Z</time></trkpt>
<trkpt lat="46.16527489" lon="6.02381062"><ele></ele><time>2015-7-3T18:39:32Z</time></trkpt>
<trkpt lat="46.16530918" lon="6.02389444"><ele></ele><time>2015-7-3T18:39:35Z</time></trkpt>
<trkpt lat="46.16534304" lon="6.02397616"><ele></ele><time>2015-7-3T18:39:38Z</time></trkpt>
<trkpt lat="46.16537623" lon="6.02405713"><ele></ele><time>2015-7-3T18:39:41Z</time></trkpt>
<trkpt lat="46.16540892" lon="6.02413785"><ele></ele><time>2015-7-3T18:39:44Z</time></trkpt>
<trkpt lat="46.16544195" lon="6.02421748"><ele></ele><time>2015-7-3T18:39:47Z</time></trkpt>
<trkpt lat="46.16547489" lon="6.02429702"><ele></ele><time>2015-7-3T18:39:50Z</time></trkpt>
<trkpt lat="46.16550699" lon="6.02437656"><ele></ele><time>2015-7-3T18:39:53Z</time></trkpt>
<trkpt lat="46.16553985" lon="6.02445586"><ele></ele><time>2015-7-3T18:39:56Z</time></trkpt>
<trkpt lat="46.16557396" lon="6.02453800"><ele></ele><time>2015-7-3T18:39:59Z</time></trkpt>
<trkpt lat="46.16560506" lon="6.02461662"><ele></ele><time>2015-7-3T18:40:2Z</time></trkpt>
<trkpt lat="46.16563749" lon="6.02469658"><ele></ele><time>2015-7-3T18:40:5Z</time></trkpt>
<trkpt lat="46.16566977" lon="6.02477479"><ele></ele><time>2015-7-3T18:40:8Z</time></trkpt>
<trkpt lat="46.16570153" lon="6.02485090"><ele></ele><time>2015-7-3T18:40:11Z</time></trkpt>
<trkpt lat="46.16573322" lon="6.02492675"><ele></ele><time>2015-7-3T18:40:14Z</time></trkpt>
<trkpt lat="46.16576205" lon="6.02499674"><ele></ele><time>2015-7-3T18:40:17Z</time></trkpt>
<trkpt lat="46.16578678" lon="6.02506053"><ele></ele><time>2015-7-3T18:40:20Z</time></trkpt>
<trkpt lat="46.16580924" lon="6.02511526"><ele></ele><time>2015-7-3T18:40:23Z</time></trkpt>
<trkpt lat="46.16583950" lon="6.02515466"><ele></ele><time>2015-7-3T18:40:26Z</time></trkpt>
<trkpt lat="46.16587177" lon="6.02517134"><ele></ele><time>2015-7-3T18:40:29Z</time></trkpt>
<trkpt lat="46.16589918" lon="6.02517880"><ele></ele><time>2015-7-3T18:40:32Z</time></trkpt>
<trkpt lat="46.16592198" lon="6.02518843"><ele></ele><time>2015-7-3T18:40:35Z</time></trkpt>
<trkpt lat="46.16593916" lon="6.02519330"><ele></ele><time>2015-7-3T18:40:38Z</time></trkpt>
<trkpt lat="46.16595115" lon="6.02519623"><ele></ele><time>2015-7-3T18:40:41Z</time></trkpt>
<trkpt lat="46.16595986" lon="6.02520755"><ele></ele><time>2015-7-3T18:40:44Z</time></trkpt>
<trkpt lat="46.16596967" lon="6.02522858"><ele></ele><time>2015-7-3T18:40:47Z</time></trkpt>
<trkpt lat="46.16598459" lon="6.02525499"><ele></ele><time>2015-7-3T18:40:50Z</time></trkpt>
<trkpt lat="46.16600119" lon="6.02528667"><ele></ele><time>2015-7-3T18:40:53Z</time></trkpt>
<trkpt lat="46.16601510" lon="6.02532447"><ele></ele><time>2015-7-3T18:40:56Z</time></trkpt>
<trkpt lat="46.16602415" lon="6.02537326"><ele></ele><time>2015-7-3T18:40:59Z</time></trkpt>
<trkpt lat="46.16601896" lon="6.02542724"><ele></ele><time>2015-7-3T18:41:2Z</time></trkpt>
<trkpt lat="46.16600974" lon="6.02548909"><ele></ele><time>2015-7-3T18:41:5Z</time></trkpt>
<trkpt lat="46.16600588" lon="6.02555799"><ele></ele><time>2015-7-3T18:41:8Z</time></trkpt>
<trkpt lat="46.16601225" lon="6.02562874"><ele></ele><time>2015-7-3T18:41:11Z</time></trkpt>
<trkpt lat="46.16603077" lon="6.02569914"><ele></ele><time>2015-7-3T18:41:14Z</time></trkpt>
<trkpt lat="46.16605667" lon="6.02577123"><ele></ele><time>2015-7-3T18:41:17Z</time></trkpt>
<trkpt lat="46.16608542" lon="6.02584549"><ele></ele><time>2015-7-3T18:41:20Z</time></trkpt>
<trkpt lat="46.16611216" lon="6.02591707"><ele></ele><time>2015-7-3T18:41:23Z</time></trkpt>
<trkpt lat="46.16613898" lon="6.02598974"><ele></ele><time>2015-7-3T18:41:26Z</time></trkpt>
<trkpt lat="46.16616690" lon="6.02606409"><ele></ele><time>2015-7-3T18:41:29Z</time></trkpt>
<trkpt lat="46.16619766" lon="6.02614632"><ele></ele><time>2015-7-3T18:41:32Z</time></trkpt>
<trkpt lat="46.16622976" lon="6.02623072"><ele></ele><time>2015-7-3T18:41:35Z</time></trkpt>
<trkpt lat="46.16626178" lon="6.02631480"><ele></ele><time>2015-7-3T18:41:38Z</time></trkpt>
<trkpt lat="46.16629246" lon="6.02639803"><ele></ele><time>2015-7-3T18:41:41Z</time></trkpt>
<trkpt lat="46.16632238" lon="6.02648218"><ele></ele><time>2015-7-3T18:41:44Z</time></trkpt>
<trkpt lat="46.16635205" lon="6.02656642"><ele></ele><time>2015-7-3T18:41:47Z</time></trkpt>
<trkpt lat="46.16638172" lon="6.02665066"><ele></ele><time>2015-7-3T18:41:50Z</time></trkpt>
<trkpt lat="46.16641165" lon="6.02673540"><ele></ele><time>2015-7-3T18:41:53Z</time></trkpt>
<trkpt lat="46.16644174" lon="6.02682073"><ele></ele><time>2015-7-3T18:41:56Z</time></trkpt>
<trkpt lat="46.16647158" lon="6.02690714"><ele></ele><time>2015-7-3T18:41:59Z</time></trkpt>
<trkpt lat="46.16650729" lon="6.02700085"><ele></ele><time>2015-7-3T18:42:2Z</time></trkpt>
<trkpt lat="46.16653788" lon="6.02708828"><ele></ele><time>2015-7-3T18:42:5Z</time></trkpt>
<trkpt lat="46.16656763" lon="6.02717528"><ele></ele><time>2015-7-3T18:42:8Z</time></trkpt>
<trkpt lat="46.16659756" lon="6.02726136"><ele></ele><time>2015-7-3T18:42:11Z</time></trkpt>
<trkpt lat="46.16662664" lon="6.02734786"><ele></ele><time>2015-7-3T18:42:14Z</time></trkpt>
<trkpt lat="46.16665514" lon="6.02743529"><ele></ele><time>2015-7-3T18:42:17Z</time></trkpt>
<trkpt lat="46.16668406" lon="6.02752313"><ele></ele><time>2015-7-3T18:42:20Z</time></trkpt>
<trkpt lat="46.16671407" lon="6.02761106"><ele></ele><time>2015-7-3T18:42:23Z</time></trkpt>
<trkpt lat="46.16674592" lon="6.02770058"><ele></ele><time>2015-7-3T18:42:26Z</time></trkpt>
<trkpt lat="46.16677718" lon="6.02779035"><ele></ele><time>2015-7-3T18:42:29Z</time></trkpt>
<trkpt lat="46.16680736" lon="6.02788095"><ele></ele><time>2015-7-3T18:42:32Z</time></trkpt>
<trkpt lat="46.16683795" lon="6.02797123"><ele></ele><time>2015-7-3T18:42:35Z</time></trkpt>
<trkpt lat="46.16686888" lon="6.02806133"><ele></ele><time>2015-7-3T18:42:38Z</time></trkpt>
<trkpt lat="46.16689922" lon="6.02815236"><ele></ele><time>2015-7-3T18:42:41Z</time></trkpt>
<trkpt lat="46.16692889" lon="6.02824355"><ele></ele><time>2015-7-3T18:42:44Z</time></trkpt>
<trkpt lat="46.16695882" lon="6.02833458"><ele></ele><time>2015-7-3T18:42:47Z</time></trkpt>
<trkpt lat="46.16698916" lon="6.02842544"><ele></ele><time>2015-7-3T18:42:50Z</time></trkpt>
<trkpt lat="46.16701992" lon="6.02851655"><ele></ele><time>2015-7-3T18:42:53Z</time></trkpt>
<trkpt lat="46.16705135" lon="6.02860783"><ele></ele><time>2015-7-3T18:42:56Z</time></trkpt>
<trkpt lat="46.16708505" lon="6.02870263"><ele></ele><time>2015-7-3T18:42:59Z</time></trkpt>
<trkpt lat="46.16711807" lon="6.02879710"><ele></ele><time>2015-7-3T18:43:2Z</time></trkpt>
<trkpt lat="46.16714842" lon="6.02888913"><ele></ele><time>2015-7-3T18:43:5Z</time></trkpt>
<trkpt lat="46.16717826" lon="6.02898234"><ele></ele><time>2015-7-3T18:43:8Z</time></trkpt>
<trkpt lat="46.16720784" lon="6.02907596"><ele></ele><time>2015-7-3T18:43:11Z</time></trkpt>
<trkpt lat="46.16723852" lon="6.02916934"><ele></ele><time>2015-7-3T18:43:14Z</time></trkpt>
<trkpt lat="46.16726954" lon="6.02926229"><ele></ele><time>2015-7-3T18:43:17Z</time></trkpt>
<trkpt lat="46.16730055" lon="6.02935558"><ele></ele><time>2015-7-3T18:43:20Z</time></trkpt>
<trkpt lat="46.16733114" lon="6.02944929"><ele></ele><time>2015-7-3T18:43:23Z</time></trkpt>
<trkpt lat="46.16736400" lon="6.02954686"><ele></ele><time>2015-7-3T18:43:26Z</time></trkpt>
<trkpt lat="46.16739669" lon="6.02964392"><ele></ele><time>2015-7-3T18:43:29Z</time></trkpt>
<trkpt lat="46.16742946" lon="6.02974040"><ele></ele><time>2015-7-3T18:43:32Z</time></trkpt>
<trkpt lat="46.16746249" lon="6.02983704"><ele></ele><time>2015-7-3T18:43:35Z</time></trkpt>
<trkpt lat="46.16749417" lon="6.02993418"><ele></ele><time>2015-7-3T18:43:38Z</time></trkpt>
<trkpt lat="46.16752602" lon="6.03003183"><ele></ele><time>2015-7-3T18:43:41Z</time></trkpt>
<trkpt lat="46.16755863" lon="6.03013007"><ele></ele><time>2015-7-3T18:43:44Z</time></trkpt>
<trkpt lat="46.16759199" lon="6.03022906"><ele></ele><time>2015-7-3T18:43:47Z</time></trkpt>
<trkpt lat="46.16762568" lon="6.03032889"><ele></ele><time>2015-7-3T18:43:50Z</time></trkpt>
<trkpt lat="46.16765938" lon="6.03042972"><ele></ele><time>2015-7-3T18:43:53Z</time></trkpt>
<trkpt lat="46.16769207" lon="6.03053123"><ele></ele><time>2015-7-3T18:43:56Z</time></trkpt>
<trkpt lat="46.16772476" lon="6.03063265"><ele></ele><time>2015-7-3T18:43:59Z</time></trkpt>
<trkpt lat="46.16775803" lon="6.03073373"><ele></ele><time>2015-7-3T18:44:2Z</time></trkpt>
<trkpt lat="46.16779139" lon="6.03083516"><ele></ele><time>2015-7-3T18:44:5Z</time></trkpt>
<trkpt lat="46.16782433" lon="6.03093725"><ele></ele><time>2015-7-3T18:44:8Z</time></trkpt>
<trkpt lat="46.16785753" lon="6.03103959"><ele></ele><time>2015-7-3T18:44:11Z</time></trkpt>
<trkpt lat="46.16789122" lon="6.03114202"><ele></ele><time>2015-7-3T18:44:14Z</time></trkpt>
<trkpt lat="46.16792517" lon="6.03124537"><ele></ele><time>2015-7-3T18:44:17Z</time></trkpt>
<trkpt lat="46.16795953" lon="6.03134888"><ele></ele><time>2015-7-3T18:44:20Z</time></trkpt>
<trkpt lat="46.16799407" lon="6.03145299"><ele></ele><time>2015-7-3T18:44:23Z</time></trkpt>
<trkpt lat="46.16802793" lon="6.03155818"><ele></ele><time>2015-7-3T18:44:26Z</time></trkpt>
<trkpt lat="46.16806196" lon="6.03166354"><ele></ele><time>2015-7-3T18:44:29Z</time></trkpt>
<trkpt lat="46.16809607" lon="6.03176923"><ele></ele><time>2015-7-3T18:44:32Z</time></trkpt>
<trkpt lat="46.16813027" lon="6.03187552"><ele></ele><time>2015-7-3T18:44:35Z</time></trkpt>
<trkpt lat="46.16816539" lon="6.03198180"><ele></ele><time>2015-7-3T18:44:38Z</time></trkpt>
<trkpt lat="46.16820043" lon="6.03208775"><ele></ele><time>2015-7-3T18:44:41Z</time></trkpt>
<trkpt lat="46.16823463" lon="6.03219436"><ele></ele><time>2015-7-3T18:44:44Z</time></trkpt>
<trkpt lat="46.16826874" lon="6.03230123"><ele></ele><time>2015-7-3T18:44:47Z</time></trkpt>
<trkpt lat="46.16830328" lon="6.03240752"><ele></ele><time>2015-7-3T18:44:50Z</time></trkpt>
<trkpt lat="46.16833747" lon="6.03251380"><ele></ele><time>2015-7-3T18:44:53Z</time></trkpt>
<trkpt lat="46.16837176" lon="6.03261949"><ele></ele><time>2015-7-3T18:44:56Z</time></trkpt>
<trkpt lat="46.16840637" lon="6.03272402"><ele></ele><time>2015-7-3T18:44:59Z</time></trkpt>
<trkpt lat="46.16844107" lon="6.03282812"><ele></ele><time>2015-7-3T18:45:2Z</time></trkpt>
<trkpt lat="46.16847536" lon="6.03293197"><ele></ele><time>2015-7-3T18:45:5Z</time></trkpt>
<trkpt lat="46.16850997" lon="6.03303557"><ele></ele><time>2015-7-3T18:45:8Z</time></trkpt>
<trkpt lat="46.16854534" lon="6.03313909"><ele></ele><time>2015-7-3T18:45:11Z</time></trkpt>
<trkpt lat="46.16858072" lon="6.03324328"><ele></ele><time>2015-7-3T18:45:14Z</time></trkpt>
<trkpt lat="46.16861634" lon="6.03334763"><ele></ele><time>2015-7-3T18:45:17Z</time></trkpt>
<trkpt lat="46.16865213" lon="6.03345173"><ele></ele><time>2015-7-3T18:45:20Z</time></trkpt>
<trkpt lat="46.16868775" lon="6.03355533"><ele></ele><time>2015-7-3T18:45:23Z</time></trkpt>
<trkpt lat="46.16872380" lon="6.03365835"><ele></ele><time>2015-7-3T18:45:26Z</time></trkpt>
<trkpt lat="46.16875975" lon="6.03376103"><ele></ele><time>2015-7-3T18:45:29Z</time></trkpt>
<trkpt lat="46.16879504" lon="6.03386404"><ele></ele><time>2015-7-3T18:45:32Z</time></trkpt>
<trkpt lat="46.16883083" lon="6.03396722"><ele></ele><time>2015-7-3T18:45:35Z</time></trkpt>
<trkpt lat="46.16886738" lon="6.03406998"><ele></ele><time>2015-7-3T18:45:38Z</time></trkpt>
<trkpt lat="46.16890417" lon="6.03417224"><ele></ele><time>2015-7-3T18:45:41Z</time></trkpt>
<trkpt lat="46.16894089" lon="6.03427408"><ele></ele><time>2015-7-3T18:45:44Z</time></trkpt>
<trkpt lat="46.16897777" lon="6.03437517"><ele></ele><time>2015-7-3T18:45:47Z</time></trkpt>
<trkpt lat="46.16901490" lon="6.03447558"><ele></ele><time>2015-7-3T18:45:50Z</time></trkpt>
<trkpt lat="46.16905220" lon="6.03457566"><ele></ele><time>2015-7-3T18:45:53Z</time></trkpt>
<trkpt lat="46.16908933" lon="6.03467583"><ele></ele><time>2015-7-3T18:45:56Z</time></trkpt>
<trkpt lat="46.16912713" lon="6.03477633"><ele></ele><time>2015-7-3T18:45:59Z</time></trkpt>
<trkpt lat="46.16916552" lon="6.03487724"><ele></ele><time>2015-7-3T18:46:2Z</time></trkpt>
<trkpt lat="46.16920458" lon="6.03497934"><ele></ele><time>2015-7-3T18:46:5Z</time></trkpt>
<trkpt lat="46.16924456" lon="6.03508193"><ele></ele><time>2015-7-3T18:46:8Z</time></trkpt>
<trkpt lat="46.16928488" lon="6.03518402"><ele></ele><time>2015-7-3T18:46:11Z</time></trkpt>
<trkpt lat="46.16932553" lon="6.03528586"><ele></ele><time>2015-7-3T18:46:14Z</time></trkpt>
<trkpt lat="46.16936686" lon="6.03538762"><ele></ele><time>2015-7-3T18:46:17Z</time></trkpt>
<trkpt lat="46.16940793" lon="6.03548904"><ele></ele><time>2015-7-3T18:46:20Z</time></trkpt>
<trkpt lat="46.16944858" lon="6.03559054"><ele></ele><time>2015-7-3T18:46:23Z</time></trkpt>
<trkpt lat="46.16948906" lon="6.03569096"><ele></ele><time>2015-7-3T18:46:26Z</time></trkpt>
<trkpt lat="46.16952988" lon="6.03579062"><ele></ele><time>2015-7-3T18:46:29Z</time></trkpt>
<trkpt lat="46.16957154" lon="6.03588986"><ele></ele><time>2015-7-3T18:46:32Z</time></trkpt>
<trkpt lat="46.16961362" lon="6.03598793"><ele></ele><time>2015-7-3T18:46:35Z</time></trkpt>
<trkpt lat="46.16965444" lon="6.03608499"><ele></ele><time>2015-7-3T18:46:38Z</time></trkpt>
<trkpt lat="46.16969568" lon="6.03618314"><ele></ele><time>2015-7-3T18:46:41Z</time></trkpt>
<trkpt lat="46.16973683" lon="6.03628130"><ele></ele><time>2015-7-3T18:46:44Z</time></trkpt>
<trkpt lat="46.16977908" lon="6.03637853"><ele></ele><time>2015-7-3T18:46:47Z</time></trkpt>
<trkpt lat="46.16982149" lon="6.03647475"><ele></ele><time>2015-7-3T18:46:50Z</time></trkpt>
<trkpt lat="46.16986382" lon="6.03657022"><ele></ele><time>2015-7-3T18:46:53Z</time></trkpt>
<trkpt lat="46.16990657" lon="6.03666502"><ele></ele><time>2015-7-3T18:46:56Z</time></trkpt>
<trkpt lat="46.16994864" lon="6.03675839"><ele></ele><time>2015-7-3T18:46:59Z</time></trkpt>
<trkpt lat="46.16998980" lon="6.03685118"><ele></ele><time>2015-7-3T18:47:2Z</time></trkpt>
<trkpt lat="46.17003062" lon="6.03694355"><ele></ele><time>2015-7-3T18:47:5Z</time></trkpt>
<trkpt lat="46.17007144" lon="6.03703567"><ele></ele><time>2015-7-3T18:47:8Z</time></trkpt>
<trkpt lat="46.17011243" lon="6.03712837"><ele></ele><time>2015-7-3T18:47:11Z</time></trkpt>
<trkpt lat="46.17015400" lon="6.03722116"><ele></ele><time>2015-7-3T18:47:14Z</time></trkpt>
<trkpt lat="46.17019608" lon="6.03731294"><ele></ele><time>2015-7-3T18:47:17Z</time></trkpt>
<trkpt lat="46.17023832" lon="6.03740397"><ele></ele><time>2015-7-3T18:47:20Z</time></trkpt>
<trkpt lat="46.17027998" lon="6.03749257"><ele></ele><time>2015-7-3T18:47:23Z</time></trkpt>
<trkpt lat="46.17032105" lon="6.03757957"><ele></ele><time>2015-7-3T18:47:26Z</time></trkpt>
<trkpt lat="46.17036137" lon="6.03766657"><ele></ele><time>2015-7-3T18:47:29Z</time></trkpt>
<trkpt lat="46.17040110" lon="6.03775266"><ele></ele><time>2015-7-3T18:47:32Z</time></trkpt>
<trkpt lat="46.17044049" lon="6.03783798"><ele></ele><time>2015-7-3T18:47:35Z</time></trkpt>
<trkpt lat="46.17048047" lon="6.03792348"><ele></ele><time>2015-7-3T18:47:38Z</time></trkpt>
<trkpt lat="46.17051962" lon="6.03800730"><ele></ele><time>2015-7-3T18:47:41Z</time></trkpt>
<trkpt lat="46.17055834" lon="6.03808802"><ele></ele><time>2015-7-3T18:47:44Z</time></trkpt>
<trkpt lat="46.17059707" lon="6.03816387"><ele></ele><time>2015-7-3T18:47:47Z</time></trkpt>
<trkpt lat="46.17063873" lon="6.03823294"><ele></ele><time>2015-7-3T18:47:50Z</time></trkpt>
<trkpt lat="46.17068516" lon="6.03828742"><ele></ele><time>2015-7-3T18:47:53Z</time></trkpt>
<trkpt lat="46.17073654" lon="6.03832196"><ele></ele><time>2015-7-3T18:47:56Z</time></trkpt>
<trkpt lat="46.17079019" lon="6.03834987"><ele></ele><time>2015-7-3T18:47:59Z</time></trkpt>
<trkpt lat="46.17082950" lon="6.03835540"><ele></ele><time>2015-7-3T18:48:2Z</time></trkpt>
<trkpt lat="46.17085355" lon="6.03840276"><ele></ele><time>2015-7-3T18:48:5Z</time></trkpt>
<trkpt lat="46.17085707" lon="6.03848079"><ele></ele><time>2015-7-3T18:48:8Z</time></trkpt>
<trkpt lat="46.17085305" lon="6.03855380"><ele></ele><time>2015-7-3T18:48:11Z</time></trkpt>
<trkpt lat="46.17085573" lon="6.03863829"><ele></ele><time>2015-7-3T18:48:14Z</time></trkpt>
<trkpt lat="46.17087149" lon="6.03872295"><ele></ele><time>2015-7-3T18:48:17Z</time></trkpt>
<trkpt lat="46.17089915" lon="6.03880668"><ele></ele><time>2015-7-3T18:48:20Z</time></trkpt>
<trkpt lat="46.17093318" lon="6.03889083"><ele></ele><time>2015-7-3T18:48:23Z</time></trkpt>
<trkpt lat="46.17097056" lon="6.03897516"><ele></ele><time>2015-7-3T18:48:26Z</time></trkpt>
<trkpt lat="46.17100996" lon="6.03905948"><ele></ele><time>2015-7-3T18:48:29Z</time></trkpt>
<trkpt lat="46.17104986" lon="6.03914363"><ele></ele><time>2015-7-3T18:48:32Z</time></trkpt>
<trkpt lat="46.17108959" lon="6.03922754"><ele></ele><time>2015-7-3T18:48:35Z</time></trkpt>
<trkpt lat="46.17112873" lon="6.03931102"><ele></ele><time>2015-7-3T18:48:38Z</time></trkpt>
<trkpt lat="46.17116813" lon="6.03939576"><ele></ele><time>2015-7-3T18:48:41Z</time></trkpt>
<trkpt lat="46.17120819" lon="6.03948260"><ele></ele><time>2015-7-3T18:48:44Z</time></trkpt>
<trkpt lat="46.17124868" lon="6.03957136"><ele></ele><time>2015-7-3T18:48:47Z</time></trkpt>
<trkpt lat="46.17129000" lon="6.03966147"><ele></ele><time>2015-7-3T18:48:50Z</time></trkpt>
<trkpt lat="46.17133182" lon="6.03975283"><ele></ele><time>2015-7-3T18:48:53Z</time></trkpt>
<trkpt lat="46.17137365" lon="6.03984587"><ele></ele><time>2015-7-3T18:48:56Z</time></trkpt>
<trkpt lat="46.17141472" lon="6.03994042"><ele></ele><time>2015-7-3T18:48:59Z</time></trkpt>
<trkpt lat="46.17145630" lon="6.04003564"><ele></ele><time>2015-7-3T18:49:2Z</time></trkpt>
<trkpt lat="46.17149854" lon="6.04013203"><ele></ele><time>2015-7-3T18:49:5Z</time></trkpt>
<trkpt lat="46.17154045" lon="6.04023010"><ele></ele><time>2015-7-3T18:49:8Z</time></trkpt>
<trkpt lat="46.17158186" lon="6.04032976"><ele></ele><time>2015-7-3T18:49:11Z</time></trkpt>
<trkpt lat="46.17162368" lon="6.04043026"><ele></ele><time>2015-7-3T18:49:14Z</time></trkpt>
<trkpt lat="46.17166559" lon="6.04053142"><ele></ele><time>2015-7-3T18:49:17Z</time></trkpt>
<trkpt lat="46.17170700" lon="6.04063352"><ele></ele><time>2015-7-3T18:49:20Z</time></trkpt>
<trkpt lat="46.17174748" lon="6.04073628"><ele></ele><time>2015-7-3T18:49:23Z</time></trkpt>
<trkpt lat="46.17178696" lon="6.04083980"><ele></ele><time>2015-7-3T18:49:26Z</time></trkpt>
<trkpt lat="46.17182569" lon="6.04094356"><ele></ele><time>2015-7-3T18:49:29Z</time></trkpt>
<trkpt lat="46.17186374" lon="6.04104809"><ele></ele><time>2015-7-3T18:49:32Z</time></trkpt>
<trkpt lat="46.17190163" lon="6.04115345"><ele></ele><time>2015-7-3T18:49:35Z</time></trkpt>
<trkpt lat="46.17193884" lon="6.04125956"><ele></ele><time>2015-7-3T18:49:38Z</time></trkpt>
<trkpt lat="46.17197497" lon="6.04136660"><ele></ele><time>2015-7-3T18:49:41Z</time></trkpt>
<trkpt lat="46.17201017" lon="6.04147422"><ele></ele><time>2015-7-3T18:49:44Z</time></trkpt>
<trkpt lat="46.17204437" lon="6.04158243"><ele></ele><time>2015-7-3T18:49:47Z</time></trkpt>
<trkpt lat="46.17207748" lon="6.04169123"><ele></ele><time>2015-7-3T18:49:50Z</time></trkpt>
<trkpt lat="46.17210925" lon="6.04180086"><ele></ele><time>2015-7-3T18:49:53Z</time></trkpt>
<trkpt lat="46.17213984" lon="6.04191125"><ele></ele><time>2015-7-3T18:49:56Z</time></trkpt>
<trkpt lat="46.17216934" lon="6.04202324"><ele></ele><time>2015-7-3T18:49:59Z</time></trkpt>
<trkpt lat="46.17219776" lon="6.04213606"><ele></ele><time>2015-7-3T18:50:2Z</time></trkpt>
<trkpt lat="46.17222668" lon="6.04225005"><ele></ele><time>2015-7-3T18:50:5Z</time></trkpt>
<trkpt lat="46.17225434" lon="6.04236513"><ele></ele><time>2015-7-3T18:50:8Z</time></trkpt>
<trkpt lat="46.17227915" lon="6.04247938"><ele></ele><time>2015-7-3T18:50:11Z</time></trkpt>
<trkpt lat="46.17230237" lon="6.04259253"><ele></ele><time>2015-7-3T18:50:14Z</time></trkpt>
<trkpt lat="46.17232474" lon="6.04270468"><ele></ele><time>2015-7-3T18:50:17Z</time></trkpt>
<trkpt lat="46.17234679" lon="6.04281482"><ele></ele><time>2015-7-3T18:50:20Z</time></trkpt>
<trkpt lat="46.17236724" lon="6.04292278"><ele></ele><time>2015-7-3T18:50:23Z</time></trkpt>
<trkpt lat="46.17237822" lon="6.04303317"><ele></ele><time>2015-7-3T18:50:26Z</time></trkpt>
<trkpt lat="46.17239239" lon="6.04312495"><ele></ele><time>2015-7-3T18:50:29Z</time></trkpt>
<trkpt lat="46.17240395" lon="6.04322478"><ele></ele><time>2015-7-3T18:50:32Z</time></trkpt>
<trkpt lat="46.17241644" lon="6.04332738"><ele></ele><time>2015-7-3T18:50:35Z</time></trkpt>
<trkpt lat="46.17242767" lon="6.04343282"><ele></ele><time>2015-7-3T18:50:38Z</time></trkpt>
<trkpt lat="46.17243933" lon="6.04354187"><ele></ele><time>2015-7-3T18:50:41Z</time></trkpt>
<trkpt lat="46.17245098" lon="6.04365502"><ele></ele><time>2015-7-3T18:50:44Z</time></trkpt>
<trkpt lat="46.17246296" lon="6.04377086"><ele></ele><time>2015-7-3T18:50:47Z</time></trkpt>
<trkpt lat="46.17247319" lon="6.04388913"><ele></ele><time>2015-7-3T18:50:50Z</time></trkpt>
<trkpt lat="46.17248165" lon="6.04400882"><ele></ele><time>2015-7-3T18:50:53Z</time></trkpt>
<trkpt lat="46.17249012" lon="6.04413036"><ele></ele><time>2015-7-3T18:50:56Z</time></trkpt>
<trkpt lat="46.17249859" lon="6.04425358"><ele></ele><time>2015-7-3T18:50:59Z</time></trkpt>
<trkpt lat="46.17250663" lon="6.04437863"><ele></ele><time>2015-7-3T18:51:2Z</time></trkpt>
<trkpt lat="46.17251468" lon="6.04450453"><ele></ele><time>2015-7-3T18:51:5Z</time></trkpt>
<trkpt lat="46.17252164" lon="6.04463252"><ele></ele><time>2015-7-3T18:51:8Z</time></trkpt>
<trkpt lat="46.17252792" lon="6.04476169"><ele></ele><time>2015-7-3T18:51:11Z</time></trkpt>
<trkpt lat="46.17253396" lon="6.04489136"><ele></ele><time>2015-7-3T18:51:14Z</time></trkpt>
<trkpt lat="46.17254024" lon="6.04502203"><ele></ele><time>2015-7-3T18:51:17Z</time></trkpt>
<trkpt lat="46.17254703" lon="6.04515388"><ele></ele><time>2015-7-3T18:51:20Z</time></trkpt>
<trkpt lat="46.17255374" lon="6.04528723"><ele></ele><time>2015-7-3T18:51:23Z</time></trkpt>
<trkpt lat="46.17256070" lon="6.04542168"><ele></ele><time>2015-7-3T18:51:26Z</time></trkpt>
<trkpt lat="46.17256606" lon="6.04555730"><ele></ele><time>2015-7-3T18:51:29Z</time></trkpt>
<trkpt lat="46.17257117" lon="6.04569334"><ele></ele><time>2015-7-3T18:51:32Z</time></trkpt>
<trkpt lat="46.17257662" lon="6.04582954"><ele></ele><time>2015-7-3T18:51:35Z</time></trkpt>
<trkpt lat="46.17258257" lon="6.04596608"><ele></ele><time>2015-7-3T18:51:38Z</time></trkpt>
<trkpt lat="46.17258869" lon="6.04610288"><ele></ele><time>2015-7-3T18:51:41Z</time></trkpt>
<trkpt lat="46.17259506" lon="6.04624042"><ele></ele><time>2015-7-3T18:51:44Z</time></trkpt>
<trkpt lat="46.17260160" lon="6.04637914"><ele></ele><time>2015-7-3T18:51:47Z</time></trkpt>
<trkpt lat="46.17260898" lon="6.04651736"><ele></ele><time>2015-7-3T18:51:50Z</time></trkpt>
<trkpt lat="46.17261803" lon="6.04665482"><ele></ele><time>2015-7-3T18:51:53Z</time></trkpt>
<trkpt lat="46.17262809" lon="6.04679162"><ele></ele><time>2015-7-3T18:51:56Z</time></trkpt>
<trkpt lat="46.17263865" lon="6.04692766"><ele></ele><time>2015-7-3T18:51:59Z</time></trkpt>
<trkpt lat="46.17265063" lon="6.04706319"><ele></ele><time>2015-7-3T18:52:2Z</time></trkpt>
<trkpt lat="46.17266463" lon="6.04719764"><ele></ele><time>2015-7-3T18:52:5Z</time></trkpt>
<trkpt lat="46.17268039" lon="6.04733124"><ele></ele><time>2015-7-3T18:52:8Z</time></trkpt>
<trkpt lat="46.17269665" lon="6.04746435"><ele></ele><time>2015-7-3T18:52:11Z</time></trkpt>
<trkpt lat="46.17271425" lon="6.04759670"><ele></ele><time>2015-7-3T18:52:14Z</time></trkpt>
<trkpt lat="46.17273353" lon="6.04772804"><ele></ele><time>2015-7-3T18:52:17Z</time></trkpt>
<trkpt lat="46.17275407" lon="6.04785863"><ele></ele><time>2015-7-3T18:52:20Z</time></trkpt>
<trkpt lat="46.17277544" lon="6.04798847"><ele></ele><time>2015-7-3T18:52:23Z</time></trkpt>
<trkpt lat="46.17279824" lon="6.04811730"><ele></ele><time>2015-7-3T18:52:26Z</time></trkpt>
<trkpt lat="46.17282305" lon="6.04824504"><ele></ele><time>2015-7-3T18:52:29Z</time></trkpt>
<trkpt lat="46.17284895" lon="6.04837194"><ele></ele><time>2015-7-3T18:52:32Z</time></trkpt>
<trkpt lat="46.17287544" lon="6.04849742"><ele></ele><time>2015-7-3T18:52:35Z</time></trkpt>
<trkpt lat="46.17290293" lon="6.04862122"><ele></ele><time>2015-7-3T18:52:38Z</time></trkpt>
<trkpt lat="46.17293118" lon="6.04874435"><ele></ele><time>2015-7-3T18:52:41Z</time></trkpt>
<trkpt lat="46.17295917" lon="6.04886689"><ele></ele><time>2015-7-3T18:52:44Z</time></trkpt>
<trkpt lat="46.17298708" lon="6.04898860"><ele></ele><time>2015-7-3T18:52:47Z</time></trkpt>
<trkpt lat="46.17301525" lon="6.04910905"><ele></ele><time>2015-7-3T18:52:50Z</time></trkpt>
<trkpt lat="46.17304425" lon="6.04922899"><ele></ele><time>2015-7-3T18:52:53Z</time></trkpt>
<trkpt lat="46.17307367" lon="6.04934843"><ele></ele><time>2015-7-3T18:52:56Z</time></trkpt>
<trkpt lat="46.17310275" lon="6.04946762"><ele></ele><time>2015-7-3T18:52:59Z</time></trkpt>
<trkpt lat="46.17313209" lon="6.04958656"><ele></ele><time>2015-7-3T18:53:2Z</time></trkpt>
<trkpt lat="46.17316092" lon="6.04970517"><ele></ele><time>2015-7-3T18:53:5Z</time></trkpt>
<trkpt lat="46.17318925" lon="6.04982318"><ele></ele><time>2015-7-3T18:53:8Z</time></trkpt>
<trkpt lat="46.17321759" lon="6.04994053"><ele></ele><time>2015-7-3T18:53:11Z</time></trkpt>
<trkpt lat="46.17324617" lon="6.05005712"><ele></ele><time>2015-7-3T18:53:14Z</time></trkpt>
<trkpt lat="46.17327425" lon="6.05017338"><ele></ele><time>2015-7-3T18:53:17Z</time></trkpt>
<trkpt lat="46.17330166" lon="6.05028905"><ele></ele><time>2015-7-3T18:53:20Z</time></trkpt>
<trkpt lat="46.17332848" lon="6.05040388"><ele></ele><time>2015-7-3T18:53:23Z</time></trkpt>
<trkpt lat="46.17335505" lon="6.05051712"><ele></ele><time>2015-7-3T18:53:26Z</time></trkpt>
<trkpt lat="46.17338254" lon="6.05062994"><ele></ele><time>2015-7-3T18:53:29Z</time></trkpt>
<trkpt lat="46.17340995" lon="6.05074259"><ele></ele><time>2015-7-3T18:53:32Z</time></trkpt>
<trkpt lat="46.17343686" lon="6.05085558"><ele></ele><time>2015-7-3T18:53:35Z</time></trkpt>
<trkpt lat="46.17346334" lon="6.05096924"><ele></ele><time>2015-7-3T18:53:38Z</time></trkpt>
<trkpt lat="46.17348975" lon="6.05108382"><ele></ele><time>2015-7-3T18:53:41Z</time></trkpt>
<trkpt lat="46.17351674" lon="6.05119916"><ele></ele><time>2015-7-3T18:53:44Z</time></trkpt>
<trkpt lat="46.17354373" lon="6.05131432"><ele></ele><time>2015-7-3T18:53:47Z</time></trkpt>
<trkpt lat="46.17357063" lon="6.05142924"><ele></ele><time>2015-7-3T18:53:50Z</time></trkpt>
<trkpt lat="46.17359745" lon="6.05154399"><ele></ele><time>2015-7-3T18:53:53Z</time></trkpt>
<trkpt lat="46.17362386" lon="6.05165874"><ele></ele><time>2015-7-3T18:53:56Z</time></trkpt>
<trkpt lat="46.17364976" lon="6.05177332"><ele></ele><time>2015-7-3T18:53:59Z</time></trkpt>
<trkpt lat="46.17367582" lon="6.05188723"><ele></ele><time>2015-7-3T18:54:2Z</time></trkpt>
<trkpt lat="46.17370172" lon="6.05200013"><ele></ele><time>2015-7-3T18:54:5Z</time></trkpt>
<trkpt lat="46.17372679" lon="6.05211220"><ele></ele><time>2015-7-3T18:54:8Z</time></trkpt>
<trkpt lat="46.17375126" lon="6.05222292"><ele></ele><time>2015-7-3T18:54:11Z</time></trkpt>
<trkpt lat="46.17377523" lon="6.05233264"><ele></ele><time>2015-7-3T18:54:14Z</time></trkpt>
<trkpt lat="46.17379845" lon="6.05244102"><ele></ele><time>2015-7-3T18:54:17Z</time></trkpt>
<trkpt lat="46.17382100" lon="6.05254739"><ele></ele><time>2015-7-3T18:54:20Z</time></trkpt>
<trkpt lat="46.17384313" lon="6.05264998"><ele></ele><time>2015-7-3T18:54:23Z</time></trkpt>
<trkpt lat="46.17386576" lon="6.05274947"><ele></ele><time>2015-7-3T18:54:26Z</time></trkpt>
<trkpt lat="46.17388822" lon="6.05284788"><ele></ele><time>2015-7-3T18:54:29Z</time></trkpt>
<trkpt lat="46.17390960" lon="6.05294368"><ele></ele><time>2015-7-3T18:54:32Z</time></trkpt>
<trkpt lat="46.17392980" lon="6.05303689"><ele></ele><time>2015-7-3T18:54:35Z</time></trkpt>
<trkpt lat="46.17394832" lon="6.05312792"><ele></ele><time>2015-7-3T18:54:38Z</time></trkpt>
<trkpt lat="46.17396642" lon="6.05321492"><ele></ele><time>2015-7-3T18:54:41Z</time></trkpt>
<trkpt lat="46.17398428" lon="6.05329706"><ele></ele><time>2015-7-3T18:54:44Z</time></trkpt>
<trkpt lat="46.17399995" lon="6.05337527"><ele></ele><time>2015-7-3T18:54:47Z</time></trkpt>
<trkpt lat="46.17401303" lon="6.05344458"><ele></ele><time>2015-7-3T18:54:50Z</time></trkpt>
<trkpt lat="46.17402594" lon="6.05350217"><ele></ele><time>2015-7-3T18:54:53Z</time></trkpt>
<trkpt lat="46.17404438" lon="6.05354257"><ele></ele><time>2015-7-3T18:54:56Z</time></trkpt>
<trkpt lat="46.17407246" lon="6.05355732"><ele></ele><time>2015-7-3T18:54:59Z</time></trkpt>
<trkpt lat="46.17410749" lon="6.05354743"><ele></ele><time>2015-7-3T18:55:2Z</time></trkpt>
<trkpt lat="46.17414873" lon="6.05352648"><ele></ele><time>2015-7-3T18:55:5Z</time></trkpt>
<trkpt lat="46.17419567" lon="6.05350426"><ele></ele><time>2015-7-3T18:55:8Z</time></trkpt>
<trkpt lat="46.17424428" lon="6.05348767"><ele></ele><time>2015-7-3T18:55:11Z</time></trkpt>
<trkpt lat="46.17429432" lon="6.05347618"><ele></ele><time>2015-7-3T18:55:14Z</time></trkpt>
<trkpt lat="46.17434327" lon="6.05346303"><ele></ele><time>2015-7-3T18:55:17Z</time></trkpt>
<trkpt lat="46.17439114" lon="6.05344668"><ele></ele><time>2015-7-3T18:55:20Z</time></trkpt>
<trkpt lat="46.17443975" lon="6.05343184"><ele></ele><time>2015-7-3T18:55:23Z</time></trkpt>
<trkpt lat="46.17448912" lon="6.05341810"><ele></ele><time>2015-7-3T18:55:26Z</time></trkpt>
<trkpt lat="46.17453950" lon="6.05340477"><ele></ele><time>2015-7-3T18:55:29Z</time></trkpt>
<trkpt lat="46.17459197" lon="6.05339069"><ele></ele><time>2015-7-3T18:55:32Z</time></trkpt>
<trkpt lat="46.17464469" lon="6.05337527"><ele></ele><time>2015-7-3T18:55:35Z</time></trkpt>
<trkpt lat="46.17469716" lon="6.05335733"><ele></ele><time>2015-7-3T18:55:38Z</time></trkpt>
<trkpt lat="46.17474996" lon="6.05333839"><ele></ele><time>2015-7-3T18:55:41Z</time></trkpt>
<trkpt lat="46.17480336" lon="6.05332062"><ele></ele><time>2015-7-3T18:55:44Z</time></trkpt>
<trkpt lat="46.17485742" lon="6.05330327"><ele></ele><time>2015-7-3T18:55:47Z</time></trkpt>
<trkpt lat="46.17491174" lon="6.05328575"><ele></ele><time>2015-7-3T18:55:50Z</time></trkpt>
<trkpt lat="46.17496588" lon="6.05326823"><ele></ele><time>2015-7-3T18:55:53Z</time></trkpt>
<trkpt lat="46.17501986" lon="6.05325188"><ele></ele><time>2015-7-3T18:55:56Z</time></trkpt>
<trkpt lat="46.17507476" lon="6.05323554"><ele></ele><time>2015-7-3T18:55:59Z</time></trkpt>
<trkpt lat="46.17513084" lon="6.05321836"><ele></ele><time>2015-7-3T18:56:2Z</time></trkpt>
<trkpt lat="46.17518666" lon="6.05320034"><ele></ele><time>2015-7-3T18:56:5Z</time></trkpt>
<trkpt lat="46.17524173" lon="6.05318223"><ele></ele><time>2015-7-3T18:56:8Z</time></trkpt>
<trkpt lat="46.17529613" lon="6.05316463"><ele></ele><time>2015-7-3T18:56:11Z</time></trkpt>
<trkpt lat="46.17534810" lon="6.05314854"><ele></ele><time>2015-7-3T18:56:14Z</time></trkpt>
<trkpt lat="46.17539956" lon="6.05313353"><ele></ele><time>2015-7-3T18:56:17Z</time></trkpt>
<trkpt lat="46.17545036" lon="6.05312322"><ele></ele><time>2015-7-3T18:56:20Z</time></trkpt>
<trkpt lat="46.17550123" lon="6.05311266"><ele></ele><time>2015-7-3T18:56:23Z</time></trkpt>
<trkpt lat="46.17555153" lon="6.05310017"><ele></ele><time>2015-7-3T18:56:26Z</time></trkpt>
<trkpt lat="46.17560023" lon="6.05308584"><ele></ele><time>2015-7-3T18:56:29Z</time></trkpt>
<trkpt lat="46.17564918" lon="6.05307067"><ele></ele><time>2015-7-3T18:56:32Z</time></trkpt>
<trkpt lat="46.17569804" lon="6.05305600"><ele></ele><time>2015-7-3T18:56:35Z</time></trkpt>
<trkpt lat="46.17574657" lon="6.05304150"><ele></ele><time>2015-7-3T18:56:38Z</time></trkpt>
<trkpt lat="46.17579544" lon="6.05302759"><ele></ele><time>2015-7-3T18:56:41Z</time></trkpt>
<trkpt lat="46.17584523" lon="6.05301476"><ele></ele><time>2015-7-3T18:56:44Z</time></trkpt>
<trkpt lat="46.17589485" lon="6.05300562"><ele></ele><time>2015-7-3T18:56:47Z</time></trkpt>
<trkpt lat="46.17594522" lon="6.05299984"><ele></ele><time>2015-7-3T18:56:50Z</time></trkpt>
<trkpt lat="46.17599459" lon="6.05299288"><ele></ele><time>2015-7-3T18:56:53Z</time></trkpt>
<trkpt lat="46.17604229" lon="6.05298433"><ele></ele><time>2015-7-3T18:56:56Z</time></trkpt>
<trkpt lat="46.17609099" lon="6.05297872"><ele></ele><time>2015-7-3T18:56:59Z</time></trkpt>
<trkpt lat="46.17614094" lon="6.05297604"><ele></ele><time>2015-7-3T18:57:2Z</time></trkpt>
<trkpt lat="46.17619098" lon="6.05297537"><ele></ele><time>2015-7-3T18:57:5Z</time></trkpt>
<trkpt lat="46.17624018" lon="6.05297646"><ele></ele><time>2015-7-3T18:57:8Z</time></trkpt>
<trkpt lat="46.17628855" lon="6.05297998"><ele></ele><time>2015-7-3T18:57:11Z</time></trkpt>
<trkpt lat="46.17633649" lon="6.05298459"><ele></ele><time>2015-7-3T18:57:14Z</time></trkpt>
<trkpt lat="46.17638569" lon="6.05298928"><ele></ele><time>2015-7-3T18:57:17Z</time></trkpt>
<trkpt lat="46.17643833" lon="6.05299339"><ele></ele><time>2015-7-3T18:57:20Z</time></trkpt>
<trkpt lat="46.17649407" lon="6.05299749"><ele></ele><time>2015-7-3T18:57:23Z</time></trkpt>
<trkpt lat="46.17655300" lon="6.05300076"><ele></ele><time>2015-7-3T18:57:26Z</time></trkpt>
<trkpt lat="46.17661309" lon="6.05300697"><ele></ele><time>2015-7-3T18:57:29Z</time></trkpt>
<trkpt lat="46.17667604" lon="6.05300965"><ele></ele><time>2015-7-3T18:57:32Z</time></trkpt>
<trkpt lat="46.17674008" lon="6.05300898"><ele></ele><time>2015-7-3T18:57:35Z</time></trkpt>
<trkpt lat="46.17680437" lon="6.05300873"><ele></ele><time>2015-7-3T18:57:38Z</time></trkpt>
<trkpt lat="46.17686849" lon="6.05301216"><ele></ele><time>2015-7-3T18:57:41Z</time></trkpt>
<trkpt lat="46.17693244" lon="6.05301744"><ele></ele><time>2015-7-3T18:57:44Z</time></trkpt>
<trkpt lat="46.17699724" lon="6.05302214"><ele></ele><time>2015-7-3T18:57:47Z</time></trkpt>
<trkpt lat="46.17706312" lon="6.05303043"><ele></ele><time>2015-7-3T18:57:50Z</time></trkpt>
<trkpt lat="46.17712942" lon="6.05304636"><ele></ele><time>2015-7-3T18:57:53Z</time></trkpt>
<trkpt lat="46.17719547" lon="6.05306455"><ele></ele><time>2015-7-3T18:57:56Z</time></trkpt>
<trkpt lat="46.17726219" lon="6.05308207"><ele></ele><time>2015-7-3T18:57:59Z</time></trkpt>
<trkpt lat="46.17732774" lon="6.05310009"><ele></ele><time>2015-7-3T18:58:2Z</time></trkpt>
<trkpt lat="46.17739219" lon="6.05312222"><ele></ele><time>2015-7-3T18:58:5Z</time></trkpt>
<trkpt lat="46.17745422" lon="6.05315348"><ele></ele><time>2015-7-3T18:58:8Z</time></trkpt>
<trkpt lat="46.17751557" lon="6.05318508"><ele></ele><time>2015-7-3T18:58:11Z</time></trkpt>
<trkpt lat="46.17757760" lon="6.05322448"><ele></ele><time>2015-7-3T18:58:14Z</time></trkpt>
<trkpt lat="46.17763912" lon="6.05327393"><ele></ele><time>2015-7-3T18:58:17Z</time></trkpt>
<trkpt lat="46.17770107" lon="6.05332506"><ele></ele><time>2015-7-3T18:58:20Z</time></trkpt>
<trkpt lat="46.17776217" lon="6.05337912"><ele></ele><time>2015-7-3T18:58:23Z</time></trkpt>
<trkpt lat="46.17781933" lon="6.05343536"><ele></ele><time>2015-7-3T18:58:26Z</time></trkpt>
<trkpt lat="46.17787868" lon="6.05349303"><ele></ele><time>2015-7-3T18:58:29Z</time></trkpt>
<trkpt lat="46.17793542" lon="6.05355238"><ele></ele><time>2015-7-3T18:58:32Z</time></trkpt>
<trkpt lat="46.17798664" lon="6.05360887"><ele></ele><time>2015-7-3T18:58:35Z</time></trkpt>
<trkpt lat="46.17803383" lon="6.05366897"><ele></ele><time>2015-7-3T18:58:38Z</time></trkpt>
<trkpt lat="46.17807817" lon="6.05373376"><ele></ele><time>2015-7-3T18:58:41Z</time></trkpt>
<trkpt lat="46.17811949" lon="6.05380224"><ele></ele><time>2015-7-3T18:58:44Z</time></trkpt>
<trkpt lat="46.17815838" lon="6.05387315"><ele></ele><time>2015-7-3T18:58:47Z</time></trkpt>
<trkpt lat="46.17819593" lon="6.05394532"><ele></ele><time>2015-7-3T18:58:50Z</time></trkpt>
<trkpt lat="46.17823239" lon="6.05401824"><ele></ele><time>2015-7-3T18:58:53Z</time></trkpt>
<trkpt lat="46.17826777" lon="6.05409225"><ele></ele><time>2015-7-3T18:58:56Z</time></trkpt>
<trkpt lat="46.17829937" lon="6.05417012"><ele></ele><time>2015-7-3T18:58:59Z</time></trkpt>
<trkpt lat="46.17833197" lon="6.05424464"><ele></ele><time>2015-7-3T18:59:2Z</time></trkpt>
<trkpt lat="46.17837019" lon="6.05431898"><ele></ele><time>2015-7-3T18:59:5Z</time></trkpt>
<trkpt lat="46.17840783" lon="6.05439509"><ele></ele><time>2015-7-3T18:59:8Z</time></trkpt>
<trkpt lat="46.17844529" lon="6.05447363"><ele></ele><time>2015-7-3T18:59:11Z</time></trkpt>
<trkpt lat="46.17848243" lon="6.05455242"><ele></ele><time>2015-7-3T18:59:14Z</time></trkpt>
<trkpt lat="46.17852090" lon="6.05463188"><ele></ele><time>2015-7-3T18:59:17Z</time></trkpt>
<trkpt lat="46.17855979" lon="6.05471067"><ele></ele><time>2015-7-3T18:59:20Z</time></trkpt>
<trkpt lat="46.17859759" lon="6.05478720"><ele></ele><time>2015-7-3T18:59:23Z</time></trkpt>
<trkpt lat="46.17863305" lon="6.05485979"><ele></ele><time>2015-7-3T18:59:26Z</time></trkpt>
<trkpt lat="46.17866582" lon="6.05492718"><ele></ele><time>2015-7-3T18:59:29Z</time></trkpt>
<trkpt lat="46.17869155" lon="6.05497613"><ele></ele><time>2015-7-3T18:59:32Z</time></trkpt>
<trkpt lat="46.17871796" lon="6.05501133"><ele></ele><time>2015-7-3T18:59:35Z</time></trkpt>
<trkpt lat="46.17873682" lon="6.05503547"><ele></ele><time>2015-7-3T18:59:38Z</time></trkpt>
<trkpt lat="46.17875048" lon="6.05505978"><ele></ele><time>2015-7-3T18:59:41Z</time></trkpt>
<trkpt lat="46.17875299" lon="6.05508056"><ele></ele><time>2015-7-3T18:59:44Z</time></trkpt>
<trkpt lat="46.17874872" lon="6.05510068"><ele></ele><time>2015-7-3T18:59:47Z</time></trkpt>
<trkpt lat="46.17873833" lon="6.05511644"><ele></ele><time>2015-7-3T18:59:50Z</time></trkpt>
<trkpt lat="46.17873380" lon="6.05514385"><ele></ele><time>2015-7-3T18:59:53Z</time></trkpt>
<trkpt lat="46.17873020" lon="6.05517855"><ele></ele><time>2015-7-3T18:59:56Z</time></trkpt>
<trkpt lat="46.17873112" lon="6.05522222"><ele></ele><time>2015-7-3T18:59:59Z</time></trkpt>
<trkpt lat="46.17873782" lon="6.05527167"><ele></ele><time>2015-7-3T19:0:2Z</time></trkpt>
<trkpt lat="46.17874285" lon="6.05532724"><ele></ele><time>2015-7-3T19:0:5Z</time></trkpt>
<trkpt lat="46.17875258" lon="6.05539304"><ele></ele><time>2015-7-3T19:0:8Z</time></trkpt>
<trkpt lat="46.17876297" lon="6.05545976"><ele></ele><time>2015-7-3T19:0:11Z</time></trkpt>
<trkpt lat="46.17877445" lon="6.05552933"><ele></ele><time>2015-7-3T19:0:14Z</time></trkpt>
<trkpt lat="46.17878258" lon="6.05560192"><ele></ele><time>2015-7-3T19:0:17Z</time></trkpt>
<trkpt lat="46.17879096" lon="6.05567736"><ele></ele><time>2015-7-3T19:0:20Z</time></trkpt>
<trkpt lat="46.17879943" lon="6.05575447"><ele></ele><time>2015-7-3T19:0:23Z</time></trkpt>
<trkpt lat="46.17881007" lon="6.05583267"><ele></ele><time>2015-7-3T19:0:26Z</time></trkpt>
<trkpt lat="46.17882097" lon="6.05591255"><ele></ele><time>2015-7-3T19:0:29Z</time></trkpt>
<trkpt lat="46.17883229" lon="6.05599444"><ele></ele><time>2015-7-3T19:0:32Z</time></trkpt>
<trkpt lat="46.17884377" lon="6.05607642"><ele></ele><time>2015-7-3T19:0:35Z</time></trkpt>
<trkpt lat="46.17885785" lon="6.05615948"><ele></ele><time>2015-7-3T19:0:38Z</time></trkpt>
<trkpt lat="46.17886967" lon="6.05624439"><ele></ele><time>2015-7-3T19:0:41Z</time></trkpt>
<trkpt lat="46.17888115" lon="6.05633190"><ele></ele><time>2015-7-3T19:0:44Z</time></trkpt>
<trkpt lat="46.17889297" lon="6.05641899"><ele></ele><time>2015-7-3T19:0:47Z</time></trkpt>
<trkpt lat="46.17890169" lon="6.05650323"><ele></ele><time>2015-7-3T19:0:50Z</time></trkpt>
<trkpt lat="46.17890588" lon="6.05658562"><ele></ele><time>2015-7-3T19:0:53Z</time></trkpt>
<trkpt lat="46.17890630" lon="6.05666835"><ele></ele><time>2015-7-3T19:0:56Z</time></trkpt>
<trkpt lat="46.17890580" lon="6.05675259"><ele></ele><time>2015-7-3T19:0:59Z</time></trkpt>
<trkpt lat="46.17890538" lon="6.05683800"><ele></ele><time>2015-7-3T19:1:2Z</time></trkpt>
<trkpt lat="46.17890395" lon="6.05692408"><ele></ele><time>2015-7-3T19:1:5Z</time></trkpt>
<trkpt lat="46.17889934" lon="6.05700999"><ele></ele><time>2015-7-3T19:1:8Z</time></trkpt>
<trkpt lat="46.17889272" lon="6.05709666"><ele></ele><time>2015-7-3T19:1:11Z</time></trkpt>
<trkpt lat="46.17888627" lon="6.05718543"><ele></ele><time>2015-7-3T19:1:14Z</time></trkpt>
<trkpt lat="46.17888023" lon="6.05727579"><ele></ele><time>2015-7-3T19:1:17Z</time></trkpt>
<trkpt lat="46.17887562" lon="6.05736673"><ele></ele><time>2015-7-3T19:1:20Z</time></trkpt>
<trkpt lat="46.17887252" lon="6.05745843"><ele></ele><time>2015-7-3T19:1:23Z</time></trkpt>
<trkpt lat="46.17887068" lon="6.05754987"><ele></ele><time>2015-7-3T19:1:26Z</time></trkpt>
<trkpt lat="46.17886933" lon="6.05764065"><ele></ele><time>2015-7-3T19:1:29Z</time></trkpt>
<trkpt lat="46.17886858" lon="6.05773092"><ele></ele><time>2015-7-3T19:1:32Z</time></trkpt>
<trkpt lat="46.17886724" lon="6.05782019"><ele></ele><time>2015-7-3T19:1:35Z</time></trkpt>
<trkpt lat="46.17886439" lon="6.05790854"><ele></ele><time>2015-7-3T19:1:38Z</time></trkpt>
<trkpt lat="46.17886095" lon="6.05799654"><ele></ele><time>2015-7-3T19:1:41Z</time></trkpt>
<trkpt lat="46.17885727" lon="6.05808388"><ele></ele><time>2015-7-3T19:1:44Z</time></trkpt>
<trkpt lat="46.17885274" lon="6.05817097"><ele></ele><time>2015-7-3T19:1:47Z</time></trkpt>
<trkpt lat="46.17884880" lon="6.05825840"><ele></ele><time>2015-7-3T19:1:50Z</time></trkpt>
<trkpt lat="46.17884578" lon="6.05834557"><ele></ele><time>2015-7-3T19:1:53Z</time></trkpt>
<trkpt lat="46.17884209" lon="6.05843215"><ele></ele><time>2015-7-3T19:1:56Z</time></trkpt>
<trkpt lat="46.17883765" lon="6.05851832"><ele></ele><time>2015-7-3T19:1:59Z</time></trkpt>
<trkpt lat="46.17883388" lon="6.05860507"><ele></ele><time>2015-7-3T19:2:2Z</time></trkpt>
<trkpt lat="46.17883019" lon="6.05869174"><ele></ele><time>2015-7-3T19:2:5Z</time></trkpt>
<trkpt lat="46.17882709" lon="6.05877824"><ele></ele><time>2015-7-3T19:2:8Z</time></trkpt>
<trkpt lat="46.17882332" lon="6.05886416"><ele></ele><time>2015-7-3T19:2:11Z</time></trkpt>
<trkpt lat="46.17881846" lon="6.05894957"><ele></ele><time>2015-7-3T19:2:14Z</time></trkpt>
<trkpt lat="46.17881502" lon="6.05903490"><ele></ele><time>2015-7-3T19:2:17Z</time></trkpt>
<trkpt lat="46.17881234" lon="6.05911972"><ele></ele><time>2015-7-3T19:2:20Z</time></trkpt>
<trkpt lat="46.17880806" lon="6.05920379"><ele></ele><time>2015-7-3T19:2:23Z</time></trkpt>
<trkpt lat="46.17880295" lon="6.05928644"><ele></ele><time>2015-7-3T19:2:26Z</time></trkpt>
<trkpt lat="46.17879993" lon="6.05936715"><ele></ele><time>2015-7-3T19:2:29Z</time></trkpt>
<trkpt lat="46.17880094" lon="6.05944544"><ele></ele><time>2015-7-3T19:2:32Z</time></trkpt>
<trkpt lat="46.17880186" lon="6.05951912"><ele></ele><time>2015-7-3T19:2:35Z</time></trkpt>
<trkpt lat="46.17880169" lon="6.05959020"><ele></ele><time>2015-7-3T19:2:38Z</time></trkpt>
<trkpt lat="46.17880085" lon="6.05965935"><ele></ele><time>2015-7-3T19:2:41Z</time></trkpt>
<trkpt lat="46.17880136" lon="6.05972649"><ele></ele><time>2015-7-3T19:2:44Z</time></trkpt>
<trkpt lat="46.17880982" lon="6.05978860"><ele></ele><time>2015-7-3T19:2:47Z</time></trkpt>
<trkpt lat="46.17883103" lon="6.05984048"><ele></ele><time>2015-7-3T19:2:50Z</time></trkpt>
<trkpt lat="46.17886263" lon="6.05988105"><ele></ele><time>2015-7-3T19:2:53Z</time></trkpt>
<trkpt lat="46.17889959" lon="6.05991273"><ele></ele><time>2015-7-3T19:2:56Z</time></trkpt>
<trkpt lat="46.17893832" lon="6.05994173"><ele></ele><time>2015-7-3T19:2:59Z</time></trkpt>
<trkpt lat="46.17897662" lon="6.05996964"><ele></ele><time>2015-7-3T19:3:2Z</time></trkpt>
<trkpt lat="46.17901434" lon="6.05999739"><ele></ele><time>2015-7-3T19:3:5Z</time></trkpt>
<trkpt lat="46.17905298" lon="6.06002706"><ele></ele><time>2015-7-3T19:3:8Z</time></trkpt>
<trkpt lat="46.17909439" lon="6.06005950"><ele></ele><time>2015-7-3T19:3:11Z</time></trkpt>
<trkpt lat="46.17913797" lon="6.06009294"><ele></ele><time>2015-7-3T19:3:14Z</time></trkpt>
<trkpt lat="46.17918449" lon="6.06012907"><ele></ele><time>2015-7-3T19:3:17Z</time></trkpt>
<trkpt lat="46.17923353" lon="6.06016628"><ele></ele><time>2015-7-3T19:3:20Z</time></trkpt>
<trkpt lat="46.17928457" lon="6.06020425"><ele></ele><time>2015-7-3T19:3:23Z</time></trkpt>
<trkpt lat="46.17933654" lon="6.06024264"><ele></ele><time>2015-7-3T19:3:26Z</time></trkpt>
<trkpt lat="46.17938926" lon="6.06028112"><ele></ele><time>2015-7-3T19:3:29Z</time></trkpt>
<trkpt lat="46.17944182" lon="6.06032185"><ele></ele><time>2015-7-3T19:3:32Z</time></trkpt>
<trkpt lat="46.17949597" lon="6.06036276"><ele></ele><time>2015-7-3T19:3:35Z</time></trkpt>
<trkpt lat="46.17955288" lon="6.06040249"><ele></ele><time>2015-7-3T19:3:38Z</time></trkpt>
<trkpt lat="46.17960954" lon="6.06044322"><ele></ele><time>2015-7-3T19:3:41Z</time></trkpt>
<trkpt lat="46.17966545" lon="6.06048530"><ele></ele><time>2015-7-3T19:3:44Z</time></trkpt>
<trkpt lat="46.17971834" lon="6.06052805"><ele></ele><time>2015-7-3T19:3:47Z</time></trkpt>
<trkpt lat="46.17977165" lon="6.06057172"><ele></ele><time>2015-7-3T19:3:50Z</time></trkpt>
<trkpt lat="46.17982412" lon="6.06061212"><ele></ele><time>2015-7-3T19:3:53Z</time></trkpt>
<trkpt lat="46.17987508" lon="6.06065017"><ele></ele><time>2015-7-3T19:3:56Z</time></trkpt>
<trkpt lat="46.17992596" lon="6.06068697"><ele></ele><time>2015-7-3T19:3:59Z</time></trkpt>
<trkpt lat="46.17997223" lon="6.06072226"><ele></ele><time>2015-7-3T19:4:2Z</time></trkpt>
<trkpt lat="46.18000760" lon="6.06075729"><ele></ele><time>2015-7-3T19:4:5Z</time></trkpt>
<trkpt lat="46.18003920" lon="6.06078529"><ele></ele><time>2015-7-3T19:4:8Z</time></trkpt>
<trkpt lat="46.18007214" lon="6.06080666"><ele></ele><time>2015-7-3T19:4:11Z</time></trkpt>
<trkpt lat="46.18010332" lon="6.06082845"><ele></ele><time>2015-7-3T19:4:14Z</time></trkpt>
<trkpt lat="46.18013534" lon="6.06085335"><ele></ele><time>2015-7-3T19:4:17Z</time></trkpt>
<trkpt lat="46.18017448" lon="6.06087992"><ele></ele><time>2015-7-3T19:4:20Z</time></trkpt>
<trkpt lat="46.18021547" lon="6.06090984"><ele></ele><time>2015-7-3T19:4:23Z</time></trkpt>
<trkpt lat="46.18025637" lon="6.06094446"><ele></ele><time>2015-7-3T19:4:26Z</time></trkpt>
<trkpt lat="46.18030608" lon="6.06098788"><ele></ele><time>2015-7-3T19:4:29Z</time></trkpt>
<trkpt lat="46.18035427" lon="6.06102593"><ele></ele><time>2015-7-3T19:4:32Z</time></trkpt>
<trkpt lat="46.18040289" lon="6.06106189"><ele></ele><time>2015-7-3T19:4:35Z</time></trkpt>
<trkpt lat="46.18044958" lon="6.06109483"><ele></ele><time>2015-7-3T19:4:38Z</time></trkpt>
<trkpt lat="46.18049727" lon="6.06113054"><ele></ele><time>2015-7-3T19:4:41Z</time></trkpt>
<trkpt lat="46.18054622" lon="6.06116734"><ele></ele><time>2015-7-3T19:4:44Z</time></trkpt>
<trkpt lat="46.18059324" lon="6.06120279"><ele></ele><time>2015-7-3T19:4:47Z</time></trkpt>
<trkpt lat="46.18064353" lon="6.06124244"><ele></ele><time>2015-7-3T19:4:50Z</time></trkpt>
<trkpt lat="46.18069734" lon="6.06128384"><ele></ele><time>2015-7-3T19:4:53Z</time></trkpt>
<trkpt lat="46.18074797" lon="6.06131930"><ele></ele><time>2015-7-3T19:4:56Z</time></trkpt>
<trkpt lat="46.18080623" lon="6.06136230"><ele></ele><time>2015-7-3T19:4:59Z</time></trkpt>
<trkpt lat="46.18086423" lon="6.06140555"><ele></ele><time>2015-7-3T19:5:2Z</time></trkpt>
<trkpt lat="46.18092257" lon="6.06144972"><ele></ele><time>2015-7-3T19:5:5Z</time></trkpt>
<trkpt lat="46.18098476" lon="6.06149582"><ele></ele><time>2015-7-3T19:5:8Z</time></trkpt>
<trkpt lat="46.18104938" lon="6.06154293"><ele></ele><time>2015-7-3T19:5:11Z</time></trkpt>
<trkpt lat="46.18111367" lon="6.06159037"><ele></ele><time>2015-7-3T19:5:14Z</time></trkpt>
<trkpt lat="46.18117779" lon="6.06163865"><ele></ele><time>2015-7-3T19:5:17Z</time></trkpt>
<trkpt lat="46.18124158" lon="6.06168802"><ele></ele><time>2015-7-3T19:5:20Z</time></trkpt>
<trkpt lat="46.18130654" lon="6.06173672"><ele></ele><time>2015-7-3T19:5:23Z</time></trkpt>
<trkpt lat="46.18136982" lon="6.06178542"><ele></ele><time>2015-7-3T19:5:26Z</time></trkpt>
<trkpt lat="46.18143294" lon="6.06183236"><ele></ele><time>2015-7-3T19:5:29Z</time></trkpt>
<trkpt lat="46.18149849" lon="6.06188005"><ele></ele><time>2015-7-3T19:5:32Z</time></trkpt>
<trkpt lat="46.18156143" lon="6.06192607"><ele></ele><time>2015-7-3T19:5:35Z</time></trkpt>
<trkpt lat="46.18162195" lon="6.06197275"><ele></ele><time>2015-7-3T19:5:38Z</time></trkpt>
<trkpt lat="46.18168063" lon="6.06201709"><ele></ele><time>2015-7-3T19:5:41Z</time></trkpt>
<trkpt lat="46.18173913" lon="6.06205934"><ele></ele><time>2015-7-3T19:5:44Z</time></trkpt>
<trkpt lat="46.18179822" lon="6.06210133"><ele></ele><time>2015-7-3T19:5:47Z</time></trkpt>
<trkpt lat="46.18185296" lon="6.06214475"><ele></ele><time>2015-7-3T19:5:50Z</time></trkpt>
<trkpt lat="46.18190702" lon="6.06218733"><ele></ele><time>2015-7-3T19:5:53Z</time></trkpt>
<trkpt lat="46.18196142" lon="6.06222756"><ele></ele><time>2015-7-3T19:5:56Z</time></trkpt>
<trkpt lat="46.18201498" lon="6.06226763"><ele></ele><time>2015-7-3T19:5:59Z</time></trkpt>
<trkpt lat="46.18206653" lon="6.06230543"><ele></ele><time>2015-7-3T19:6:2Z</time></trkpt>
<trkpt lat="46.18211498" lon="6.06234189"><ele></ele><time>2015-7-3T19:6:5Z</time></trkpt>
<trkpt lat="46.18216124" lon="6.06237584"><ele></ele><time>2015-7-3T19:6:8Z</time></trkpt>
<trkpt lat="46.18221145" lon="6.06240937"><ele></ele><time>2015-7-3T19:6:11Z</time></trkpt>
<trkpt lat="46.18225914" lon="6.06243636"><ele></ele><time>2015-7-3T19:6:14Z</time></trkpt>
<trkpt lat="46.18229753" lon="6.06246175"><ele></ele><time>2015-7-3T19:6:17Z</time></trkpt>
<trkpt lat="46.18233617" lon="6.06249637"><ele></ele><time>2015-7-3T19:6:20Z</time></trkpt>
<trkpt lat="46.18237180" lon="6.06252395"><ele></ele><time>2015-7-3T19:6:23Z</time></trkpt>
<trkpt lat="46.18241027" lon="6.06255177"><ele></ele><time>2015-7-3T19:6:26Z</time></trkpt>
<trkpt lat="46.18244933" lon="6.06257935"><ele></ele><time>2015-7-3T19:6:29Z</time></trkpt>
<trkpt lat="46.18248914" lon="6.06260953"><ele></ele><time>2015-7-3T19:6:32Z</time></trkpt>
<trkpt lat="46.18252703" lon="6.06264146"><ele></ele><time>2015-7-3T19:6:35Z</time></trkpt>
<trkpt lat="46.18255947" lon="6.06267926"><ele></ele><time>2015-7-3T19:6:38Z</time></trkpt>
<trkpt lat="46.18258294" lon="6.06273123"><ele></ele><time>2015-7-3T19:6:41Z</time></trkpt>
<trkpt lat="46.18260029" lon="6.06279208"><ele></ele><time>2015-7-3T19:6:44Z</time></trkpt>
<trkpt lat="46.18262694" lon="6.06285654"><ele></ele><time>2015-7-3T19:6:47Z</time></trkpt>
<trkpt lat="46.18266785" lon="6.06291018"><ele></ele><time>2015-7-3T19:6:50Z</time></trkpt>
<trkpt lat="46.18272266" lon="6.06294497"><ele></ele><time>2015-7-3T19:6:53Z</time></trkpt>
<trkpt lat="46.18278578" lon="6.06296198"><ele></ele><time>2015-7-3T19:6:56Z</time></trkpt>
<trkpt lat="46.18285309" lon="6.06297573"><ele></ele><time>2015-7-3T19:6:59Z</time></trkpt>
<trkpt lat="46.18292148" lon="6.06300037"><ele></ele><time>2015-7-3T19:7:2Z</time></trkpt>
<trkpt lat="46.18298678" lon="6.06303457"><ele></ele><time>2015-7-3T19:7:5Z</time></trkpt>
<trkpt lat="46.18305182" lon="6.06308034"><ele></ele><time>2015-7-3T19:7:8Z</time></trkpt>
<trkpt lat="46.18311619" lon="6.06313038"><ele></ele><time>2015-7-3T19:7:11Z</time></trkpt>
<trkpt lat="46.18317956" lon="6.06318033"><ele></ele><time>2015-7-3T19:7:14Z</time></trkpt>
<trkpt lat="46.18324343" lon="6.06322928"><ele></ele><time>2015-7-3T19:7:17Z</time></trkpt>
<trkpt lat="46.18330713" lon="6.06327815"><ele></ele><time>2015-7-3T19:7:20Z</time></trkpt>
<trkpt lat="46.18336933" lon="6.06332568"><ele></ele><time>2015-7-3T19:7:23Z</time></trkpt>
<trkpt lat="46.18343269" lon="6.06337328"><ele></ele><time>2015-7-3T19:7:26Z</time></trkpt>
<trkpt lat="46.18349656" lon="6.06342215"><ele></ele><time>2015-7-3T19:7:29Z</time></trkpt>
<trkpt lat="46.18356119" lon="6.06347127"><ele></ele><time>2015-7-3T19:7:32Z</time></trkpt>
<trkpt lat="46.18362548" lon="6.06351494"><ele></ele><time>2015-7-3T19:7:35Z</time></trkpt>
<trkpt lat="46.18369304" lon="6.06356565"><ele></ele><time>2015-7-3T19:7:38Z</time></trkpt>
<trkpt lat="46.18375858" lon="6.06361846"><ele></ele><time>2015-7-3T19:7:41Z</time></trkpt>
<trkpt lat="46.18382497" lon="6.06367143"><ele></ele><time>2015-7-3T19:7:44Z</time></trkpt>
<trkpt lat="46.18389144" lon="6.06372432"><ele></ele><time>2015-7-3T19:7:47Z</time></trkpt>
<trkpt lat="46.18395832" lon="6.06377796"><ele></ele><time>2015-7-3T19:7:50Z</time></trkpt>
<trkpt lat="46.18402613" lon="6.06383270"><ele></ele><time>2015-7-3T19:7:53Z</time></trkpt>
<trkpt lat="46.18409252" lon="6.06388969"><ele></ele><time>2015-7-3T19:7:56Z</time></trkpt>
<trkpt lat="46.18415873" lon="6.06395105"><ele></ele><time>2015-7-3T19:7:59Z</time></trkpt>
<trkpt lat="46.18422235" lon="6.06401685"><ele></ele><time>2015-7-3T19:8:2Z</time></trkpt>
<trkpt lat="46.18428086" lon="6.06408415"><ele></ele><time>2015-7-3T19:8:5Z</time></trkpt>
<trkpt lat="46.18433819" lon="6.06415397"><ele></ele><time>2015-7-3T19:8:8Z</time></trkpt>
<trkpt lat="46.18439485" lon="6.06422656"><ele></ele><time>2015-7-3T19:8:11Z</time></trkpt>
<trkpt lat="46.18444649" lon="6.06430183"><ele></ele><time>2015-7-3T19:8:14Z</time></trkpt>
<trkpt lat="46.18449435" lon="6.06438188"><ele></ele><time>2015-7-3T19:8:17Z</time></trkpt>
<trkpt lat="46.18454036" lon="6.06446427"><ele></ele><time>2015-7-3T19:8:20Z</time></trkpt>
<trkpt lat="46.18458504" lon="6.06454910"><ele></ele><time>2015-7-3T19:8:23Z</time></trkpt>
<trkpt lat="46.18462980" lon="6.06463560"><ele></ele><time>2015-7-3T19:8:26Z</time></trkpt>
<trkpt lat="46.18467506" lon="6.06472218"><ele></ele><time>2015-7-3T19:8:29Z</time></trkpt>
<trkpt lat="46.18472233" lon="6.06480768"><ele></ele><time>2015-7-3T19:8:32Z</time></trkpt>
<trkpt lat="46.18476944" lon="6.06489259"><ele></ele><time>2015-7-3T19:8:35Z</time></trkpt>
<trkpt lat="46.18481588" lon="6.06497666"><ele></ele><time>2015-7-3T19:8:38Z</time></trkpt>
<trkpt lat="46.18486105" lon="6.06506023"><ele></ele><time>2015-7-3T19:8:41Z</time></trkpt>
<trkpt lat="46.18490665" lon="6.06514237"><ele></ele><time>2015-7-3T19:8:44Z</time></trkpt>
<trkpt lat="46.18495334" lon="6.06522166"><ele></ele><time>2015-7-3T19:8:47Z</time></trkpt>
<trkpt lat="46.18499994" lon="6.06529919"><ele></ele><time>2015-7-3T19:8:50Z</time></trkpt>
<trkpt lat="46.18504680" lon="6.06537572"><ele></ele><time>2015-7-3T19:8:53Z</time></trkpt>
<trkpt lat="46.18509223" lon="6.06545426"><ele></ele><time>2015-7-3T19:8:56Z</time></trkpt>
<trkpt lat="46.18513179" lon="6.06553850"><ele></ele><time>2015-7-3T19:8:59Z</time></trkpt>
<trkpt lat="46.18516758" lon="6.06562517"><ele></ele><time>2015-7-3T19:9:2Z</time></trkpt>
<trkpt lat="46.18520480" lon="6.06570882"><ele></ele><time>2015-7-3T19:9:5Z</time></trkpt>
<trkpt lat="46.18524478" lon="6.06578786"><ele></ele><time>2015-7-3T19:9:8Z</time></trkpt>
<trkpt lat="46.18528627" lon="6.06586447"><ele></ele><time>2015-7-3T19:9:11Z</time></trkpt>
<trkpt lat="46.18532776" lon="6.06594108"><ele></ele><time>2015-7-3T19:9:14Z</time></trkpt>
<trkpt lat="46.18536900" lon="6.06601744"><ele></ele><time>2015-7-3T19:9:17Z</time></trkpt>
<trkpt lat="46.18540999" lon="6.06609330"><ele></ele><time>2015-7-3T19:9:20Z</time></trkpt>
<trkpt lat="46.18545072" lon="6.06616974"><ele></ele><time>2015-7-3T19:9:23Z</time></trkpt>
<trkpt lat="46.18549146" lon="6.06624635"><ele></ele><time>2015-7-3T19:9:26Z</time></trkpt>
<trkpt lat="46.18553295" lon="6.06632229"><ele></ele><time>2015-7-3T19:9:29Z</time></trkpt>
<trkpt lat="46.18557477" lon="6.06639748"><ele></ele><time>2015-7-3T19:9:32Z</time></trkpt>
<trkpt lat="46.18561585" lon="6.06647316"><ele></ele><time>2015-7-3T19:9:35Z</time></trkpt>
<trkpt lat="46.18565708" lon="6.06654952"><ele></ele><time>2015-7-3T19:9:38Z</time></trkpt>
<trkpt lat="46.18569874" lon="6.06662622"><ele></ele><time>2015-7-3T19:9:41Z</time></trkpt>
<trkpt lat="46.18574065" lon="6.06670358"><ele></ele><time>2015-7-3T19:9:44Z</time></trkpt>
<trkpt lat="46.18578298" lon="6.06678162"><ele></ele><time>2015-7-3T19:9:47Z</time></trkpt>
<trkpt lat="46.18582606" lon="6.06685957"><ele></ele><time>2015-7-3T19:9:50Z</time></trkpt>
<trkpt lat="46.18586915" lon="6.06693719"><ele></ele><time>2015-7-3T19:9:53Z</time></trkpt>
<trkpt lat="46.18591164" lon="6.06701514"><ele></ele><time>2015-7-3T19:9:56Z</time></trkpt>
<trkpt lat="46.18595397" lon="6.06709342"><ele></ele><time>2015-7-3T19:9:59Z</time></trkpt>
<trkpt lat="46.18599697" lon="6.06717238"><ele></ele><time>2015-7-3T19:10:2Z</time></trkpt>
<trkpt lat="46.18604047" lon="6.06725243"><ele></ele><time>2015-7-3T19:10:5Z</time></trkpt>
<trkpt lat="46.18608498" lon="6.06733432"><ele></ele><time>2015-7-3T19:10:8Z</time></trkpt>
<trkpt lat="46.18612999" lon="6.06741755"><ele></ele><time>2015-7-3T19:10:11Z</time></trkpt>
<trkpt lat="46.18617525" lon="6.06750213"><ele></ele><time>2015-7-3T19:10:14Z</time></trkpt>
<trkpt lat="46.18622236" lon="6.06758879"><ele></ele><time>2015-7-3T19:10:17Z</time></trkpt>
<trkpt lat="46.18627299" lon="6.06767764"><ele></ele><time>2015-7-3T19:10:20Z</time></trkpt>
<trkpt lat="46.18632630" lon="6.06776884"><ele></ele><time>2015-7-3T19:10:23Z</time></trkpt>
<trkpt lat="46.18638053" lon="6.06786196"><ele></ele><time>2015-7-3T19:10:26Z</time></trkpt>
<trkpt lat="46.18643392" lon="6.06795743"><ele></ele><time>2015-7-3T19:10:29Z</time></trkpt>
<trkpt lat="46.18648429" lon="6.06805550"><ele></ele><time>2015-7-3T19:10:32Z</time></trkpt>
<trkpt lat="46.18653417" lon="6.06815323"><ele></ele><time>2015-7-3T19:10:35Z</time></trkpt>
<trkpt lat="46.18658496" lon="6.06824828"><ele></ele><time>2015-7-3T19:10:38Z</time></trkpt>
<trkpt lat="46.18663634" lon="6.06834208"><ele></ele><time>2015-7-3T19:10:41Z</time></trkpt>
<trkpt lat="46.18668797" lon="6.06843528"><ele></ele><time>2015-7-3T19:10:44Z</time></trkpt>
<trkpt lat="46.18673986" lon="6.06852748"><ele></ele><time>2015-7-3T19:10:47Z</time></trkpt>
<trkpt lat="46.18679149" lon="6.06861952"><ele></ele><time>2015-7-3T19:10:50Z</time></trkpt>
<trkpt lat="46.18684103" lon="6.06871197"><ele></ele><time>2015-7-3T19:10:53Z</time></trkpt>
<trkpt lat="46.18688989" lon="6.06880467"><ele></ele><time>2015-7-3T19:10:56Z</time></trkpt>
<trkpt lat="46.18693910" lon="6.06889746"><ele></ele><time>2015-7-3T19:10:59Z</time></trkpt>
<trkpt lat="46.18699324" lon="6.06899109"><ele></ele><time>2015-7-3T19:11:2Z</time></trkpt>
<trkpt lat="46.18704907" lon="6.06908547"><ele></ele><time>2015-7-3T19:11:5Z</time></trkpt>
<trkpt lat="46.18710523" lon="6.06918328"><ele></ele><time>2015-7-3T19:11:8Z</time></trkpt>
<trkpt lat="46.18715879" lon="6.06928068"><ele></ele><time>2015-7-3T19:11:11Z</time></trkpt>
<trkpt lat="46.18721318" lon="6.06937515"><ele></ele><time>2015-7-3T19:11:14Z</time></trkpt>
<trkpt lat="46.18726708" lon="6.06946760"><ele></ele><time>2015-7-3T19:11:17Z</time></trkpt>
<trkpt lat="46.18731754" lon="6.06955930"><ele></ele><time>2015-7-3T19:11:20Z</time></trkpt>
<trkpt lat="46.18736842" lon="6.06964923"><ele></ele><time>2015-7-3T19:11:23Z</time></trkpt>
<trkpt lat="46.18741737" lon="6.06973347"><ele></ele><time>2015-7-3T19:11:26Z</time></trkpt>
<trkpt lat="46.18746372" lon="6.06981394"><ele></ele><time>2015-7-3T19:11:29Z</time></trkpt>
<trkpt lat="46.18750839" lon="6.06989290"><ele></ele><time>2015-7-3T19:11:32Z</time></trkpt>
<trkpt lat="46.18754972" lon="6.06996699"><ele></ele><time>2015-7-3T19:11:35Z</time></trkpt>
<trkpt lat="46.18759297" lon="6.07003983"><ele></ele><time>2015-7-3T19:11:38Z</time></trkpt>
<trkpt lat="46.18763513" lon="6.07011275"><ele></ele><time>2015-7-3T19:11:41Z</time></trkpt>
<trkpt lat="46.18767746" lon="6.07018325"><ele></ele><time>2015-7-3T19:11:44Z</time></trkpt>
<trkpt lat="46.18771903" lon="6.07025047"><ele></ele><time>2015-7-3T19:11:47Z</time></trkpt>
<trkpt lat="46.18776103" lon="6.07031954"><ele></ele><time>2015-7-3T19:11:50Z</time></trkpt>
<trkpt lat="46.18780134" lon="6.07038793"><ele></ele><time>2015-7-3T19:11:53Z</time></trkpt>
<trkpt lat="46.18784132" lon="6.07045826"><ele></ele><time>2015-7-3T19:11:56Z</time></trkpt>
<trkpt lat="46.18788139" lon="6.07052959"><ele></ele><time>2015-7-3T19:11:59Z</time></trkpt>
<trkpt lat="46.18792137" lon="6.07060083"><ele></ele><time>2015-7-3T19:12:2Z</time></trkpt>
<trkpt lat="46.18796135" lon="6.07067468"><ele></ele><time>2015-7-3T19:12:5Z</time></trkpt>
<trkpt lat="46.18800268" lon="6.07075062"><ele></ele><time>2015-7-3T19:12:8Z</time></trkpt>
<trkpt lat="46.18804383" lon="6.07082672"><ele></ele><time>2015-7-3T19:12:11Z</time></trkpt>
<trkpt lat="46.18808524" lon="6.07090132"><ele></ele><time>2015-7-3T19:12:14Z</time></trkpt>
<trkpt lat="46.18812656" lon="6.07097324"><ele></ele><time>2015-7-3T19:12:17Z</time></trkpt>
<trkpt lat="46.18816579" lon="6.07104432"><ele></ele><time>2015-7-3T19:12:20Z</time></trkpt>
<trkpt lat="46.18820468" lon="6.07111540"><ele></ele><time>2015-7-3T19:12:23Z</time></trkpt>
<trkpt lat="46.18824122" lon="6.07118237"><ele></ele><time>2015-7-3T19:12:26Z</time></trkpt>
<trkpt lat="46.18827534" lon="6.07124758"><ele></ele><time>2015-7-3T19:12:29Z</time></trkpt>
<trkpt lat="46.18830870" lon="6.07131095"><ele></ele><time>2015-7-3T19:12:32Z</time></trkpt>
<trkpt lat="46.18834290" lon="6.07137524"><ele></ele><time>2015-7-3T19:12:35Z</time></trkpt>
<trkpt lat="46.18837927" lon="6.07144338"><ele></ele><time>2015-7-3T19:12:38Z</time></trkpt>
<trkpt lat="46.18841825" lon="6.07151588"><ele></ele><time>2015-7-3T19:12:41Z</time></trkpt>
<trkpt lat="46.18845882" lon="6.07159182"><ele></ele><time>2015-7-3T19:12:44Z</time></trkpt>
<trkpt lat="46.18850157" lon="6.07166969"><ele></ele><time>2015-7-3T19:12:47Z</time></trkpt>
<trkpt lat="46.18854457" lon="6.07175024"><ele></ele><time>2015-7-3T19:12:50Z</time></trkpt>
<trkpt lat="46.18858765" lon="6.07183247"><ele></ele><time>2015-7-3T19:12:53Z</time></trkpt>
<trkpt lat="46.18863199" lon="6.07191545"><ele></ele><time>2015-7-3T19:12:56Z</time></trkpt>
<trkpt lat="46.18867675" lon="6.07200027"><ele></ele><time>2015-7-3T19:12:59Z</time></trkpt>
<trkpt lat="46.18872142" lon="6.07208694"><ele></ele><time>2015-7-3T19:13:2Z</time></trkpt>
<trkpt lat="46.18876652" lon="6.07217336"><ele></ele><time>2015-7-3T19:13:5Z</time></trkpt>
<trkpt lat="46.18881186" lon="6.07225777"><ele></ele><time>2015-7-3T19:13:8Z</time></trkpt>
<trkpt lat="46.18885838" lon="6.07233865"><ele></ele><time>2015-7-3T19:13:11Z</time></trkpt>
<trkpt lat="46.18890566" lon="6.07241887"><ele></ele><time>2015-7-3T19:13:14Z</time></trkpt>
<trkpt lat="46.18895310" lon="6.07250034"><ele></ele><time>2015-7-3T19:13:17Z</time></trkpt>
<trkpt lat="46.18900130" lon="6.07258215"><ele></ele><time>2015-7-3T19:13:20Z</time></trkpt>
<trkpt lat="46.18904949" lon="6.07266303"><ele></ele><time>2015-7-3T19:13:23Z</time></trkpt>
<trkpt lat="46.18909920" lon="6.07274358"><ele></ele><time>2015-7-3T19:13:26Z</time></trkpt>
<trkpt lat="46.18914882" lon="6.07282447"><ele></ele><time>2015-7-3T19:13:29Z</time></trkpt>
<trkpt lat="46.18919643" lon="6.07290376"><ele></ele><time>2015-7-3T19:13:32Z</time></trkpt>
<trkpt lat="46.18924144" lon="6.07298054"><ele></ele><time>2015-7-3T19:13:35Z</time></trkpt>
<trkpt lat="46.18928318" lon="6.07305765"><ele></ele><time>2015-7-3T19:13:38Z</time></trkpt>
<trkpt lat="46.18932467" lon="6.07313435"><ele></ele><time>2015-7-3T19:13:41Z</time></trkpt>
<trkpt lat="46.18936574" lon="6.07321045"><ele></ele><time>2015-7-3T19:13:44Z</time></trkpt>
<trkpt lat="46.18940715" lon="6.07328547"><ele></ele><time>2015-7-3T19:13:47Z</time></trkpt>
<trkpt lat="46.18944855" lon="6.07336200"><ele></ele><time>2015-7-3T19:13:50Z</time></trkpt>
<trkpt lat="46.18948946" lon="6.07344087"><ele></ele><time>2015-7-3T19:13:53Z</time></trkpt>
<trkpt lat="46.18953120" lon="6.07351966"><ele></ele><time>2015-7-3T19:13:56Z</time></trkpt>
<trkpt lat="46.18957437" lon="6.07359778"><ele></ele><time>2015-7-3T19:13:59Z</time></trkpt>
<trkpt lat="46.18961795" lon="6.07367682"><ele></ele><time>2015-7-3T19:14:2Z</time></trkpt>
<trkpt lat="46.18966539" lon="6.07375888"><ele></ele><time>2015-7-3T19:14:5Z</time></trkpt>
<trkpt lat="46.18971275" lon="6.07384438"><ele></ele><time>2015-7-3T19:14:8Z</time></trkpt>
<trkpt lat="46.18976103" lon="6.07393188"><ele></ele><time>2015-7-3T19:14:11Z</time></trkpt>
<trkpt lat="46.18981023" lon="6.07402015"><ele></ele><time>2015-7-3T19:14:14Z</time></trkpt>
<trkpt lat="46.18985935" lon="6.07411243"><ele></ele><time>2015-7-3T19:14:17Z</time></trkpt>
<trkpt lat="46.18990788" lon="6.07420614"><ele></ele><time>2015-7-3T19:14:20Z</time></trkpt>
<trkpt lat="46.18995708" lon="6.07429817"><ele></ele><time>2015-7-3T19:14:23Z</time></trkpt>
<trkpt lat="46.19000763" lon="6.07438836"><ele></ele><time>2015-7-3T19:14:26Z</time></trkpt>
<trkpt lat="46.19005624" lon="6.07447964"><ele></ele><time>2015-7-3T19:14:29Z</time></trkpt>
<trkpt lat="46.19010125" lon="6.07457385"><ele></ele><time>2015-7-3T19:14:32Z</time></trkpt>
<trkpt lat="46.19014936" lon="6.07466622"><ele></ele><time>2015-7-3T19:14:35Z</time></trkpt>
<trkpt lat="46.19020175" lon="6.07475767"><ele></ele><time>2015-7-3T19:14:38Z</time></trkpt>
<trkpt lat="46.19025037" lon="6.07484828"><ele></ele><time>2015-7-3T19:14:41Z</time></trkpt>
<trkpt lat="46.19029655" lon="6.07493947"><ele></ele><time>2015-7-3T19:14:44Z</time></trkpt>
<trkpt lat="46.19034374" lon="6.07502933"><ele></ele><time>2015-7-3T19:14:47Z</time></trkpt>
<trkpt lat="46.19038976" lon="6.07511977"><ele></ele><time>2015-7-3T19:14:50Z</time></trkpt>
<trkpt lat="46.19043645" lon="6.07520870"><ele></ele><time>2015-7-3T19:14:53Z</time></trkpt>
<trkpt lat="46.19048456" lon="6.07529595"><ele></ele><time>2015-7-3T19:14:56Z</time></trkpt>
<trkpt lat="46.19053267" lon="6.07538380"><ele></ele><time>2015-7-3T19:14:59Z</time></trkpt>
<trkpt lat="46.19058045" lon="6.07547189"><ele></ele><time>2015-7-3T19:15:2Z</time></trkpt>
<trkpt lat="46.19062789" lon="6.07555839"><ele></ele><time>2015-7-3T19:15:5Z</time></trkpt>
<trkpt lat="46.19067349" lon="6.07564288"><ele></ele><time>2015-7-3T19:15:8Z</time></trkpt>
<trkpt lat="46.19071724" lon="6.07572578"><ele></ele><time>2015-7-3T19:15:11Z</time></trkpt>
<trkpt lat="46.19076007" lon="6.07580650"><ele></ele><time>2015-7-3T19:15:14Z</time></trkpt>
<trkpt lat="46.19080248" lon="6.07588545"><ele></ele><time>2015-7-3T19:15:17Z</time></trkpt>
<trkpt lat="46.19084397" lon="6.07596123"><ele></ele><time>2015-7-3T19:15:20Z</time></trkpt>
<trkpt lat="46.19088312" lon="6.07603407"><ele></ele><time>2015-7-3T19:15:23Z</time></trkpt>
<trkpt lat="46.19092067" lon="6.07610447"><ele></ele><time>2015-7-3T19:15:26Z</time></trkpt>
<trkpt lat="46.19096157" lon="6.07617178"><ele></ele><time>2015-7-3T19:15:29Z</time></trkpt>
<trkpt lat="46.19099845" lon="6.07623523"><ele></ele><time>2015-7-3T19:15:32Z</time></trkpt>
<trkpt lat="46.19103315" lon="6.07629776"><ele></ele><time>2015-7-3T19:15:35Z</time></trkpt>
<trkpt lat="46.19106425" lon="6.07636037"><ele></ele><time>2015-7-3T19:15:38Z</time></trkpt>
<trkpt lat="46.19109308" lon="6.07642156"><ele></ele><time>2015-7-3T19:15:41Z</time></trkpt>
<trkpt lat="46.19112276" lon="6.07647814"><ele></ele><time>2015-7-3T19:15:44Z</time></trkpt>
<trkpt lat="46.19115947" lon="6.07652793"><ele></ele><time>2015-7-3T19:15:47Z</time></trkpt>
<trkpt lat="46.19120414" lon="6.07655710"><ele></ele><time>2015-7-3T19:15:50Z</time></trkpt>
<trkpt lat="46.19125217" lon="6.07656414"><ele></ele><time>2015-7-3T19:15:53Z</time></trkpt>
<trkpt lat="46.19130003" lon="6.07654679"><ele></ele><time>2015-7-3T19:15:56Z</time></trkpt>
<trkpt lat="46.19135913" lon="6.07649163"><ele></ele><time>2015-7-3T19:15:59Z</time></trkpt>
<trkpt lat="46.19141453" lon="6.07645065"><ele></ele><time>2015-7-3T19:16:2Z</time></trkpt>
<trkpt lat="46.19146532" lon="6.07640044"><ele></ele><time>2015-7-3T19:16:5Z</time></trkpt>
<trkpt lat="46.19151528" lon="6.07634973"><ele></ele><time>2015-7-3T19:16:8Z</time></trkpt>
<trkpt lat="46.19156524" lon="6.07629918"><ele></ele><time>2015-7-3T19:16:11Z</time></trkpt>
<trkpt lat="46.19161419" lon="6.07624847"><ele></ele><time>2015-7-3T19:16:14Z</time></trkpt>
<trkpt lat="46.19166196" lon="6.07619726"><ele></ele><time>2015-7-3T19:16:17Z</time></trkpt>
<trkpt lat="46.19170873" lon="6.07614513"><ele></ele><time>2015-7-3T19:16:20Z</time></trkpt>
<trkpt lat="46.19175576" lon="6.07609215"><ele></ele><time>2015-7-3T19:16:23Z</time></trkpt>
<trkpt lat="46.19180412" lon="6.07603700"><ele></ele><time>2015-7-3T19:16:26Z</time></trkpt>
<trkpt lat="46.19185324" lon="6.07598218"><ele></ele><time>2015-7-3T19:16:29Z</time></trkpt>
<trkpt lat="46.19190713" lon="6.07592225"><ele></ele><time>2015-7-3T19:16:32Z</time></trkpt>
<trkpt lat="46.19195499" lon="6.07586970"><ele></ele><time>2015-7-3T19:16:35Z</time></trkpt>
<trkpt lat="46.19200855" lon="6.07581052"><ele></ele><time>2015-7-3T19:16:38Z</time></trkpt>
<trkpt lat="46.19206756" lon="6.07574573"><ele></ele><time>2015-7-3T19:16:41Z</time></trkpt>
<trkpt lat="46.19213093" lon="6.07567633"><ele></ele><time>2015-7-3T19:16:44Z</time></trkpt>
<trkpt lat="46.19219287" lon="6.07560868"><ele></ele><time>2015-7-3T19:16:47Z</time></trkpt>
<trkpt lat="46.19225624" lon="6.07553895"><ele></ele><time>2015-7-3T19:16:50Z</time></trkpt>
<trkpt lat="46.19231516" lon="6.07547323"><ele></ele><time>2015-7-3T19:16:53Z</time></trkpt>
<trkpt lat="46.19236604" lon="6.07541305"><ele></ele><time>2015-7-3T19:16:56Z</time></trkpt>
<trkpt lat="46.19241659" lon="6.07535203"><ele></ele><time>2015-7-3T19:16:59Z</time></trkpt>
<trkpt lat="46.19246512" lon="6.07529126"><ele></ele><time>2015-7-3T19:17:2Z</time></trkpt>
<trkpt lat="46.19252237" lon="6.07522555"><ele></ele><time>2015-7-3T19:17:5Z</time></trkpt>
<trkpt lat="46.19257919" lon="6.07516075"><ele></ele><time>2015-7-3T19:17:8Z</time></trkpt>
<trkpt lat="46.19263636" lon="6.07509705"><ele></ele><time>2015-7-3T19:17:11Z</time></trkpt>
<trkpt lat="46.19269436" lon="6.07503553"><ele></ele><time>2015-7-3T19:17:14Z</time></trkpt>
<trkpt lat="46.19275203" lon="6.07497476"><ele></ele><time>2015-7-3T19:17:17Z</time></trkpt>
<trkpt lat="46.19280743" lon="6.07491257"><ele></ele><time>2015-7-3T19:17:20Z</time></trkpt>
<trkpt lat="46.19286024" lon="6.07485163"><ele></ele><time>2015-7-3T19:17:23Z</time></trkpt>
<trkpt lat="46.19291145" lon="6.07479237"><ele></ele><time>2015-7-3T19:17:26Z</time></trkpt>
<trkpt lat="46.19296124" lon="6.07473336"><ele></ele><time>2015-7-3T19:17:29Z</time></trkpt>
<trkpt lat="46.19300692" lon="6.07468039"><ele></ele><time>2015-7-3T19:17:32Z</time></trkpt>
<trkpt lat="46.19305478" lon="6.07462674"><ele></ele><time>2015-7-3T19:17:35Z</time></trkpt>
<trkpt lat="46.19310189" lon="6.07457402"><ele></ele><time>2015-7-3T19:17:38Z</time></trkpt>
<trkpt lat="46.19314657" lon="6.07452163"><ele></ele><time>2015-7-3T19:17:41Z</time></trkpt>
<trkpt lat="46.19319518" lon="6.07446447"><ele></ele><time>2015-7-3T19:17:44Z</time></trkpt>
<trkpt lat="46.19324489" lon="6.07440865"><ele></ele><time>2015-7-3T19:17:47Z</time></trkpt>
<trkpt lat="46.19329325" lon="6.07435643"><ele></ele><time>2015-7-3T19:17:50Z</time></trkpt>
<trkpt lat="46.19334119" lon="6.07430337"><ele></ele><time>2015-7-3T19:17:53Z</time></trkpt>
<trkpt lat="46.19338604" lon="6.07424738"><ele></ele><time>2015-7-3T19:17:56Z</time></trkpt>
<trkpt lat="46.19343549" lon="6.07419348"><ele></ele><time>2015-7-3T19:17:59Z</time></trkpt>
<trkpt lat="46.19348084" lon="6.07414219"><ele></ele><time>2015-7-3T19:18:2Z</time></trkpt>
<trkpt lat="46.19352300" lon="6.07409533"><ele></ele><time>2015-7-3T19:18:5Z</time></trkpt>
<trkpt lat="46.19356650" lon="6.07404680"><ele></ele><time>2015-7-3T19:18:8Z</time></trkpt>
<trkpt lat="46.19361059" lon="6.07399818"><ele></ele><time>2015-7-3T19:18:11Z</time></trkpt>
<trkpt lat="46.19365619" lon="6.07394856"><ele></ele><time>2015-7-3T19:18:14Z</time></trkpt>
<trkpt lat="46.19370287" lon="6.07389752"><ele></ele><time>2015-7-3T19:18:17Z</time></trkpt>
<trkpt lat="46.19375040" lon="6.07384555"><ele></ele><time>2015-7-3T19:18:20Z</time></trkpt>
<trkpt lat="46.19381536" lon="6.07377422"><ele></ele><time>2015-7-3T19:18:23Z</time></trkpt>
<trkpt lat="46.19387235" lon="6.07373047"><ele></ele><time>2015-7-3T19:18:26Z</time></trkpt>
<trkpt lat="46.19391259" lon="6.07368286"><ele></ele><time>2015-7-3T19:18:29Z</time></trkpt>
<trkpt lat="46.19395374" lon="6.07363835"><ele></ele><time>2015-7-3T19:18:32Z</time></trkpt>
<trkpt lat="46.19399289" lon="6.07359518"><ele></ele><time>2015-7-3T19:18:35Z</time></trkpt>
<trkpt lat="46.19403932" lon="6.07354355"><ele></ele><time>2015-7-3T19:18:38Z</time></trkpt>
<trkpt lat="46.19408559" lon="6.07348764"><ele></ele><time>2015-7-3T19:18:41Z</time></trkpt>
<trkpt lat="46.19413052" lon="6.07343283"><ele></ele><time>2015-7-3T19:18:44Z</time></trkpt>
<trkpt lat="46.19417343" lon="6.07337784"><ele></ele><time>2015-7-3T19:18:47Z</time></trkpt>
<trkpt lat="46.19421828" lon="6.07332277"><ele></ele><time>2015-7-3T19:18:50Z</time></trkpt>
<trkpt lat="46.19425884" lon="6.07326577"><ele></ele><time>2015-7-3T19:18:53Z</time></trkpt>
<trkpt lat="46.19429807" lon="6.07320744"><ele></ele><time>2015-7-3T19:18:56Z</time></trkpt>
<trkpt lat="46.19434392" lon="6.07315337"><ele></ele><time>2015-7-3T19:18:59Z</time></trkpt>
<trkpt lat="46.19438608" lon="6.07310585"><ele></ele><time>2015-7-3T19:19:2Z</time></trkpt>
<trkpt lat="46.19443168" lon="6.07305556"><ele></ele><time>2015-7-3T19:19:5Z</time></trkpt>
<trkpt lat="46.19447853" lon="6.07300292"><ele></ele><time>2015-7-3T19:19:8Z</time></trkpt>
<trkpt lat="46.19452380" lon="6.07294919"><ele></ele><time>2015-7-3T19:19:11Z</time></trkpt>
<trkpt lat="46.19456864" lon="6.07289563"><ele></ele><time>2015-7-3T19:19:14Z</time></trkpt>
<trkpt lat="46.19461684" lon="6.07284115"><ele></ele><time>2015-7-3T19:19:17Z</time></trkpt>
<trkpt lat="46.19466629" lon="6.07278968"><ele></ele><time>2015-7-3T19:19:20Z</time></trkpt>
<trkpt lat="46.19470845" lon="6.07274417"><ele></ele><time>2015-7-3T19:19:23Z</time></trkpt>
<trkpt lat="46.19475036" lon="6.07269706"><ele></ele><time>2015-7-3T19:19:26Z</time></trkpt>
<trkpt lat="46.19479755" lon="6.07264509"><ele></ele><time>2015-7-3T19:19:29Z</time></trkpt>
<trkpt lat="46.19484843" lon="6.07259053"><ele></ele><time>2015-7-3T19:19:32Z</time></trkpt>
<trkpt lat="46.19489956" lon="6.07253864"><ele></ele><time>2015-7-3T19:19:35Z</time></trkpt>
<trkpt lat="46.19494532" lon="6.07248257"><ele></ele><time>2015-7-3T19:19:38Z</time></trkpt>
<trkpt lat="46.19498547" lon="6.07243085"><ele></ele><time>2015-7-3T19:19:41Z</time></trkpt>
<trkpt lat="46.19502755" lon="6.07238593"><ele></ele><time>2015-7-3T19:19:44Z</time></trkpt>
<trkpt lat="46.19506720" lon="6.07235190"><ele></ele><time>2015-7-3T19:19:47Z</time></trkpt>
<trkpt lat="46.19509896" lon="6.07234360"><ele></ele><time>2015-7-3T19:19:50Z</time></trkpt>
<trkpt lat="46.19512042" lon="6.07235047"><ele></ele><time>2015-7-3T19:19:53Z</time></trkpt>
<trkpt lat="46.19513400" lon="6.07239322"><ele></ele><time>2015-7-3T19:19:56Z</time></trkpt>
<trkpt lat="46.19514867" lon="6.07245499"><ele></ele><time>2015-7-3T19:19:59Z</time></trkpt>
<trkpt lat="46.19517599" lon="6.07252984"><ele></ele><time>2015-7-3T19:20:2Z</time></trkpt>
<trkpt lat="46.19520810" lon="6.07260536"><ele></ele><time>2015-7-3T19:20:5Z</time></trkpt>
<trkpt lat="46.19524229" lon="6.07268072"><ele></ele><time>2015-7-3T19:20:8Z</time></trkpt>
<trkpt lat="46.19527658" lon="6.07275548"><ele></ele><time>2015-7-3T19:20:11Z</time></trkpt>
<trkpt lat="46.19531253" lon="6.07283352"><ele></ele><time>2015-7-3T19:20:14Z</time></trkpt>
<trkpt lat="46.19534589" lon="6.07290996"><ele></ele><time>2015-7-3T19:20:17Z</time></trkpt>
<trkpt lat="46.19537674" lon="6.07298255"><ele></ele><time>2015-7-3T19:20:20Z</time></trkpt>
<trkpt lat="46.19540809" lon="6.07305346"><ele></ele><time>2015-7-3T19:20:23Z</time></trkpt>
<trkpt lat="46.19544027" lon="6.07312286"><ele></ele><time>2015-7-3T19:20:26Z</time></trkpt>
<trkpt lat="46.19547087" lon="6.07318933"><ele></ele><time>2015-7-3T19:20:29Z</time></trkpt>
<trkpt lat="46.19550339" lon="6.07325505"><ele></ele><time>2015-7-3T19:20:32Z</time></trkpt>
<trkpt lat="46.19553893" lon="6.07331933"><ele></ele><time>2015-7-3T19:20:35Z</time></trkpt>
<trkpt lat="46.19557505" lon="6.07338522"><ele></ele><time>2015-7-3T19:20:38Z</time></trkpt>
<trkpt lat="46.19561328" lon="6.07345076"><ele></ele><time>2015-7-3T19:20:41Z</time></trkpt>
<trkpt lat="46.19565493" lon="6.07351983"><ele></ele><time>2015-7-3T19:20:44Z</time></trkpt>
<trkpt lat="46.19569710" lon="6.07358697"><ele></ele><time>2015-7-3T19:20:47Z</time></trkpt>
<trkpt lat="46.19573968" lon="6.07365444"><ele></ele><time>2015-7-3T19:20:50Z</time></trkpt>
<trkpt lat="46.19578443" lon="6.07372032"><ele></ele><time>2015-7-3T19:20:53Z</time></trkpt>
<trkpt lat="46.19582928" lon="6.07378822"><ele></ele><time>2015-7-3T19:20:56Z</time></trkpt>
<trkpt lat="46.19587588" lon="6.07385452"><ele></ele><time>2015-7-3T19:20:59Z</time></trkpt>
<trkpt lat="46.19592332" lon="6.07391856"><ele></ele><time>2015-7-3T19:21:2Z</time></trkpt>
<trkpt lat="46.19597294" lon="6.07398603"><ele></ele><time>2015-7-3T19:21:5Z</time></trkpt>
<trkpt lat="46.19602349" lon="6.07405786"><ele></ele><time>2015-7-3T19:21:8Z</time></trkpt>
<trkpt lat="46.19607353" lon="6.07412827"><ele></ele><time>2015-7-3T19:21:11Z</time></trkpt>
<trkpt lat="46.19612172" lon="6.07419893"><ele></ele><time>2015-7-3T19:21:14Z</time></trkpt>
<trkpt lat="46.19617025" lon="6.07426993"><ele></ele><time>2015-7-3T19:21:17Z</time></trkpt>
<trkpt lat="46.19621996" lon="6.07434084"><ele></ele><time>2015-7-3T19:21:20Z</time></trkpt>
<trkpt lat="46.19627318" lon="6.07441837"><ele></ele><time>2015-7-3T19:21:23Z</time></trkpt>
<trkpt lat="46.19632750" lon="6.07449624"><ele></ele><time>2015-7-3T19:21:26Z</time></trkpt>
<trkpt lat="46.19638382" lon="6.07457905"><ele></ele><time>2015-7-3T19:21:29Z</time></trkpt>
<trkpt lat="46.19644233" lon="6.07466245"><ele></ele><time>2015-7-3T19:21:32Z</time></trkpt>
<trkpt lat="46.19650033" lon="6.07474468"><ele></ele><time>2015-7-3T19:21:35Z</time></trkpt>
<trkpt lat="46.19655674" lon="6.07482699"><ele></ele><time>2015-7-3T19:21:38Z</time></trkpt>
<trkpt lat="46.19661299" lon="6.07490687"><ele></ele><time>2015-7-3T19:21:41Z</time></trkpt>
<trkpt lat="46.19666914" lon="6.07498624"><ele></ele><time>2015-7-3T19:21:44Z</time></trkpt>
<trkpt lat="46.19672606" lon="6.07506629"><ele></ele><time>2015-7-3T19:21:47Z</time></trkpt>
<trkpt lat="46.19678373" lon="6.07514726"><ele></ele><time>2015-7-3T19:21:50Z</time></trkpt>
<trkpt lat="46.19684223" lon="6.07522773"><ele></ele><time>2015-7-3T19:21:53Z</time></trkpt>
<trkpt lat="46.19690317" lon="6.07530777"><ele></ele><time>2015-7-3T19:21:56Z</time></trkpt>
<trkpt lat="46.19696436" lon="6.07539000"><ele></ele><time>2015-7-3T19:21:59Z</time></trkpt>
<trkpt lat="46.19702579" lon="6.07547239"><ele></ele><time>2015-7-3T19:22:2Z</time></trkpt>
<trkpt lat="46.19708715" lon="6.07555437"><ele></ele><time>2015-7-3T19:22:5Z</time></trkpt>
<trkpt lat="46.19714825" lon="6.07563769"><ele></ele><time>2015-7-3T19:22:8Z</time></trkpt>
<trkpt lat="46.19720886" lon="6.07572075"><ele></ele><time>2015-7-3T19:22:11Z</time></trkpt>
<trkpt lat="46.19726946" lon="6.07580256"><ele></ele><time>2015-7-3T19:22:14Z</time></trkpt>
<trkpt lat="46.19732813" lon="6.07587783"><ele></ele><time>2015-7-3T19:22:17Z</time></trkpt>
<trkpt lat="46.19738865" lon="6.07595880"><ele></ele><time>2015-7-3T19:22:20Z</time></trkpt>
<trkpt lat="46.19744766" lon="6.07603968"><ele></ele><time>2015-7-3T19:22:23Z</time></trkpt>
<trkpt lat="46.19750365" lon="6.07611763"><ele></ele><time>2015-7-3T19:22:26Z</time></trkpt>
<trkpt lat="46.19755830" lon="6.07619525"><ele></ele><time>2015-7-3T19:22:29Z</time></trkpt>
<trkpt lat="46.19761186" lon="6.07627136"><ele></ele><time>2015-7-3T19:22:32Z</time></trkpt>
<trkpt lat="46.19766466" lon="6.07634545"><ele></ele><time>2015-7-3T19:22:35Z</time></trkpt>
<trkpt lat="46.19771923" lon="6.07642156"><ele></ele><time>2015-7-3T19:22:38Z</time></trkpt>
<trkpt lat="46.19777304" lon="6.07649725"><ele></ele><time>2015-7-3T19:22:41Z</time></trkpt>
<trkpt lat="46.19782509" lon="6.07657420"><ele></ele><time>2015-7-3T19:22:44Z</time></trkpt>
<trkpt lat="46.19787605" lon="6.07665139"><ele></ele><time>2015-7-3T19:22:47Z</time></trkpt>
<trkpt lat="46.19792677" lon="6.07672725"><ele></ele><time>2015-7-3T19:22:50Z</time></trkpt>
<trkpt lat="46.19797815" lon="6.07680093"><ele></ele><time>2015-7-3T19:22:53Z</time></trkpt>
<trkpt lat="46.19803053" lon="6.07687368"><ele></ele><time>2015-7-3T19:22:56Z</time></trkpt>
<trkpt lat="46.19808284" lon="6.07694518"><ele></ele><time>2015-7-3T19:22:59Z</time></trkpt>
<trkpt lat="46.19813472" lon="6.07701508"><ele></ele><time>2015-7-3T19:23:2Z</time></trkpt>
<trkpt lat="46.19818543" lon="6.07708482"><ele></ele><time>2015-7-3T19:23:5Z</time></trkpt>
<trkpt lat="46.19823438" lon="6.07715439"><ele></ele><time>2015-7-3T19:23:8Z</time></trkpt>
<trkpt lat="46.19827805" lon="6.07722555"><ele></ele><time>2015-7-3T19:23:11Z</time></trkpt>
<trkpt lat="46.19831468" lon="6.07730694"><ele></ele><time>2015-7-3T19:23:14Z</time></trkpt>
<trkpt lat="46.19834133" lon="6.07739864"><ele></ele><time>2015-7-3T19:23:17Z</time></trkpt>
<trkpt lat="46.19835877" lon="6.07749964"><ele></ele><time>2015-7-3T19:23:20Z</time></trkpt>
<trkpt lat="46.19836455" lon="6.07760576"><ele></ele><time>2015-7-3T19:23:23Z</time></trkpt>
<trkpt lat="46.19836120" lon="6.07771564"><ele></ele><time>2015-7-3T19:23:26Z</time></trkpt>
<trkpt lat="46.19835198" lon="6.07782545"><ele></ele><time>2015-7-3T19:23:29Z</time></trkpt>
<trkpt lat="46.19834083" lon="6.07793139"><ele></ele><time>2015-7-3T19:23:32Z</time></trkpt>
<trkpt lat="46.19832935" lon="6.07803516"><ele></ele><time>2015-7-3T19:23:35Z</time></trkpt>
<trkpt lat="46.19831837" lon="6.07813532"><ele></ele><time>2015-7-3T19:23:38Z</time></trkpt>
<trkpt lat="46.19830688" lon="6.07823214"><ele></ele><time>2015-7-3T19:23:41Z</time></trkpt>
<trkpt lat="46.19829339" lon="6.07832593"><ele></ele><time>2015-7-3T19:23:44Z</time></trkpt>
<trkpt lat="46.19828065" lon="6.07841939"><ele></ele><time>2015-7-3T19:23:47Z</time></trkpt>
<trkpt lat="46.19827067" lon="6.07851343"><ele></ele><time>2015-7-3T19:23:50Z</time></trkpt>
<trkpt lat="46.19826062" lon="6.07860656"><ele></ele><time>2015-7-3T19:23:53Z</time></trkpt>
<trkpt lat="46.19825123" lon="6.07869876"><ele></ele><time>2015-7-3T19:23:56Z</time></trkpt>
<trkpt lat="46.19824176" lon="6.07878970"><ele></ele><time>2015-7-3T19:23:59Z</time></trkpt>
<trkpt lat="46.19823153" lon="6.07887897"><ele></ele><time>2015-7-3T19:24:2Z</time></trkpt>
<trkpt lat="46.19822122" lon="6.07896606"><ele></ele><time>2015-7-3T19:24:5Z</time></trkpt>
<trkpt lat="46.19821183" lon="6.07905046"><ele></ele><time>2015-7-3T19:24:8Z</time></trkpt>
<trkpt lat="46.19820697" lon="6.07913428"><ele></ele><time>2015-7-3T19:24:11Z</time></trkpt>
<trkpt lat="46.19820077" lon="6.07921449"><ele></ele><time>2015-7-3T19:24:14Z</time></trkpt>
<trkpt lat="46.19819473" lon="6.07928968"><ele></ele><time>2015-7-3T19:24:17Z</time></trkpt>
<trkpt lat="46.19818719" lon="6.07935799"><ele></ele><time>2015-7-3T19:24:20Z</time></trkpt>
<trkpt lat="46.19817546" lon="6.07942672"><ele></ele><time>2015-7-3T19:24:23Z</time></trkpt>
<trkpt lat="46.19816012" lon="6.07949805"><ele></ele><time>2015-7-3T19:24:26Z</time></trkpt>
<trkpt lat="46.19814428" lon="6.07957198"><ele></ele><time>2015-7-3T19:24:29Z</time></trkpt>
<trkpt lat="46.19812994" lon="6.07964742"><ele></ele><time>2015-7-3T19:24:32Z</time></trkpt>
<trkpt lat="46.19811779" lon="6.07972512"><ele></ele><time>2015-7-3T19:24:35Z</time></trkpt>
<trkpt lat="46.19810848" lon="6.07980534"><ele></ele><time>2015-7-3T19:24:38Z</time></trkpt>
<trkpt lat="46.19810203" lon="6.07989008"><ele></ele><time>2015-7-3T19:24:41Z</time></trkpt>
<trkpt lat="46.19810253" lon="6.07997582"><ele></ele><time>2015-7-3T19:24:44Z</time></trkpt>
<trkpt lat="46.19810664" lon="6.08006475"><ele></ele><time>2015-7-3T19:24:47Z</time></trkpt>
<trkpt lat="46.19811083" lon="6.08015629"><ele></ele><time>2015-7-3T19:24:50Z</time></trkpt>
<trkpt lat="46.19811494" lon="6.08024949"><ele></ele><time>2015-7-3T19:24:53Z</time></trkpt>
<trkpt lat="46.19812047" lon="6.08034362"><ele></ele><time>2015-7-3T19:24:56Z</time></trkpt>
<trkpt lat="46.19812793" lon="6.08043859"><ele></ele><time>2015-7-3T19:24:59Z</time></trkpt>
<trkpt lat="46.19813564" lon="6.08053272"><ele></ele><time>2015-7-3T19:25:2Z</time></trkpt>
<trkpt lat="46.19814537" lon="6.08062886"><ele></ele><time>2015-7-3T19:25:5Z</time></trkpt>
<trkpt lat="46.19815459" lon="6.08072139"><ele></ele><time>2015-7-3T19:25:8Z</time></trkpt>
<trkpt lat="46.19816414" lon="6.08081359"><ele></ele><time>2015-7-3T19:25:11Z</time></trkpt>
<trkpt lat="46.19817378" lon="6.08090705"><ele></ele><time>2015-7-3T19:25:14Z</time></trkpt>
<trkpt lat="46.19818342" lon="6.08100378"><ele></ele><time>2015-7-3T19:25:17Z</time></trkpt>
<trkpt lat="46.19818853" lon="6.08109606"><ele></ele><time>2015-7-3T19:25:20Z</time></trkpt>
<trkpt lat="46.19819365" lon="6.08118776"><ele></ele><time>2015-7-3T19:25:23Z</time></trkpt>
<trkpt lat="46.19820278" lon="6.08127980"><ele></ele><time>2015-7-3T19:25:26Z</time></trkpt>
<trkpt lat="46.19821100" lon="6.08137066"><ele></ele><time>2015-7-3T19:25:29Z</time></trkpt>
<trkpt lat="46.19821720" lon="6.08145724"><ele></ele><time>2015-7-3T19:25:32Z</time></trkpt>
<trkpt lat="46.19822147" lon="6.08154056"><ele></ele><time>2015-7-3T19:25:35Z</time></trkpt>
<trkpt lat="46.19822432" lon="6.08162329"><ele></ele><time>2015-7-3T19:25:38Z</time></trkpt>
<trkpt lat="46.19822684" lon="6.08170358"><ele></ele><time>2015-7-3T19:25:41Z</time></trkpt>
<trkpt lat="46.19822985" lon="6.08178589"><ele></ele><time>2015-7-3T19:25:44Z</time></trkpt>
<trkpt lat="46.19823623" lon="6.08186963"><ele></ele><time>2015-7-3T19:25:47Z</time></trkpt>
<trkpt lat="46.19824863" lon="6.08195177"><ele></ele><time>2015-7-3T19:25:50Z</time></trkpt>
<trkpt lat="46.19827118" lon="6.08202889"><ele></ele><time>2015-7-3T19:25:53Z</time></trkpt>
<trkpt lat="46.19830236" lon="6.08210332"><ele></ele><time>2015-7-3T19:25:56Z</time></trkpt>
<trkpt lat="46.19833832" lon="6.08217532"><ele></ele><time>2015-7-3T19:25:59Z</time></trkpt>
<trkpt lat="46.19837595" lon="6.08224296"><ele></ele><time>2015-7-3T19:26:2Z</time></trkpt>
<trkpt lat="46.19841342" lon="6.08231010"><ele></ele><time>2015-7-3T19:26:5Z</time></trkpt>
<trkpt lat="46.19844938" lon="6.08237917"><ele></ele><time>2015-7-3T19:26:8Z</time></trkpt>
<trkpt lat="46.19848383" lon="6.08244454"><ele></ele><time>2015-7-3T19:26:11Z</time></trkpt>
<trkpt lat="46.19851995" lon="6.08251026"><ele></ele><time>2015-7-3T19:26:14Z</time></trkpt>
<trkpt lat="46.19855775" lon="6.08257664"><ele></ele><time>2015-7-3T19:26:17Z</time></trkpt>
<trkpt lat="46.19859614" lon="6.08264538"><ele></ele><time>2015-7-3T19:26:20Z</time></trkpt>
<trkpt lat="46.19863596" lon="6.08271444"><ele></ele><time>2015-7-3T19:26:23Z</time></trkpt>
<trkpt lat="46.19867812" lon="6.08278309"><ele></ele><time>2015-7-3T19:26:26Z</time></trkpt>
<trkpt lat="46.19872204" lon="6.08285056"><ele></ele><time>2015-7-3T19:26:29Z</time></trkpt>
<trkpt lat="46.19876663" lon="6.08291762"><ele></ele><time>2015-7-3T19:26:32Z</time></trkpt>
<trkpt lat="46.19881114" lon="6.08298794"><ele></ele><time>2015-7-3T19:26:35Z</time></trkpt>
<trkpt lat="46.19885322" lon="6.08306196"><ele></ele><time>2015-7-3T19:26:38Z</time></trkpt>
<trkpt lat="46.19889496" lon="6.08313840"><ele></ele><time>2015-7-3T19:26:41Z</time></trkpt>
<trkpt lat="46.19893620" lon="6.08321702"><ele></ele><time>2015-7-3T19:26:44Z</time></trkpt>
<trkpt lat="46.19897668" lon="6.08329648"><ele></ele><time>2015-7-3T19:26:47Z</time></trkpt>
<trkpt lat="46.19901666" lon="6.08337192"><ele></ele><time>2015-7-3T19:26:50Z</time></trkpt>
<trkpt lat="46.19905715" lon="6.08344275"><ele></ele><time>2015-7-3T19:26:53Z</time></trkpt>
<trkpt lat="46.19909814" lon="6.08351190"><ele></ele><time>2015-7-3T19:26:56Z</time></trkpt>
<trkpt lat="46.19913845" lon="6.08358113"><ele></ele><time>2015-7-3T19:26:59Z</time></trkpt>
<trkpt lat="46.19917818" lon="6.08365053"><ele></ele><time>2015-7-3T19:27:2Z</time></trkpt>
<trkpt lat="46.19921833" lon="6.08371968"><ele></ele><time>2015-7-3T19:27:5Z</time></trkpt>
<trkpt lat="46.19925949" lon="6.08378976"><ele></ele><time>2015-7-3T19:27:8Z</time></trkpt>
<trkpt lat="46.19930123" lon="6.08386260"><ele></ele><time>2015-7-3T19:27:11Z</time></trkpt>
<trkpt lat="46.19934406" lon="6.08393812"><ele></ele><time>2015-7-3T19:27:14Z</time></trkpt>
<trkpt lat="46.19938706" lon="6.08401657"><ele></ele><time>2015-7-3T19:27:17Z</time></trkpt>
<trkpt lat="46.19943165" lon="6.08409695"><ele></ele><time>2015-7-3T19:27:20Z</time></trkpt>
<trkpt lat="46.19947616" lon="6.08417843"><ele></ele><time>2015-7-3T19:27:23Z</time></trkpt>
<trkpt lat="46.19952226" lon="6.08426048"><ele></ele><time>2015-7-3T19:27:26Z</time></trkpt>
<trkpt lat="46.19956853" lon="6.08434305"><ele></ele><time>2015-7-3T19:27:29Z</time></trkpt>
<trkpt lat="46.19961563" lon="6.08442636"><ele></ele><time>2015-7-3T19:27:32Z</time></trkpt>
<trkpt lat="46.19966065" lon="6.08451353"><ele></ele><time>2015-7-3T19:27:35Z</time></trkpt>
<trkpt lat="46.19970348" lon="6.08460339"><ele></ele><time>2015-7-3T19:27:38Z</time></trkpt>
<trkpt lat="46.19974706" lon="6.08469257"><ele></ele><time>2015-7-3T19:27:41Z</time></trkpt>
<trkpt lat="46.19979509" lon="6.08478025"><ele></ele><time>2015-7-3T19:27:44Z</time></trkpt>
<trkpt lat="46.19984362" lon="6.08486666"><ele></ele><time>2015-7-3T19:27:47Z</time></trkpt>
<trkpt lat="46.19989417" lon="6.08495308"><ele></ele><time>2015-7-3T19:27:50Z</time></trkpt>
<trkpt lat="46.19994270" lon="6.08504025"><ele></ele><time>2015-7-3T19:27:53Z</time></trkpt>
<trkpt lat="46.19998964" lon="6.08512717"><ele></ele><time>2015-7-3T19:27:56Z</time></trkpt>
<trkpt lat="46.20003674" lon="6.08521158"><ele></ele><time>2015-7-3T19:27:59Z</time></trkpt>
<trkpt lat="46.20008267" lon="6.08529397"><ele></ele><time>2015-7-3T19:28:2Z</time></trkpt>
<trkpt lat="46.20012970" lon="6.08537695"><ele></ele><time>2015-7-3T19:28:5Z</time></trkpt>
<trkpt lat="46.20017605" lon="6.08545784"><ele></ele><time>2015-7-3T19:28:8Z</time></trkpt>
<trkpt lat="46.20022123" lon="6.08553554"><ele></ele><time>2015-7-3T19:28:11Z</time></trkpt>
<trkpt lat="46.20026607" lon="6.08561114"><ele></ele><time>2015-7-3T19:28:14Z</time></trkpt>
<trkpt lat="46.20031100" lon="6.08568432"><ele></ele><time>2015-7-3T19:28:17Z</time></trkpt>
<trkpt lat="46.20035559" lon="6.08575372"><ele></ele><time>2015-7-3T19:28:20Z</time></trkpt>
<trkpt lat="46.20040270" lon="6.08582044"><ele></ele><time>2015-7-3T19:28:23Z</time></trkpt>
<trkpt lat="46.20044595" lon="6.08588456"><ele></ele><time>2015-7-3T19:28:26Z</time></trkpt>
<trkpt lat="46.20049138" lon="6.08594608"><ele></ele><time>2015-7-3T19:28:29Z</time></trkpt>
<trkpt lat="46.20053848" lon="6.08600250"><ele></ele><time>2015-7-3T19:28:32Z</time></trkpt>
<trkpt lat="46.20058819" lon="6.08605413"><ele></ele><time>2015-7-3T19:28:35Z</time></trkpt>
<trkpt lat="46.20063965" lon="6.08610040"><ele></ele><time>2015-7-3T19:28:38Z</time></trkpt>
<trkpt lat="46.20069196" lon="6.08614289"><ele></ele><time>2015-7-3T19:28:41Z</time></trkpt>
<trkpt lat="46.20074409" lon="6.08618279"><ele></ele><time>2015-7-3T19:28:44Z</time></trkpt>
<trkpt lat="46.20079916" lon="6.08622218"><ele></ele><time>2015-7-3T19:28:47Z</time></trkpt>
<trkpt lat="46.20085414" lon="6.08626099"><ele></ele><time>2015-7-3T19:28:50Z</time></trkpt>
<trkpt lat="46.20090838" lon="6.08629695"><ele></ele><time>2015-7-3T19:28:53Z</time></trkpt>
<trkpt lat="46.20096177" lon="6.08632914"><ele></ele><time>2015-7-3T19:28:56Z</time></trkpt>
<trkpt lat="46.20101550" lon="6.08635965"><ele></ele><time>2015-7-3T19:28:59Z</time></trkpt>
<trkpt lat="46.20106730" lon="6.08639074"><ele></ele><time>2015-7-3T19:29:2Z</time></trkpt>
<trkpt lat="46.20112337" lon="6.08642578"><ele></ele><time>2015-7-3T19:29:5Z</time></trkpt>
<trkpt lat="46.20117987" lon="6.08645294"><ele></ele><time>2015-7-3T19:29:8Z</time></trkpt>
<trkpt lat="46.20123602" lon="6.08647674"><ele></ele><time>2015-7-3T19:29:11Z</time></trkpt>
<trkpt lat="46.20129277" lon="6.08650449"><ele></ele><time>2015-7-3T19:29:14Z</time></trkpt>
<trkpt lat="46.20135102" lon="6.08653676"><ele></ele><time>2015-7-3T19:29:17Z</time></trkpt>
<trkpt lat="46.20141003" lon="6.08656769"><ele></ele><time>2015-7-3T19:29:20Z</time></trkpt>
<trkpt lat="46.20147089" lon="6.08659535"><ele></ele><time>2015-7-3T19:29:23Z</time></trkpt>
<trkpt lat="46.20153425" lon="6.08662376"><ele></ele><time>2015-7-3T19:29:26Z</time></trkpt>
<trkpt lat="46.20159854" lon="6.08664882"><ele></ele><time>2015-7-3T19:29:29Z</time></trkpt>
<trkpt lat="46.20166685" lon="6.08666659"><ele></ele><time>2015-7-3T19:29:32Z</time></trkpt>
<trkpt lat="46.20173844" lon="6.08667238"><ele></ele><time>2015-7-3T19:29:35Z</time></trkpt>
<trkpt lat="46.20181287" lon="6.08666576"><ele></ele><time>2015-7-3T19:29:38Z</time></trkpt>
<trkpt lat="46.20188939" lon="6.08664748"><ele></ele><time>2015-7-3T19:29:41Z</time></trkpt>
<trkpt lat="46.20196768" lon="6.08662318"><ele></ele><time>2015-7-3T19:29:44Z</time></trkpt>
<trkpt lat="46.20204739" lon="6.08659694"><ele></ele><time>2015-7-3T19:29:47Z</time></trkpt>
<trkpt lat="46.20212878" lon="6.08657322"><ele></ele><time>2015-7-3T19:29:50Z</time></trkpt>
<trkpt lat="46.20221092" lon="6.08655109"><ele></ele><time>2015-7-3T19:29:53Z</time></trkpt>
<trkpt lat="46.20229349" lon="6.08652729"><ele></ele><time>2015-7-3T19:29:56Z</time></trkpt>
<trkpt lat="46.20237596" lon="6.08650357"><ele></ele><time>2015-7-3T19:29:59Z</time></trkpt>
<trkpt lat="46.20245752" lon="6.08647708"><ele></ele><time>2015-7-3T19:30:2Z</time></trkpt>
<trkpt lat="46.20253773" lon="6.08644942"><ele></ele><time>2015-7-3T19:30:5Z</time></trkpt>
<trkpt lat="46.20261468" lon="6.08642628"><ele></ele><time>2015-7-3T19:30:8Z</time></trkpt>
<trkpt lat="46.20269137" lon="6.08640458"><ele></ele><time>2015-7-3T19:30:11Z</time></trkpt>
<trkpt lat="46.20276614" lon="6.08638253"><ele></ele><time>2015-7-3T19:30:14Z</time></trkpt>
<trkpt lat="46.20283982" lon="6.08636174"><ele></ele><time>2015-7-3T19:30:17Z</time></trkpt>
<trkpt lat="46.20291232" lon="6.08633978"><ele></ele><time>2015-7-3T19:30:20Z</time></trkpt>
<trkpt lat="46.20298382" lon="6.08631874"><ele></ele><time>2015-7-3T19:30:23Z</time></trkpt>
<trkpt lat="46.20305439" lon="6.08629829"><ele></ele><time>2015-7-3T19:30:26Z</time></trkpt>
<trkpt lat="46.20312329" lon="6.08627625"><ele></ele><time>2015-7-3T19:30:29Z</time></trkpt>
<trkpt lat="46.20319043" lon="6.08625395"><ele></ele><time>2015-7-3T19:30:32Z</time></trkpt>
<trkpt lat="46.20325724" lon="6.08623233"><ele></ele><time>2015-7-3T19:30:35Z</time></trkpt>
<trkpt lat="46.20332287" lon="6.08621137"><ele></ele><time>2015-7-3T19:30:38Z</time></trkpt>
<trkpt lat="46.20338732" lon="6.08619167"><ele></ele><time>2015-7-3T19:30:41Z</time></trkpt>
<trkpt lat="46.20345086" lon="6.08617097"><ele></ele><time>2015-7-3T19:30:44Z</time></trkpt>
<trkpt lat="46.20351347" lon="6.08614767"><ele></ele><time>2015-7-3T19:30:47Z</time></trkpt>
<trkpt lat="46.20357583" lon="6.08612202"><ele></ele><time>2015-7-3T19:30:50Z</time></trkpt>
<trkpt lat="46.20363845" lon="6.08609587"><ele></ele><time>2015-7-3T19:30:53Z</time></trkpt>
<trkpt lat="46.20369972" lon="6.08606704"><ele></ele><time>2015-7-3T19:30:56Z</time></trkpt>
<trkpt lat="46.20376484" lon="6.08604508"><ele></ele><time>2015-7-3T19:30:59Z</time></trkpt>
<trkpt lat="46.20383156" lon="6.08604457"><ele></ele><time>2015-7-3T19:31:2Z</time></trkpt>
<trkpt lat="46.20389367" lon="6.08607098"><ele></ele><time>2015-7-3T19:31:5Z</time></trkpt>
<trkpt lat="46.20394690" lon="6.08611448"><ele></ele><time>2015-7-3T19:31:8Z</time></trkpt>
<trkpt lat="46.20398755" lon="6.08617583"><ele></ele><time>2015-7-3T19:31:11Z</time></trkpt>
<trkpt lat="46.20401915" lon="6.08624607"><ele></ele><time>2015-7-3T19:31:14Z</time></trkpt>
<trkpt lat="46.20404472" lon="6.08632143"><ele></ele><time>2015-7-3T19:31:17Z</time></trkpt>
<trkpt lat="46.20406785" lon="6.08639829"><ele></ele><time>2015-7-3T19:31:20Z</time></trkpt>
<trkpt lat="46.20409040" lon="6.08647574"><ele></ele><time>2015-7-3T19:31:23Z</time></trkpt>
<trkpt lat="46.20411227" lon="6.08655428"><ele></ele><time>2015-7-3T19:31:26Z</time></trkpt>
<trkpt lat="46.20413415" lon="6.08663240"><ele></ele><time>2015-7-3T19:31:29Z</time></trkpt>
<trkpt lat="46.20415712" lon="6.08671093"><ele></ele><time>2015-7-3T19:31:32Z</time></trkpt>
<trkpt lat="46.20418293" lon="6.08678855"><ele></ele><time>2015-7-3T19:31:35Z</time></trkpt>
<trkpt lat="46.20421235" lon="6.08686374"><ele></ele><time>2015-7-3T19:31:38Z</time></trkpt>
<trkpt lat="46.20424647" lon="6.08693498"><ele></ele><time>2015-7-3T19:31:41Z</time></trkpt>
<trkpt lat="46.20428603" lon="6.08700120"><ele></ele><time>2015-7-3T19:31:44Z</time></trkpt>
<trkpt lat="46.20432727" lon="6.08705903"><ele></ele><time>2015-7-3T19:31:47Z</time></trkpt>
<trkpt lat="46.20436667" lon="6.08711419"><ele></ele><time>2015-7-3T19:31:50Z</time></trkpt>
<trkpt lat="46.20440723" lon="6.08717529"><ele></ele><time>2015-7-3T19:31:53Z</time></trkpt>
<trkpt lat="46.20444763" lon="6.08724168"><ele></ele><time>2015-7-3T19:31:56Z</time></trkpt>
<trkpt lat="46.20448636" lon="6.08730982"><ele></ele><time>2015-7-3T19:31:59Z</time></trkpt>
<trkpt lat="46.20452416" lon="6.08737637"><ele></ele><time>2015-7-3T19:32:2Z</time></trkpt>
<trkpt lat="46.20456037" lon="6.08744334"><ele></ele><time>2015-7-3T19:32:5Z</time></trkpt>
<trkpt lat="46.20459759" lon="6.08751526"><ele></ele><time>2015-7-3T19:32:8Z</time></trkpt>
<trkpt lat="46.20463564" lon="6.08759313"><ele></ele><time>2015-7-3T19:32:11Z</time></trkpt>
<trkpt lat="46.20467487" lon="6.08767334"><ele></ele><time>2015-7-3T19:32:14Z</time></trkpt>
<trkpt lat="46.20471342" lon="6.08776194"><ele></ele><time>2015-7-3T19:32:17Z</time></trkpt>
<trkpt lat="46.20475357" lon="6.08786219"><ele></ele><time>2015-7-3T19:32:20Z</time></trkpt>
<trkpt lat="46.20479389" lon="6.08797082"><ele></ele><time>2015-7-3T19:32:23Z</time></trkpt>
<trkpt lat="46.20483798" lon="6.08807777"><ele></ele><time>2015-7-3T19:32:26Z</time></trkpt>
<trkpt lat="46.20489146" lon="6.08817944"><ele></ele><time>2015-7-3T19:32:29Z</time></trkpt>
<trkpt lat="46.20495063" lon="6.08827332"><ele></ele><time>2015-7-3T19:32:32Z</time></trkpt>
<trkpt lat="46.20501517" lon="6.08835538"><ele></ele><time>2015-7-3T19:32:35Z</time></trkpt>
<trkpt lat="46.20509958" lon="6.08843065"><ele></ele><time>2015-7-3T19:32:38Z</time></trkpt>
<trkpt lat="46.20517837" lon="6.08847449"><ele></ele><time>2015-7-3T19:32:41Z</time></trkpt>
<trkpt lat="46.20523319" lon="6.08850005"><ele></ele><time>2015-7-3T19:32:44Z</time></trkpt>
<trkpt lat="46.20526018" lon="6.08851874"><ele></ele><time>2015-7-3T19:32:47Z</time></trkpt>
<trkpt lat="46.20529077" lon="6.08857515"><ele></ele><time>2015-7-3T19:32:50Z</time></trkpt>
<trkpt lat="46.20531349" lon="6.08863827"><ele></ele><time>2015-7-3T19:32:53Z</time></trkpt>
<trkpt lat="46.20532069" lon="6.08869418"><ele></ele><time>2015-7-3T19:32:56Z</time></trkpt>
<trkpt lat="46.20532212" lon="6.08875637"><ele></ele><time>2015-7-3T19:32:59Z</time></trkpt>
<trkpt lat="46.20532002" lon="6.08881890"><ele></ele><time>2015-7-3T19:33:2Z</time></trkpt>
<trkpt lat="46.20531516" lon="6.08887908"><ele></ele><time>2015-7-3T19:33:5Z</time></trkpt>
<trkpt lat="46.20531164" lon="6.08893960"><ele></ele><time>2015-7-3T19:33:8Z</time></trkpt>
<trkpt lat="46.20530888" lon="6.08900213"><ele></ele><time>2015-7-3T19:33:11Z</time></trkpt>
<trkpt lat="46.20530779" lon="6.08906876"><ele></ele><time>2015-7-3T19:33:14Z</time></trkpt>
<trkpt lat="46.20530468" lon="6.08914495"><ele></ele><time>2015-7-3T19:33:17Z</time></trkpt>
<trkpt lat="46.20530284" lon="6.08922416"><ele></ele><time>2015-7-3T19:33:20Z</time></trkpt>
<trkpt lat="46.20530267" lon="6.08930279"><ele></ele><time>2015-7-3T19:33:23Z</time></trkpt>
<trkpt lat="46.20530183" lon="6.08937906"><ele></ele><time>2015-7-3T19:33:26Z</time></trkpt>
<trkpt lat="46.20529748" lon="6.08944645"><ele></ele><time>2015-7-3T19:33:29Z</time></trkpt>
<trkpt lat="46.20529379" lon="6.08951468"><ele></ele><time>2015-7-3T19:33:32Z</time></trkpt>
<trkpt lat="46.20529127" lon="6.08958366"><ele></ele><time>2015-7-3T19:33:35Z</time></trkpt>
<trkpt lat="46.20528767" lon="6.08965424"><ele></ele><time>2015-7-3T19:33:38Z</time></trkpt>
<trkpt lat="46.20528365" lon="6.08973152"><ele></ele><time>2015-7-3T19:33:41Z</time></trkpt>
<trkpt lat="46.20527996" lon="6.08980813"><ele></ele><time>2015-7-3T19:33:44Z</time></trkpt>
<trkpt lat="46.20527292" lon="6.08988533"><ele></ele><time>2015-7-3T19:33:47Z</time></trkpt>
<trkpt lat="46.20526680" lon="6.08996077"><ele></ele><time>2015-7-3T19:33:50Z</time></trkpt>
<trkpt lat="46.20526504" lon="6.09003436"><ele></ele><time>2015-7-3T19:33:53Z</time></trkpt>
<trkpt lat="46.20526747" lon="6.09011969"><ele></ele><time>2015-7-3T19:33:56Z</time></trkpt>
<trkpt lat="46.20527736" lon="6.09018750"><ele></ele><time>2015-7-3T19:33:59Z</time></trkpt>
<trkpt lat="46.20529186" lon="6.09023997"><ele></ele><time>2015-7-3T19:34:2Z</time></trkpt>
<trkpt lat="46.20532857" lon="6.09034030"><ele></ele><time>2015-7-3T19:34:5Z</time></trkpt>
<trkpt lat="46.20535062" lon="6.09039159"><ele></ele><time>2015-7-3T19:34:8Z</time></trkpt>
<trkpt lat="46.20537308" lon="6.09045002"><ele></ele><time>2015-7-3T19:34:11Z</time></trkpt>
<trkpt lat="46.20539295" lon="6.09050123"><ele></ele><time>2015-7-3T19:34:14Z</time></trkpt>
<trkpt lat="46.20541155" lon="6.09055689"><ele></ele><time>2015-7-3T19:34:17Z</time></trkpt>
<trkpt lat="46.20541918" lon="6.09062017"><ele></ele><time>2015-7-3T19:34:20Z</time></trkpt>
<trkpt lat="46.20540099" lon="6.09067985"><ele></ele><time>2015-7-3T19:34:23Z</time></trkpt>
<trkpt lat="46.20537484" lon="6.09074263"><ele></ele><time>2015-7-3T19:34:26Z</time></trkpt>
<trkpt lat="46.20536042" lon="6.09080893"><ele></ele><time>2015-7-3T19:34:29Z</time></trkpt>
<trkpt lat="46.20533997" lon="6.09089074"><ele></ele><time>2015-7-3T19:34:32Z</time></trkpt>
<trkpt lat="46.20531089" lon="6.09098629"><ele></ele><time>2015-7-3T19:34:35Z</time></trkpt>
<trkpt lat="46.20528524" lon="6.09107908"><ele></ele><time>2015-7-3T19:34:38Z</time></trkpt>
<trkpt lat="46.20526847" lon="6.09119785"><ele></ele><time>2015-7-3T19:34:41Z</time></trkpt>
<trkpt lat="46.20522958" lon="6.09134923"><ele></ele><time>2015-7-3T19:34:44Z</time></trkpt>
<trkpt lat="46.20518927" lon="6.09151318"><ele></ele><time>2015-7-3T19:34:47Z</time></trkpt>
<trkpt lat="46.20515322" lon="6.09167377"><ele></ele><time>2015-7-3T19:34:50Z</time></trkpt>
<trkpt lat="46.20511509" lon="6.09183236"><ele></ele><time>2015-7-3T19:34:53Z</time></trkpt>
<trkpt lat="46.20507720" lon="6.09198122"><ele></ele><time>2015-7-3T19:34:56Z</time></trkpt>
<trkpt lat="46.20504208" lon="6.09211902"><ele></ele><time>2015-7-3T19:34:59Z</time></trkpt>
<trkpt lat="46.20501283" lon="6.09224685"><ele></ele><time>2015-7-3T19:35:2Z</time></trkpt>
<trkpt lat="46.20498667" lon="6.09236218"><ele></ele><time>2015-7-3T19:35:5Z</time></trkpt>
<trkpt lat="46.20496346" lon="6.09246712"><ele></ele><time>2015-7-3T19:35:8Z</time></trkpt>
<trkpt lat="46.20493890" lon="6.09255932"><ele></ele><time>2015-7-3T19:35:11Z</time></trkpt>
<trkpt lat="46.20491543" lon="6.09263409"><ele></ele><time>2015-7-3T19:35:14Z</time></trkpt>
<trkpt lat="46.20490327" lon="6.09269318"><ele></ele><time>2015-7-3T19:35:17Z</time></trkpt>
<trkpt lat="46.20489129" lon="6.09273434"><ele></ele><time>2015-7-3T19:35:20Z</time></trkpt>
<trkpt lat="46.20487855" lon="6.09276912"><ele></ele><time>2015-7-3T19:35:23Z</time></trkpt>
<trkpt lat="46.20487318" lon="6.09279385"><ele></ele><time>2015-7-3T19:35:26Z</time></trkpt>
<trkpt lat="46.20486748" lon="6.09283106"><ele></ele><time>2015-7-3T19:35:29Z</time></trkpt>
<trkpt lat="46.20487285" lon="6.09286509"><ele></ele><time>2015-7-3T19:35:32Z</time></trkpt>
<trkpt lat="46.20488106" lon="6.09290172"><ele></ele><time>2015-7-3T19:35:35Z</time></trkpt>
<trkpt lat="46.20488735" lon="6.09293416"><ele></ele><time>2015-7-3T19:35:38Z</time></trkpt>
<trkpt lat="46.20489129" lon="6.09296953"><ele></ele><time>2015-7-3T19:35:41Z</time></trkpt>
<trkpt lat="46.20489313" lon="6.09300499"><ele></ele><time>2015-7-3T19:35:44Z</time></trkpt>
<trkpt lat="46.20489758" lon="6.09303458"><ele></ele><time>2015-7-3T19:35:47Z</time></trkpt>
<trkpt lat="46.20490386" lon="6.09306014"><ele></ele><time>2015-7-3T19:35:50Z</time></trkpt>
<trkpt lat="46.20491199" lon="6.09309015"><ele></ele><time>2015-7-3T19:35:53Z</time></trkpt>
<trkpt lat="46.20491627" lon="6.09312275"><ele></ele><time>2015-7-3T19:35:56Z</time></trkpt>
<trkpt lat="46.20491878" lon="6.09315117"><ele></ele><time>2015-7-3T19:35:59Z</time></trkpt>
<trkpt lat="46.20492046" lon="6.09317824"><ele></ele><time>2015-7-3T19:36:2Z</time></trkpt>
<trkpt lat="46.20492247" lon="6.09319744"><ele></ele><time>2015-7-3T19:36:5Z</time></trkpt>
<trkpt lat="46.20492909" lon="6.09322317"><ele></ele><time>2015-7-3T19:36:8Z</time></trkpt>
<trkpt lat="46.20493487" lon="6.09324697"><ele></ele><time>2015-7-3T19:36:11Z</time></trkpt>
<trkpt lat="46.20494619" lon="6.09327002"><ele></ele><time>2015-7-3T19:36:14Z</time></trkpt>
<trkpt lat="46.20495399" lon="6.09329316"><ele></ele><time>2015-7-3T19:36:17Z</time></trkpt>
<trkpt lat="46.20497435" lon="6.09331805"><ele></ele><time>2015-7-3T19:36:20Z</time></trkpt>
<trkpt lat="46.20498659" lon="6.09334127"><ele></ele><time>2015-7-3T19:36:23Z</time></trkpt>
<trkpt lat="46.20498609" lon="6.09337237"><ele></ele><time>2015-7-3T19:36:26Z</time></trkpt>
<trkpt lat="46.20498810" lon="6.09339927"><ele></ele><time>2015-7-3T19:36:29Z</time></trkpt>
<trkpt lat="46.20498592" lon="6.09342149"><ele></ele><time>2015-7-3T19:36:32Z</time></trkpt>
<trkpt lat="46.20498366" lon="6.09343247"><ele></ele><time>2015-7-3T19:36:35Z</time></trkpt>
<trkpt lat="46.20498039" lon="6.09346046"><ele></ele><time>2015-7-3T19:36:38Z</time></trkpt>
<trkpt lat="46.20497159" lon="6.09348477"><ele></ele><time>2015-7-3T19:36:41Z</time></trkpt>
<trkpt lat="46.20496178" lon="6.09350354"><ele></ele><time>2015-7-3T19:36:44Z</time></trkpt>
<trkpt lat="46.20495516" lon="6.09351922"><ele></ele><time>2015-7-3T19:36:47Z</time></trkpt>
<trkpt lat="46.20495088" lon="6.09352358"><ele></ele><time>2015-7-3T19:36:50Z</time></trkpt>
<trkpt lat="46.20494376" lon="6.09351989"><ele></ele><time>2015-7-3T19:36:53Z</time></trkpt>
<trkpt lat="46.20493404" lon="6.09351226"><ele></ele><time>2015-7-3T19:36:56Z</time></trkpt>
<trkpt lat="46.20492565" lon="6.09350380"><ele></ele><time>2015-7-3T19:36:59Z</time></trkpt>
<trkpt lat="46.20491727" lon="6.09349407"><ele></ele><time>2015-7-3T19:37:2Z</time></trkpt>
<trkpt lat="46.20491560" lon="6.09348267"><ele></ele><time>2015-7-3T19:37:5Z</time></trkpt>
<trkpt lat="46.20491040" lon="6.09346616"><ele></ele><time>2015-7-3T19:37:8Z</time></trkpt>
<trkpt lat="46.20490395" lon="6.09345283"><ele></ele><time>2015-7-3T19:37:11Z</time></trkpt>
<trkpt lat="46.20490009" lon="6.09344068"><ele></ele><time>2015-7-3T19:37:14Z</time></trkpt>
<trkpt lat="46.20489632" lon="6.09342643"><ele></ele><time>2015-7-3T19:37:17Z</time></trkpt>
<trkpt lat="46.20488794" lon="6.09340556"><ele></ele><time>2015-7-3T19:37:20Z</time></trkpt>
<trkpt lat="46.20487084" lon="6.09338486"><ele></ele><time>2015-7-3T19:37:23Z</time></trkpt>
<trkpt lat="46.20485986" lon="6.09337228"><ele></ele><time>2015-7-3T19:37:26Z</time></trkpt>
<trkpt lat="46.20485097" lon="6.09335736"><ele></ele><time>2015-7-3T19:37:29Z</time></trkpt>
<trkpt lat="46.20483773" lon="6.09334068"><ele></ele><time>2015-7-3T19:37:32Z</time></trkpt>
<trkpt lat="46.20482666" lon="6.09332836"><ele></ele><time>2015-7-3T19:37:35Z</time></trkpt>
<trkpt lat="46.20481485" lon="6.09331847"><ele></ele><time>2015-7-3T19:37:38Z</time></trkpt>
<trkpt lat="46.20480713" lon="6.09330925"><ele></ele><time>2015-7-3T19:37:41Z</time></trkpt>
<trkpt lat="46.20480043" lon="6.09330229"><ele></ele><time>2015-7-3T19:37:44Z</time></trkpt>
<trkpt lat="46.20479154" lon="6.09329802"><ele></ele><time>2015-7-3T19:37:47Z</time></trkpt>
<trkpt lat="46.20477352" lon="6.09330313"><ele></ele><time>2015-7-3T19:37:50Z</time></trkpt>
<trkpt lat="46.20475668" lon="6.09330850"><ele></ele><time>2015-7-3T19:37:53Z</time></trkpt>
<trkpt lat="46.20475173" lon="6.09331897"><ele></ele><time>2015-7-3T19:37:56Z</time></trkpt>
<trkpt lat="46.20475047" lon="6.09333599"><ele></ele><time>2015-7-3T19:37:59Z</time></trkpt>
<trkpt lat="46.20475357" lon="6.09335678"><ele></ele><time>2015-7-3T19:38:2Z</time></trkpt>
<trkpt lat="46.20475207" lon="6.09338016"><ele></ele><time>2015-7-3T19:38:5Z</time></trkpt>
<trkpt lat="46.20475207" lon="6.09339969"><ele></ele><time>2015-7-3T19:38:8Z</time></trkpt>
<trkpt lat="46.20474519" lon="6.09341872"><ele></ele><time>2015-7-3T19:38:11Z</time></trkpt>
<trkpt lat="46.20473363" lon="6.09343984"><ele></ele><time>2015-7-3T19:38:14Z</time></trkpt>
<trkpt lat="46.20472214" lon="6.09346474"><ele></ele><time>2015-7-3T19:38:17Z</time></trkpt>
<trkpt lat="46.20470907" lon="6.09349173"><ele></ele><time>2015-7-3T19:38:20Z</time></trkpt>
<trkpt lat="46.20469205" lon="6.09351218"><ele></ele><time>2015-7-3T19:38:23Z</time></trkpt>
<trkpt lat="46.20467587" lon="6.09353607"><ele></ele><time>2015-7-3T19:38:26Z</time></trkpt>
<trkpt lat="46.20466053" lon="6.09356096"><ele></ele><time>2015-7-3T19:38:29Z</time></trkpt>
<trkpt lat="46.20464964" lon="6.09358275"><ele></ele><time>2015-7-3T19:38:32Z</time></trkpt>
<trkpt lat="46.20463774" lon="6.09360614"><ele></ele><time>2015-7-3T19:38:35Z</time></trkpt>
<trkpt lat="46.20462265" lon="6.09362894"><ele></ele><time>2015-7-3T19:38:38Z</time></trkpt>
<trkpt lat="46.20460463" lon="6.09365065"><ele></ele><time>2015-7-3T19:38:41Z</time></trkpt>
<trkpt lat="46.20458594" lon="6.09367076"><ele></ele><time>2015-7-3T19:38:44Z</time></trkpt>
<trkpt lat="46.20456649" lon="6.09368845"><ele></ele><time>2015-7-3T19:38:47Z</time></trkpt>
<trkpt lat="46.20455660" lon="6.09370873"><ele></ele><time>2015-7-3T19:38:50Z</time></trkpt>
<trkpt lat="46.20455786" lon="6.09373086"><ele></ele><time>2015-7-3T19:38:53Z</time></trkpt>
<trkpt lat="46.20456096" lon="6.09375475"><ele></ele><time>2015-7-3T19:38:56Z</time></trkpt>
<trkpt lat="46.20454956" lon="6.09377403"><ele></ele><time>2015-7-3T19:38:59Z</time></trkpt>
<trkpt lat="46.20452827" lon="6.09379356"><ele></ele><time>2015-7-3T19:39:2Z</time></trkpt>
<trkpt lat="46.20450664" lon="6.09381552"><ele></ele><time>2015-7-3T19:39:5Z</time></trkpt>
<trkpt lat="46.20448996" lon="6.09384393"><ele></ele><time>2015-7-3T19:39:8Z</time></trkpt>
<trkpt lat="46.20447605" lon="6.09387428"><ele></ele><time>2015-7-3T19:39:11Z</time></trkpt>
<trkpt lat="46.20446716" lon="6.09390386"><ele></ele><time>2015-7-3T19:39:14Z</time></trkpt>
<trkpt lat="46.20446440" lon="6.09393362"><ele></ele><time>2015-7-3T19:39:17Z</time></trkpt>
<trkpt lat="46.20446180" lon="6.09396379"><ele></ele><time>2015-7-3T19:39:20Z</time></trkpt>
<trkpt lat="46.20446465" lon="6.09399213"><ele></ele><time>2015-7-3T19:39:23Z</time></trkpt>
<trkpt lat="46.20446725" lon="6.09401895"><ele></ele><time>2015-7-3T19:39:26Z</time></trkpt>
<trkpt lat="46.20446683" lon="6.09404862"><ele></ele><time>2015-7-3T19:39:29Z</time></trkpt>
<trkpt lat="46.20446582" lon="6.09407343"><ele></ele><time>2015-7-3T19:39:32Z</time></trkpt>
<trkpt lat="46.20446624" lon="6.09409933"><ele></ele><time>2015-7-3T19:39:35Z</time></trkpt>
<trkpt lat="46.20446733" lon="6.09412858"><ele></ele><time>2015-7-3T19:39:38Z</time></trkpt>
<trkpt lat="46.20446976" lon="6.09415842"><ele></ele><time>2015-7-3T19:39:41Z</time></trkpt>
<trkpt lat="46.20447010" lon="6.09418977"><ele></ele><time>2015-7-3T19:39:44Z</time></trkpt>
<trkpt lat="46.20446817" lon="6.09422053"><ele></ele><time>2015-7-3T19:39:47Z</time></trkpt>
<trkpt lat="46.20446859" lon="6.09425012"><ele></ele><time>2015-7-3T19:39:50Z</time></trkpt>
<trkpt lat="46.20446725" lon="6.09427853"><ele></ele><time>2015-7-3T19:39:53Z</time></trkpt>
<trkpt lat="46.20446649" lon="6.09430620"><ele></ele><time>2015-7-3T19:39:56Z</time></trkpt>
<trkpt lat="46.20446566" lon="6.09433838"><ele></ele><time>2015-7-3T19:39:59Z</time></trkpt>
<trkpt lat="46.20446557" lon="6.09436646"><ele></ele><time>2015-7-3T19:40:2Z</time></trkpt>
<trkpt lat="46.20446549" lon="6.09439345"><ele></ele><time>2015-7-3T19:40:5Z</time></trkpt>
<trkpt lat="46.20446524" lon="6.09442187"><ele></ele><time>2015-7-3T19:40:8Z</time></trkpt>
<trkpt lat="46.20446339" lon="6.09445263"><ele></ele><time>2015-7-3T19:40:11Z</time></trkpt>
<trkpt lat="46.20445903" lon="6.09448439"><ele></ele><time>2015-7-3T19:40:14Z</time></trkpt>
<trkpt lat="46.20445157" lon="6.09451524"><ele></ele><time>2015-7-3T19:40:17Z</time></trkpt>
<trkpt lat="46.20444378" lon="6.09454516"><ele></ele><time>2015-7-3T19:40:20Z</time></trkpt>
<trkpt lat="46.20443372" lon="6.09457282"><ele></ele><time>2015-7-3T19:40:23Z</time></trkpt>
<trkpt lat="46.20441855" lon="6.09460065"><ele></ele><time>2015-7-3T19:40:26Z</time></trkpt>
<trkpt lat="46.20440095" lon="6.09463016"><ele></ele><time>2015-7-3T19:40:29Z</time></trkpt>
<trkpt lat="46.20438762" lon="6.09466268"><ele></ele><time>2015-7-3T19:40:32Z</time></trkpt>
<trkpt lat="46.20438536" lon="6.09470056"><ele></ele><time>2015-7-3T19:40:35Z</time></trkpt>
<trkpt lat="46.20439332" lon="6.09474013"><ele></ele><time>2015-7-3T19:40:38Z</time></trkpt>
<trkpt lat="46.20440564" lon="6.09477784"><ele></ele><time>2015-7-3T19:40:41Z</time></trkpt>
<trkpt lat="46.20441796" lon="6.09481473"><ele></ele><time>2015-7-3T19:40:44Z</time></trkpt>
<trkpt lat="46.20443054" lon="6.09485077"><ele></ele><time>2015-7-3T19:40:47Z</time></trkpt>
<trkpt lat="46.20444244" lon="6.09488723"><ele></ele><time>2015-7-3T19:40:50Z</time></trkpt>
<trkpt lat="46.20445509" lon="6.09492302"><ele></ele><time>2015-7-3T19:40:53Z</time></trkpt>
<trkpt lat="46.20446960" lon="6.09495789"><ele></ele><time>2015-7-3T19:40:56Z</time></trkpt>
<trkpt lat="46.20448535" lon="6.09499259"><ele></ele><time>2015-7-3T19:40:59Z</time></trkpt>
<trkpt lat="46.20450153" lon="6.09502838"><ele></ele><time>2015-7-3T19:41:2Z</time></trkpt>
<trkpt lat="46.20451779" lon="6.09506509"><ele></ele><time>2015-7-3T19:41:5Z</time></trkpt>
<trkpt lat="46.20453573" lon="6.09510214"><ele></ele><time>2015-7-3T19:41:8Z</time></trkpt>
<trkpt lat="46.20455249" lon="6.09513927"><ele></ele><time>2015-7-3T19:41:11Z</time></trkpt>
<trkpt lat="46.20456959" lon="6.09517582"><ele></ele><time>2015-7-3T19:41:14Z</time></trkpt>
<trkpt lat="46.20458744" lon="6.09521178"><ele></ele><time>2015-7-3T19:41:17Z</time></trkpt>
<trkpt lat="46.20460588" lon="6.09524656"><ele></ele><time>2015-7-3T19:41:20Z</time></trkpt>
<trkpt lat="46.20462215" lon="6.09527766"><ele></ele><time>2015-7-3T19:41:23Z</time></trkpt>
<trkpt lat="46.20463899" lon="6.09530993"><ele></ele><time>2015-7-3T19:41:26Z</time></trkpt>
<trkpt lat="46.20465534" lon="6.09533910"><ele></ele><time>2015-7-3T19:41:29Z</time></trkpt>
<trkpt lat="46.20467202" lon="6.09536693"><ele></ele><time>2015-7-3T19:41:32Z</time></trkpt>
<trkpt lat="46.20468987" lon="6.09539559"><ele></ele><time>2015-7-3T19:41:35Z</time></trkpt>
<trkpt lat="46.20470672" lon="6.09542266"><ele></ele><time>2015-7-3T19:41:38Z</time></trkpt>
<trkpt lat="46.20472382" lon="6.09544756"><ele></ele><time>2015-7-3T19:41:41Z</time></trkpt>
<trkpt lat="46.20474016" lon="6.09547505"><ele></ele><time>2015-7-3T19:41:44Z</time></trkpt>
<trkpt lat="46.20475533" lon="6.09550456"><ele></ele><time>2015-7-3T19:41:47Z</time></trkpt>
<trkpt lat="46.20476807" lon="6.09553406"><ele></ele><time>2015-7-3T19:41:50Z</time></trkpt>
<trkpt lat="46.20477956" lon="6.09556465"><ele></ele><time>2015-7-3T19:41:53Z</time></trkpt>
<trkpt lat="46.20478635" lon="6.09560187"><ele></ele><time>2015-7-3T19:41:56Z</time></trkpt>
<trkpt lat="46.20478123" lon="6.09563976"><ele></ele><time>2015-7-3T19:41:59Z</time></trkpt>
<trkpt lat="46.20476564" lon="6.09567328"><ele></ele><time>2015-7-3T19:42:2Z</time></trkpt>
<trkpt lat="46.20474452" lon="6.09570354"><ele></ele><time>2015-7-3T19:42:5Z</time></trkpt>
<trkpt lat="46.20472373" lon="6.09573548"><ele></ele><time>2015-7-3T19:42:8Z</time></trkpt>
<trkpt lat="46.20470387" lon="6.09576884"><ele></ele><time>2015-7-3T19:42:11Z</time></trkpt>
<trkpt lat="46.20468367" lon="6.09580236"><ele></ele><time>2015-7-3T19:42:14Z</time></trkpt>
<trkpt lat="46.20466422" lon="6.09583539"><ele></ele><time>2015-7-3T19:42:17Z</time></trkpt>
<trkpt lat="46.20464520" lon="6.09586883"><ele></ele><time>2015-7-3T19:42:20Z</time></trkpt>
<trkpt lat="46.20462759" lon="6.09590270"><ele></ele><time>2015-7-3T19:42:23Z</time></trkpt>
<trkpt lat="46.20461293" lon="6.09593748"><ele></ele><time>2015-7-3T19:42:26Z</time></trkpt>
<trkpt lat="46.20459507" lon="6.09597076"><ele></ele><time>2015-7-3T19:42:29Z</time></trkpt>
<trkpt lat="46.20457655" lon="6.09600437"><ele></ele><time>2015-7-3T19:42:32Z</time></trkpt>
<trkpt lat="46.20455945" lon="6.09603999"><ele></ele><time>2015-7-3T19:42:35Z</time></trkpt>
<trkpt lat="46.20454319" lon="6.09607645"><ele></ele><time>2015-7-3T19:42:38Z</time></trkpt>
<trkpt lat="46.20452332" lon="6.09611258"><ele></ele><time>2015-7-3T19:42:41Z</time></trkpt>
<trkpt lat="46.20450237" lon="6.09614694"><ele></ele><time>2015-7-3T19:42:44Z</time></trkpt>
<trkpt lat="46.20448175" lon="6.09618148"><ele></ele><time>2015-7-3T19:42:47Z</time></trkpt>
<trkpt lat="46.20446348" lon="6.09621543"><ele></ele><time>2015-7-3T19:42:50Z</time></trkpt>
<trkpt lat="46.20444244" lon="6.09625004"><ele></ele><time>2015-7-3T19:42:53Z</time></trkpt>
<trkpt lat="46.20442417" lon="6.09628516"><ele></ele><time>2015-7-3T19:42:56Z</time></trkpt>
<trkpt lat="46.20440346" lon="6.09631785"><ele></ele><time>2015-7-3T19:42:59Z</time></trkpt>
<trkpt lat="46.20438276" lon="6.09635155"><ele></ele><time>2015-7-3T19:43:2Z</time></trkpt>
<trkpt lat="46.20436273" lon="6.09638558"><ele></ele><time>2015-7-3T19:43:5Z</time></trkpt>
<trkpt lat="46.20434320" lon="6.09641894"><ele></ele><time>2015-7-3T19:43:8Z</time></trkpt>
<trkpt lat="46.20432283" lon="6.09645037"><ele></ele><time>2015-7-3T19:43:11Z</time></trkpt>
<trkpt lat="46.20430154" lon="6.09648163"><ele></ele><time>2015-7-3T19:43:14Z</time></trkpt>
<trkpt lat="46.20427866" lon="6.09650812"><ele></ele><time>2015-7-3T19:43:17Z</time></trkpt>
<trkpt lat="46.20425678" lon="6.09652958"><ele></ele><time>2015-7-3T19:43:20Z</time></trkpt>
<trkpt lat="46.20423574" lon="6.09655506"><ele></ele><time>2015-7-3T19:43:23Z</time></trkpt>
<trkpt lat="46.20423423" lon="6.09658968"><ele></ele><time>2015-7-3T19:43:26Z</time></trkpt>
<trkpt lat="46.20425393" lon="6.09660644"><ele></ele><time>2015-7-3T19:43:29Z</time></trkpt>
<trkpt lat="46.20427245" lon="6.09660275"><ele></ele><time>2015-7-3T19:43:32Z</time></trkpt>
<trkpt lat="46.20428687" lon="6.09657945"><ele></ele><time>2015-7-3T19:43:35Z</time></trkpt>
<trkpt lat="46.20430162" lon="6.09654576"><ele></ele><time>2015-7-3T19:43:38Z</time></trkpt>
<trkpt lat="46.20431679" lon="6.09650695"><ele></ele><time>2015-7-3T19:43:41Z</time></trkpt>
<trkpt lat="46.20433523" lon="6.09646965"><ele></ele><time>2015-7-3T19:43:44Z</time></trkpt>
<trkpt lat="46.20435820" lon="6.09643444"><ele></ele><time>2015-7-3T19:43:47Z</time></trkpt>
<trkpt lat="46.20437907" lon="6.09640092"><ele></ele><time>2015-7-3T19:43:50Z</time></trkpt>
<trkpt lat="46.20440296" lon="6.09636974"><ele></ele><time>2015-7-3T19:43:53Z</time></trkpt>
<trkpt lat="46.20442986" lon="6.09633772"><ele></ele><time>2015-7-3T19:43:56Z</time></trkpt>
<trkpt lat="46.20445627" lon="6.09630369"><ele></ele><time>2015-7-3T19:43:59Z</time></trkpt>
<trkpt lat="46.20448393" lon="6.09626949"><ele></ele><time>2015-7-3T19:44:2Z</time></trkpt>
<trkpt lat="46.20451394" lon="6.09623479"><ele></ele><time>2015-7-3T19:44:5Z</time></trkpt>
<trkpt lat="46.20454176" lon="6.09619598"><ele></ele><time>2015-7-3T19:44:8Z</time></trkpt>
<trkpt lat="46.20456783" lon="6.09615382"><ele></ele><time>2015-7-3T19:44:11Z</time></trkpt>
<trkpt lat="46.20459457" lon="6.09611149"><ele></ele><time>2015-7-3T19:44:14Z</time></trkpt>
<trkpt lat="46.20462382" lon="6.09606606"><ele></ele><time>2015-7-3T19:44:17Z</time></trkpt>
<trkpt lat="46.20465425" lon="6.09602046"><ele></ele><time>2015-7-3T19:44:20Z</time></trkpt>
<trkpt lat="46.20468325" lon="6.09597478"><ele></ele><time>2015-7-3T19:44:23Z</time></trkpt>
<trkpt lat="46.20471334" lon="6.09592876"><ele></ele><time>2015-7-3T19:44:26Z</time></trkpt>
<trkpt lat="46.20474176" lon="6.09588275"><ele></ele><time>2015-7-3T19:44:29Z</time></trkpt>
<trkpt lat="46.20476749" lon="6.09583782"><ele></ele><time>2015-7-3T19:44:32Z</time></trkpt>
<trkpt lat="46.20479515" lon="6.09579692"><ele></ele><time>2015-7-3T19:44:35Z</time></trkpt>
<trkpt lat="46.20482147" lon="6.09575274"><ele></ele><time>2015-7-3T19:44:38Z</time></trkpt>
<trkpt lat="46.20484628" lon="6.09570907"><ele></ele><time>2015-7-3T19:44:41Z</time></trkpt>
<trkpt lat="46.20486572" lon="6.09566767"><ele></ele><time>2015-7-3T19:44:44Z</time></trkpt>
<trkpt lat="46.20488115" lon="6.09563179"><ele></ele><time>2015-7-3T19:44:47Z</time></trkpt>
<trkpt lat="46.20489498" lon="6.09560313"><ele></ele><time>2015-7-3T19:44:50Z</time></trkpt>
<trkpt lat="46.20490386" lon="6.09557773"><ele></ele><time>2015-7-3T19:44:53Z</time></trkpt>
<trkpt lat="46.20490378" lon="6.09555443"><ele></ele><time>2015-7-3T19:44:56Z</time></trkpt>
<trkpt lat="46.20490068" lon="6.09552945"><ele></ele><time>2015-7-3T19:44:59Z</time></trkpt>
<trkpt lat="46.20489238" lon="6.09550514"><ele></ele><time>2015-7-3T19:45:2Z</time></trkpt>
<trkpt lat="46.20488039" lon="6.09548092"><ele></ele><time>2015-7-3T19:45:5Z</time></trkpt>
<trkpt lat="46.20486514" lon="6.09545703"><ele></ele><time>2015-7-3T19:45:8Z</time></trkpt>
<trkpt lat="46.20484904" lon="6.09543130"><ele></ele><time>2015-7-3T19:45:11Z</time></trkpt>
<trkpt lat="46.20483345" lon="6.09540205"><ele></ele><time>2015-7-3T19:45:14Z</time></trkpt>
<trkpt lat="46.20481837" lon="6.09536927"><ele></ele><time>2015-7-3T19:45:17Z</time></trkpt>
<trkpt lat="46.20480387" lon="6.09533424"><ele></ele><time>2015-7-3T19:45:20Z</time></trkpt>
<trkpt lat="46.20478903" lon="6.09530037"><ele></ele><time>2015-7-3T19:45:23Z</time></trkpt>
<trkpt lat="46.20477243" lon="6.09526777"><ele></ele><time>2015-7-3T19:45:26Z</time></trkpt>
<trkpt lat="46.20475366" lon="6.09523382"><ele></ele><time>2015-7-3T19:45:29Z</time></trkpt>
<trkpt lat="46.20473513" lon="6.09519560"><ele></ele><time>2015-7-3T19:45:32Z</time></trkpt>
<trkpt lat="46.20471720" lon="6.09515327"><ele></ele><time>2015-7-3T19:45:35Z</time></trkpt>
<trkpt lat="46.20469725" lon="6.09510834"><ele></ele><time>2015-7-3T19:45:38Z</time></trkpt>
<trkpt lat="46.20467487" lon="6.09506174"><ele></ele><time>2015-7-3T19:45:41Z</time></trkpt>
<trkpt lat="46.20465182" lon="6.09501237"><ele></ele><time>2015-7-3T19:45:44Z</time></trkpt>
<trkpt lat="46.20462692" lon="6.09496007"><ele></ele><time>2015-7-3T19:45:47Z</time></trkpt>
<trkpt lat="46.20459935" lon="6.09490709"><ele></ele><time>2015-7-3T19:45:50Z</time></trkpt>
<trkpt lat="46.20457118" lon="6.09485437"><ele></ele><time>2015-7-3T19:45:53Z</time></trkpt>
<trkpt lat="46.20454688" lon="6.09480374"><ele></ele><time>2015-7-3T19:45:56Z</time></trkpt>
<trkpt lat="46.20452659" lon="6.09474960"><ele></ele><time>2015-7-3T19:45:59Z</time></trkpt>
<trkpt lat="46.20452785" lon="6.09468615"><ele></ele><time>2015-7-3T19:46:2Z</time></trkpt>
<trkpt lat="46.20453556" lon="6.09463435"><ele></ele><time>2015-7-3T19:46:5Z</time></trkpt>
<trkpt lat="46.20454587" lon="6.09459378"><ele></ele><time>2015-7-3T19:46:8Z</time></trkpt>
<trkpt lat="46.20453808" lon="6.09454994"><ele></ele><time>2015-7-3T19:46:11Z</time></trkpt>
<trkpt lat="46.20452349" lon="6.09450837"><ele></ele><time>2015-7-3T19:46:14Z</time></trkpt>
<trkpt lat="46.20450857" lon="6.09448004"><ele></ele><time>2015-7-3T19:46:17Z</time></trkpt>
<trkpt lat="46.20449189" lon="6.09446403"><ele></ele><time>2015-7-3T19:46:20Z</time></trkpt>
<trkpt lat="46.20447136" lon="6.09447132"><ele></ele><time>2015-7-3T19:46:23Z</time></trkpt>
<trkpt lat="46.20446155" lon="6.09448842"><ele></ele><time>2015-7-3T19:46:26Z</time></trkpt>
<trkpt lat="46.20446214" lon="6.09451633"><ele></ele><time>2015-7-3T19:46:29Z</time></trkpt>
<trkpt lat="46.20446314" lon="6.09452563"><ele></ele><time>2015-7-3T19:46:32Z</time></trkpt>
<trkpt lat="46.20447337" lon="6.09455145"><ele></ele><time>2015-7-3T19:46:35Z</time></trkpt>
<trkpt lat="46.20448242" lon="6.09458263"><ele></ele><time>2015-7-3T19:46:38Z</time></trkpt>
<trkpt lat="46.20449013" lon="6.09462102"><ele></ele><time>2015-7-3T19:46:41Z</time></trkpt>
<trkpt lat="46.20449809" lon="6.09466276"><ele></ele><time>2015-7-3T19:46:44Z</time></trkpt>
<trkpt lat="46.20450907" lon="6.09470408"><ele></ele><time>2015-7-3T19:46:47Z</time></trkpt>
<trkpt lat="46.20452366" lon="6.09474323"><ele></ele><time>2015-7-3T19:46:50Z</time></trkpt>
<trkpt lat="46.20454084" lon="6.09478103"><ele></ele><time>2015-7-3T19:46:53Z</time></trkpt>
<trkpt lat="46.20455819" lon="6.09481758"><ele></ele><time>2015-7-3T19:46:56Z</time></trkpt>
<trkpt lat="46.20457479" lon="6.09485303"><ele></ele><time>2015-7-3T19:46:59Z</time></trkpt>
<trkpt lat="46.20459164" lon="6.09488714"><ele></ele><time>2015-7-3T19:47:2Z</time></trkpt>
<trkpt lat="46.20460974" lon="6.09491774"><ele></ele><time>2015-7-3T19:47:5Z</time></trkpt>
<trkpt lat="46.20462885" lon="6.09494649"><ele></ele><time>2015-7-3T19:47:8Z</time></trkpt>
<trkpt lat="46.20464805" lon="6.09497868"><ele></ele><time>2015-7-3T19:47:11Z</time></trkpt>
<trkpt lat="46.20466523" lon="6.09501396"><ele></ele><time>2015-7-3T19:47:14Z</time></trkpt>
<trkpt lat="46.20468132" lon="6.09505294"><ele></ele><time>2015-7-3T19:47:17Z</time></trkpt>
<trkpt lat="46.20469716" lon="6.09509384"><ele></ele><time>2015-7-3T19:47:20Z</time></trkpt>
<trkpt lat="46.20471368" lon="6.09513475"><ele></ele><time>2015-7-3T19:47:23Z</time></trkpt>
<trkpt lat="46.20473178" lon="6.09517456"><ele></ele><time>2015-7-3T19:47:26Z</time></trkpt>
<trkpt lat="46.20475265" lon="6.09521337"><ele></ele><time>2015-7-3T19:47:29Z</time></trkpt>
<trkpt lat="46.20477302" lon="6.09525125"><ele></ele><time>2015-7-3T19:47:32Z</time></trkpt>
<trkpt lat="46.20479272" lon="6.09528797"><ele></ele><time>2015-7-3T19:47:35Z</time></trkpt>
<trkpt lat="46.20481258" lon="6.09532636"><ele></ele><time>2015-7-3T19:47:38Z</time></trkpt>
<trkpt lat="46.20483077" lon="6.09536424"><ele></ele><time>2015-7-3T19:47:41Z</time></trkpt>
<trkpt lat="46.20484896" lon="6.09540339"><ele></ele><time>2015-7-3T19:47:44Z</time></trkpt>
<trkpt lat="46.20486313" lon="6.09544580"><ele></ele><time>2015-7-3T19:47:47Z</time></trkpt>
<trkpt lat="46.20486698" lon="6.09549198"><ele></ele><time>2015-7-3T19:47:50Z</time></trkpt>
<trkpt lat="46.20485617" lon="6.09553984"><ele></ele><time>2015-7-3T19:47:53Z</time></trkpt>
<trkpt lat="46.20483907" lon="6.09558259"><ele></ele><time>2015-7-3T19:47:56Z</time></trkpt>
<trkpt lat="46.20481635" lon="6.09562123"><ele></ele><time>2015-7-3T19:47:59Z</time></trkpt>
<trkpt lat="46.20479180" lon="6.09565845"><ele></ele><time>2015-7-3T19:48:2Z</time></trkpt>
<trkpt lat="46.20476757" lon="6.09569566"><ele></ele><time>2015-7-3T19:48:5Z</time></trkpt>
<trkpt lat="46.20474276" lon="6.09573263"><ele></ele><time>2015-7-3T19:48:8Z</time></trkpt>
<trkpt lat="46.20471728" lon="6.09576892"><ele></ele><time>2015-7-3T19:48:11Z</time></trkpt>
<trkpt lat="46.20469205" lon="6.09580622"><ele></ele><time>2015-7-3T19:48:14Z</time></trkpt>
<trkpt lat="46.20466665" lon="6.09584369"><ele></ele><time>2015-7-3T19:48:17Z</time></trkpt>
<trkpt lat="46.20464235" lon="6.09588384"><ele></ele><time>2015-7-3T19:48:20Z</time></trkpt>
<trkpt lat="46.20462148" lon="6.09592508"><ele></ele><time>2015-7-3T19:48:23Z</time></trkpt>
<trkpt lat="46.20459599" lon="6.09596615"><ele></ele><time>2015-7-3T19:48:26Z</time></trkpt>
<trkpt lat="46.20457060" lon="6.09600688"><ele></ele><time>2015-7-3T19:48:29Z</time></trkpt>
<trkpt lat="46.20454746" lon="6.09604737"><ele></ele><time>2015-7-3T19:48:32Z</time></trkpt>
<trkpt lat="46.20452458" lon="6.09608936"><ele></ele><time>2015-7-3T19:48:35Z</time></trkpt>
<trkpt lat="46.20450187" lon="6.09613152"><ele></ele><time>2015-7-3T19:48:38Z</time></trkpt>
<trkpt lat="46.20448259" lon="6.09617477"><ele></ele><time>2015-7-3T19:48:41Z</time></trkpt>
<trkpt lat="46.20446188" lon="6.09621584"><ele></ele><time>2015-7-3T19:48:44Z</time></trkpt>
<trkpt lat="46.20443825" lon="6.09625549"><ele></ele><time>2015-7-3T19:48:47Z</time></trkpt>
<trkpt lat="46.20441436" lon="6.09629505"><ele></ele><time>2015-7-3T19:48:50Z</time></trkpt>
<trkpt lat="46.20438913" lon="6.09633487"><ele></ele><time>2015-7-3T19:48:53Z</time></trkpt>
<trkpt lat="46.20436717" lon="6.09637518"><ele></ele><time>2015-7-3T19:48:56Z</time></trkpt>
<trkpt lat="46.20434605" lon="6.09641617"><ele></ele><time>2015-7-3T19:48:59Z</time></trkpt>
<trkpt lat="46.20432802" lon="6.09645557"><ele></ele><time>2015-7-3T19:49:2Z</time></trkpt>
<trkpt lat="46.20431302" lon="6.09649362"><ele></ele><time>2015-7-3T19:49:5Z</time></trkpt>
<trkpt lat="46.20430858" lon="6.09653528"><ele></ele><time>2015-7-3T19:49:8Z</time></trkpt>
<trkpt lat="46.20430715" lon="6.09657652"><ele></ele><time>2015-7-3T19:49:11Z</time></trkpt>
<trkpt lat="46.20431554" lon="6.09660854"><ele></ele><time>2015-7-3T19:49:14Z</time></trkpt>
<trkpt lat="46.20432727" lon="6.09663595"><ele></ele><time>2015-7-3T19:49:17Z</time></trkpt>
<trkpt lat="46.20434035" lon="6.09666134"><ele></ele><time>2015-7-3T19:49:20Z</time></trkpt>
<trkpt lat="46.20435200" lon="6.09668607"><ele></ele><time>2015-7-3T19:49:23Z</time></trkpt>
<trkpt lat="46.20436549" lon="6.09671004"><ele></ele><time>2015-7-3T19:49:26Z</time></trkpt>
<trkpt lat="46.20437865" lon="6.09673720"><ele></ele><time>2015-7-3T19:49:29Z</time></trkpt>
<trkpt lat="46.20439558" lon="6.09676679"><ele></ele><time>2015-7-3T19:49:32Z</time></trkpt>
<trkpt lat="46.20441469" lon="6.09679755"><ele></ele><time>2015-7-3T19:49:35Z</time></trkpt>
<trkpt lat="46.20444076" lon="6.09683778"><ele></ele><time>2015-7-3T19:49:38Z</time></trkpt>
<trkpt lat="46.20446046" lon="6.09687299"><ele></ele><time>2015-7-3T19:49:41Z</time></trkpt>
<trkpt lat="46.20447898" lon="6.09690492"><ele></ele><time>2015-7-3T19:49:44Z</time></trkpt>
<trkpt lat="46.20450178" lon="6.09693015"><ele></ele><time>2015-7-3T19:49:47Z</time></trkpt>
<trkpt lat="46.20453078" lon="6.09693853"><ele></ele><time>2015-7-3T19:49:50Z</time></trkpt>
<trkpt lat="46.20455828" lon="6.09693367"><ele></ele><time>2015-7-3T19:49:53Z</time></trkpt>
<trkpt lat="46.20458216" lon="6.09692219"><ele></ele><time>2015-7-3T19:49:56Z</time></trkpt>
<trkpt lat="46.20460463" lon="6.09690945"><ele></ele><time>2015-7-3T19:49:59Z</time></trkpt>
<trkpt lat="46.20462843" lon="6.09690014"><ele></ele><time>2015-7-3T19:50:2Z</time></trkpt>
<trkpt lat="46.20465408" lon="6.09689453"><ele></ele><time>2015-7-3T19:50:5Z</time></trkpt>
<trkpt lat="46.20468149" lon="6.09688983"><ele></ele><time>2015-7-3T19:50:8Z</time></trkpt>
<trkpt lat="46.20470856" lon="6.09688757"><ele></ele><time>2015-7-3T19:50:11Z</time></trkpt>
<trkpt lat="46.20473974" lon="6.09688212"><ele></ele><time>2015-7-3T19:50:14Z</time></trkpt>
<trkpt lat="46.20477436" lon="6.09687500"><ele></ele><time>2015-7-3T19:50:17Z</time></trkpt>
<trkpt lat="46.20481015" lon="6.09686586"><ele></ele><time>2015-7-3T19:50:20Z</time></trkpt>
<trkpt lat="46.20484628" lon="6.09685329"><ele></ele><time>2015-7-3T19:50:23Z</time></trkpt>
<trkpt lat="46.20488626" lon="6.09683963"><ele></ele><time>2015-7-3T19:50:26Z</time></trkpt>
<trkpt lat="46.20492582" lon="6.09682873"><ele></ele><time>2015-7-3T19:50:29Z</time></trkpt>
<trkpt lat="46.20496245" lon="6.09681984"><ele></ele><time>2015-7-3T19:50:32Z</time></trkpt>
<trkpt lat="46.20500252" lon="6.09680903"><ele></ele><time>2015-7-3T19:50:35Z</time></trkpt>
<trkpt lat="46.20503956" lon="6.09679780"><ele></ele><time>2015-7-3T19:50:38Z</time></trkpt>
<trkpt lat="46.20507888" lon="6.09678632"><ele></ele><time>2015-7-3T19:50:41Z</time></trkpt>
<trkpt lat="46.20511358" lon="6.09677324"><ele></ele><time>2015-7-3T19:50:44Z</time></trkpt>
<trkpt lat="46.20514702" lon="6.09675572"><ele></ele><time>2015-7-3T19:50:47Z</time></trkpt>
<trkpt lat="46.20517854" lon="6.09673644"><ele></ele><time>2015-7-3T19:50:50Z</time></trkpt>
<trkpt lat="46.20520888" lon="6.09671658"><ele></ele><time>2015-7-3T19:50:53Z</time></trkpt>
<trkpt lat="46.20523855" lon="6.09670543"><ele></ele><time>2015-7-3T19:50:56Z</time></trkpt>
<trkpt lat="46.20525850" lon="6.09669185"><ele></ele><time>2015-7-3T19:50:59Z</time></trkpt>
<trkpt lat="46.20527308" lon="6.09669236"><ele></ele><time>2015-7-3T19:51:2Z</time></trkpt>
<trkpt lat="46.20528985" lon="6.09671256"><ele></ele><time>2015-7-3T19:51:5Z</time></trkpt>
<trkpt lat="46.20530309" lon="6.09672622"><ele></ele><time>2015-7-3T19:51:8Z</time></trkpt>
<trkpt lat="46.20532488" lon="6.09674198"><ele></ele><time>2015-7-3T19:51:11Z</time></trkpt>
<trkpt lat="46.20537350" lon="6.09676394"><ele></ele><time>2015-7-3T19:51:14Z</time></trkpt>
<trkpt lat="46.20540954" lon="6.09676553"><ele></ele><time>2015-7-3T19:51:17Z</time></trkpt>
<trkpt lat="46.20546453" lon="6.09677115"><ele></ele><time>2015-7-3T19:51:20Z</time></trkpt>
<trkpt lat="46.20551666" lon="6.09676494"><ele></ele><time>2015-7-3T19:51:23Z</time></trkpt>
<trkpt lat="46.20555405" lon="6.09675027"><ele></ele><time>2015-7-3T19:51:26Z</time></trkpt>
<trkpt lat="46.20561163" lon="6.09674952"><ele></ele><time>2015-7-3T19:51:29Z</time></trkpt>
<trkpt lat="46.20566125" lon="6.09674055"><ele></ele><time>2015-7-3T19:51:32Z</time></trkpt>
<trkpt lat="46.20571112" lon="6.09672982"><ele></ele><time>2015-7-3T19:51:35Z</time></trkpt>
<trkpt lat="46.20575949" lon="6.09671624"><ele></ele><time>2015-7-3T19:51:38Z</time></trkpt>
<trkpt lat="46.20580735" lon="6.09670409"><ele></ele><time>2015-7-3T19:51:41Z</time></trkpt>
<trkpt lat="46.20585336" lon="6.09668775"><ele></ele><time>2015-7-3T19:51:44Z</time></trkpt>
<trkpt lat="46.20589728" lon="6.09667475"><ele></ele><time>2015-7-3T19:51:47Z</time></trkpt>
<trkpt lat="46.20593827" lon="6.09666495"><ele></ele><time>2015-7-3T19:51:50Z</time></trkpt>
<trkpt lat="46.20597859" lon="6.09665656"><ele></ele><time>2015-7-3T19:51:53Z</time></trkpt>
<trkpt lat="46.20601513" lon="6.09664684"><ele></ele><time>2015-7-3T19:51:56Z</time></trkpt>
<trkpt lat="46.20604833" lon="6.09664517"><ele></ele><time>2015-7-3T19:51:59Z</time></trkpt>
<trkpt lat="46.20609007" lon="6.09665832"><ele></ele><time>2015-7-3T19:52:2Z</time></trkpt>
<trkpt lat="46.20611505" lon="6.09668800"><ele></ele><time>2015-7-3T19:52:5Z</time></trkpt>
<trkpt lat="46.20612737" lon="6.09673292"><ele></ele><time>2015-7-3T19:52:8Z</time></trkpt>
<trkpt lat="46.20611538" lon="6.09672714"><ele></ele><time>2015-7-3T19:52:11Z</time></trkpt>
<trkpt lat="46.20610482" lon="6.09672848"><ele></ele><time>2015-7-3T19:52:14Z</time></trkpt>
<trkpt lat="46.20611899" lon="6.09675262"><ele></ele><time>2015-7-3T19:52:17Z</time></trkpt>
<trkpt lat="46.20611773" lon="6.09676318"><ele></ele><time>2015-7-3T19:52:20Z</time></trkpt>
<trkpt lat="46.20611882" lon="6.09673812"><ele></ele><time>2015-7-3T19:52:23Z</time></trkpt>
<trkpt lat="46.20612963" lon="6.09676637"><ele></ele><time>2015-7-3T19:52:26Z</time></trkpt>
<trkpt lat="46.20614765" lon="6.09682630"><ele></ele><time>2015-7-3T19:52:29Z</time></trkpt>
<trkpt lat="46.20615168" lon="6.09683099"><ele></ele><time>2015-7-3T19:52:32Z</time></trkpt>
<trkpt lat="46.20615553" lon="6.09683854"><ele></ele><time>2015-7-3T19:52:35Z</time></trkpt>
<trkpt lat="46.20615704" lon="6.09684306"><ele></ele><time>2015-7-3T19:52:38Z</time></trkpt>
<trkpt lat="46.20615729" lon="6.09684566"><ele></ele><time>2015-7-3T19:52:41Z</time></trkpt>
<trkpt lat="46.20617506" lon="6.09685823"><ele></ele><time>2015-7-3T19:52:44Z</time></trkpt>
<trkpt lat="46.20618587" lon="6.09687466"><ele></ele><time>2015-7-3T19:52:47Z</time></trkpt>
<trkpt lat="46.20618872" lon="6.09688330"><ele></ele><time>2015-7-3T19:52:50Z</time></trkpt>
<trkpt lat="46.20618923" lon="6.09689503"><ele></ele><time>2015-7-3T19:52:53Z</time></trkpt>
<trkpt lat="46.20619736" lon="6.09688464"><ele></ele><time>2015-7-3T19:52:56Z</time></trkpt>
<trkpt lat="46.20620297" lon="6.09688380"><ele></ele><time>2015-7-3T19:52:59Z</time></trkpt>
<trkpt lat="46.20620524" lon="6.09689344"><ele></ele><time>2015-7-3T19:53:2Z</time></trkpt>
<trkpt lat="46.20620465" lon="6.09690685"><ele></ele><time>2015-7-3T19:53:5Z</time></trkpt>
<trkpt lat="46.20620524" lon="6.09691858"><ele></ele><time>2015-7-3T19:53:8Z</time></trkpt>
<trkpt lat="46.20620943" lon="6.09693727"><ele></ele><time>2015-7-3T19:53:11Z</time></trkpt>
<trkpt lat="46.20621270" lon="6.09695764"><ele></ele><time>2015-7-3T19:53:14Z</time></trkpt>
<trkpt lat="46.20621026" lon="6.09697005"><ele></ele><time>2015-7-3T19:53:17Z</time></trkpt>
<trkpt lat="46.20620507" lon="6.09697499"><ele></ele><time>2015-7-3T19:53:20Z</time></trkpt>
<trkpt lat="46.20620104" lon="6.09698379"><ele></ele><time>2015-7-3T19:53:23Z</time></trkpt>
<trkpt lat="46.20618663" lon="6.09700408"><ele></ele><time>2015-7-3T19:53:26Z</time></trkpt>
<trkpt lat="46.20618495" lon="6.09700928"><ele></ele><time>2015-7-3T19:53:29Z</time></trkpt>
<trkpt lat="46.20618822" lon="6.09701355"><ele></ele><time>2015-7-3T19:53:32Z</time></trkpt>
<trkpt lat="46.20619199" lon="6.09701833"><ele></ele><time>2015-7-3T19:53:35Z</time></trkpt>
<trkpt lat="46.20619124" lon="6.09702612"><ele></ele><time>2015-7-3T19:53:38Z</time></trkpt>
<trkpt lat="46.20619618" lon="6.09703124"><ele></ele><time>2015-7-3T19:53:41Z</time></trkpt>
<trkpt lat="46.20619912" lon="6.09702897"><ele></ele><time>2015-7-3T19:53:44Z</time></trkpt>
<trkpt lat="46.20619895" lon="6.09703165"><ele></ele><time>2015-7-3T19:53:47Z</time></trkpt>
<trkpt lat="46.20620138" lon="6.09702076"><ele></ele><time>2015-7-3T19:53:50Z</time></trkpt>
<trkpt lat="46.20620247" lon="6.09701405"><ele></ele><time>2015-7-3T19:53:53Z</time></trkpt>
<trkpt lat="46.20620188" lon="6.09702227"><ele></ele><time>2015-7-3T19:53:56Z</time></trkpt>
<trkpt lat="46.20620465" lon="6.09703098"><ele></ele><time>2015-7-3T19:53:59Z</time></trkpt>
<trkpt lat="46.20620708" lon="6.09704188"><ele></ele><time>2015-7-3T19:54:2Z</time></trkpt>
<trkpt lat="46.20620993" lon="6.09704733"><ele></ele><time>2015-7-3T19:54:5Z</time></trkpt>
<trkpt lat="46.20621840" lon="6.09705806"><ele></ele><time>2015-7-3T19:54:8Z</time></trkpt>
<trkpt lat="46.20623658" lon="6.09705445"><ele></ele><time>2015-7-3T19:54:11Z</time></trkpt>
<trkpt lat="46.20625360" lon="6.09705529"><ele></ele><time>2015-7-3T19:54:14Z</time></trkpt>
<trkpt lat="46.20625896" lon="6.09706325"><ele></ele><time>2015-7-3T19:54:17Z</time></trkpt>
<trkpt lat="46.20625637" lon="6.09705429"><ele></ele><time>2015-7-3T19:54:20Z</time></trkpt>
<trkpt lat="46.20626014" lon="6.09704515"><ele></ele><time>2015-7-3T19:54:23Z</time></trkpt>
<trkpt lat="46.20627137" lon="6.09705303"><ele></ele><time>2015-7-3T19:54:26Z</time></trkpt>
<trkpt lat="46.20628319" lon="6.09704859"><ele></ele><time>2015-7-3T19:54:29Z</time></trkpt>
<trkpt lat="46.20629543" lon="6.09704968"><ele></ele><time>2015-7-3T19:54:32Z</time></trkpt>
<trkpt lat="46.20631194" lon="6.09704666"><ele></ele><time>2015-7-3T19:54:35Z</time></trkpt>
<trkpt lat="46.20633088" lon="6.09703509"><ele></ele><time>2015-7-3T19:54:38Z</time></trkpt>
<trkpt lat="46.20635167" lon="6.09702596"><ele></ele><time>2015-7-3T19:54:41Z</time></trkpt>
<trkpt lat="46.20637036" lon="6.09701397"><ele></ele><time>2015-7-3T19:54:44Z</time></trkpt>
<trkpt lat="46.20639039" lon="6.09700542"><ele></ele><time>2015-7-3T19:54:47Z</time></trkpt>
<trkpt lat="46.20640992" lon="6.09699536"><ele></ele><time>2015-7-3T19:54:50Z</time></trkpt>
<trkpt lat="46.20642099" lon="6.09698103"><ele></ele><time>2015-7-3T19:54:53Z</time></trkpt>
<trkpt lat="46.20642560" lon="6.09697382"><ele></ele><time>2015-7-3T19:54:56Z</time></trkpt>
<trkpt lat="46.20642819" lon="6.09697030"><ele></ele><time>2015-7-3T19:54:59Z</time></trkpt>
<trkpt lat="46.20643155" lon="6.09696728"><ele></ele><time>2015-7-3T19:55:2Z</time></trkpt>
<trkpt lat="46.20643213" lon="6.09695689"><ele></ele><time>2015-7-3T19:55:5Z</time></trkpt>
<trkpt lat="46.20643348" lon="6.09695094"><ele></ele><time>2015-7-3T19:55:8Z</time></trkpt>
<trkpt lat="46.20643465" lon="6.09695219"><ele></ele><time>2015-7-3T19:55:11Z</time></trkpt>
<trkpt lat="46.20644144" lon="6.09696024"><ele></ele><time>2015-7-3T19:55:14Z</time></trkpt>
<trkpt lat="46.20644957" lon="6.09697893"><ele></ele><time>2015-7-3T19:55:17Z</time></trkpt>
<trkpt lat="46.20645627" lon="6.09700475"><ele></ele><time>2015-7-3T19:55:20Z</time></trkpt>
<trkpt lat="46.20646499" lon="6.09702839"><ele></ele><time>2015-7-3T19:55:23Z</time></trkpt>
<trkpt lat="46.20647413" lon="6.09705462"><ele></ele><time>2015-7-3T19:55:26Z</time></trkpt>
<trkpt lat="46.20648335" lon="6.09708136"><ele></ele><time>2015-7-3T19:55:29Z</time></trkpt>
<trkpt lat="46.20649793" lon="6.09709209"><ele></ele><time>2015-7-3T19:55:32Z</time></trkpt>
<trkpt lat="46.20651076" lon="6.09709376"><ele></ele><time>2015-7-3T19:55:35Z</time></trkpt>
<trkpt lat="46.20651679" lon="6.09708924"><ele></ele><time>2015-7-3T19:55:38Z</time></trkpt>
<trkpt lat="46.20651796" lon="6.09708345"><ele></ele><time>2015-7-3T19:55:41Z</time></trkpt>
<trkpt lat="46.20651872" lon="6.09707868"><ele></ele><time>2015-7-3T19:55:44Z</time></trkpt>
<trkpt lat="46.20652090" lon="6.09707625"><ele></ele><time>2015-7-3T19:55:47Z</time></trkpt>
<trkpt lat="46.20652115" lon="6.09707692"><ele></ele><time>2015-7-3T19:55:50Z</time></trkpt>
<trkpt lat="46.20652266" lon="6.09707759"><ele></ele><time>2015-7-3T19:55:53Z</time></trkpt>
<trkpt lat="46.20652668" lon="6.09707583"><ele></ele><time>2015-7-3T19:55:56Z</time></trkpt>
<trkpt lat="46.20653456" lon="6.09707340"><ele></ele><time>2015-7-3T19:55:59Z</time></trkpt>
<trkpt lat="46.20653875" lon="6.09707055"><ele></ele><time>2015-7-3T19:56:2Z</time></trkpt>
<trkpt lat="46.20653984" lon="6.09706828"><ele></ele><time>2015-7-3T19:56:5Z</time></trkpt>
<trkpt lat="46.20654705" lon="6.09706988"><ele></ele><time>2015-7-3T19:56:8Z</time></trkpt>
<trkpt lat="46.20656524" lon="6.09707415"><ele></ele><time>2015-7-3T19:56:11Z</time></trkpt>
<trkpt lat="46.20658904" lon="6.09708262"><ele></ele><time>2015-7-3T19:56:14Z</time></trkpt>
<trkpt lat="46.20661452" lon="6.09709787"><ele></ele><time>2015-7-3T19:56:17Z</time></trkpt>
<trkpt lat="46.20664713" lon="6.09712059"><ele></ele><time>2015-7-3T19:56:20Z</time></trkpt>
<trkpt lat="46.20668032" lon="6.09714406"><ele></ele><time>2015-7-3T19:56:23Z</time></trkpt>
<trkpt lat="46.20671217" lon="6.09717222"><ele></ele><time>2015-7-3T19:56:26Z</time></trkpt>
<trkpt lat="46.20674235" lon="6.09720734"><ele></ele><time>2015-7-3T19:56:29Z</time></trkpt>
<trkpt lat="46.20677328" lon="6.09724229"><ele></ele><time>2015-7-3T19:56:32Z</time></trkpt>
<trkpt lat="46.20679574" lon="6.09726585"><ele></ele><time>2015-7-3T19:56:35Z</time></trkpt>
<trkpt lat="46.20681452" lon="6.09729175"><ele></ele><time>2015-7-3T19:56:38Z</time></trkpt>
<trkpt lat="46.20683455" lon="6.09732678"><ele></ele><time>2015-7-3T19:56:41Z</time></trkpt>
<trkpt lat="46.20685249" lon="6.09736559"><ele></ele><time>2015-7-3T19:56:44Z</time></trkpt>
<trkpt lat="46.20686405" lon="6.09740297"><ele></ele><time>2015-7-3T19:56:47Z</time></trkpt>
<trkpt lat="46.20687378" lon="6.09743692"><ele></ele><time>2015-7-3T19:56:50Z</time></trkpt>
<trkpt lat="46.20688132" lon="6.09746416"><ele></ele><time>2015-7-3T19:56:53Z</time></trkpt>
<trkpt lat="46.20689205" lon="6.09748319"><ele></ele><time>2015-7-3T19:56:56Z</time></trkpt>
<trkpt lat="46.20690630" lon="6.09749425"><ele></ele><time>2015-7-3T19:56:59Z</time></trkpt>
<trkpt lat="46.20692574" lon="6.09749995"><ele></ele><time>2015-7-3T19:57:2Z</time></trkpt>
<trkpt lat="46.20694838" lon="6.09750289"><ele></ele><time>2015-7-3T19:57:5Z</time></trkpt>
<trkpt lat="46.20697662" lon="6.09751294"><ele></ele><time>2015-7-3T19:57:8Z</time></trkpt>
<trkpt lat="46.20699867" lon="6.09752803"><ele></ele><time>2015-7-3T19:57:11Z</time></trkpt>
<trkpt lat="46.20702163" lon="6.09754773"><ele></ele><time>2015-7-3T19:57:14Z</time></trkpt>
<trkpt lat="46.20704837" lon="6.09757145"><ele></ele><time>2015-7-3T19:57:17Z</time></trkpt>
<trkpt lat="46.20707947" lon="6.09759148"><ele></ele><time>2015-7-3T19:57:20Z</time></trkpt>
<trkpt lat="46.20711685" lon="6.09760565"><ele></ele><time>2015-7-3T19:57:23Z</time></trkpt>
<trkpt lat="46.20715926" lon="6.09761043"><ele></ele><time>2015-7-3T19:57:26Z</time></trkpt>
<trkpt lat="46.20720486" lon="6.09760548"><ele></ele><time>2015-7-3T19:57:29Z</time></trkpt>
<trkpt lat="46.20725155" lon="6.09759022"><ele></ele><time>2015-7-3T19:57:32Z</time></trkpt>
<trkpt lat="46.20730050" lon="6.09757514"><ele></ele><time>2015-7-3T19:57:35Z</time></trkpt>
<trkpt lat="46.20735029" lon="6.09756013"><ele></ele><time>2015-7-3T19:57:38Z</time></trkpt>
<trkpt lat="46.20740167" lon="6.09754723"><ele></ele><time>2015-7-3T19:57:41Z</time></trkpt>
<trkpt lat="46.20745196" lon="6.09755502"><ele></ele><time>2015-7-3T19:57:44Z</time></trkpt>
<trkpt lat="46.20751717" lon="6.09756449"><ele></ele><time>2015-7-3T19:57:47Z</time></trkpt>
<trkpt lat="46.20757132" lon="6.09756659"><ele></ele><time>2015-7-3T19:57:50Z</time></trkpt>
<trkpt lat="46.20762547" lon="6.09756558"><ele></ele><time>2015-7-3T19:57:53Z</time></trkpt>
<trkpt lat="46.20768347" lon="6.09756919"><ele></ele><time>2015-7-3T19:57:56Z</time></trkpt>
<trkpt lat="46.20774549" lon="6.09758369"><ele></ele><time>2015-7-3T19:57:59Z</time></trkpt>
<trkpt lat="46.20780593" lon="6.09760758"><ele></ele><time>2015-7-3T19:58:2Z</time></trkpt>
<trkpt lat="46.20786678" lon="6.09762593"><ele></ele><time>2015-7-3T19:58:5Z</time></trkpt>
<trkpt lat="46.20792495" lon="6.09764638"><ele></ele><time>2015-7-3T19:58:8Z</time></trkpt>
<trkpt lat="46.20798128" lon="6.09767882"><ele></ele><time>2015-7-3T19:58:11Z</time></trkpt>
<trkpt lat="46.20802696" lon="6.09770355"><ele></ele><time>2015-7-3T19:58:14Z</time></trkpt>
<trkpt lat="46.20807457" lon="6.09774579"><ele></ele><time>2015-7-3T19:58:17Z</time></trkpt>
<trkpt lat="46.20812067" lon="6.09779835"><ele></ele><time>2015-7-3T19:58:20Z</time></trkpt>
<trkpt lat="46.20816593" lon="6.09785719"><ele></ele><time>2015-7-3T19:58:23Z</time></trkpt>
<trkpt lat="46.20820717" lon="6.09791184"><ele></ele><time>2015-7-3T19:58:26Z</time></trkpt>
<trkpt lat="46.20824883" lon="6.09797378"><ele></ele><time>2015-7-3T19:58:29Z</time></trkpt>
<trkpt lat="46.20828680" lon="6.09804343"><ele></ele><time>2015-7-3T19:58:32Z</time></trkpt>
<trkpt lat="46.20832007" lon="6.09811778"><ele></ele><time>2015-7-3T19:58:35Z</time></trkpt>
<trkpt lat="46.20832359" lon="6.09816212"><ele></ele><time>2015-7-3T19:58:38Z</time></trkpt>
<trkpt lat="46.20835687" lon="6.09824779"><ele></ele><time>2015-7-3T19:58:41Z</time></trkpt>
<trkpt lat="46.20839107" lon="6.09833060"><ele></ele><time>2015-7-3T19:58:44Z</time></trkpt>
<trkpt lat="46.20842736" lon="6.09841366"><ele></ele><time>2015-7-3T19:58:47Z</time></trkpt>
<trkpt lat="46.20845578" lon="6.09849614"><ele></ele><time>2015-7-3T19:58:50Z</time></trkpt>
<trkpt lat="46.20848729" lon="6.09857895"><ele></ele><time>2015-7-3T19:58:53Z</time></trkpt>
<trkpt lat="46.20851856" lon="6.09866219"><ele></ele><time>2015-7-3T19:58:56Z</time></trkpt>
<trkpt lat="46.20854974" lon="6.09874634"><ele></ele><time>2015-7-3T19:58:59Z</time></trkpt>
<trkpt lat="46.20858092" lon="6.09883326"><ele></ele><time>2015-7-3T19:59:2Z</time></trkpt>
<trkpt lat="46.20861319" lon="6.09892228"><ele></ele><time>2015-7-3T19:59:5Z</time></trkpt>
<trkpt lat="46.20865309" lon="6.09900719"><ele></ele><time>2015-7-3T19:59:8Z</time></trkpt>
<trkpt lat="46.20869039" lon="6.09910182"><ele></ele><time>2015-7-3T19:59:11Z</time></trkpt>
<trkpt lat="46.20872308" lon="6.09919259"><ele></ele><time>2015-7-3T19:59:14Z</time></trkpt>
<trkpt lat="46.20875116" lon="6.09928270"><ele></ele><time>2015-7-3T19:59:17Z</time></trkpt>
<trkpt lat="46.20878024" lon="6.09937197"><ele></ele><time>2015-7-3T19:59:20Z</time></trkpt>
<trkpt lat="46.20880865" lon="6.09946249"><ele></ele><time>2015-7-3T19:59:23Z</time></trkpt>
<trkpt lat="46.20884093" lon="6.09955109"><ele></ele><time>2015-7-3T19:59:26Z</time></trkpt>
<trkpt lat="46.20887202" lon="6.09964044"><ele></ele><time>2015-7-3T19:59:29Z</time></trkpt>
<trkpt lat="46.20889574" lon="6.09972132"><ele></ele><time>2015-7-3T19:59:32Z</time></trkpt>
<trkpt lat="46.20892265" lon="6.09981319"><ele></ele><time>2015-7-3T19:59:35Z</time></trkpt>
<trkpt lat="46.20895207" lon="6.09989969"><ele></ele><time>2015-7-3T19:59:38Z</time></trkpt>
<trkpt lat="46.20898132" lon="6.09998326"><ele></ele><time>2015-7-3T19:59:41Z</time></trkpt>
<trkpt lat="46.20901066" lon="6.10006364"><ele></ele><time>2015-7-3T19:59:44Z</time></trkpt>
<trkpt lat="46.20904058" lon="6.10014034"><ele></ele><time>2015-7-3T19:59:47Z</time></trkpt>
<trkpt lat="46.20907034" lon="6.10020773"><ele></ele><time>2015-7-3T19:59:50Z</time></trkpt>
<trkpt lat="46.20909993" lon="6.10027654"><ele></ele><time>2015-7-3T19:59:53Z</time></trkpt>
<trkpt lat="46.20912717" lon="6.10035013"><ele></ele><time>2015-7-3T19:59:56Z</time></trkpt>
<trkpt lat="46.20915365" lon="6.10042507"><ele></ele><time>2015-7-3T19:59:59Z</time></trkpt>
<trkpt lat="46.20918014" lon="6.10049967"><ele></ele><time>2015-7-3T20:0:2Z</time></trkpt>
<trkpt lat="46.20920612" lon="6.10057385"><ele></ele><time>2015-7-3T20:0:5Z</time></trkpt>
<trkpt lat="46.20923236" lon="6.10064727"><ele></ele><time>2015-7-3T20:0:8Z</time></trkpt>
<trkpt lat="46.20925818" lon="6.10071919"><ele></ele><time>2015-7-3T20:0:11Z</time></trkpt>
<trkpt lat="46.20928366" lon="6.10078943"><ele></ele><time>2015-7-3T20:0:14Z</time></trkpt>
<trkpt lat="46.20930939" lon="6.10085825"><ele></ele><time>2015-7-3T20:0:17Z</time></trkpt>
<trkpt lat="46.20933454" lon="6.10092698"><ele></ele><time>2015-7-3T20:0:20Z</time></trkpt>
<trkpt lat="46.20935884" lon="6.10099646"><ele></ele><time>2015-7-3T20:0:23Z</time></trkpt>
<trkpt lat="46.20938315" lon="6.10106687"><ele></ele><time>2015-7-3T20:0:26Z</time></trkpt>
<trkpt lat="46.20940796" lon="6.10113728"><ele></ele><time>2015-7-3T20:0:29Z</time></trkpt>
<trkpt lat="46.20943302" lon="6.10120718"><ele></ele><time>2015-7-3T20:0:32Z</time></trkpt>
<trkpt lat="46.20945867" lon="6.10127768"><ele></ele><time>2015-7-3T20:0:35Z</time></trkpt>
<trkpt lat="46.20948507" lon="6.10134733"><ele></ele><time>2015-7-3T20:0:38Z</time></trkpt>
<trkpt lat="46.20951173" lon="6.10141614"><ele></ele><time>2015-7-3T20:0:41Z</time></trkpt>
<trkpt lat="46.20953796" lon="6.10148538"><ele></ele><time>2015-7-3T20:0:44Z</time></trkpt>
<trkpt lat="46.20956319" lon="6.10155487"><ele></ele><time>2015-7-3T20:0:47Z</time></trkpt>
<trkpt lat="46.20958859" lon="6.10162259"><ele></ele><time>2015-7-3T20:0:50Z</time></trkpt>
<trkpt lat="46.20961365" lon="6.10168948"><ele></ele><time>2015-7-3T20:0:53Z</time></trkpt>
<trkpt lat="46.20963813" lon="6.10175704"><ele></ele><time>2015-7-3T20:0:56Z</time></trkpt>
<trkpt lat="46.20966269" lon="6.10182594"><ele></ele><time>2015-7-3T20:0:59Z</time></trkpt>
<trkpt lat="46.20968750" lon="6.10189592"><ele></ele><time>2015-7-3T20:1:2Z</time></trkpt>
<trkpt lat="46.20971222" lon="6.10196524"><ele></ele><time>2015-7-3T20:1:5Z</time></trkpt>
<trkpt lat="46.20973653" lon="6.10203465"><ele></ele><time>2015-7-3T20:1:8Z</time></trkpt>
<trkpt lat="46.20976176" lon="6.10210413"><ele></ele><time>2015-7-3T20:1:11Z</time></trkpt>
<trkpt lat="46.20978707" lon="6.10217437"><ele></ele><time>2015-7-3T20:1:14Z</time></trkpt>
<trkpt lat="46.20981188" lon="6.10224646"><ele></ele><time>2015-7-3T20:1:17Z</time></trkpt>
<trkpt lat="46.20983795" lon="6.10231946"><ele></ele><time>2015-7-3T20:1:20Z</time></trkpt>
<trkpt lat="46.20986444" lon="6.10239373"><ele></ele><time>2015-7-3T20:1:23Z</time></trkpt>
<trkpt lat="46.20989235" lon="6.10246774"><ele></ele><time>2015-7-3T20:1:26Z</time></trkpt>
<trkpt lat="46.20992018" lon="6.10254418"><ele></ele><time>2015-7-3T20:1:29Z</time></trkpt>
<trkpt lat="46.20994809" lon="6.10262213"><ele></ele><time>2015-7-3T20:1:32Z</time></trkpt>
<trkpt lat="46.20997734" lon="6.10270025"><ele></ele><time>2015-7-3T20:1:35Z</time></trkpt>
<trkpt lat="46.21000827" lon="6.10277963"><ele></ele><time>2015-7-3T20:1:38Z</time></trkpt>
<trkpt lat="46.21004004" lon="6.10286077"><ele></ele><time>2015-7-3T20:1:41Z</time></trkpt>
<trkpt lat="46.21007290" lon="6.10294333"><ele></ele><time>2015-7-3T20:1:44Z</time></trkpt>
<trkpt lat="46.21010693" lon="6.10302782"><ele></ele><time>2015-7-3T20:1:47Z</time></trkpt>
<trkpt lat="46.21014347" lon="6.10311239"><ele></ele><time>2015-7-3T20:1:50Z</time></trkpt>
<trkpt lat="46.21018186" lon="6.10319596"><ele></ele><time>2015-7-3T20:1:53Z</time></trkpt>
<trkpt lat="46.21022218" lon="6.10327936"><ele></ele><time>2015-7-3T20:1:56Z</time></trkpt>
<trkpt lat="46.21026476" lon="6.10336192"><ele></ele><time>2015-7-3T20:1:59Z</time></trkpt>
<trkpt lat="46.21030977" lon="6.10344255"><ele></ele><time>2015-7-3T20:2:2Z</time></trkpt>
<trkpt lat="46.21035595" lon="6.10352109"><ele></ele><time>2015-7-3T20:2:5Z</time></trkpt>
<trkpt lat="46.21040323" lon="6.10359645"><ele></ele><time>2015-7-3T20:2:8Z</time></trkpt>
<trkpt lat="46.21045226" lon="6.10366819"><ele></ele><time>2015-7-3T20:2:11Z</time></trkpt>
<trkpt lat="46.21050306" lon="6.10373676"><ele></ele><time>2015-7-3T20:2:14Z</time></trkpt>
<trkpt lat="46.21055628" lon="6.10380239"><ele></ele><time>2015-7-3T20:2:17Z</time></trkpt>
<trkpt lat="46.21061278" lon="6.10386584"><ele></ele><time>2015-7-3T20:2:20Z</time></trkpt>
<trkpt lat="46.21067304" lon="6.10392770"><ele></ele><time>2015-7-3T20:2:23Z</time></trkpt>
<trkpt lat="46.21073389" lon="6.10399023"><ele></ele><time>2015-7-3T20:2:26Z</time></trkpt>
<trkpt lat="46.21079382" lon="6.10405468"><ele></ele><time>2015-7-3T20:2:29Z</time></trkpt>
<trkpt lat="46.21085384" lon="6.10411822"><ele></ele><time>2015-7-3T20:2:32Z</time></trkpt>
<trkpt lat="46.21091436" lon="6.10417823"><ele></ele><time>2015-7-3T20:2:35Z</time></trkpt>
<trkpt lat="46.21097580" lon="6.10423707"><ele></ele><time>2015-7-3T20:2:38Z</time></trkpt>
<trkpt lat="46.21103665" lon="6.10429457"><ele></ele><time>2015-7-3T20:2:41Z</time></trkpt>
<trkpt lat="46.21109557" lon="6.10435057"><ele></ele><time>2015-7-3T20:2:44Z</time></trkpt>
<trkpt lat="46.21115400" lon="6.10440446"><ele></ele><time>2015-7-3T20:2:47Z</time></trkpt>
<trkpt lat="46.21121225" lon="6.10445777"><ele></ele><time>2015-7-3T20:2:50Z</time></trkpt>
<trkpt lat="46.21127495" lon="6.10451485"><ele></ele><time>2015-7-3T20:2:53Z</time></trkpt>
<trkpt lat="46.21133915" lon="6.10456615"><ele></ele><time>2015-7-3T20:2:56Z</time></trkpt>
<trkpt lat="46.21139917" lon="6.10460764"><ele></ele><time>2015-7-3T20:2:59Z</time></trkpt>
<trkpt lat="46.21146144" lon="6.10465592"><ele></ele><time>2015-7-3T20:3:2Z</time></trkpt>
<trkpt lat="46.21152054" lon="6.10470654"><ele></ele><time>2015-7-3T20:3:5Z</time></trkpt>
<trkpt lat="46.21157393" lon="6.10475516"><ele></ele><time>2015-7-3T20:3:8Z</time></trkpt>
<trkpt lat="46.21162355" lon="6.10480336"><ele></ele><time>2015-7-3T20:3:11Z</time></trkpt>
<trkpt lat="46.21166965" lon="6.10485113"><ele></ele><time>2015-7-3T20:3:14Z</time></trkpt>
<trkpt lat="46.21171198" lon="6.10489874"><ele></ele><time>2015-7-3T20:3:17Z</time></trkpt>
<trkpt lat="46.21175196" lon="6.10494300"><ele></ele><time>2015-7-3T20:3:20Z</time></trkpt>
<trkpt lat="46.21178926" lon="6.10498466"><ele></ele><time>2015-7-3T20:3:23Z</time></trkpt>
<trkpt lat="46.21182782" lon="6.10502439"><ele></ele><time>2015-7-3T20:3:26Z</time></trkpt>
<trkpt lat="46.21186679" lon="6.10506512"><ele></ele><time>2015-7-3T20:3:29Z</time></trkpt>
<trkpt lat="46.21190124" lon="6.10509823"><ele></ele><time>2015-7-3T20:3:32Z</time></trkpt>
<trkpt lat="46.21193569" lon="6.10513327"><ele></ele><time>2015-7-3T20:3:35Z</time></trkpt>
<trkpt lat="46.21197022" lon="6.10516956"><ele></ele><time>2015-7-3T20:3:38Z</time></trkpt>
<trkpt lat="46.21200283" lon="6.10520376"><ele></ele><time>2015-7-3T20:3:41Z</time></trkpt>
<trkpt lat="46.21202814" lon="6.10522748"><ele></ele><time>2015-7-3T20:3:44Z</time></trkpt>
<trkpt lat="46.21204558" lon="6.10524408"><ele></ele><time>2015-7-3T20:3:47Z</time></trkpt>
<trkpt lat="46.21205865" lon="6.10525765"><ele></ele><time>2015-7-3T20:3:50Z</time></trkpt>
<trkpt lat="46.21206569" lon="6.10526528"><ele></ele><time>2015-7-3T20:3:53Z</time></trkpt>
<trkpt lat="46.21206737" lon="6.10526838"><ele></ele><time>2015-7-3T20:3:56Z</time></trkpt>
<trkpt lat="46.21206947" lon="6.10527023"><ele></ele><time>2015-7-3T20:3:59Z</time></trkpt>
<trkpt lat="46.21207089" lon="6.10527165"><ele></ele><time>2015-7-3T20:4:2Z</time></trkpt>
<trkpt lat="46.21207022" lon="6.10527308"><ele></ele><time>2015-7-3T20:4:5Z</time></trkpt>
<trkpt lat="46.21206989" lon="6.10527408"><ele></ele><time>2015-7-3T20:4:8Z</time></trkpt>
<trkpt lat="46.21206687" lon="6.10527148"><ele></ele><time>2015-7-3T20:4:11Z</time></trkpt>
<trkpt lat="46.21206494" lon="6.10526956"><ele></ele><time>2015-7-3T20:4:14Z</time></trkpt>
<trkpt lat="46.21206368" lon="6.10526796"><ele></ele><time>2015-7-3T20:4:17Z</time></trkpt>
<trkpt lat="46.21206293" lon="6.10526805"><ele></ele><time>2015-7-3T20:4:20Z</time></trkpt>
<trkpt lat="46.21206259" lon="6.10526830"><ele></ele><time>2015-7-3T20:4:23Z</time></trkpt>
<trkpt lat="46.21206217" lon="6.10526855"><ele></ele><time>2015-7-3T20:4:26Z</time></trkpt>
<trkpt lat="46.21206226" lon="6.10526897"><ele></ele><time>2015-7-3T20:4:29Z</time></trkpt>
<trkpt lat="46.21206285" lon="6.10526956"><ele></ele><time>2015-7-3T20:4:32Z</time></trkpt>
<trkpt lat="46.21206368" lon="6.10527023"><ele></ele><time>2015-7-3T20:4:35Z</time></trkpt>
<trkpt lat="46.21206444" lon="6.10527073"><ele></ele><time>2015-7-3T20:4:38Z</time></trkpt>
<trkpt lat="46.21206536" lon="6.10527115"><ele></ele><time>2015-7-3T20:4:41Z</time></trkpt>
<trkpt lat="46.21206637" lon="6.10527148"><ele></ele><time>2015-7-3T20:4:44Z</time></trkpt>
<trkpt lat="46.21206477" lon="6.10527098"><ele></ele><time>2015-7-3T20:4:47Z</time></trkpt>
<trkpt lat="46.21206326" lon="6.10527048"><ele></ele><time>2015-7-3T20:4:50Z</time></trkpt>
<trkpt lat="46.21206176" lon="6.10526998"><ele></ele><time>2015-7-3T20:4:53Z</time></trkpt>
<trkpt lat="46.21206025" lon="6.10526947"><ele></ele><time>2015-7-3T20:4:56Z</time></trkpt>
<trkpt lat="46.21205916" lon="6.10526897"><ele></ele><time>2015-7-3T20:4:59Z</time></trkpt>
<trkpt lat="46.21205790" lon="6.10526838"><ele></ele><time>2015-7-3T20:5:2Z</time></trkpt>
<trkpt lat="46.21206000" lon="6.10526889"><ele></ele><time>2015-7-3T20:5:5Z</time></trkpt>
<trkpt lat="46.21206176" lon="6.10526922"><ele></ele><time>2015-7-3T20:5:8Z</time></trkpt>
<trkpt lat="46.21206335" lon="6.10526922"><ele></ele><time>2015-7-3T20:5:11Z</time></trkpt>
<trkpt lat="46.21206469" lon="6.10526922"><ele></ele><time>2015-7-3T20:5:14Z</time></trkpt>
<trkpt lat="46.21206595" lon="6.10526905"><ele></ele><time>2015-7-3T20:5:17Z</time></trkpt>
<trkpt lat="46.21206746" lon="6.10526897"><ele></ele><time>2015-7-3T20:5:20Z</time></trkpt>
<trkpt lat="46.21206905" lon="6.10526889"><ele></ele><time>2015-7-3T20:5:23Z</time></trkpt>
<trkpt lat="46.21206796" lon="6.10526813"><ele></ele><time>2015-7-3T20:5:26Z</time></trkpt>
<trkpt lat="46.21206678" lon="6.10526746"><ele></ele><time>2015-7-3T20:5:29Z</time></trkpt>
<trkpt lat="46.21206569" lon="6.10526662"><ele></ele><time>2015-7-3T20:5:32Z</time></trkpt>
<trkpt lat="46.21206469" lon="6.10526587"><ele></ele><time>2015-7-3T20:5:35Z</time></trkpt>
<trkpt lat="46.21206335" lon="6.10526520"><ele></ele><time>2015-7-3T20:5:38Z</time></trkpt>
<trkpt lat="46.21206192" lon="6.10526444"><ele></ele><time>2015-7-3T20:5:41Z</time></trkpt>
<trkpt lat="46.21206058" lon="6.10526377"><ele></ele><time>2015-7-3T20:5:44Z</time></trkpt>
<trkpt lat="46.21205916" lon="6.10526302"><ele></ele><time>2015-7-3T20:5:47Z</time></trkpt>
<trkpt lat="46.21205790" lon="6.10526226"><ele></ele><time>2015-7-3T20:5:50Z</time></trkpt>
<trkpt lat="46.21205639" lon="6.10526159"><ele></ele><time>2015-7-3T20:5:53Z</time></trkpt>
<trkpt lat="46.21205497" lon="6.10526084"><ele></ele><time>2015-7-3T20:5:56Z</time></trkpt>
<trkpt lat="46.21205354" lon="6.10526017"><ele></ele><time>2015-7-3T20:5:59Z</time></trkpt>
<trkpt lat="46.21205237" lon="6.10525958"><ele></ele><time>2015-7-3T20:6:2Z</time></trkpt>
<trkpt lat="46.21205337" lon="6.10525908"><ele></ele><time>2015-7-3T20:6:5Z</time></trkpt>
<trkpt lat="46.21205497" lon="6.10525858"><ele></ele><time>2015-7-3T20:6:8Z</time></trkpt>
<trkpt lat="46.21205647" lon="6.10525816"><ele></ele><time>2015-7-3T20:6:11Z</time></trkpt>
<trkpt lat="46.21205823" lon="6.10525757"><ele></ele><time>2015-7-3T20:6:14Z</time></trkpt>
<trkpt lat="46.21205958" lon="6.10525707"><ele></ele><time>2015-7-3T20:6:17Z</time></trkpt>
<trkpt lat="46.21206025" lon="6.10525656"><ele></ele><time>2015-7-3T20:6:20Z</time></trkpt>
<trkpt lat="46.21206033" lon="6.10525589"><ele></ele><time>2015-7-3T20:6:23Z</time></trkpt>
<trkpt lat="46.21206000" lon="6.10525447"><ele></ele><time>2015-7-3T20:6:26Z</time></trkpt>
<trkpt lat="46.21205932" lon="6.10525346"><ele></ele><time>2015-7-3T20:6:29Z</time></trkpt>
<trkpt lat="46.21205932" lon="6.10525279"><ele></ele><time>2015-7-3T20:6:32Z</time></trkpt>
<trkpt lat="46.21206058" lon="6.10525330"><ele></ele><time>2015-7-3T20:6:35Z</time></trkpt>
<trkpt lat="46.21206125" lon="6.10525229"><ele></ele><time>2015-7-3T20:6:38Z</time></trkpt>
<trkpt lat="46.21206234" lon="6.10525195"><ele></ele><time>2015-7-3T20:6:41Z</time></trkpt>
<trkpt lat="46.21206469" lon="6.10525296"><ele></ele><time>2015-7-3T20:6:44Z</time></trkpt>
<trkpt lat="46.21206645" lon="6.10525439"><ele></ele><time>2015-7-3T20:6:47Z</time></trkpt>
<trkpt lat="46.21207877" lon="6.10525883"><ele></ele><time>2015-7-3T20:6:50Z</time></trkpt>
<trkpt lat="46.21209025" lon="6.10526545"><ele></ele><time>2015-7-3T20:6:53Z</time></trkpt>
<trkpt lat="46.21210836" lon="6.10527903"><ele></ele><time>2015-7-3T20:6:56Z</time></trkpt>
<trkpt lat="46.21213518" lon="6.10529822"><ele></ele><time>2015-7-3T20:6:59Z</time></trkpt>
<trkpt lat="46.21216753" lon="6.10531415"><ele></ele><time>2015-7-3T20:7:2Z</time></trkpt>
<trkpt lat="46.21219754" lon="6.10531515"><ele></ele><time>2015-7-3T20:7:5Z</time></trkpt>
<trkpt lat="46.21223006" lon="6.10530216"><ele></ele><time>2015-7-3T20:7:8Z</time></trkpt>
<trkpt lat="46.21226049" lon="6.10527417"><ele></ele><time>2015-7-3T20:7:11Z</time></trkpt>
<trkpt lat="46.21228807" lon="6.10523293"><ele></ele><time>2015-7-3T20:7:14Z</time></trkpt>
<trkpt lat="46.21232092" lon="6.10518582"><ele></ele><time>2015-7-3T20:7:17Z</time></trkpt>
<trkpt lat="46.21235512" lon="6.10513478"><ele></ele><time>2015-7-3T20:7:20Z</time></trkpt>
<trkpt lat="46.21239075" lon="6.10508038"><ele></ele><time>2015-7-3T20:7:23Z</time></trkpt>
<trkpt lat="46.21242452" lon="6.10501927"><ele></ele><time>2015-7-3T20:7:26Z</time></trkpt>
<trkpt lat="46.21246208" lon="6.10495448"><ele></ele><time>2015-7-3T20:7:29Z</time></trkpt>
<trkpt lat="46.21250055" lon="6.10488692"><ele></ele><time>2015-7-3T20:7:32Z</time></trkpt>
<trkpt lat="46.21253978" lon="6.10482104"><ele></ele><time>2015-7-3T20:7:35Z</time></trkpt>
<trkpt lat="46.21258168" lon="6.10476052"><ele></ele><time>2015-7-3T20:7:38Z</time></trkpt>
<trkpt lat="46.21262720" lon="6.10470353"><ele></ele><time>2015-7-3T20:7:41Z</time></trkpt>
<trkpt lat="46.21267020" lon="6.10464653"><ele></ele><time>2015-7-3T20:7:44Z</time></trkpt>
<trkpt lat="46.21270808" lon="6.10458945"><ele></ele><time>2015-7-3T20:7:47Z</time></trkpt>
<trkpt lat="46.21274957" lon="6.10453346"><ele></ele><time>2015-7-3T20:7:50Z</time></trkpt>
<trkpt lat="46.21279106" lon="6.10447428"><ele></ele><time>2015-7-3T20:7:53Z</time></trkpt>
<trkpt lat="46.21283172" lon="6.10441728"><ele></ele><time>2015-7-3T20:7:56Z</time></trkpt>
<trkpt lat="46.21287338" lon="6.10436037"><ele></ele><time>2015-7-3T20:7:59Z</time></trkpt>
<trkpt lat="46.21291738" lon="6.10430094"><ele></ele><time>2015-7-3T20:8:2Z</time></trkpt>
<trkpt lat="46.21295468" lon="6.10424462"><ele></ele><time>2015-7-3T20:8:5Z</time></trkpt>
<trkpt lat="46.21299659" lon="6.10418695"><ele></ele><time>2015-7-3T20:8:8Z</time></trkpt>
<trkpt lat="46.21303548" lon="6.10413104"><ele></ele><time>2015-7-3T20:8:11Z</time></trkpt>
<trkpt lat="46.21307270" lon="6.10407757"><ele></ele><time>2015-7-3T20:8:14Z</time></trkpt>
<trkpt lat="46.21310958" lon="6.10402560"><ele></ele><time>2015-7-3T20:8:17Z</time></trkpt>
<trkpt lat="46.21314646" lon="6.10397413"><ele></ele><time>2015-7-3T20:8:20Z</time></trkpt>
<trkpt lat="46.21317948" lon="6.10392200"><ele></ele><time>2015-7-3T20:8:23Z</time></trkpt>
<trkpt lat="46.21321209" lon="6.10386827"><ele></ele><time>2015-7-3T20:8:26Z</time></trkpt>
<trkpt lat="46.21324763" lon="6.10381597"><ele></ele><time>2015-7-3T20:8:29Z</time></trkpt>
<trkpt lat="46.21328468" lon="6.10376517"><ele></ele><time>2015-7-3T20:8:32Z</time></trkpt>
<trkpt lat="46.21332265" lon="6.10371740"><ele></ele><time>2015-7-3T20:8:35Z</time></trkpt>
<trkpt lat="46.21336388" lon="6.10366006"><ele></ele><time>2015-7-3T20:8:38Z</time></trkpt>
<trkpt lat="46.21340957" lon="6.10359427"><ele></ele><time>2015-7-3T20:8:41Z</time></trkpt>
<trkpt lat="46.21346120" lon="6.10352864"><ele></ele><time>2015-7-3T20:8:44Z</time></trkpt>
<trkpt lat="46.21351426" lon="6.10346217"><ele></ele><time>2015-7-3T20:8:47Z</time></trkpt>
<trkpt lat="46.21356069" lon="6.10340408"><ele></ele><time>2015-7-3T20:8:50Z</time></trkpt>
<trkpt lat="46.21361073" lon="6.10335647"><ele></ele><time>2015-7-3T20:8:53Z</time></trkpt>
<trkpt lat="46.21366479" lon="6.10336418"><ele></ele><time>2015-7-3T20:8:56Z</time></trkpt>
<trkpt lat="46.21372137" lon="6.10339142"><ele></ele><time>2015-7-3T20:8:59Z</time></trkpt>
<trkpt lat="46.21376093" lon="6.10341364"><ele></ele><time>2015-7-3T20:9:2Z</time></trkpt>
<trkpt lat="46.21380712" lon="6.10347684"><ele></ele><time>2015-7-3T20:9:5Z</time></trkpt>
<trkpt lat="46.21386454" lon="6.10355529"><ele></ele><time>2015-7-3T20:9:8Z</time></trkpt>
<trkpt lat="46.21392664" lon="6.10361740"><ele></ele><time>2015-7-3T20:9:11Z</time></trkpt>
<trkpt lat="46.21398297" lon="6.10366434"><ele></ele><time>2015-7-3T20:9:14Z</time></trkpt>
<trkpt lat="46.21404567" lon="6.10371790"><ele></ele><time>2015-7-3T20:9:17Z</time></trkpt>
<trkpt lat="46.21412773" lon="6.10376249"><ele></ele><time>2015-7-3T20:9:20Z</time></trkpt>
<trkpt lat="46.21420752" lon="6.10382183"><ele></ele><time>2015-7-3T20:9:23Z</time></trkpt>
<trkpt lat="46.21428338" lon="6.10388244"><ele></ele><time>2015-7-3T20:9:26Z</time></trkpt>
<trkpt lat="46.21435689" lon="6.10394614"><ele></ele><time>2015-7-3T20:9:29Z</time></trkpt>
<trkpt lat="46.21442839" lon="6.10400992"><ele></ele><time>2015-7-3T20:9:32Z</time></trkpt>
<trkpt lat="46.21449812" lon="6.10408025"><ele></ele><time>2015-7-3T20:9:35Z</time></trkpt>
<trkpt lat="46.21456635" lon="6.10414823"><ele></ele><time>2015-7-3T20:9:38Z</time></trkpt>
<trkpt lat="46.21464187" lon="6.10421008"><ele></ele><time>2015-7-3T20:9:41Z</time></trkpt>
<trkpt lat="46.21471354" lon="6.10427203"><ele></ele><time>2015-7-3T20:9:44Z</time></trkpt>
<trkpt lat="46.21478738" lon="6.10433573"><ele></ele><time>2015-7-3T20:9:47Z</time></trkpt>
<trkpt lat="46.21485829" lon="6.10440052"><ele></ele><time>2015-7-3T20:9:50Z</time></trkpt>
<trkpt lat="46.21493147" lon="6.10446598"><ele></ele><time>2015-7-3T20:9:53Z</time></trkpt>
<trkpt lat="46.21499710" lon="6.10453446"><ele></ele><time>2015-7-3T20:9:56Z</time></trkpt>
<trkpt lat="46.21505979" lon="6.10461099"><ele></ele><time>2015-7-3T20:9:59Z</time></trkpt>
<trkpt lat="46.21512040" lon="6.10469230"><ele></ele><time>2015-7-3T20:10:2Z</time></trkpt>
<trkpt lat="46.21517513" lon="6.10476698"><ele></ele><time>2015-7-3T20:10:5Z</time></trkpt>
<trkpt lat="46.21522693" lon="6.10484627"><ele></ele><time>2015-7-3T20:10:8Z</time></trkpt>
<trkpt lat="46.21528066" lon="6.10492489"><ele></ele><time>2015-7-3T20:10:11Z</time></trkpt>
<trkpt lat="46.21533070" lon="6.10500528"><ele></ele><time>2015-7-3T20:10:14Z</time></trkpt>
<trkpt lat="46.21537764" lon="6.10509094"><ele></ele><time>2015-7-3T20:10:17Z</time></trkpt>
<trkpt lat="46.21542072" lon="6.10517518"><ele></ele><time>2015-7-3T20:10:20Z</time></trkpt>
<trkpt lat="46.21546313" lon="6.10525548"><ele></ele><time>2015-7-3T20:10:23Z</time></trkpt>
<trkpt lat="46.21551200" lon="6.10533888"><ele></ele><time>2015-7-3T20:10:26Z</time></trkpt>
<trkpt lat="46.21555558" lon="6.10542429"><ele></ele><time>2015-7-3T20:10:29Z</time></trkpt>
<trkpt lat="46.21560143" lon="6.10550023"><ele></ele><time>2015-7-3T20:10:32Z</time></trkpt>
<trkpt lat="46.21566120" lon="6.10554398"><ele></ele><time>2015-7-3T20:10:35Z</time></trkpt>
<trkpt lat="46.21570738" lon="6.10558866"><ele></ele><time>2015-7-3T20:10:38Z</time></trkpt>
<trkpt lat="46.21577284" lon="6.10552403"><ele></ele><time>2015-7-3T20:10:41Z</time></trkpt>
<trkpt lat="46.21584300" lon="6.10546242"><ele></ele><time>2015-7-3T20:10:44Z</time></trkpt>
<trkpt lat="46.21589765" lon="6.10540979"><ele></ele><time>2015-7-3T20:10:47Z</time></trkpt>
<trkpt lat="46.21594492" lon="6.10532186"><ele></ele><time>2015-7-3T20:10:50Z</time></trkpt>
<trkpt lat="46.21599052" lon="6.10524533"><ele></ele><time>2015-7-3T20:10:53Z</time></trkpt>
<trkpt lat="46.21604534" lon="6.10516772"><ele></ele><time>2015-7-3T20:10:56Z</time></trkpt>
<trkpt lat="46.21609848" lon="6.10508960"><ele></ele><time>2015-7-3T20:10:59Z</time></trkpt>
<trkpt lat="46.21615665" lon="6.10501056"><ele></ele><time>2015-7-3T20:11:2Z</time></trkpt>
<trkpt lat="46.21621449" lon="6.10493436"><ele></ele><time>2015-7-3T20:11:5Z</time></trkpt>
<trkpt lat="46.21627660" lon="6.10486764"><ele></ele><time>2015-7-3T20:11:8Z</time></trkpt>
<trkpt lat="46.21633292" lon="6.10480327"><ele></ele><time>2015-7-3T20:11:11Z</time></trkpt>
<trkpt lat="46.21639688" lon="6.10470772"><ele></ele><time>2015-7-3T20:11:14Z</time></trkpt>
<trkpt lat="46.21646108" lon="6.10460705"><ele></ele><time>2015-7-3T20:11:17Z</time></trkpt>
<trkpt lat="46.21652059" lon="6.10452508"><ele></ele><time>2015-7-3T20:11:20Z</time></trkpt>
<trkpt lat="46.21657834" lon="6.10447093"><ele></ele><time>2015-7-3T20:11:23Z</time></trkpt>
<trkpt lat="46.21663165" lon="6.10439717"><ele></ele><time>2015-7-3T20:11:26Z</time></trkpt>
<trkpt lat="46.21668412" lon="6.10432844"><ele></ele><time>2015-7-3T20:11:29Z</time></trkpt>
<trkpt lat="46.21675420" lon="6.10428049"><ele></ele><time>2015-7-3T20:11:32Z</time></trkpt>
<trkpt lat="46.21681035" lon="6.10420908"><ele></ele><time>2015-7-3T20:11:35Z</time></trkpt>
<trkpt lat="46.21686534" lon="6.10414563"><ele></ele><time>2015-7-3T20:11:38Z</time></trkpt>
<trkpt lat="46.21692058" lon="6.10408695"><ele></ele><time>2015-7-3T20:11:41Z</time></trkpt>
<trkpt lat="46.21697213" lon="6.10403054"><ele></ele><time>2015-7-3T20:11:44Z</time></trkpt>
<trkpt lat="46.21702409" lon="6.10397522"><ele></ele><time>2015-7-3T20:11:47Z</time></trkpt>
<trkpt lat="46.21707204" lon="6.10391739"><ele></ele><time>2015-7-3T20:11:50Z</time></trkpt>
<trkpt lat="46.21713063" lon="6.10386307"><ele></ele><time>2015-7-3T20:11:53Z</time></trkpt>
<trkpt lat="46.21718545" lon="6.10381119"><ele></ele><time>2015-7-3T20:11:56Z</time></trkpt>
<trkpt lat="46.21723515" lon="6.10375729"><ele></ele><time>2015-7-3T20:11:59Z</time></trkpt>
<trkpt lat="46.21728276" lon="6.10369460"><ele></ele><time>2015-7-3T20:12:2Z</time></trkpt>
<trkpt lat="46.21733062" lon="6.10363140"><ele></ele><time>2015-7-3T20:12:5Z</time></trkpt>
<trkpt lat="46.21737873" lon="6.10357298"><ele></ele><time>2015-7-3T20:12:8Z</time></trkpt>
<trkpt lat="46.21742718" lon="6.10351112"><ele></ele><time>2015-7-3T20:12:11Z</time></trkpt>
<trkpt lat="46.21748015" lon="6.10345270"><ele></ele><time>2015-7-3T20:12:14Z</time></trkpt>
<trkpt lat="46.21753212" lon="6.10339453"><ele></ele><time>2015-7-3T20:12:17Z</time></trkpt>
<trkpt lat="46.21758367" lon="6.10333376"><ele></ele><time>2015-7-3T20:12:20Z</time></trkpt>
<trkpt lat="46.21763404" lon="6.10327257"><ele></ele><time>2015-7-3T20:12:23Z</time></trkpt>
<trkpt lat="46.21768517" lon="6.10321255"><ele></ele><time>2015-7-3T20:12:26Z</time></trkpt>
<trkpt lat="46.21773588" lon="6.10315405"><ele></ele><time>2015-7-3T20:12:29Z</time></trkpt>
<trkpt lat="46.21778626" lon="6.10310024"><ele></ele><time>2015-7-3T20:12:32Z</time></trkpt>
<trkpt lat="46.21783555" lon="6.10303368"><ele></ele><time>2015-7-3T20:12:35Z</time></trkpt>
<trkpt lat="46.21788575" lon="6.10297459"><ele></ele><time>2015-7-3T20:12:38Z</time></trkpt>
<trkpt lat="46.21793604" lon="6.10291558"><ele></ele><time>2015-7-3T20:12:41Z</time></trkpt>
<trkpt lat="46.21799044" lon="6.10285884"><ele></ele><time>2015-7-3T20:12:44Z</time></trkpt>
<trkpt lat="46.21804618" lon="6.10280503"><ele></ele><time>2015-7-3T20:12:47Z</time></trkpt>
<trkpt lat="46.21810226" lon="6.10275356"><ele></ele><time>2015-7-3T20:12:50Z</time></trkpt>
<trkpt lat="46.21816135" lon="6.10270645"><ele></ele><time>2015-7-3T20:12:53Z</time></trkpt>
<trkpt lat="46.21822354" lon="6.10266689"><ele></ele><time>2015-7-3T20:12:56Z</time></trkpt>
<trkpt lat="46.21828817" lon="6.10263596"><ele></ele><time>2015-7-3T20:12:59Z</time></trkpt>
<trkpt lat="46.21835522" lon="6.10261467"><ele></ele><time>2015-7-3T20:13:2Z</time></trkpt>
<trkpt lat="46.21842504" lon="6.10260503"><ele></ele><time>2015-7-3T20:13:5Z</time></trkpt>
<trkpt lat="46.21849679" lon="6.10261015"><ele></ele><time>2015-7-3T20:13:8Z</time></trkpt>
<trkpt lat="46.21856905" lon="6.10262875"><ele></ele><time>2015-7-3T20:13:11Z</time></trkpt>
<trkpt lat="46.21863627" lon="6.10265289"><ele></ele><time>2015-7-3T20:13:14Z</time></trkpt>
<trkpt lat="46.21869796" lon="6.10268634"><ele></ele><time>2015-7-3T20:13:17Z</time></trkpt>
<trkpt lat="46.21875864" lon="6.10272875"><ele></ele><time>2015-7-3T20:13:20Z</time></trkpt>
<trkpt lat="46.21881832" lon="6.10277393"><ele></ele><time>2015-7-3T20:13:23Z</time></trkpt>
<trkpt lat="46.21887918" lon="6.10282187"><ele></ele><time>2015-7-3T20:13:26Z</time></trkpt>
<trkpt lat="46.21894137" lon="6.10287015"><ele></ele><time>2015-7-3T20:13:29Z</time></trkpt>
<trkpt lat="46.21900365" lon="6.10291852"><ele></ele><time>2015-7-3T20:13:32Z</time></trkpt>
<trkpt lat="46.21906534" lon="6.10296696"><ele></ele><time>2015-7-3T20:13:35Z</time></trkpt>
<trkpt lat="46.21912829" lon="6.10301943"><ele></ele><time>2015-7-3T20:13:38Z</time></trkpt>
<trkpt lat="46.21918679" lon="6.10307224"><ele></ele><time>2015-7-3T20:13:41Z</time></trkpt>
<trkpt lat="46.21924203" lon="6.10312245"><ele></ele><time>2015-7-3T20:13:44Z</time></trkpt>
<trkpt lat="46.21929852" lon="6.10316746"><ele></ele><time>2015-7-3T20:13:47Z</time></trkpt>
<trkpt lat="46.21935896" lon="6.10321348"><ele></ele><time>2015-7-3T20:13:50Z</time></trkpt>
<trkpt lat="46.21942165" lon="6.10326142"><ele></ele><time>2015-7-3T20:13:53Z</time></trkpt>
<trkpt lat="46.21948586" lon="6.10331289"><ele></ele><time>2015-7-3T20:13:56Z</time></trkpt>
<trkpt lat="46.21955132" lon="6.10336795"><ele></ele><time>2015-7-3T20:13:59Z</time></trkpt>
<trkpt lat="46.21961695" lon="6.10342562"><ele></ele><time>2015-7-3T20:14:2Z</time></trkpt>
<trkpt lat="46.21968325" lon="6.10348622"><ele></ele><time>2015-7-3T20:14:5Z</time></trkpt>
<trkpt lat="46.21975257" lon="6.10355068"><ele></ele><time>2015-7-3T20:14:8Z</time></trkpt>
<trkpt lat="46.21982197" lon="6.10361706"><ele></ele><time>2015-7-3T20:14:11Z</time></trkpt>
<trkpt lat="46.21989137" lon="6.10368144"><ele></ele><time>2015-7-3T20:14:14Z</time></trkpt>
<trkpt lat="46.21996019" lon="6.10374606"><ele></ele><time>2015-7-3T20:14:17Z</time></trkpt>
<trkpt lat="46.22002842" lon="6.10381094"><ele></ele><time>2015-7-3T20:14:20Z</time></trkpt>
<trkpt lat="46.22009749" lon="6.10388059"><ele></ele><time>2015-7-3T20:14:23Z</time></trkpt>
<trkpt lat="46.22016764" lon="6.10395687"><ele></ele><time>2015-7-3T20:14:26Z</time></trkpt>
<trkpt lat="46.22024274" lon="6.10403876"><ele></ele><time>2015-7-3T20:14:29Z</time></trkpt>
<trkpt lat="46.22032715" lon="6.10409936"><ele></ele><time>2015-7-3T20:14:32Z</time></trkpt>
<trkpt lat="46.22040477" lon="6.10414487"><ele></ele><time>2015-7-3T20:14:35Z</time></trkpt>
<trkpt lat="46.22046453" lon="6.10425409"><ele></ele><time>2015-7-3T20:14:38Z</time></trkpt>
<trkpt lat="46.22052530" lon="6.10436884"><ele></ele><time>2015-7-3T20:14:41Z</time></trkpt>
<trkpt lat="46.22053410" lon="6.10441502"><ele></ele><time>2015-7-3T20:14:44Z</time></trkpt>
<trkpt lat="46.22056738" lon="6.10443874"><ele></ele><time>2015-7-3T20:14:47Z</time></trkpt>
<trkpt lat="46.22061046" lon="6.10442416"><ele></ele><time>2015-7-3T20:14:50Z</time></trkpt>
<trkpt lat="46.22063862" lon="6.10442567"><ele></ele><time>2015-7-3T20:14:53Z</time></trkpt>
<trkpt lat="46.22066544" lon="6.10445249"><ele></ele><time>2015-7-3T20:14:56Z</time></trkpt>
<trkpt lat="46.22068489" lon="6.10448333"><ele></ele><time>2015-7-3T20:14:59Z</time></trkpt>
<trkpt lat="46.22070895" lon="6.10451795"><ele></ele><time>2015-7-3T20:15:2Z</time></trkpt>
<trkpt lat="46.22073292" lon="6.10455852"><ele></ele><time>2015-7-3T20:15:5Z</time></trkpt>
<trkpt lat="46.22075186" lon="6.10460026"><ele></ele><time>2015-7-3T20:15:8Z</time></trkpt>
<trkpt lat="46.22077994" lon="6.10464158"><ele></ele><time>2015-7-3T20:15:11Z</time></trkpt>
<trkpt lat="46.22080525" lon="6.10468324"><ele></ele><time>2015-7-3T20:15:14Z</time></trkpt>
<trkpt lat="46.22082504" lon="6.10472255"><ele></ele><time>2015-7-3T20:15:17Z</time></trkpt>
<trkpt lat="46.22083828" lon="6.10477134"><ele></ele><time>2015-7-3T20:15:20Z</time></trkpt>
<trkpt lat="46.22083937" lon="6.10481702"><ele></ele><time>2015-7-3T20:15:23Z</time></trkpt>
<trkpt lat="46.22082864" lon="6.10486446"><ele></ele><time>2015-7-3T20:15:26Z</time></trkpt>
<trkpt lat="46.22082076" lon="6.10490587"><ele></ele><time>2015-7-3T20:15:29Z</time></trkpt>
<trkpt lat="46.22080307" lon="6.10494233"><ele></ele><time>2015-7-3T20:15:32Z</time></trkpt>
<trkpt lat="46.22078447" lon="6.10497887"><ele></ele><time>2015-7-3T20:15:35Z</time></trkpt>
<trkpt lat="46.22075924" lon="6.10502003"><ele></ele><time>2015-7-3T20:15:38Z</time></trkpt>
<trkpt lat="46.22072906" lon="6.10506294"><ele></ele><time>2015-7-3T20:15:41Z</time></trkpt>
<trkpt lat="46.22070484" lon="6.10510007"><ele></ele><time>2015-7-3T20:15:44Z</time></trkpt>
<trkpt lat="46.22067005" lon="6.10513796"><ele></ele><time>2015-7-3T20:15:47Z</time></trkpt>
<trkpt lat="46.22063527" lon="6.10518415"><ele></ele><time>2015-7-3T20:15:50Z</time></trkpt>
<trkpt lat="46.22059797" lon="6.10523125"><ele></ele><time>2015-7-3T20:15:53Z</time></trkpt>
<trkpt lat="46.22056302" lon="6.10527668"><ele></ele><time>2015-7-3T20:15:56Z</time></trkpt>
<trkpt lat="46.22052697" lon="6.10531767"><ele></ele><time>2015-7-3T20:15:59Z</time></trkpt>
<trkpt lat="46.22049202" lon="6.10535983"><ele></ele><time>2015-7-3T20:16:2Z</time></trkpt>
<trkpt lat="46.22046143" lon="6.10540509"><ele></ele><time>2015-7-3T20:16:5Z</time></trkpt>
<trkpt lat="46.22044140" lon="6.10546008"><ele></ele><time>2015-7-3T20:16:8Z</time></trkpt>
<trkpt lat="46.22041399" lon="6.10551682"><ele></ele><time>2015-7-3T20:16:11Z</time></trkpt>
<trkpt lat="46.22037794" lon="6.10556494"><ele></ele><time>2015-7-3T20:16:14Z</time></trkpt>
<trkpt lat="46.22035556" lon="6.10561313"><ele></ele><time>2015-7-3T20:16:17Z</time></trkpt>
<trkpt lat="46.22032547" lon="6.10565286"><ele></ele><time>2015-7-3T20:16:20Z</time></trkpt>
<trkpt lat="46.22029220" lon="6.10568706"><ele></ele><time>2015-7-3T20:16:23Z</time></trkpt>
<trkpt lat="46.22026169" lon="6.10571573"><ele></ele><time>2015-7-3T20:16:26Z</time></trkpt>
<trkpt lat="46.22027074" lon="6.10585185"><ele></ele><time>2015-7-3T20:16:29Z</time></trkpt>
<trkpt lat="46.22029983" lon="6.10591304"><ele></ele><time>2015-7-3T20:16:32Z</time></trkpt>
<trkpt lat="46.22034090" lon="6.10595847"><ele></ele><time>2015-7-3T20:16:35Z</time></trkpt>
<trkpt lat="46.22034484" lon="6.10599367"><ele></ele><time>2015-7-3T20:16:38Z</time></trkpt>
<trkpt lat="46.22034123" lon="6.10603533"><ele></ele><time>2015-7-3T20:16:41Z</time></trkpt>
<trkpt lat="46.22033553" lon="6.10607070"><ele></ele><time>2015-7-3T20:16:44Z</time></trkpt>
<trkpt lat="46.22031173" lon="6.10609266"><ele></ele><time>2015-7-3T20:16:47Z</time></trkpt>
<trkpt lat="46.22028566" lon="6.10612459"><ele></ele><time>2015-7-3T20:16:50Z</time></trkpt>
<trkpt lat="46.22024987" lon="6.10615242"><ele></ele><time>2015-7-3T20:16:53Z</time></trkpt>
<trkpt lat="46.22021064" lon="6.10618905"><ele></ele><time>2015-7-3T20:16:56Z</time></trkpt>
<trkpt lat="46.22018566" lon="6.10623859"><ele></ele><time>2015-7-3T20:16:59Z</time></trkpt>
<trkpt lat="46.22015138" lon="6.10627119"><ele></ele><time>2015-7-3T20:17:2Z</time></trkpt>
<trkpt lat="46.22012213" lon="6.10629994"><ele></ele><time>2015-7-3T20:17:5Z</time></trkpt>
<trkpt lat="46.22010478" lon="6.10632844"><ele></ele><time>2015-7-3T20:17:8Z</time></trkpt>
<trkpt lat="46.22010260" lon="6.10634604"><ele></ele><time>2015-7-3T20:17:11Z</time></trkpt>
<trkpt lat="46.22010067" lon="6.10634797"><ele></ele><time>2015-7-3T20:17:14Z</time></trkpt>
<trkpt lat="46.22009405" lon="6.10634797"><ele></ele><time>2015-7-3T20:17:17Z</time></trkpt>
<trkpt lat="46.22009807" lon="6.10635225"><ele></ele><time>2015-7-3T20:17:20Z</time></trkpt>
<trkpt lat="46.22010696" lon="6.10635895"><ele></ele><time>2015-7-3T20:17:23Z</time></trkpt>
<trkpt lat="46.22013453" lon="6.10638225"><ele></ele><time>2015-7-3T20:17:26Z</time></trkpt>
<trkpt lat="46.22018709" lon="6.10643305"><ele></ele><time>2015-7-3T20:17:29Z</time></trkpt>
<trkpt lat="46.22022104" lon="6.10648426"><ele></ele><time>2015-7-3T20:17:32Z</time></trkpt>
<trkpt lat="46.22024794" lon="6.10653070"><ele></ele><time>2015-7-3T20:17:35Z</time></trkpt>
<trkpt lat="46.22026479" lon="6.10657604"><ele></ele><time>2015-7-3T20:17:38Z</time></trkpt>
<trkpt lat="46.22026596" lon="6.10661628"><ele></ele><time>2015-7-3T20:17:41Z</time></trkpt>
<trkpt lat="46.22025004" lon="6.10663832"><ele></ele><time>2015-7-3T20:17:44Z</time></trkpt>
<trkpt lat="46.22027309" lon="6.10666523"><ele></ele><time>2015-7-3T20:17:47Z</time></trkpt>
<trkpt lat="46.22028315" lon="6.10670085"><ele></ele><time>2015-7-3T20:17:50Z</time></trkpt>
<trkpt lat="46.22030050" lon="6.10674377"><ele></ele><time>2015-7-3T20:17:53Z</time></trkpt>
<trkpt lat="46.22031726" lon="6.10679297"><ele></ele><time>2015-7-3T20:17:56Z</time></trkpt>
<trkpt lat="46.22035305" lon="6.10686287"><ele></ele><time>2015-7-3T20:17:59Z</time></trkpt>
<trkpt lat="46.22038063" lon="6.10690956"><ele></ele><time>2015-7-3T20:18:2Z</time></trkpt>
<trkpt lat="46.22043435" lon="6.10695499"><ele></ele><time>2015-7-3T20:18:5Z</time></trkpt>
<trkpt lat="46.22068908" lon="6.10714903"><ele></ele><time>2015-7-3T20:18:8Z</time></trkpt>
<trkpt lat="46.22076678" lon="6.10717619"><ele></ele><time>2015-7-3T20:18:11Z</time></trkpt>
<trkpt lat="46.22077986" lon="6.10717602"><ele></ele><time>2015-7-3T20:18:14Z</time></trkpt>
<trkpt lat="46.22078673" lon="6.10717049"><ele></ele><time>2015-7-3T20:18:17Z</time></trkpt>
<trkpt lat="46.22081439" lon="6.10718759"><ele></ele><time>2015-7-3T20:18:20Z</time></trkpt>
<trkpt lat="46.22082386" lon="6.10719547"><ele></ele><time>2015-7-3T20:18:23Z</time></trkpt>
<trkpt lat="46.22082554" lon="6.10718960"><ele></ele><time>2015-7-3T20:18:26Z</time></trkpt>
<trkpt lat="46.22083073" lon="6.10717862"><ele></ele><time>2015-7-3T20:18:29Z</time></trkpt>
<trkpt lat="46.22083023" lon="6.10716739"><ele></ele><time>2015-7-3T20:18:32Z</time></trkpt>
<trkpt lat="46.22083115" lon="6.10717627"><ele></ele><time>2015-7-3T20:18:35Z</time></trkpt>
<trkpt lat="46.22082788" lon="6.10719295"><ele></ele><time>2015-7-3T20:18:38Z</time></trkpt>
<trkpt lat="46.22083124" lon="6.10721994"><ele></ele><time>2015-7-3T20:18:41Z</time></trkpt>
<trkpt lat="46.22083082" lon="6.10724660"><ele></ele><time>2015-7-3T20:18:44Z</time></trkpt>
<trkpt lat="46.22082797" lon="6.10730594"><ele></ele><time>2015-7-3T20:18:47Z</time></trkpt>
<trkpt lat="46.22083459" lon="6.10733964"><ele></ele><time>2015-7-3T20:18:50Z</time></trkpt>
<trkpt lat="46.22084758" lon="6.10735967"><ele></ele><time>2015-7-3T20:18:53Z</time></trkpt>
<trkpt lat="46.22085898" lon="6.10735657"><ele></ele><time>2015-7-3T20:18:56Z</time></trkpt>
<trkpt lat="46.22088295" lon="6.10733578"><ele></ele><time>2015-7-3T20:18:59Z</time></trkpt>
<trkpt lat="46.22090005" lon="6.10731583"><ele></ele><time>2015-7-3T20:19:2Z</time></trkpt>
<trkpt lat="46.22091020" lon="6.10730879"><ele></ele><time>2015-7-3T20:19:5Z</time></trkpt>
<trkpt lat="46.22091900" lon="6.10730049"><ele></ele><time>2015-7-3T20:19:8Z</time></trkpt>
<trkpt lat="46.22093098" lon="6.10728373"><ele></ele><time>2015-7-3T20:19:11Z</time></trkpt>
<trkpt lat="46.22093643" lon="6.10726462"><ele></ele><time>2015-7-3T20:19:14Z</time></trkpt>
<trkpt lat="46.22095445" lon="6.10727820"><ele></ele><time>2015-7-3T20:19:17Z</time></trkpt>
<trkpt lat="46.22096770" lon="6.10730024"><ele></ele><time>2015-7-3T20:19:20Z</time></trkpt>
<trkpt lat="46.22099343" lon="6.10731617"><ele></ele><time>2015-7-3T20:19:23Z</time></trkpt>
<trkpt lat="46.22101380" lon="6.10732622"><ele></ele><time>2015-7-3T20:19:26Z</time></trkpt>
<trkpt lat="46.22104724" lon="6.10735112"><ele></ele><time>2015-7-3T20:19:29Z</time></trkpt>
<trkpt lat="46.22106928" lon="6.10736512"><ele></ele><time>2015-7-3T20:19:32Z</time></trkpt>
<trkpt lat="46.22108345" lon="6.10736604"><ele></ele><time>2015-7-3T20:19:35Z</time></trkpt>
<trkpt lat="46.22110256" lon="6.10737559"><ele></ele><time>2015-7-3T20:19:38Z</time></trkpt>
<trkpt lat="46.22112804" lon="6.10736243"><ele></ele><time>2015-7-3T20:19:41Z</time></trkpt>
<trkpt lat="46.22114900" lon="6.10734450"><ele></ele><time>2015-7-3T20:19:44Z</time></trkpt>
<trkpt lat="46.22116593" lon="6.10732606"><ele></ele><time>2015-7-3T20:19:47Z</time></trkpt>
<trkpt lat="46.22117607" lon="6.10730007"><ele></ele><time>2015-7-3T20:19:50Z</time></trkpt>
<trkpt lat="46.22118663" lon="6.10727275"><ele></ele><time>2015-7-3T20:19:53Z</time></trkpt>
<trkpt lat="46.22120432" lon="6.10725582"><ele></ele><time>2015-7-3T20:19:56Z</time></trkpt>
<trkpt lat="46.22122116" lon="6.10724752"><ele></ele><time>2015-7-3T20:19:59Z</time></trkpt>
<trkpt lat="46.22123407" lon="6.10724140"><ele></ele><time>2015-7-3T20:20:2Z</time></trkpt>
<trkpt lat="46.22124103" lon="6.10724903"><ele></ele><time>2015-7-3T20:20:5Z</time></trkpt>
<trkpt lat="46.22125645" lon="6.10725783"><ele></ele><time>2015-7-3T20:20:8Z</time></trkpt>
<trkpt lat="46.22127187" lon="6.10726160"><ele></ele><time>2015-7-3T20:20:11Z</time></trkpt>
<trkpt lat="46.22129283" lon="6.10726336"><ele></ele><time>2015-7-3T20:20:14Z</time></trkpt>
<trkpt lat="46.22132686" lon="6.10725942"><ele></ele><time>2015-7-3T20:20:17Z</time></trkpt>
<trkpt lat="46.22136617" lon="6.10725313"><ele></ele><time>2015-7-3T20:20:20Z</time></trkpt>
<trkpt lat="46.22139199" lon="6.10722003"><ele></ele><time>2015-7-3T20:20:23Z</time></trkpt>
<trkpt lat="46.22140624" lon="6.10718474"><ele></ele><time>2015-7-3T20:20:26Z</time></trkpt>
<trkpt lat="46.22141990" lon="6.10714694"><ele></ele><time>2015-7-3T20:20:29Z</time></trkpt>
<trkpt lat="46.22145100" lon="6.10710394"><ele></ele><time>2015-7-3T20:20:32Z</time></trkpt>
<trkpt lat="46.22147807" lon="6.10705599"><ele></ele><time>2015-7-3T20:20:35Z</time></trkpt>
<trkpt lat="46.22149928" lon="6.10700746"><ele></ele><time>2015-7-3T20:20:38Z</time></trkpt>
<trkpt lat="46.22152057" lon="6.10695759"><ele></ele><time>2015-7-3T20:20:41Z</time></trkpt>
<trkpt lat="46.22154529" lon="6.10690126"><ele></ele><time>2015-7-3T20:20:44Z</time></trkpt>
<trkpt lat="46.22156365" lon="6.10685550"><ele></ele><time>2015-7-3T20:20:47Z</time></trkpt>
<trkpt lat="46.22156608" lon="6.10682834"><ele></ele><time>2015-7-3T20:20:50Z</time></trkpt>
<trkpt lat="46.22156667" lon="6.10681426"><ele></ele><time>2015-7-3T20:20:53Z</time></trkpt>
<trkpt lat="46.22155988" lon="6.10681476"><ele></ele><time>2015-7-3T20:20:56Z</time></trkpt>
<trkpt lat="46.22155946" lon="6.10682004"><ele></ele><time>2015-7-3T20:20:59Z</time></trkpt>
<trkpt lat="46.22157547" lon="6.10683697"><ele></ele><time>2015-7-3T20:21:2Z</time></trkpt>
<trkpt lat="46.22161008" lon="6.10687025"><ele></ele><time>2015-7-3T20:21:5Z</time></trkpt>
<trkpt lat="46.22163255" lon="6.10690453"><ele></ele><time>2015-7-3T20:21:8Z</time></trkpt>
<trkpt lat="46.22167152" lon="6.10694049"><ele></ele><time>2015-7-3T20:21:11Z</time></trkpt>
<trkpt lat="46.22170446" lon="6.10697670"><ele></ele><time>2015-7-3T20:21:14Z</time></trkpt>
<trkpt lat="46.22172852" lon="6.10701584"><ele></ele><time>2015-7-3T20:21:17Z</time></trkpt>
<trkpt lat="46.22174679" lon="6.10705457"><ele></ele><time>2015-7-3T20:21:20Z</time></trkpt>
<trkpt lat="46.22177085" lon="6.10709656"><ele></ele><time>2015-7-3T20:21:23Z</time></trkpt>
<trkpt lat="46.22180287" lon="6.10713813"><ele></ele><time>2015-7-3T20:21:26Z</time></trkpt>
<trkpt lat="46.22183153" lon="6.10717694"><ele></ele><time>2015-7-3T20:21:29Z</time></trkpt>
<trkpt lat="46.22186699" lon="6.10721533"><ele></ele><time>2015-7-3T20:21:32Z</time></trkpt>
<trkpt lat="46.22190773" lon="6.10724526"><ele></ele><time>2015-7-3T20:21:35Z</time></trkpt>
<trkpt lat="46.22196103" lon="6.10726604"><ele></ele><time>2015-7-3T20:21:38Z</time></trkpt>
<trkpt lat="46.22200236" lon="6.10727836"><ele></ele><time>2015-7-3T20:21:41Z</time></trkpt>
<trkpt lat="46.22203387" lon="6.10728658"><ele></ele><time>2015-7-3T20:21:44Z</time></trkpt>
<trkpt lat="46.22204829" lon="6.10728716"><ele></ele><time>2015-7-3T20:21:47Z</time></trkpt>
<trkpt lat="46.22205877" lon="6.10729270"><ele></ele><time>2015-7-3T20:21:50Z</time></trkpt>
<trkpt lat="46.22204837" lon="6.10728784"><ele></ele><time>2015-7-3T20:21:53Z</time></trkpt>
<trkpt lat="46.22206338" lon="6.10732405"><ele></ele><time>2015-7-3T20:21:56Z</time></trkpt>
<trkpt lat="46.22208358" lon="6.10736319"><ele></ele><time>2015-7-3T20:21:59Z</time></trkpt>
<trkpt lat="46.22209263" lon="6.10740988"><ele></ele><time>2015-7-3T20:22:2Z</time></trkpt>
<trkpt lat="46.22206380" lon="6.10742974"><ele></ele><time>2015-7-3T20:22:5Z</time></trkpt>
<trkpt lat="46.22205156" lon="6.10745246"><ele></ele><time>2015-7-3T20:22:8Z</time></trkpt>
<trkpt lat="46.22206908" lon="6.10746318"><ele></ele><time>2015-7-3T20:22:11Z</time></trkpt>
<trkpt lat="46.22208249" lon="6.10747400"><ele></ele><time>2015-7-3T20:22:14Z</time></trkpt>
<trkpt lat="46.22209422" lon="6.10748456"><ele></ele><time>2015-7-3T20:22:17Z</time></trkpt>
<trkpt lat="46.22210110" lon="6.10748590"><ele></ele><time>2015-7-3T20:22:20Z</time></trkpt>
<trkpt lat="46.22110197" lon="6.10728272"><ele></ele><time>2015-7-3T20:22:23Z</time></trkpt>
<trkpt lat="46.22108018" lon="6.10728448"><ele></ele><time>2015-7-3T20:22:26Z</time></trkpt>
<trkpt lat="46.22105545" lon="6.10728063"><ele></ele><time>2015-7-3T20:22:29Z</time></trkpt>
<trkpt lat="46.22103668" lon="6.10728029"><ele></ele><time>2015-7-3T20:22:32Z</time></trkpt>
<trkpt lat="46.22100860" lon="6.10725355"><ele></ele><time>2015-7-3T20:22:35Z</time></trkpt>
<trkpt lat="46.22099049" lon="6.10724224"><ele></ele><time>2015-7-3T20:22:38Z</time></trkpt>
<trkpt lat="46.22095202" lon="6.10723696"><ele></ele><time>2015-7-3T20:22:41Z</time></trkpt>
<trkpt lat="46.22090148" lon="6.10724869"><ele></ele><time>2015-7-3T20:22:44Z</time></trkpt>
<trkpt lat="46.22085529" lon="6.10727669"><ele></ele><time>2015-7-3T20:22:47Z</time></trkpt>
<trkpt lat="46.22081204" lon="6.10721198"><ele></ele><time>2015-7-3T20:22:50Z</time></trkpt>
<trkpt lat="46.22079302" lon="6.10721240"><ele></ele><time>2015-7-3T20:22:53Z</time></trkpt>
<trkpt lat="46.22075396" lon="6.10716546"><ele></ele><time>2015-7-3T20:22:56Z</time></trkpt>
<trkpt lat="46.22073007" lon="6.10710695"><ele></ele><time>2015-7-3T20:22:59Z</time></trkpt>
<trkpt lat="46.22070249" lon="6.10706312"><ele></ele><time>2015-7-3T20:23:2Z</time></trkpt>
<trkpt lat="46.22066846" lon="6.10700268"><ele></ele><time>2015-7-3T20:23:5Z</time></trkpt>
<trkpt lat="46.22063208" lon="6.10694929"><ele></ele><time>2015-7-3T20:23:8Z</time></trkpt>
<trkpt lat="46.22060384" lon="6.10691006"><ele></ele><time>2015-7-3T20:23:11Z</time></trkpt>
<trkpt lat="46.22058062" lon="6.10688148"><ele></ele><time>2015-7-3T20:23:14Z</time></trkpt>
<trkpt lat="46.22054667" lon="6.10684527"><ele></ele><time>2015-7-3T20:23:17Z</time></trkpt>
<trkpt lat="46.22049487" lon="6.10680043"><ele></ele><time>2015-7-3T20:23:20Z</time></trkpt>
<trkpt lat="46.22042363" lon="6.10672843"><ele></ele><time>2015-7-3T20:23:23Z</time></trkpt>
<trkpt lat="46.22035615" lon="6.10667503"><ele></ele><time>2015-7-3T20:23:26Z</time></trkpt>
<trkpt lat="46.22029706" lon="6.10661846"><ele></ele><time>2015-7-3T20:23:29Z</time></trkpt>
<trkpt lat="46.22026814" lon="6.10658384"><ele></ele><time>2015-7-3T20:23:32Z</time></trkpt>
<trkpt lat="46.22025046" lon="6.10657227"><ele></ele><time>2015-7-3T20:23:35Z</time></trkpt>
<trkpt lat="46.22027032" lon="6.10657328"><ele></ele><time>2015-7-3T20:23:38Z</time></trkpt>
<trkpt lat="46.22026546" lon="6.10655576"><ele></ele><time>2015-7-3T20:23:41Z</time></trkpt>
<trkpt lat="46.22026068" lon="6.10653883"><ele></ele><time>2015-7-3T20:23:44Z</time></trkpt>
<trkpt lat="46.22016672" lon="6.10647446"><ele></ele><time>2015-7-3T20:23:47Z</time></trkpt>
<trkpt lat="46.22018290" lon="6.10634018"><ele></ele><time>2015-7-3T20:23:50Z</time></trkpt>
<trkpt lat="46.22021517" lon="6.10625879"><ele></ele><time>2015-7-3T20:23:53Z</time></trkpt>
<trkpt lat="46.22023763" lon="6.10628377"><ele></ele><time>2015-7-3T20:23:56Z</time></trkpt>
<trkpt lat="46.22020016" lon="6.10626952"><ele></ele><time>2015-7-3T20:23:59Z</time></trkpt>
<trkpt lat="46.22020327" lon="6.10624135"><ele></ele><time>2015-7-3T20:24:2Z</time></trkpt>
<trkpt lat="46.22022087" lon="6.10621026"><ele></ele><time>2015-7-3T20:24:5Z</time></trkpt>
<trkpt lat="46.22022715" lon="6.10616500"><ele></ele><time>2015-7-3T20:24:8Z</time></trkpt>
<trkpt lat="46.22024023" lon="6.10611789"><ele></ele><time>2015-7-3T20:24:11Z</time></trkpt>
<trkpt lat="46.22025289" lon="6.10607087"><ele></ele><time>2015-7-3T20:24:14Z</time></trkpt>
<trkpt lat="46.22026068" lon="6.10603784"><ele></ele><time>2015-7-3T20:24:17Z</time></trkpt>
<trkpt lat="46.22028893" lon="6.10601244"><ele></ele><time>2015-7-3T20:24:20Z</time></trkpt>
<trkpt lat="46.22033327" lon="6.10599258"><ele></ele><time>2015-7-3T20:24:23Z</time></trkpt>
<trkpt lat="46.22036730" lon="6.10595872"><ele></ele><time>2015-7-3T20:24:26Z</time></trkpt>
<trkpt lat="46.22037199" lon="6.10592527"><ele></ele><time>2015-7-3T20:24:29Z</time></trkpt>
<trkpt lat="46.22034358" lon="6.10588839"><ele></ele><time>2015-7-3T20:24:32Z</time></trkpt>
<trkpt lat="46.22033235" lon="6.10585252"><ele></ele><time>2015-7-3T20:24:35Z</time></trkpt>
<trkpt lat="46.22032765" lon="6.10582897"><ele></ele><time>2015-7-3T20:24:38Z</time></trkpt>
<trkpt lat="46.22034023" lon="6.10581212"><ele></ele><time>2015-7-3T20:24:41Z</time></trkpt>
<trkpt lat="46.22036814" lon="6.10578764"><ele></ele><time>2015-7-3T20:24:44Z</time></trkpt>
<trkpt lat="46.22040343" lon="6.10574280"><ele></ele><time>2015-7-3T20:24:47Z</time></trkpt>
<trkpt lat="46.22044835" lon="6.10570583"><ele></ele><time>2015-7-3T20:24:50Z</time></trkpt>
<trkpt lat="46.22049705" lon="6.10566552"><ele></ele><time>2015-7-3T20:24:53Z</time></trkpt>
<trkpt lat="46.22054198" lon="6.10561590"><ele></ele><time>2015-7-3T20:24:56Z</time></trkpt>
<trkpt lat="46.22057936" lon="6.10555907"><ele></ele><time>2015-7-3T20:24:59Z</time></trkpt>
<trkpt lat="46.22063795" lon="6.10552034"><ele></ele><time>2015-7-3T20:25:2Z</time></trkpt>
<trkpt lat="46.22069419" lon="6.10549277"><ele></ele><time>2015-7-3T20:25:5Z</time></trkpt>
<trkpt lat="46.22074063" lon="6.10544717"><ele></ele><time>2015-7-3T20:25:8Z</time></trkpt>
<trkpt lat="46.22077307" lon="6.10538514"><ele></ele><time>2015-7-3T20:25:11Z</time></trkpt>
<trkpt lat="46.22081473" lon="6.10531700"><ele></ele><time>2015-7-3T20:25:14Z</time></trkpt>
<trkpt lat="46.22085270" lon="6.10524894"><ele></ele><time>2015-7-3T20:25:17Z</time></trkpt>
<trkpt lat="46.22089620" lon="6.10518347"><ele></ele><time>2015-7-3T20:25:20Z</time></trkpt>
<trkpt lat="46.22093123" lon="6.10510879"><ele></ele><time>2015-7-3T20:25:23Z</time></trkpt>
<trkpt lat="46.22096987" lon="6.10502774"><ele></ele><time>2015-7-3T20:25:26Z</time></trkpt>
<trkpt lat="46.22101882" lon="6.10492623"><ele></ele><time>2015-7-3T20:25:29Z</time></trkpt>
<trkpt lat="46.22102025" lon="6.10482154"><ele></ele><time>2015-7-3T20:25:32Z</time></trkpt>
<trkpt lat="46.22102427" lon="6.10472389"><ele></ele><time>2015-7-3T20:25:35Z</time></trkpt>
<trkpt lat="46.22097960" lon="6.10459523"><ele></ele><time>2015-7-3T20:25:38Z</time></trkpt>
<trkpt lat="46.22090659" lon="6.10445299"><ele></ele><time>2015-7-3T20:25:41Z</time></trkpt>
<trkpt lat="46.22086527" lon="6.10435953"><ele></ele><time>2015-7-3T20:25:44Z</time></trkpt>
<trkpt lat="46.22083065" lon="6.10430212"><ele></ele><time>2015-7-3T20:25:47Z</time></trkpt>
<trkpt lat="46.22077592" lon="6.10429776"><ele></ele><time>2015-7-3T20:25:50Z</time></trkpt>
<trkpt lat="46.22074264" lon="6.10428686"><ele></ele><time>2015-7-3T20:25:53Z</time></trkpt>
<trkpt lat="46.22071875" lon="6.10425677"><ele></ele><time>2015-7-3T20:25:56Z</time></trkpt>
<trkpt lat="46.22069746" lon="6.10422282"><ele></ele><time>2015-7-3T20:25:59Z</time></trkpt>
<trkpt lat="46.22067969" lon="6.10418796"><ele></ele><time>2015-7-3T20:26:2Z</time></trkpt>
<trkpt lat="46.22064365" lon="6.10415552"><ele></ele><time>2015-7-3T20:26:5Z</time></trkpt>
<trkpt lat="46.22060803" lon="6.10413582"><ele></ele><time>2015-7-3T20:26:8Z</time></trkpt>
<trkpt lat="46.22055782" lon="6.10412635"><ele></ele><time>2015-7-3T20:26:11Z</time></trkpt>
<trkpt lat="46.22050007" lon="6.10411470"><ele></ele><time>2015-7-3T20:26:14Z</time></trkpt>
<trkpt lat="46.22044575" lon="6.10408318"><ele></ele><time>2015-7-3T20:26:17Z</time></trkpt>
<trkpt lat="46.22040016" lon="6.10403063"><ele></ele><time>2015-7-3T20:26:20Z</time></trkpt>
<trkpt lat="46.22035288" lon="6.10397547"><ele></ele><time>2015-7-3T20:26:23Z</time></trkpt>
<trkpt lat="46.22030603" lon="6.10391848"><ele></ele><time>2015-7-3T20:26:26Z</time></trkpt>
<trkpt lat="46.22026663" lon="6.10385687"><ele></ele><time>2015-7-3T20:26:29Z</time></trkpt>
<trkpt lat="46.22014912" lon="6.10379216"><ele></ele><time>2015-7-3T20:26:32Z</time></trkpt>
<trkpt lat="46.22008399" lon="6.10369703"><ele></ele><time>2015-7-3T20:26:35Z</time></trkpt>
<trkpt lat="46.22005298" lon="6.10362209"><ele></ele><time>2015-7-3T20:26:38Z</time></trkpt>
<trkpt lat="46.22006815" lon="6.10359225"><ele></ele><time>2015-7-3T20:26:41Z</time></trkpt>
<trkpt lat="46.22003856" lon="6.10355940"><ele></ele><time>2015-7-3T20:26:44Z</time></trkpt>
<trkpt lat="46.22000227" lon="6.10351439"><ele></ele><time>2015-7-3T20:26:47Z</time></trkpt>
<trkpt lat="46.21996815" lon="6.10347005"><ele></ele><time>2015-7-3T20:26:50Z</time></trkpt>
<trkpt lat="46.21991065" lon="6.10344247"><ele></ele><time>2015-7-3T20:26:53Z</time></trkpt>
<trkpt lat="46.21985667" lon="6.10337826"><ele></ele><time>2015-7-3T20:26:56Z</time></trkpt>
<trkpt lat="46.21981024" lon="6.10334432"><ele></ele><time>2015-7-3T20:26:59Z</time></trkpt>
<trkpt lat="46.21976682" lon="6.10330593"><ele></ele><time>2015-7-3T20:27:2Z</time></trkpt>
<trkpt lat="46.21972692" lon="6.10327089"><ele></ele><time>2015-7-3T20:27:5Z</time></trkpt>
<trkpt lat="46.21967596" lon="6.10322898"><ele></ele><time>2015-7-3T20:27:8Z</time></trkpt>
<trkpt lat="46.21963380" lon="6.10317869"><ele></ele><time>2015-7-3T20:27:11Z</time></trkpt>
<trkpt lat="46.21958225" lon="6.10313259"><ele></ele><time>2015-7-3T20:27:14Z</time></trkpt>
<trkpt lat="46.21953112" lon="6.10308724"><ele></ele><time>2015-7-3T20:27:17Z</time></trkpt>
<trkpt lat="46.21947865" lon="6.10304617"><ele></ele><time>2015-7-3T20:27:20Z</time></trkpt>
<trkpt lat="46.21942668" lon="6.10300720"><ele></ele><time>2015-7-3T20:27:23Z</time></trkpt>
<trkpt lat="46.21937832" lon="6.10296789"><ele></ele><time>2015-7-3T20:27:26Z</time></trkpt>
<trkpt lat="46.21932903" lon="6.10292707"><ele></ele><time>2015-7-3T20:27:29Z</time></trkpt>
<trkpt lat="46.21927908" lon="6.10288625"><ele></ele><time>2015-7-3T20:27:32Z</time></trkpt>
<trkpt lat="46.21922744" lon="6.10284803"><ele></ele><time>2015-7-3T20:27:35Z</time></trkpt>
<trkpt lat="46.21917414" lon="6.10281056"><ele></ele><time>2015-7-3T20:27:38Z</time></trkpt>
<trkpt lat="46.21912108" lon="6.10276706"><ele></ele><time>2015-7-3T20:27:41Z</time></trkpt>
<trkpt lat="46.21906819" lon="6.10272104"><ele></ele><time>2015-7-3T20:27:44Z</time></trkpt>
<trkpt lat="46.21901354" lon="6.10267913"><ele></ele><time>2015-7-3T20:27:47Z</time></trkpt>
<trkpt lat="46.21895755" lon="6.10263906"><ele></ele><time>2015-7-3T20:27:50Z</time></trkpt>
<trkpt lat="46.21890005" lon="6.10259816"><ele></ele><time>2015-7-3T20:27:53Z</time></trkpt>
<trkpt lat="46.21884163" lon="6.10255935"><ele></ele><time>2015-7-3T20:27:56Z</time></trkpt>
<trkpt lat="46.21878220" lon="6.10252482"><ele></ele><time>2015-7-3T20:27:59Z</time></trkpt>
<trkpt lat="46.21872093" lon="6.10249297"><ele></ele><time>2015-7-3T20:28:2Z</time></trkpt>
<trkpt lat="46.21865798" lon="6.10246724"><ele></ele><time>2015-7-3T20:28:5Z</time></trkpt>
<trkpt lat="46.21858958" lon="6.10245240"><ele></ele><time>2015-7-3T20:28:8Z</time></trkpt>
<trkpt lat="46.21851926" lon="6.10244829"><ele></ele><time>2015-7-3T20:28:11Z</time></trkpt>
<trkpt lat="46.21844902" lon="6.10245449"><ele></ele><time>2015-7-3T20:28:14Z</time></trkpt>
<trkpt lat="46.21837987" lon="6.10247478"><ele></ele><time>2015-7-3T20:28:17Z</time></trkpt>
<trkpt lat="46.21831365" lon="6.10251015"><ele></ele><time>2015-7-3T20:28:20Z</time></trkpt>
<trkpt lat="46.21825229" lon="6.10255348"><ele></ele><time>2015-7-3T20:28:23Z</time></trkpt>
<trkpt lat="46.21819538" lon="6.10260042"><ele></ele><time>2015-7-3T20:28:26Z</time></trkpt>
<trkpt lat="46.21814266" lon="6.10265197"><ele></ele><time>2015-7-3T20:28:29Z</time></trkpt>
<trkpt lat="46.21809279" lon="6.10270805"><ele></ele><time>2015-7-3T20:28:32Z</time></trkpt>
<trkpt lat="46.21804040" lon="6.10276597"><ele></ele><time>2015-7-3T20:28:35Z</time></trkpt>
<trkpt lat="46.21799086" lon="6.10282699"><ele></ele><time>2015-7-3T20:28:38Z</time></trkpt>
<trkpt lat="46.21793563" lon="6.10291324"><ele></ele><time>2015-7-3T20:28:41Z</time></trkpt>
<trkpt lat="46.21788156" lon="6.10297803"><ele></ele><time>2015-7-3T20:28:44Z</time></trkpt>
<trkpt lat="46.21782725" lon="6.10303729"><ele></ele><time>2015-7-3T20:28:47Z</time></trkpt>
<trkpt lat="46.21776698" lon="6.10310937"><ele></ele><time>2015-7-3T20:28:50Z</time></trkpt>
<trkpt lat="46.21770705" lon="6.10317140"><ele></ele><time>2015-7-3T20:28:53Z</time></trkpt>
<trkpt lat="46.21764444" lon="6.10323292"><ele></ele><time>2015-7-3T20:28:56Z</time></trkpt>
<trkpt lat="46.21758853" lon="6.10329604"><ele></ele><time>2015-7-3T20:28:59Z</time></trkpt>
<trkpt lat="46.21753095" lon="6.10335957"><ele></ele><time>2015-7-3T20:29:2Z</time></trkpt>
<trkpt lat="46.21747403" lon="6.10342512"><ele></ele><time>2015-7-3T20:29:5Z</time></trkpt>
<trkpt lat="46.21742123" lon="6.10348916"><ele></ele><time>2015-7-3T20:29:8Z</time></trkpt>
<trkpt lat="46.21736716" lon="6.10355563"><ele></ele><time>2015-7-3T20:29:11Z</time></trkpt>
<trkpt lat="46.21731419" lon="6.10362645"><ele></ele><time>2015-7-3T20:29:14Z</time></trkpt>
<trkpt lat="46.21725988" lon="6.10369686"><ele></ele><time>2015-7-3T20:29:17Z</time></trkpt>
<trkpt lat="46.21720305" lon="6.10376484"><ele></ele><time>2015-7-3T20:29:20Z</time></trkpt>
<trkpt lat="46.21711420" lon="6.10382535"><ele></ele><time>2015-7-3T20:29:23Z</time></trkpt>
<trkpt lat="46.21704957" lon="6.10389174"><ele></ele><time>2015-7-3T20:29:26Z</time></trkpt>
<trkpt lat="46.21699819" lon="6.10398092"><ele></ele><time>2015-7-3T20:29:29Z</time></trkpt>
<trkpt lat="46.21693483" lon="6.10405569"><ele></ele><time>2015-7-3T20:29:32Z</time></trkpt>
<trkpt lat="46.21687045" lon="6.10412467"><ele></ele><time>2015-7-3T20:29:35Z</time></trkpt>
<trkpt lat="46.21681480" lon="6.10420288"><ele></ele><time>2015-7-3T20:29:38Z</time></trkpt>
<trkpt lat="46.21675814" lon="6.10427127"><ele></ele><time>2015-7-3T20:29:41Z</time></trkpt>
<trkpt lat="46.21670349" lon="6.10434118"><ele></ele><time>2015-7-3T20:29:44Z</time></trkpt>
<trkpt lat="46.21665219" lon="6.10440874"><ele></ele><time>2015-7-3T20:29:47Z</time></trkpt>
<trkpt lat="46.21660039" lon="6.10447604"><ele></ele><time>2015-7-3T20:29:50Z</time></trkpt>
<trkpt lat="46.21654674" lon="6.10452583"><ele></ele><time>2015-7-3T20:29:53Z</time></trkpt>
<trkpt lat="46.21649737" lon="6.10458274"><ele></ele><time>2015-7-3T20:29:56Z</time></trkpt>
<trkpt lat="46.21643996" lon="6.10464175"><ele></ele><time>2015-7-3T20:29:59Z</time></trkpt>
<trkpt lat="46.21638414" lon="6.10470286"><ele></ele><time>2015-7-3T20:30:2Z</time></trkpt>
<trkpt lat="46.21632747" lon="6.10476086"><ele></ele><time>2015-7-3T20:30:5Z</time></trkpt>
<trkpt lat="46.21627182" lon="6.10481584"><ele></ele><time>2015-7-3T20:30:8Z</time></trkpt>
<trkpt lat="46.21621675" lon="6.10487536"><ele></ele><time>2015-7-3T20:30:11Z</time></trkpt>
<trkpt lat="46.21616947" lon="6.10493110"><ele></ele><time>2015-7-3T20:30:14Z</time></trkpt>
<trkpt lat="46.21612513" lon="6.10498709"><ele></ele><time>2015-7-3T20:30:17Z</time></trkpt>
<trkpt lat="46.21607996" lon="6.10504677"><ele></ele><time>2015-7-3T20:30:20Z</time></trkpt>
<trkpt lat="46.21603578" lon="6.10511550"><ele></ele><time>2015-7-3T20:30:23Z</time></trkpt>
<trkpt lat="46.21598993" lon="6.10517476"><ele></ele><time>2015-7-3T20:30:26Z</time></trkpt>
<trkpt lat="46.21594124" lon="6.10523217"><ele></ele><time>2015-7-3T20:30:29Z</time></trkpt>
<trkpt lat="46.21589907" lon="6.10529026"><ele></ele><time>2015-7-3T20:30:32Z</time></trkpt>
<trkpt lat="46.21585733" lon="6.10533929"><ele></ele><time>2015-7-3T20:30:35Z</time></trkpt>
<trkpt lat="46.21581282" lon="6.10538607"><ele></ele><time>2015-7-3T20:30:38Z</time></trkpt>
<trkpt lat="46.21576496" lon="6.10542580"><ele></ele><time>2015-7-3T20:30:41Z</time></trkpt>
<trkpt lat="46.21571777" lon="6.10545119"><ele></ele><time>2015-7-3T20:30:44Z</time></trkpt>
<trkpt lat="46.21568349" lon="6.10546846"><ele></ele><time>2015-7-3T20:30:47Z</time></trkpt>
<trkpt lat="46.21564410" lon="6.10545513"><ele></ele><time>2015-7-3T20:30:50Z</time></trkpt>
<trkpt lat="46.21560428" lon="6.10540987"><ele></ele><time>2015-7-3T20:30:53Z</time></trkpt>
<trkpt lat="46.21555944" lon="6.10533485"><ele></ele><time>2015-7-3T20:30:56Z</time></trkpt>
<trkpt lat="46.21552373" lon="6.10524156"><ele></ele><time>2015-7-3T20:30:59Z</time></trkpt>
<trkpt lat="46.21548484" lon="6.10516026"><ele></ele><time>2015-7-3T20:31:2Z</time></trkpt>
<trkpt lat="46.21544385" lon="6.10505884"><ele></ele><time>2015-7-3T20:31:5Z</time></trkpt>
<trkpt lat="46.21539683" lon="6.10496018"><ele></ele><time>2015-7-3T20:31:8Z</time></trkpt>
<trkpt lat="46.21535266" lon="6.10488307"><ele></ele><time>2015-7-3T20:31:11Z</time></trkpt>
<trkpt lat="46.21529549" lon="6.10481375"><ele></ele><time>2015-7-3T20:31:14Z</time></trkpt>
<trkpt lat="46.21523682" lon="6.10474829"><ele></ele><time>2015-7-3T20:31:17Z</time></trkpt>
<trkpt lat="46.21518695" lon="6.10467687"><ele></ele><time>2015-7-3T20:31:20Z</time></trkpt>
<trkpt lat="46.21514940" lon="6.10457369"><ele></ele><time>2015-7-3T20:31:23Z</time></trkpt>
<trkpt lat="46.21510900" lon="6.10449113"><ele></ele><time>2015-7-3T20:31:26Z</time></trkpt>
<trkpt lat="46.21506482" lon="6.10442382"><ele></ele><time>2015-7-3T20:31:29Z</time></trkpt>
<trkpt lat="46.21501730" lon="6.10436750"><ele></ele><time>2015-7-3T20:31:32Z</time></trkpt>
<trkpt lat="46.21496843" lon="6.10431804"><ele></ele><time>2015-7-3T20:31:35Z</time></trkpt>
<trkpt lat="46.21492158" lon="6.10427127"><ele></ele><time>2015-7-3T20:31:38Z</time></trkpt>
<trkpt lat="46.21487573" lon="6.10422676"><ele></ele><time>2015-7-3T20:31:41Z</time></trkpt>
<trkpt lat="46.21482787" lon="6.10418695"><ele></ele><time>2015-7-3T20:31:44Z</time></trkpt>
<trkpt lat="46.21477934" lon="6.10414714"><ele></ele><time>2015-7-3T20:31:47Z</time></trkpt>
<trkpt lat="46.21473055" lon="6.10410498"><ele></ele><time>2015-7-3T20:31:50Z</time></trkpt>
<trkpt lat="46.21468445" lon="6.10406256"><ele></ele><time>2015-7-3T20:31:53Z</time></trkpt>
<trkpt lat="46.21463642" lon="6.10402375"><ele></ele><time>2015-7-3T20:31:56Z</time></trkpt>
<trkpt lat="46.21458789" lon="6.10398268"><ele></ele><time>2015-7-3T20:31:59Z</time></trkpt>
<trkpt lat="46.21453894" lon="6.10394094"><ele></ele><time>2015-7-3T20:32:2Z</time></trkpt>
<trkpt lat="46.21448957" lon="6.10389794"><ele></ele><time>2015-7-3T20:32:5Z</time></trkpt>
<trkpt lat="46.21444087" lon="6.10385218"><ele></ele><time>2015-7-3T20:32:8Z</time></trkpt>
<trkpt lat="46.21439268" lon="6.10380532"><ele></ele><time>2015-7-3T20:32:11Z</time></trkpt>
<trkpt lat="46.21434675" lon="6.10375972"><ele></ele><time>2015-7-3T20:32:14Z</time></trkpt>
<trkpt lat="46.21430140" lon="6.10371287"><ele></ele><time>2015-7-3T20:32:17Z</time></trkpt>
<trkpt lat="46.21425622" lon="6.10366886"><ele></ele><time>2015-7-3T20:32:20Z</time></trkpt>
<trkpt lat="46.21421205" lon="6.10362779"><ele></ele><time>2015-7-3T20:32:23Z</time></trkpt>
<trkpt lat="46.21416830" lon="6.10358840"><ele></ele><time>2015-7-3T20:32:26Z</time></trkpt>
<trkpt lat="46.21412655" lon="6.10354858"><ele></ele><time>2015-7-3T20:32:29Z</time></trkpt>
<trkpt lat="46.21408573" lon="6.10351003"><ele></ele><time>2015-7-3T20:32:32Z</time></trkpt>
<trkpt lat="46.21404625" lon="6.10347432"><ele></ele><time>2015-7-3T20:32:35Z</time></trkpt>
<trkpt lat="46.21401013" lon="6.10344130"><ele></ele><time>2015-7-3T20:32:38Z</time></trkpt>
<trkpt lat="46.21397828" lon="6.10341037"><ele></ele><time>2015-7-3T20:32:41Z</time></trkpt>
<trkpt lat="46.21394877" lon="6.10338338"><ele></ele><time>2015-7-3T20:32:44Z</time></trkpt>
<trkpt lat="46.21391885" lon="6.10335840"><ele></ele><time>2015-7-3T20:32:47Z</time></trkpt>
<trkpt lat="46.21388784" lon="6.10332998"><ele></ele><time>2015-7-3T20:32:50Z</time></trkpt>
<trkpt lat="46.21385213" lon="6.10329713"><ele></ele><time>2015-7-3T20:32:53Z</time></trkpt>
<trkpt lat="46.21381089" lon="6.10326335"><ele></ele><time>2015-7-3T20:32:56Z</time></trkpt>
<trkpt lat="46.21376647" lon="6.10322747"><ele></ele><time>2015-7-3T20:32:59Z</time></trkpt>
<trkpt lat="46.21371877" lon="6.10319654"><ele></ele><time>2015-7-3T20:33:2Z</time></trkpt>
<trkpt lat="46.21366454" lon="6.10317986"><ele></ele><time>2015-7-3T20:33:5Z</time></trkpt>
<trkpt lat="46.21360394" lon="6.10318179"><ele></ele><time>2015-7-3T20:33:8Z</time></trkpt>
<trkpt lat="46.21354326" lon="6.10320954"><ele></ele><time>2015-7-3T20:33:11Z</time></trkpt>
<trkpt lat="46.21348542" lon="6.10325547"><ele></ele><time>2015-7-3T20:33:14Z</time></trkpt>
<trkpt lat="46.21343186" lon="6.10331599"><ele></ele><time>2015-7-3T20:33:17Z</time></trkpt>
<trkpt lat="46.21338073" lon="6.10337919"><ele></ele><time>2015-7-3T20:33:20Z</time></trkpt>
<trkpt lat="46.21332633" lon="6.10343543"><ele></ele><time>2015-7-3T20:33:23Z</time></trkpt>
<trkpt lat="46.21327596" lon="6.10350047"><ele></ele><time>2015-7-3T20:33:26Z</time></trkpt>
<trkpt lat="46.21323145" lon="6.10357298"><ele></ele><time>2015-7-3T20:33:29Z</time></trkpt>
<trkpt lat="46.21318887" lon="6.10364732"><ele></ele><time>2015-7-3T20:33:32Z</time></trkpt>
<trkpt lat="46.21314595" lon="6.10372016"><ele></ele><time>2015-7-3T20:33:35Z</time></trkpt>
<trkpt lat="46.21310262" lon="6.10378663"><ele></ele><time>2015-7-3T20:33:38Z</time></trkpt>
<trkpt lat="46.21305962" lon="6.10384975"><ele></ele><time>2015-7-3T20:33:41Z</time></trkpt>
<trkpt lat="46.21301520" lon="6.10391529"><ele></ele><time>2015-7-3T20:33:44Z</time></trkpt>
<trkpt lat="46.21296809" lon="6.10398025"><ele></ele><time>2015-7-3T20:33:47Z</time></trkpt>
<trkpt lat="46.21292048" lon="6.10404328"><ele></ele><time>2015-7-3T20:33:50Z</time></trkpt>
<trkpt lat="46.21287405" lon="6.10410405"><ele></ele><time>2015-7-3T20:33:53Z</time></trkpt>
<trkpt lat="46.21282954" lon="6.10416667"><ele></ele><time>2015-7-3T20:33:56Z</time></trkpt>
<trkpt lat="46.21278637" lon="6.10422936"><ele></ele><time>2015-7-3T20:33:59Z</time></trkpt>
<trkpt lat="46.21274572" lon="6.10429156"><ele></ele><time>2015-7-3T20:34:2Z</time></trkpt>
<trkpt lat="46.21270414" lon="6.10435274"><ele></ele><time>2015-7-3T20:34:5Z</time></trkpt>
<trkpt lat="46.21266349" lon="6.10441083"><ele></ele><time>2015-7-3T20:34:8Z</time></trkpt>
<trkpt lat="46.21262426" lon="6.10446657"><ele></ele><time>2015-7-3T20:34:11Z</time></trkpt>
<trkpt lat="46.21258529" lon="6.10452156"><ele></ele><time>2015-7-3T20:34:14Z</time></trkpt>
<trkpt lat="46.21254522" lon="6.10457730"><ele></ele><time>2015-7-3T20:34:17Z</time></trkpt>
<trkpt lat="46.21250415" lon="6.10463454"><ele></ele><time>2015-7-3T20:34:20Z</time></trkpt>
<trkpt lat="46.21246384" lon="6.10469523"><ele></ele><time>2015-7-3T20:34:23Z</time></trkpt>
<trkpt lat="46.21242452" lon="6.10475969"><ele></ele><time>2015-7-3T20:34:26Z</time></trkpt>
<trkpt lat="46.21238798" lon="6.10482817"><ele></ele><time>2015-7-3T20:34:29Z</time></trkpt>
<trkpt lat="46.21235009" lon="6.10490168"><ele></ele><time>2015-7-3T20:34:32Z</time></trkpt>
<trkpt lat="46.21231363" lon="6.10497845"><ele></ele><time>2015-7-3T20:34:35Z</time></trkpt>
<trkpt lat="46.21227575" lon="6.10505909"><ele></ele><time>2015-7-3T20:34:38Z</time></trkpt>
<trkpt lat="46.21223903" lon="6.10514157"><ele></ele><time>2015-7-3T20:34:41Z</time></trkpt>
<trkpt lat="46.21220483" lon="6.10522689"><ele></ele><time>2015-7-3T20:34:44Z</time></trkpt>
<trkpt lat="46.21216837" lon="6.10531264"><ele></ele><time>2015-7-3T20:34:47Z</time></trkpt>
<trkpt lat="46.21213149" lon="6.10539855"><ele></ele><time>2015-7-3T20:34:50Z</time></trkpt>
<trkpt lat="46.21209595" lon="6.10548900"><ele></ele><time>2015-7-3T20:34:53Z</time></trkpt>
<trkpt lat="46.21206746" lon="6.10557524"><ele></ele><time>2015-7-3T20:34:56Z</time></trkpt>
<trkpt lat="46.21203862" lon="6.10565957"><ele></ele><time>2015-7-3T20:34:59Z</time></trkpt>
<trkpt lat="46.21200250" lon="6.10574716"><ele></ele><time>2015-7-3T20:35:2Z</time></trkpt>
<trkpt lat="46.21197366" lon="6.10583659"><ele></ele><time>2015-7-3T20:35:5Z</time></trkpt>
<trkpt lat="46.21195237" lon="6.10591882"><ele></ele><time>2015-7-3T20:35:8Z</time></trkpt>
<trkpt lat="46.21192656" lon="6.10600566"><ele></ele><time>2015-7-3T20:35:11Z</time></trkpt>
<trkpt lat="46.21190619" lon="6.10610087"><ele></ele><time>2015-7-3T20:35:14Z</time></trkpt>
<trkpt lat="46.21188079" lon="6.10619199"><ele></ele><time>2015-7-3T20:35:17Z</time></trkpt>
<trkpt lat="46.21185472" lon="6.10628343"><ele></ele><time>2015-7-3T20:35:20Z</time></trkpt>
<trkpt lat="46.21182363" lon="6.10637706"><ele></ele><time>2015-7-3T20:35:23Z</time></trkpt>
<trkpt lat="46.21178633" lon="6.10647395"><ele></ele><time>2015-7-3T20:35:26Z</time></trkpt>
<trkpt lat="46.21175858" lon="6.10656959"><ele></ele><time>2015-7-3T20:35:29Z</time></trkpt>
<trkpt lat="46.21174090" lon="6.10665995"><ele></ele><time>2015-7-3T20:35:32Z</time></trkpt>
<trkpt lat="46.21170519" lon="6.10674997"><ele></ele><time>2015-7-3T20:35:35Z</time></trkpt>
<trkpt lat="46.21167619" lon="6.10684343"><ele></ele><time>2015-7-3T20:35:38Z</time></trkpt>
<trkpt lat="46.21165129" lon="6.10694066"><ele></ele><time>2015-7-3T20:35:41Z</time></trkpt>
<trkpt lat="46.21162464" lon="6.10702079"><ele></ele><time>2015-7-3T20:35:44Z</time></trkpt>
<trkpt lat="46.21159488" lon="6.10711332"><ele></ele><time>2015-7-3T20:35:47Z</time></trkpt>
<trkpt lat="46.21159916" lon="6.10720645"><ele></ele><time>2015-7-3T20:35:50Z</time></trkpt>
<trkpt lat="46.21156965" lon="6.10729186"><ele></ele><time>2015-7-3T20:35:53Z</time></trkpt>
<trkpt lat="46.21151676" lon="6.10742739"><ele></ele><time>2015-7-3T20:35:56Z</time></trkpt>
<trkpt lat="46.21147477" lon="6.10751943"><ele></ele><time>2015-7-3T20:35:59Z</time></trkpt>
<trkpt lat="46.21142817" lon="6.10761096"><ele></ele><time>2015-7-3T20:36:2Z</time></trkpt>
<trkpt lat="46.21143320" lon="6.10765169"><ele></ele><time>2015-7-3T20:36:5Z</time></trkpt>
<trkpt lat="46.21136522" lon="6.10776979"><ele></ele><time>2015-7-3T20:36:8Z</time></trkpt>
<trkpt lat="46.21131895" lon="6.10784833"><ele></ele><time>2015-7-3T20:36:11Z</time></trkpt>
<trkpt lat="46.21126648" lon="6.10792184"><ele></ele><time>2015-7-3T20:36:14Z</time></trkpt>
<trkpt lat="46.21124159" lon="6.10800256"><ele></ele><time>2015-7-3T20:36:17Z</time></trkpt>
<trkpt lat="46.21120605" lon="6.10809200"><ele></ele><time>2015-7-3T20:36:20Z</time></trkpt>
<trkpt lat="46.21120018" lon="6.10817959"><ele></ele><time>2015-7-3T20:36:23Z</time></trkpt>
<trkpt lat="46.21118568" lon="6.10827246"><ele></ele><time>2015-7-3T20:36:26Z</time></trkpt>
<trkpt lat="46.21116112" lon="6.10836927"><ele></ele><time>2015-7-3T20:36:29Z</time></trkpt>
<trkpt lat="46.21114427" lon="6.10846516"><ele></ele><time>2015-7-3T20:36:32Z</time></trkpt>
<trkpt lat="46.21113237" lon="6.10855518"><ele></ele><time>2015-7-3T20:36:35Z</time></trkpt>
<trkpt lat="46.21113312" lon="6.10863263"><ele></ele><time>2015-7-3T20:36:38Z</time></trkpt>
<trkpt lat="46.21109960" lon="6.10868703"><ele></ele><time>2015-7-3T20:36:41Z</time></trkpt>
<trkpt lat="46.21104553" lon="6.10872223"><ele></ele><time>2015-7-3T20:36:44Z</time></trkpt>
<trkpt lat="46.21100077" lon="6.10871569"><ele></ele><time>2015-7-3T20:36:47Z</time></trkpt>
<trkpt lat="46.21093590" lon="6.10872039"><ele></ele><time>2015-7-3T20:36:50Z</time></trkpt>
<trkpt lat="46.21088183" lon="6.10872667"><ele></ele><time>2015-7-3T20:36:53Z</time></trkpt>
<trkpt lat="46.21081335" lon="6.10874956"><ele></ele><time>2015-7-3T20:36:56Z</time></trkpt>
<trkpt lat="46.21074228" lon="6.10878074"><ele></ele><time>2015-7-3T20:36:59Z</time></trkpt>
<trkpt lat="46.21066550" lon="6.10881175"><ele></ele><time>2015-7-3T20:37:2Z</time></trkpt>
<trkpt lat="46.21058218" lon="6.10884008"><ele></ele><time>2015-7-3T20:37:5Z</time></trkpt>
<trkpt lat="46.21050423" lon="6.10888216"><ele></ele><time>2015-7-3T20:37:8Z</time></trkpt>
<trkpt lat="46.21042795" lon="6.10891954"><ele></ele><time>2015-7-3T20:37:11Z</time></trkpt>
<trkpt lat="46.21034414" lon="6.10895818"><ele></ele><time>2015-7-3T20:37:14Z</time></trkpt>
<trkpt lat="46.21025177" lon="6.10896505"><ele></ele><time>2015-7-3T20:37:17Z</time></trkpt>
<trkpt lat="46.21016392" lon="6.10898257"><ele></ele><time>2015-7-3T20:37:20Z</time></trkpt>
<trkpt lat="46.21006317" lon="6.10898970"><ele></ele><time>2015-7-3T20:37:23Z</time></trkpt>
<trkpt lat="46.20998279" lon="6.10903613"><ele></ele><time>2015-7-3T20:37:26Z</time></trkpt>
<trkpt lat="46.20990568" lon="6.10907259"><ele></ele><time>2015-7-3T20:37:29Z</time></trkpt>
<trkpt lat="46.20984432" lon="6.10910126"><ele></ele><time>2015-7-3T20:37:32Z</time></trkpt>
<trkpt lat="46.20975606" lon="6.10913043"><ele></ele><time>2015-7-3T20:37:35Z</time></trkpt>
<trkpt lat="46.20967157" lon="6.10915356"><ele></ele><time>2015-7-3T20:37:38Z</time></trkpt>
<trkpt lat="46.20959429" lon="6.10917477"><ele></ele><time>2015-7-3T20:37:41Z</time></trkpt>
<trkpt lat="46.20951215" lon="6.10919572"><ele></ele><time>2015-7-3T20:37:44Z</time></trkpt>
<trkpt lat="46.20942984" lon="6.10921626"><ele></ele><time>2015-7-3T20:37:47Z</time></trkpt>
<trkpt lat="46.20934677" lon="6.10923294"><ele></ele><time>2015-7-3T20:37:50Z</time></trkpt>
<trkpt lat="46.20926295" lon="6.10925037"><ele></ele><time>2015-7-3T20:37:53Z</time></trkpt>
<trkpt lat="46.20917855" lon="6.10926823"><ele></ele><time>2015-7-3T20:37:56Z</time></trkpt>
<trkpt lat="46.20909289" lon="6.10928692"><ele></ele><time>2015-7-3T20:37:59Z</time></trkpt>
<trkpt lat="46.20900789" lon="6.10930243"><ele></ele><time>2015-7-3T20:38:2Z</time></trkpt>
<trkpt lat="46.20892374" lon="6.10931349"><ele></ele><time>2015-7-3T20:38:5Z</time></trkpt>
<trkpt lat="46.20884093" lon="6.10932757"><ele></ele><time>2015-7-3T20:38:8Z</time></trkpt>
<trkpt lat="46.20875803" lon="6.10934249"><ele></ele><time>2015-7-3T20:38:11Z</time></trkpt>
<trkpt lat="46.20867387" lon="6.10935909"><ele></ele><time>2015-7-3T20:38:14Z</time></trkpt>
<trkpt lat="46.20858955" lon="6.10937669"><ele></ele><time>2015-7-3T20:38:17Z</time></trkpt>
<trkpt lat="46.20850540" lon="6.10939706"><ele></ele><time>2015-7-3T20:38:20Z</time></trkpt>
<trkpt lat="46.20841554" lon="6.10941106"><ele></ele><time>2015-7-3T20:38:23Z</time></trkpt>
<trkpt lat="46.20833139" lon="6.10942614"><ele></ele><time>2015-7-3T20:38:26Z</time></trkpt>
<trkpt lat="46.20824807" lon="6.10944115"><ele></ele><time>2015-7-3T20:38:29Z</time></trkpt>
<trkpt lat="46.20816518" lon="6.10945917"><ele></ele><time>2015-7-3T20:38:32Z</time></trkpt>
<trkpt lat="46.20808337" lon="6.10947534"><ele></ele><time>2015-7-3T20:38:35Z</time></trkpt>
<trkpt lat="46.20800315" lon="6.10949135"><ele></ele><time>2015-7-3T20:38:38Z</time></trkpt>
<trkpt lat="46.20792160" lon="6.10950770"><ele></ele><time>2015-7-3T20:38:41Z</time></trkpt>
<trkpt lat="46.20783392" lon="6.10952170"><ele></ele><time>2015-7-3T20:38:44Z</time></trkpt>
<trkpt lat="46.20774776" lon="6.10953678"><ele></ele><time>2015-7-3T20:38:47Z</time></trkpt>
<trkpt lat="46.20766276" lon="6.10955246"><ele></ele><time>2015-7-3T20:38:50Z</time></trkpt>
<trkpt lat="46.20757828" lon="6.10956780"><ele></ele><time>2015-7-3T20:38:53Z</time></trkpt>
<trkpt lat="46.20749488" lon="6.10958213"><ele></ele><time>2015-7-3T20:38:56Z</time></trkpt>
<trkpt lat="46.20741416" lon="6.10959529"><ele></ele><time>2015-7-3T20:38:59Z</time></trkpt>
<trkpt lat="46.20733478" lon="6.10960795"><ele></ele><time>2015-7-3T20:39:2Z</time></trkpt>
<trkpt lat="46.20725624" lon="6.10962329"><ele></ele><time>2015-7-3T20:39:5Z</time></trkpt>
<trkpt lat="46.20717519" lon="6.10963879"><ele></ele><time>2015-7-3T20:39:8Z</time></trkpt>
<trkpt lat="46.20709447" lon="6.10965212"><ele></ele><time>2015-7-3T20:39:11Z</time></trkpt>
<trkpt lat="46.20701417" lon="6.10966243"><ele></ele><time>2015-7-3T20:39:14Z</time></trkpt>
<trkpt lat="46.20693178" lon="6.10966888"><ele></ele><time>2015-7-3T20:39:17Z</time></trkpt>
<trkpt lat="46.20685316" lon="6.10967902"><ele></ele><time>2015-7-3T20:39:20Z</time></trkpt>
<trkpt lat="46.20678032" lon="6.10969185"><ele></ele><time>2015-7-3T20:39:23Z</time></trkpt>
<trkpt lat="46.20670714" lon="6.10970618"><ele></ele><time>2015-7-3T20:39:26Z</time></trkpt>
<trkpt lat="46.20663372" lon="6.10972119"><ele></ele><time>2015-7-3T20:39:29Z</time></trkpt>
<trkpt lat="46.20655719" lon="6.10973510"><ele></ele><time>2015-7-3T20:39:32Z</time></trkpt>
<trkpt lat="46.20647924" lon="6.10974683"><ele></ele><time>2015-7-3T20:39:35Z</time></trkpt>
<trkpt lat="46.20640347" lon="6.10976008"><ele></ele><time>2015-7-3T20:39:38Z</time></trkpt>
<trkpt lat="46.20632879" lon="6.10976854"><ele></ele><time>2015-7-3T20:39:41Z</time></trkpt>
<trkpt lat="46.20625125" lon="6.10977022"><ele></ele><time>2015-7-3T20:39:44Z</time></trkpt>
<trkpt lat="46.20617556" lon="6.10977014"><ele></ele><time>2015-7-3T20:39:47Z</time></trkpt>
<trkpt lat="46.20610096" lon="6.10977525"><ele></ele><time>2015-7-3T20:39:50Z</time></trkpt>
<trkpt lat="46.20602762" lon="6.10978506"><ele></ele><time>2015-7-3T20:39:53Z</time></trkpt>
<trkpt lat="46.20595235" lon="6.10979847"><ele></ele><time>2015-7-3T20:39:56Z</time></trkpt>
<trkpt lat="46.20587767" lon="6.10981372"><ele></ele><time>2015-7-3T20:39:59Z</time></trkpt>
<trkpt lat="46.20580215" lon="6.10982940"><ele></ele><time>2015-7-3T20:40:2Z</time></trkpt>
<trkpt lat="46.20572856" lon="6.10984976"><ele></ele><time>2015-7-3T20:40:5Z</time></trkpt>
<trkpt lat="46.20565413" lon="6.10986586"><ele></ele><time>2015-7-3T20:40:8Z</time></trkpt>
<trkpt lat="46.20558020" lon="6.10987659"><ele></ele><time>2015-7-3T20:40:11Z</time></trkpt>
<trkpt lat="46.20550727" lon="6.10989000"><ele></ele><time>2015-7-3T20:40:14Z</time></trkpt>
<trkpt lat="46.20543469" lon="6.10990265"><ele></ele><time>2015-7-3T20:40:17Z</time></trkpt>
<trkpt lat="46.20536160" lon="6.10991330"><ele></ele><time>2015-7-3T20:40:20Z</time></trkpt>
<trkpt lat="46.20528792" lon="6.10992679"><ele></ele><time>2015-7-3T20:40:23Z</time></trkpt>
<trkpt lat="46.20521424" lon="6.10994146"><ele></ele><time>2015-7-3T20:40:26Z</time></trkpt>
<trkpt lat="46.20514199" lon="6.10995018"><ele></ele><time>2015-7-3T20:40:29Z</time></trkpt>
<trkpt lat="46.20507150" lon="6.10994917"><ele></ele><time>2015-7-3T20:40:32Z</time></trkpt>
<trkpt lat="46.20499992" lon="6.10995403"><ele></ele><time>2015-7-3T20:40:35Z</time></trkpt>
<trkpt lat="46.20493169" lon="6.10997935"><ele></ele><time>2015-7-3T20:40:38Z</time></trkpt>
<trkpt lat="46.20486849" lon="6.11001539"><ele></ele><time>2015-7-3T20:40:41Z</time></trkpt>
<trkpt lat="46.20479632" lon="6.11004615"><ele></ele><time>2015-7-3T20:40:44Z</time></trkpt>
<trkpt lat="46.20471577" lon="6.11006769"><ele></ele><time>2015-7-3T20:40:47Z</time></trkpt>
<trkpt lat="46.20463137" lon="6.11008169"><ele></ele><time>2015-7-3T20:40:50Z</time></trkpt>
<trkpt lat="46.20454788" lon="6.11009418"><ele></ele><time>2015-7-3T20:40:53Z</time></trkpt>
<trkpt lat="46.20447605" lon="6.11012142"><ele></ele><time>2015-7-3T20:40:56Z</time></trkpt>
<trkpt lat="46.20439793" lon="6.11015403"><ele></ele><time>2015-7-3T20:40:59Z</time></trkpt>
<trkpt lat="46.20431428" lon="6.11017842"><ele></ele><time>2015-7-3T20:41:2Z</time></trkpt>
<trkpt lat="46.20422836" lon="6.11019795"><ele></ele><time>2015-7-3T20:41:5Z</time></trkpt>
<trkpt lat="46.20414052" lon="6.11021798"><ele></ele><time>2015-7-3T20:41:8Z</time></trkpt>
<trkpt lat="46.20405058" lon="6.11023810"><ele></ele><time>2015-7-3T20:41:11Z</time></trkpt>
<trkpt lat="46.20395872" lon="6.11026173"><ele></ele><time>2015-7-3T20:41:14Z</time></trkpt>
<trkpt lat="46.20386618" lon="6.11027054"><ele></ele><time>2015-7-3T20:41:17Z</time></trkpt>
<trkpt lat="46.20376417" lon="6.11027925"><ele></ele><time>2015-7-3T20:41:20Z</time></trkpt>
<trkpt lat="46.20366368" lon="6.11028822"><ele></ele><time>2015-7-3T20:41:23Z</time></trkpt>
<trkpt lat="46.20356519" lon="6.11030088"><ele></ele><time>2015-7-3T20:41:26Z</time></trkpt>
<trkpt lat="46.20346779" lon="6.11031328"><ele></ele><time>2015-7-3T20:41:29Z</time></trkpt>
<trkpt lat="46.20337022" lon="6.11032728"><ele></ele><time>2015-7-3T20:41:32Z</time></trkpt>
<trkpt lat="46.20327392" lon="6.11034237"><ele></ele><time>2015-7-3T20:41:35Z</time></trkpt>
<trkpt lat="46.20317903" lon="6.11035746"><ele></ele><time>2015-7-3T20:41:38Z</time></trkpt>
<trkpt lat="46.20308507" lon="6.11037305"><ele></ele><time>2015-7-3T20:41:41Z</time></trkpt>
<trkpt lat="46.20299170" lon="6.11038847"><ele></ele><time>2015-7-3T20:41:44Z</time></trkpt>
<trkpt lat="46.20289824" lon="6.11040372"><ele></ele><time>2015-7-3T20:41:47Z</time></trkpt>
<trkpt lat="46.20280394" lon="6.11041906"><ele></ele><time>2015-7-3T20:41:50Z</time></trkpt>
<trkpt lat="46.20271065" lon="6.11043423"><ele></ele><time>2015-7-3T20:41:53Z</time></trkpt>
<trkpt lat="46.20261795" lon="6.11044966"><ele></ele><time>2015-7-3T20:41:56Z</time></trkpt>
<trkpt lat="46.20252516" lon="6.11046508"><ele></ele><time>2015-7-3T20:41:59Z</time></trkpt>
<trkpt lat="46.20243204" lon="6.11048084"><ele></ele><time>2015-7-3T20:42:2Z</time></trkpt>
<trkpt lat="46.20233900" lon="6.11049693"><ele></ele><time>2015-7-3T20:42:5Z</time></trkpt>
<trkpt lat="46.20224554" lon="6.11051302"><ele></ele><time>2015-7-3T20:42:8Z</time></trkpt>
<trkpt lat="46.20215175" lon="6.11052878"><ele></ele><time>2015-7-3T20:42:11Z</time></trkpt>
<trkpt lat="46.20205779" lon="6.11054454"><ele></ele><time>2015-7-3T20:42:14Z</time></trkpt>
<trkpt lat="46.20196408" lon="6.11056030"><ele></ele><time>2015-7-3T20:42:17Z</time></trkpt>
<trkpt lat="46.20187053" lon="6.11057547"><ele></ele><time>2015-7-3T20:42:20Z</time></trkpt>
<trkpt lat="46.20177750" lon="6.11059114"><ele></ele><time>2015-7-3T20:42:23Z</time></trkpt>
<trkpt lat="46.20168429" lon="6.11060724"><ele></ele><time>2015-7-3T20:42:26Z</time></trkpt>
<trkpt lat="46.20159167" lon="6.11062492"><ele></ele><time>2015-7-3T20:42:29Z</time></trkpt>
<trkpt lat="46.20149913" lon="6.11064244"><ele></ele><time>2015-7-3T20:42:32Z</time></trkpt>
<trkpt lat="46.20140643" lon="6.11065887"><ele></ele><time>2015-7-3T20:42:35Z</time></trkpt>
<trkpt lat="46.20131230" lon="6.11067588"><ele></ele><time>2015-7-3T20:42:38Z</time></trkpt>
<trkpt lat="46.20121633" lon="6.11069240"><ele></ele><time>2015-7-3T20:42:41Z</time></trkpt>
<trkpt lat="46.20111960" lon="6.11070815"><ele></ele><time>2015-7-3T20:42:44Z</time></trkpt>
<trkpt lat="46.20102203" lon="6.11072559"><ele></ele><time>2015-7-3T20:42:47Z</time></trkpt>
<trkpt lat="46.20092472" lon="6.11074269"><ele></ele><time>2015-7-3T20:42:50Z</time></trkpt>
<trkpt lat="46.20082732" lon="6.11075928"><ele></ele><time>2015-7-3T20:42:53Z</time></trkpt>
<trkpt lat="46.20072942" lon="6.11077605"><ele></ele><time>2015-7-3T20:42:56Z</time></trkpt>
<trkpt lat="46.20063169" lon="6.11079323"><ele></ele><time>2015-7-3T20:42:59Z</time></trkpt>
<trkpt lat="46.20053345" lon="6.11081033"><ele></ele><time>2015-7-3T20:43:2Z</time></trkpt>
<trkpt lat="46.20043513" lon="6.11082735"><ele></ele><time>2015-7-3T20:43:5Z</time></trkpt>
<trkpt lat="46.20033698" lon="6.11084428"><ele></ele><time>2015-7-3T20:43:8Z</time></trkpt>
<trkpt lat="46.20023916" lon="6.11086104"><ele></ele><time>2015-7-3T20:43:11Z</time></trkpt>
<trkpt lat="46.20014160" lon="6.11087822"><ele></ele><time>2015-7-3T20:43:14Z</time></trkpt>
<trkpt lat="46.20004445" lon="6.11089549"><ele></ele><time>2015-7-3T20:43:17Z</time></trkpt>
<trkpt lat="46.19994664" lon="6.11091242"><ele></ele><time>2015-7-3T20:43:20Z</time></trkpt>
<trkpt lat="46.19984790" lon="6.11092902"><ele></ele><time>2015-7-3T20:43:23Z</time></trkpt>
<trkpt lat="46.19974832" lon="6.11094570"><ele></ele><time>2015-7-3T20:43:26Z</time></trkpt>
<trkpt lat="46.19964832" lon="6.11096246"><ele></ele><time>2015-7-3T20:43:29Z</time></trkpt>
<trkpt lat="46.19954816" lon="6.11098048"><ele></ele><time>2015-7-3T20:43:32Z</time></trkpt>
<trkpt lat="46.19944699" lon="6.11099859"><ele></ele><time>2015-7-3T20:43:35Z</time></trkpt>
<trkpt lat="46.19934549" lon="6.11101585"><ele></ele><time>2015-7-3T20:43:38Z</time></trkpt>
<trkpt lat="46.19924423" lon="6.11103396"><ele></ele><time>2015-7-3T20:43:41Z</time></trkpt>
<trkpt lat="46.19914348" lon="6.11105173"><ele></ele><time>2015-7-3T20:43:44Z</time></trkpt>
<trkpt lat="46.19904307" lon="6.11106824"><ele></ele><time>2015-7-3T20:43:47Z</time></trkpt>
<trkpt lat="46.19894408" lon="6.11108475"><ele></ele><time>2015-7-3T20:43:50Z</time></trkpt>
<trkpt lat="46.19884618" lon="6.11110336"><ele></ele><time>2015-7-3T20:43:53Z</time></trkpt>
<trkpt lat="46.19874903" lon="6.11112147"><ele></ele><time>2015-7-3T20:43:56Z</time></trkpt>
<trkpt lat="46.19865448" lon="6.11113882"><ele></ele><time>2015-7-3T20:43:59Z</time></trkpt>
<trkpt lat="46.19856278" lon="6.11115684"><ele></ele><time>2015-7-3T20:44:2Z</time></trkpt>
<trkpt lat="46.19847310" lon="6.11117419"><ele></ele><time>2015-7-3T20:44:5Z</time></trkpt>
<trkpt lat="46.19838375" lon="6.11119095"><ele></ele><time>2015-7-3T20:44:8Z</time></trkpt>
<trkpt lat="46.19829498" lon="6.11120897"><ele></ele><time>2015-7-3T20:44:11Z</time></trkpt>
<trkpt lat="46.19820672" lon="6.11122440"><ele></ele><time>2015-7-3T20:44:14Z</time></trkpt>
<trkpt lat="46.19811838" lon="6.11124133"><ele></ele><time>2015-7-3T20:44:17Z</time></trkpt>
<trkpt lat="46.19803179" lon="6.11125507"><ele></ele><time>2015-7-3T20:44:20Z</time></trkpt>
<trkpt lat="46.19794504" lon="6.11127133"><ele></ele><time>2015-7-3T20:44:23Z</time></trkpt>
<trkpt lat="46.19785896" lon="6.11128785"><ele></ele><time>2015-7-3T20:44:26Z</time></trkpt>
<trkpt lat="46.19777413" lon="6.11130327"><ele></ele><time>2015-7-3T20:44:29Z</time></trkpt>
<trkpt lat="46.19768989" lon="6.11132003"><ele></ele><time>2015-7-3T20:44:32Z</time></trkpt>
<trkpt lat="46.19760700" lon="6.11133839"><ele></ele><time>2015-7-3T20:44:35Z</time></trkpt>
<trkpt lat="46.19752016" lon="6.11135817"><ele></ele><time>2015-7-3T20:44:38Z</time></trkpt>
<trkpt lat="46.19743642" lon="6.11138214"><ele></ele><time>2015-7-3T20:44:41Z</time></trkpt>
<trkpt lat="46.19735445" lon="6.11141098"><ele></ele><time>2015-7-3T20:44:44Z</time></trkpt>
<trkpt lat="46.19727264" lon="6.11144166"><ele></ele><time>2015-7-3T20:44:47Z</time></trkpt>
<trkpt lat="46.19719092" lon="6.11147694"><ele></ele><time>2015-7-3T20:44:50Z</time></trkpt>
<trkpt lat="46.19710458" lon="6.11151952"><ele></ele><time>2015-7-3T20:44:53Z</time></trkpt>
<trkpt lat="46.19701523" lon="6.11156537"><ele></ele><time>2015-7-3T20:44:56Z</time></trkpt>
<trkpt lat="46.19692613" lon="6.11161617"><ele></ele><time>2015-7-3T20:44:59Z</time></trkpt>
<trkpt lat="46.19683653" lon="6.11167266"><ele></ele><time>2015-7-3T20:45:2Z</time></trkpt>
<trkpt lat="46.19674777" lon="6.11173058"><ele></ele><time>2015-7-3T20:45:5Z</time></trkpt>
<trkpt lat="46.19665892" lon="6.11178657"><ele></ele><time>2015-7-3T20:45:8Z</time></trkpt>
<trkpt lat="46.19657066" lon="6.11184072"><ele></ele><time>2015-7-3T20:45:11Z</time></trkpt>
<trkpt lat="46.19648466" lon="6.11189176"><ele></ele><time>2015-7-3T20:45:14Z</time></trkpt>
<trkpt lat="46.19639992" lon="6.11195597"><ele></ele><time>2015-7-3T20:45:17Z</time></trkpt>
<trkpt lat="46.19630428" lon="6.11202286"><ele></ele><time>2015-7-3T20:45:20Z</time></trkpt>
<trkpt lat="46.19621283" lon="6.11205756"><ele></ele><time>2015-7-3T20:45:23Z</time></trkpt>
<trkpt lat="46.19612667" lon="6.11208262"><ele></ele><time>2015-7-3T20:45:26Z</time></trkpt>
<trkpt lat="46.19604276" lon="6.11210668"><ele></ele><time>2015-7-3T20:45:29Z</time></trkpt>
<trkpt lat="46.19594763" lon="6.11211983"><ele></ele><time>2015-7-3T20:45:32Z</time></trkpt>
<trkpt lat="46.19586867" lon="6.11213819"><ele></ele><time>2015-7-3T20:45:35Z</time></trkpt>
<trkpt lat="46.19579567" lon="6.11214096"><ele></ele><time>2015-7-3T20:45:38Z</time></trkpt>
<trkpt lat="46.19571813" lon="6.11215026"><ele></ele><time>2015-7-3T20:45:41Z</time></trkpt>
<trkpt lat="46.19564177" lon="6.11215236"><ele></ele><time>2015-7-3T20:45:44Z</time></trkpt>
<trkpt lat="46.19556810" lon="6.11215353"><ele></ele><time>2015-7-3T20:45:47Z</time></trkpt>
<trkpt lat="46.19549316" lon="6.11215923"><ele></ele><time>2015-7-3T20:45:50Z</time></trkpt>
<trkpt lat="46.19541982" lon="6.11216233"><ele></ele><time>2015-7-3T20:45:53Z</time></trkpt>
<trkpt lat="46.19534707" lon="6.11216309"><ele></ele><time>2015-7-3T20:45:56Z</time></trkpt>
<trkpt lat="46.19527465" lon="6.11216275"><ele></ele><time>2015-7-3T20:45:59Z</time></trkpt>
<trkpt lat="46.19520332" lon="6.11216057"><ele></ele><time>2015-7-3T20:46:2Z</time></trkpt>
<trkpt lat="46.19513207" lon="6.11215957"><ele></ele><time>2015-7-3T20:46:5Z</time></trkpt>
<trkpt lat="46.19506108" lon="6.11215898"><ele></ele><time>2015-7-3T20:46:8Z</time></trkpt>
<trkpt lat="46.19499134" lon="6.11215043"><ele></ele><time>2015-7-3T20:46:11Z</time></trkpt>
<trkpt lat="46.19492814" lon="6.11211564"><ele></ele><time>2015-7-3T20:46:14Z</time></trkpt>
<trkpt lat="46.19487994" lon="6.11201850"><ele></ele><time>2015-7-3T20:46:17Z</time></trkpt>
<trkpt lat="46.19483493" lon="6.11196376"><ele></ele><time>2015-7-3T20:46:20Z</time></trkpt>
<trkpt lat="46.19481180" lon="6.11187508"><ele></ele><time>2015-7-3T20:46:23Z</time></trkpt>
<trkpt lat="46.19480778" lon="6.11177894"><ele></ele><time>2015-7-3T20:46:26Z</time></trkpt>
<trkpt lat="46.19480509" lon="6.11168423"><ele></ele><time>2015-7-3T20:46:29Z</time></trkpt>
<trkpt lat="46.19480149" lon="6.11158616"><ele></ele><time>2015-7-3T20:46:32Z</time></trkpt>
<trkpt lat="46.19482504" lon="6.11148583"><ele></ele><time>2015-7-3T20:46:35Z</time></trkpt>
<trkpt lat="46.19483124" lon="6.11138617"><ele></ele><time>2015-7-3T20:46:38Z</time></trkpt>
<trkpt lat="46.19483108" lon="6.11128743"><ele></ele><time>2015-7-3T20:46:41Z</time></trkpt>
<trkpt lat="46.19481674" lon="6.11118768"><ele></ele><time>2015-7-3T20:46:44Z</time></trkpt>
<trkpt lat="46.19481096" lon="6.11108769"><ele></ele><time>2015-7-3T20:46:47Z</time></trkpt>
<trkpt lat="46.19482244" lon="6.11099155"><ele></ele><time>2015-7-3T20:46:50Z</time></trkpt>
<trkpt lat="46.19484214" lon="6.11088786"><ele></ele><time>2015-7-3T20:46:53Z</time></trkpt>
<trkpt lat="46.19484348" lon="6.11078317"><ele></ele><time>2015-7-3T20:46:56Z</time></trkpt>
<trkpt lat="46.19482705" lon="6.11068133"><ele></ele><time>2015-7-3T20:46:59Z</time></trkpt>
<trkpt lat="46.19480769" lon="6.11058502"><ele></ele><time>2015-7-3T20:47:2Z</time></trkpt>
<trkpt lat="46.19478908" lon="6.11049324"><ele></ele><time>2015-7-3T20:47:5Z</time></trkpt>
<trkpt lat="46.19477592" lon="6.11040666"><ele></ele><time>2015-7-3T20:47:8Z</time></trkpt>
<trkpt lat="46.19474374" lon="6.11033524"><ele></ele><time>2015-7-3T20:47:11Z</time></trkpt>
<trkpt lat="46.19472069" lon="6.11024807"><ele></ele><time>2015-7-3T20:47:14Z</time></trkpt>
<trkpt lat="46.19470635" lon="6.11013542"><ele></ele><time>2015-7-3T20:47:17Z</time></trkpt>
<trkpt lat="46.19468724" lon="6.11008069"><ele></ele><time>2015-7-3T20:47:20Z</time></trkpt>
<trkpt lat="46.19466973" lon="6.11001539"><ele></ele><time>2015-7-3T20:47:23Z</time></trkpt>
<trkpt lat="46.19465447" lon="6.10995856"><ele></ele><time>2015-7-3T20:47:26Z</time></trkpt>
<trkpt lat="46.19464265" lon="6.10991539"><ele></ele><time>2015-7-3T20:47:29Z</time></trkpt>
<trkpt lat="46.19462832" lon="6.10987013"><ele></ele><time>2015-7-3T20:47:32Z</time></trkpt>
<trkpt lat="46.19461415" lon="6.10982370"><ele></ele><time>2015-7-3T20:47:35Z</time></trkpt>
<trkpt lat="46.19460116" lon="6.10977449"><ele></ele><time>2015-7-3T20:47:38Z</time></trkpt>
<trkpt lat="46.19459135" lon="6.10972814"><ele></ele><time>2015-7-3T20:47:41Z</time></trkpt>
<trkpt lat="46.19458138" lon="6.10968506"><ele></ele><time>2015-7-3T20:47:44Z</time></trkpt>
<trkpt lat="46.19457040" lon="6.10964105"><ele></ele><time>2015-7-3T20:47:47Z</time></trkpt>
<trkpt lat="46.19455313" lon="6.10959303"><ele></ele><time>2015-7-3T20:47:50Z</time></trkpt>
<trkpt lat="46.19453603" lon="6.10954902"><ele></ele><time>2015-7-3T20:47:53Z</time></trkpt>
<trkpt lat="46.19452304" lon="6.10950745"><ele></ele><time>2015-7-3T20:47:56Z</time></trkpt>
<trkpt lat="46.19451307" lon="6.10946512"><ele></ele><time>2015-7-3T20:47:59Z</time></trkpt>
<trkpt lat="46.19449873" lon="6.10942438"><ele></ele><time>2015-7-3T20:48:2Z</time></trkpt>
<trkpt lat="46.19448398" lon="6.10937853"><ele></ele><time>2015-7-3T20:48:5Z</time></trkpt>
<trkpt lat="46.19446638" lon="6.10933436"><ele></ele><time>2015-7-3T20:48:8Z</time></trkpt>
<trkpt lat="46.19445037" lon="6.10929262"><ele></ele><time>2015-7-3T20:48:11Z</time></trkpt>
<trkpt lat="46.19443428" lon="6.10924618"><ele></ele><time>2015-7-3T20:48:14Z</time></trkpt>
<trkpt lat="46.19441936" lon="6.10919824"><ele></ele><time>2015-7-3T20:48:17Z</time></trkpt>
<trkpt lat="46.19440796" lon="6.10915172"><ele></ele><time>2015-7-3T20:48:20Z</time></trkpt>
<trkpt lat="46.19439036" lon="6.10909900"><ele></ele><time>2015-7-3T20:48:23Z</time></trkpt>
<trkpt lat="46.19436353" lon="6.10904058"><ele></ele><time>2015-7-3T20:48:26Z</time></trkpt>
<trkpt lat="46.19433160" lon="6.10897545"><ele></ele><time>2015-7-3T20:48:29Z</time></trkpt>
<trkpt lat="46.19429665" lon="6.10891485"><ele></ele><time>2015-7-3T20:48:32Z</time></trkpt>
<trkpt lat="46.19426019" lon="6.10884695"><ele></ele><time>2015-7-3T20:48:35Z</time></trkpt>
<trkpt lat="46.19422574" lon="6.10877269"><ele></ele><time>2015-7-3T20:48:38Z</time></trkpt>
<trkpt lat="46.19419598" lon="6.10869558"><ele></ele><time>2015-7-3T20:48:41Z</time></trkpt>
<trkpt lat="46.19416639" lon="6.10861829"><ele></ele><time>2015-7-3T20:48:44Z</time></trkpt>
<trkpt lat="46.19413789" lon="6.10853934"><ele></ele><time>2015-7-3T20:48:47Z</time></trkpt>
<trkpt lat="46.19410990" lon="6.10845678"><ele></ele><time>2015-7-3T20:48:50Z</time></trkpt>
<trkpt lat="46.19409850" lon="6.10832267"><ele></ele><time>2015-7-3T20:48:53Z</time></trkpt>
<trkpt lat="46.19404988" lon="6.10822946"><ele></ele><time>2015-7-3T20:48:56Z</time></trkpt>
<trkpt lat="46.19398962" lon="6.10815343"><ele></ele><time>2015-7-3T20:48:59Z</time></trkpt>
<trkpt lat="46.19394167" lon="6.10806995"><ele></ele><time>2015-7-3T20:49:2Z</time></trkpt>
<trkpt lat="46.19391569" lon="6.10793802"><ele></ele><time>2015-7-3T20:49:5Z</time></trkpt>
<trkpt lat="46.19388233" lon="6.10783643"><ele></ele><time>2015-7-3T20:49:8Z</time></trkpt>
<trkpt lat="46.19384956" lon="6.10772730"><ele></ele><time>2015-7-3T20:49:11Z</time></trkpt>
<trkpt lat="46.19379147" lon="6.10763962"><ele></ele><time>2015-7-3T20:49:14Z</time></trkpt>
<trkpt lat="46.19374135" lon="6.10754499"><ele></ele><time>2015-7-3T20:49:17Z</time></trkpt>
<trkpt lat="46.19369617" lon="6.10743779"><ele></ele><time>2015-7-3T20:49:20Z</time></trkpt>
<trkpt lat="46.19366239" lon="6.10733695"><ele></ele><time>2015-7-3T20:49:23Z</time></trkpt>
<trkpt lat="46.19365149" lon="6.10719346"><ele></ele><time>2015-7-3T20:49:26Z</time></trkpt>
<trkpt lat="46.19362299" lon="6.10713076"><ele></ele><time>2015-7-3T20:49:29Z</time></trkpt>
<trkpt lat="46.19359709" lon="6.10705976"><ele></ele><time>2015-7-3T20:49:32Z</time></trkpt>
<trkpt lat="46.19357077" lon="6.10699506"><ele></ele><time>2015-7-3T20:49:35Z</time></trkpt>
<trkpt lat="46.19355116" lon="6.10692943"><ele></ele><time>2015-7-3T20:49:38Z</time></trkpt>
<trkpt lat="46.19352023" lon="6.10685969"><ele></ele><time>2015-7-3T20:49:41Z</time></trkpt>
<trkpt lat="46.19349483" lon="6.10678618"><ele></ele><time>2015-7-3T20:49:44Z</time></trkpt>
<trkpt lat="46.19346164" lon="6.10670932"><ele></ele><time>2015-7-3T20:49:47Z</time></trkpt>
<trkpt lat="46.19340942" lon="6.10663740"><ele></ele><time>2015-7-3T20:49:50Z</time></trkpt>
<trkpt lat="46.19336667" lon="6.10655383"><ele></ele><time>2015-7-3T20:49:53Z</time></trkpt>
<trkpt lat="46.19331638" lon="6.10645669"><ele></ele><time>2015-7-3T20:49:56Z</time></trkpt>
<trkpt lat="46.19326768" lon="6.10634378"><ele></ele><time>2015-7-3T20:49:59Z</time></trkpt>
<trkpt lat="46.19322980" lon="6.10621923"><ele></ele><time>2015-7-3T20:50:2Z</time></trkpt>
<trkpt lat="46.19318068" lon="6.10610196"><ele></ele><time>2015-7-3T20:50:5Z</time></trkpt>
<trkpt lat="46.19313198" lon="6.10598110"><ele></ele><time>2015-7-3T20:50:8Z</time></trkpt>
<trkpt lat="46.19308756" lon="6.10585780"><ele></ele><time>2015-7-3T20:50:11Z</time></trkpt>
<trkpt lat="46.19304473" lon="6.10573182"><ele></ele><time>2015-7-3T20:50:14Z</time></trkpt>
<trkpt lat="46.19300399" lon="6.10560207"><ele></ele><time>2015-7-3T20:50:17Z</time></trkpt>
<trkpt lat="46.19295915" lon="6.10547584"><ele></ele><time>2015-7-3T20:50:20Z</time></trkpt>
<trkpt lat="46.19290743" lon="6.10536008"><ele></ele><time>2015-7-3T20:50:23Z</time></trkpt>
<trkpt lat="46.19286225" lon="6.10524198"><ele></ele><time>2015-7-3T20:50:26Z</time></trkpt>
<trkpt lat="46.19282956" lon="6.10510988"><ele></ele><time>2015-7-3T20:50:29Z</time></trkpt>
<trkpt lat="46.19277089" lon="6.10499228"><ele></ele><time>2015-7-3T20:50:32Z</time></trkpt>
<trkpt lat="46.19273359" lon="6.10485675"><ele></ele><time>2015-7-3T20:50:35Z</time></trkpt>
<trkpt lat="46.19269864" lon="6.10472515"><ele></ele><time>2015-7-3T20:50:38Z</time></trkpt>
<trkpt lat="46.19267425" lon="6.10459012"><ele></ele><time>2015-7-3T20:50:41Z</time></trkpt>
<trkpt lat="46.19261608" lon="6.10449105"><ele></ele><time>2015-7-3T20:50:44Z</time></trkpt>
<trkpt lat="46.19257995" lon="6.10438242"><ele></ele><time>2015-7-3T20:50:47Z</time></trkpt>
<trkpt lat="46.19252882" lon="6.10427203"><ele></ele><time>2015-7-3T20:50:50Z</time></trkpt>
<trkpt lat="46.19249328" lon="6.10414957"><ele></ele><time>2015-7-3T20:50:53Z</time></trkpt>
<trkpt lat="46.19244634" lon="6.10402510"><ele></ele><time>2015-7-3T20:50:56Z</time></trkpt>
<trkpt lat="46.19239178" lon="6.10390926"><ele></ele><time>2015-7-3T20:50:59Z</time></trkpt>
<trkpt lat="46.19234283" lon="6.10378202"><ele></ele><time>2015-7-3T20:51:2Z</time></trkpt>
<trkpt lat="46.19229455" lon="6.10365646"><ele></ele><time>2015-7-3T20:51:5Z</time></trkpt>
<trkpt lat="46.19225306" lon="6.10352009"><ele></ele><time>2015-7-3T20:51:8Z</time></trkpt>
<trkpt lat="46.19221475" lon="6.10338757"><ele></ele><time>2015-7-3T20:51:11Z</time></trkpt>
<trkpt lat="46.19217443" lon="6.10326737"><ele></ele><time>2015-7-3T20:51:14Z</time></trkpt>
<trkpt lat="46.19212716" lon="6.10314516"><ele></ele><time>2015-7-3T20:51:17Z</time></trkpt>
<trkpt lat="46.19208156" lon="6.10302354"><ele></ele><time>2015-7-3T20:51:20Z</time></trkpt>
<trkpt lat="46.19203915" lon="6.10290234"><ele></ele><time>2015-7-3T20:51:23Z</time></trkpt>
<trkpt lat="46.19199263" lon="6.10278684"><ele></ele><time>2015-7-3T20:51:26Z</time></trkpt>
<trkpt lat="46.19195005" lon="6.10267083"><ele></ele><time>2015-7-3T20:51:29Z</time></trkpt>
<trkpt lat="46.19190554" lon="6.10256069"><ele></ele><time>2015-7-3T20:51:32Z</time></trkpt>
<trkpt lat="46.19186967" lon="6.10244787"><ele></ele><time>2015-7-3T20:51:35Z</time></trkpt>
<trkpt lat="46.19183522" lon="6.10234000"><ele></ele><time>2015-7-3T20:51:38Z</time></trkpt>
<trkpt lat="46.19179658" lon="6.10222525"><ele></ele><time>2015-7-3T20:51:41Z</time></trkpt>
<trkpt lat="46.19174335" lon="6.10209365"><ele></ele><time>2015-7-3T20:51:44Z</time></trkpt>
<trkpt lat="46.19169105" lon="6.10195988"><ele></ele><time>2015-7-3T20:51:47Z</time></trkpt>
<trkpt lat="46.19162357" lon="6.10187556"><ele></ele><time>2015-7-3T20:51:50Z</time></trkpt>
<trkpt lat="46.19161209" lon="6.10171337"><ele></ele><time>2015-7-3T20:51:53Z</time></trkpt>
<trkpt lat="46.19158049" lon="6.10160314"><ele></ele><time>2015-7-3T20:51:56Z</time></trkpt>
<trkpt lat="46.19156775" lon="6.10151262"><ele></ele><time>2015-7-3T20:51:59Z</time></trkpt>
<trkpt lat="46.19154688" lon="6.10140734"><ele></ele><time>2015-7-3T20:52:2Z</time></trkpt>
<trkpt lat="46.19151746" lon="6.10126896"><ele></ele><time>2015-7-3T20:52:5Z</time></trkpt>
<trkpt lat="46.19146826" lon="6.10114818"><ele></ele><time>2015-7-3T20:52:8Z</time></trkpt>
<trkpt lat="46.19142073" lon="6.10103225"><ele></ele><time>2015-7-3T20:52:11Z</time></trkpt>
<trkpt lat="46.19137446" lon="6.10091298"><ele></ele><time>2015-7-3T20:52:14Z</time></trkpt>
<trkpt lat="46.19133188" lon="6.10079655"><ele></ele><time>2015-7-3T20:52:17Z</time></trkpt>
<trkpt lat="46.19129618" lon="6.10067879"><ele></ele><time>2015-7-3T20:52:20Z</time></trkpt>
<trkpt lat="46.19127187" lon="6.10055465"><ele></ele><time>2015-7-3T20:52:23Z</time></trkpt>
<trkpt lat="46.19124823" lon="6.10043689"><ele></ele><time>2015-7-3T20:52:26Z</time></trkpt>
<trkpt lat="46.19122233" lon="6.10032935"><ele></ele><time>2015-7-3T20:52:29Z</time></trkpt>
<trkpt lat="46.19119333" lon="6.10022399"><ele></ele><time>2015-7-3T20:52:32Z</time></trkpt>
<trkpt lat="46.19114053" lon="6.10008677"><ele></ele><time>2015-7-3T20:52:35Z</time></trkpt>
<trkpt lat="46.19109518" lon="6.09995627"><ele></ele><time>2015-7-3T20:52:38Z</time></trkpt>
<trkpt lat="46.19104522" lon="6.09983129"><ele></ele><time>2015-7-3T20:52:41Z</time></trkpt>
<trkpt lat="46.19099225" lon="6.09969048"><ele></ele><time>2015-7-3T20:52:44Z</time></trkpt>
<trkpt lat="46.19093475" lon="6.09957816"><ele></ele><time>2015-7-3T20:52:47Z</time></trkpt>
<trkpt lat="46.19088689" lon="6.09946953"><ele></ele><time>2015-7-3T20:52:50Z</time></trkpt>
<trkpt lat="46.19084305" lon="6.09935503"><ele></ele><time>2015-7-3T20:52:53Z</time></trkpt>
<trkpt lat="46.19080533" lon="6.09924213"><ele></ele><time>2015-7-3T20:52:56Z</time></trkpt>
<trkpt lat="46.19077013" lon="6.09913342"><ele></ele><time>2015-7-3T20:52:59Z</time></trkpt>
<trkpt lat="46.19073107" lon="6.09902496"><ele></ele><time>2015-7-3T20:53:2Z</time></trkpt>
<trkpt lat="46.19069478" lon="6.09892496"><ele></ele><time>2015-7-3T20:53:5Z</time></trkpt>
<trkpt lat="46.19066879" lon="6.09882714"><ele></ele><time>2015-7-3T20:53:8Z</time></trkpt>
<trkpt lat="46.19064029" lon="6.09874433"><ele></ele><time>2015-7-3T20:53:11Z</time></trkpt>
<trkpt lat="46.19060316" lon="6.09867116"><ele></ele><time>2015-7-3T20:53:14Z</time></trkpt>
<trkpt lat="46.19057014" lon="6.09860410"><ele></ele><time>2015-7-3T20:53:17Z</time></trkpt>
<trkpt lat="46.19054432" lon="6.09855356"><ele></ele><time>2015-7-3T20:53:20Z</time></trkpt>
<trkpt lat="46.19052328" lon="6.09851207"><ele></ele><time>2015-7-3T20:53:23Z</time></trkpt>
<trkpt lat="46.19051155" lon="6.09847317"><ele></ele><time>2015-7-3T20:53:26Z</time></trkpt>
<trkpt lat="46.19051876" lon="6.09843889"><ele></ele><time>2015-7-3T20:53:29Z</time></trkpt>
<trkpt lat="46.19052026" lon="6.09841920"><ele></ele><time>2015-7-3T20:53:32Z</time></trkpt>
<trkpt lat="46.19051498" lon="6.09841282"><ele></ele><time>2015-7-3T20:53:35Z</time></trkpt>
<trkpt lat="46.19051322" lon="6.09841073"><ele></ele><time>2015-7-3T20:53:38Z</time></trkpt>
<trkpt lat="46.19052412" lon="6.09839874"><ele></ele><time>2015-7-3T20:53:41Z</time></trkpt>
<trkpt lat="46.19052982" lon="6.09837762"><ele></ele><time>2015-7-3T20:53:44Z</time></trkpt>
<trkpt lat="46.19052479" lon="6.09836295"><ele></ele><time>2015-7-3T20:53:47Z</time></trkpt>
<trkpt lat="46.19051255" lon="6.09834996"><ele></ele><time>2015-7-3T20:53:50Z</time></trkpt>
<trkpt lat="46.19049529" lon="6.09832993"><ele></ele><time>2015-7-3T20:53:53Z</time></trkpt>
<trkpt lat="46.19047274" lon="6.09829774"><ele></ele><time>2015-7-3T20:53:56Z</time></trkpt>
<trkpt lat="46.19044902" lon="6.09826312"><ele></ele><time>2015-7-3T20:53:59Z</time></trkpt>
<trkpt lat="46.19042186" lon="6.09822532"><ele></ele><time>2015-7-3T20:54:2Z</time></trkpt>
<trkpt lat="46.19039345" lon="6.09818509"><ele></ele><time>2015-7-3T20:54:5Z</time></trkpt>
<trkpt lat="46.19037006" lon="6.09814812"><ele></ele><time>2015-7-3T20:54:8Z</time></trkpt>
<trkpt lat="46.19035263" lon="6.09811854"><ele></ele><time>2015-7-3T20:54:11Z</time></trkpt>
<trkpt lat="46.19031373" lon="6.09808199"><ele></ele><time>2015-7-3T20:54:14Z</time></trkpt>
<trkpt lat="46.19031097" lon="6.09805215"><ele></ele><time>2015-7-3T20:54:17Z</time></trkpt>
<trkpt lat="46.19028180" lon="6.09802240"><ele></ele><time>2015-7-3T20:54:20Z</time></trkpt>
<trkpt lat="46.19024777" lon="6.09799289"><ele></ele><time>2015-7-3T20:54:23Z</time></trkpt>
<trkpt lat="46.19022908" lon="6.09796573"><ele></ele><time>2015-7-3T20:54:26Z</time></trkpt>
<trkpt lat="46.19020217" lon="6.09793137"><ele></ele><time>2015-7-3T20:54:29Z</time></trkpt>
<trkpt lat="46.19017007" lon="6.09789843"><ele></ele><time>2015-7-3T20:54:32Z</time></trkpt>
<trkpt lat="46.19014232" lon="6.09786825"><ele></ele><time>2015-7-3T20:54:35Z</time></trkpt>
<trkpt lat="46.19012028" lon="6.09784545"><ele></ele><time>2015-7-3T20:54:38Z</time></trkpt>
<trkpt lat="46.19007267" lon="6.09780807"><ele></ele><time>2015-7-3T20:54:41Z</time></trkpt>
<trkpt lat="46.19002850" lon="6.09777605"><ele></ele><time>2015-7-3T20:54:44Z</time></trkpt>
<trkpt lat="46.18996915" lon="6.09774965"><ele></ele><time>2015-7-3T20:54:47Z</time></trkpt>
<trkpt lat="46.18992146" lon="6.09773079"><ele></ele><time>2015-7-3T20:54:50Z</time></trkpt>
<trkpt lat="46.18987804" lon="6.09772006"><ele></ele><time>2015-7-3T20:54:53Z</time></trkpt>
<trkpt lat="46.18985172" lon="6.09770439"><ele></ele><time>2015-7-3T20:54:56Z</time></trkpt>
<trkpt lat="46.18981828" lon="6.09767186"><ele></ele><time>2015-7-3T20:54:59Z</time></trkpt>
<trkpt lat="46.18979062" lon="6.09763297"><ele></ele><time>2015-7-3T20:55:2Z</time></trkpt>
<trkpt lat="46.18976438" lon="6.09757924"><ele></ele><time>2015-7-3T20:55:5Z</time></trkpt>
<trkpt lat="46.18973387" lon="6.09751998"><ele></ele><time>2015-7-3T20:55:8Z</time></trkpt>
<trkpt lat="46.18970957" lon="6.09746098"><ele></ele><time>2015-7-3T20:55:11Z</time></trkpt>
<trkpt lat="46.18968325" lon="6.09739677"><ele></ele><time>2015-7-3T20:55:14Z</time></trkpt>
<trkpt lat="46.18965274" lon="6.09733567"><ele></ele><time>2015-7-3T20:55:17Z</time></trkpt>
<trkpt lat="46.18962097" lon="6.09728655"><ele></ele><time>2015-7-3T20:55:20Z</time></trkpt>
<trkpt lat="46.18959616" lon="6.09724020"><ele></ele><time>2015-7-3T20:55:23Z</time></trkpt>
<trkpt lat="46.18956925" lon="6.09717918"><ele></ele><time>2015-7-3T20:55:26Z</time></trkpt>
<trkpt lat="46.18955785" lon="6.09711036"><ele></ele><time>2015-7-3T20:55:29Z</time></trkpt>
<trkpt lat="46.18954754" lon="6.09702872"><ele></ele><time>2015-7-3T20:55:32Z</time></trkpt>
<trkpt lat="46.18955660" lon="6.09695127"><ele></ele><time>2015-7-3T20:55:35Z</time></trkpt>
<trkpt lat="46.18956707" lon="6.09687634"><ele></ele><time>2015-7-3T20:55:38Z</time></trkpt>
<trkpt lat="46.18957386" lon="6.09680442"><ele></ele><time>2015-7-3T20:55:41Z</time></trkpt>
<trkpt lat="46.18957604" lon="6.09672664"><ele></ele><time>2015-7-3T20:55:44Z</time></trkpt>
<trkpt lat="46.18958769" lon="6.09665573"><ele></ele><time>2015-7-3T20:55:47Z</time></trkpt>
<trkpt lat="46.18959314" lon="6.09657979"><ele></ele><time>2015-7-3T20:55:50Z</time></trkpt>
<trkpt lat="46.18959633" lon="6.09650527"><ele></ele><time>2015-7-3T20:55:53Z</time></trkpt>
<trkpt lat="46.18960546" lon="6.09643453"><ele></ele><time>2015-7-3T20:55:56Z</time></trkpt>
<trkpt lat="46.18961787" lon="6.09636378"><ele></ele><time>2015-7-3T20:55:59Z</time></trkpt>
<trkpt lat="46.18962516" lon="6.09629153"><ele></ele><time>2015-7-3T20:56:2Z</time></trkpt>
<trkpt lat="46.18963815" lon="6.09621987"><ele></ele><time>2015-7-3T20:56:5Z</time></trkpt>
<trkpt lat="46.18964855" lon="6.09614845"><ele></ele><time>2015-7-3T20:56:8Z</time></trkpt>
<trkpt lat="46.18965978" lon="6.09608643"><ele></ele><time>2015-7-3T20:56:11Z</time></trkpt>
<trkpt lat="46.18966422" lon="6.09602105"><ele></ele><time>2015-7-3T20:56:14Z</time></trkpt>
<trkpt lat="46.18967026" lon="6.09596204"><ele></ele><time>2015-7-3T20:56:17Z</time></trkpt>
<trkpt lat="46.18965399" lon="6.09590278"><ele></ele><time>2015-7-3T20:56:20Z</time></trkpt>
<trkpt lat="46.18964452" lon="6.09586565"><ele></ele><time>2015-7-3T20:56:23Z</time></trkpt>
<trkpt lat="46.18963899" lon="6.09583799"><ele></ele><time>2015-7-3T20:56:26Z</time></trkpt>
<trkpt lat="46.18963027" lon="6.09581594"><ele></ele><time>2015-7-3T20:56:29Z</time></trkpt>
<trkpt lat="46.18961292" lon="6.09580899"><ele></ele><time>2015-7-3T20:56:32Z</time></trkpt>
<trkpt lat="46.18959549" lon="6.09581343"><ele></ele><time>2015-7-3T20:56:35Z</time></trkpt>
<trkpt lat="46.18958459" lon="6.09581863"><ele></ele><time>2015-7-3T20:56:38Z</time></trkpt>
<trkpt lat="46.18957923" lon="6.09582927"><ele></ele><time>2015-7-3T20:56:41Z</time></trkpt>
<trkpt lat="46.18956473" lon="6.09583866"><ele></ele><time>2015-7-3T20:56:44Z</time></trkpt>
<trkpt lat="46.18954763" lon="6.09585106"><ele></ele><time>2015-7-3T20:56:47Z</time></trkpt>
<trkpt lat="46.18952307" lon="6.09586414"><ele></ele><time>2015-7-3T20:56:50Z</time></trkpt>
<trkpt lat="46.18949465" lon="6.09587814"><ele></ele><time>2015-7-3T20:56:53Z</time></trkpt>
<trkpt lat="46.18947060" lon="6.09589180"><ele></ele><time>2015-7-3T20:56:56Z</time></trkpt>
<trkpt lat="46.18944663" lon="6.09590580"><ele></ele><time>2015-7-3T20:56:59Z</time></trkpt>
<trkpt lat="46.18942223" lon="6.09592214"><ele></ele><time>2015-7-3T20:57:2Z</time></trkpt>
<trkpt lat="46.18939818" lon="6.09593622"><ele></ele><time>2015-7-3T20:57:5Z</time></trkpt>
<trkpt lat="46.18936323" lon="6.09594838"><ele></ele><time>2015-7-3T20:57:8Z</time></trkpt>
<trkpt lat="46.18933230" lon="6.09596464"><ele></ele><time>2015-7-3T20:57:11Z</time></trkpt>
<trkpt lat="46.18929994" lon="6.09598040"><ele></ele><time>2015-7-3T20:57:14Z</time></trkpt>
<trkpt lat="46.18926315" lon="6.09599079"><ele></ele><time>2015-7-3T20:57:17Z</time></trkpt>
<trkpt lat="46.18923414" lon="6.09600219"><ele></ele><time>2015-7-3T20:57:20Z</time></trkpt>
<trkpt lat="46.18921126" lon="6.09600554"><ele></ele><time>2015-7-3T20:57:23Z</time></trkpt>
<trkpt lat="46.18918503" lon="6.09600554"><ele></ele><time>2015-7-3T20:57:26Z</time></trkpt>
<trkpt lat="46.18915309" lon="6.09600345"><ele></ele><time>2015-7-3T20:57:29Z</time></trkpt>
<trkpt lat="46.18913004" lon="6.09600998"><ele></ele><time>2015-7-3T20:57:32Z</time></trkpt>
<trkpt lat="46.18911110" lon="6.09602080"><ele></ele><time>2015-7-3T20:57:35Z</time></trkpt>
<trkpt lat="46.18909232" lon="6.09602734"><ele></ele><time>2015-7-3T20:57:38Z</time></trkpt>
<trkpt lat="46.18906768" lon="6.09604075"><ele></ele><time>2015-7-3T20:57:41Z</time></trkpt>
<trkpt lat="46.18905636" lon="6.09605189"><ele></ele><time>2015-7-3T20:57:44Z</time></trkpt>
<trkpt lat="46.18903910" lon="6.09606623"><ele></ele><time>2015-7-3T20:57:47Z</time></trkpt>
<trkpt lat="46.18902200" lon="6.09607419"><ele></ele><time>2015-7-3T20:57:50Z</time></trkpt>
<trkpt lat="46.18900037" lon="6.09608978"><ele></ele><time>2015-7-3T20:57:53Z</time></trkpt>
<trkpt lat="46.18898428" lon="6.09610965"><ele></ele><time>2015-7-3T20:57:56Z</time></trkpt>
<trkpt lat="46.18896777" lon="6.09612389"><ele></ele><time>2015-7-3T20:57:59Z</time></trkpt>
<trkpt lat="46.18894899" lon="6.09612339"><ele></ele><time>2015-7-3T20:58:2Z</time></trkpt>
<trkpt lat="46.18892670" lon="6.09610998"><ele></ele><time>2015-7-3T20:58:5Z</time></trkpt>
<trkpt lat="46.18890474" lon="6.09608048"><ele></ele><time>2015-7-3T20:58:8Z</time></trkpt>
<trkpt lat="46.18888378" lon="6.09603806"><ele></ele><time>2015-7-3T20:58:11Z</time></trkpt>
<trkpt lat="46.18886182" lon="6.09598828"><ele></ele><time>2015-7-3T20:58:14Z</time></trkpt>
<trkpt lat="46.18884506" lon="6.09593958"><ele></ele><time>2015-7-3T20:58:17Z</time></trkpt>
<trkpt lat="46.18882637" lon="6.09589214"><ele></ele><time>2015-7-3T20:58:20Z</time></trkpt>
<trkpt lat="46.18881052" lon="6.09584662"><ele></ele><time>2015-7-3T20:58:23Z</time></trkpt>
<trkpt lat="46.18879837" lon="6.09579884"><ele></ele><time>2015-7-3T20:58:26Z</time></trkpt>
<trkpt lat="46.18877633" lon="6.09575065"><ele></ele><time>2015-7-3T20:58:29Z</time></trkpt>
<trkpt lat="46.18874850" lon="6.09569290"><ele></ele><time>2015-7-3T20:58:32Z</time></trkpt>
<trkpt lat="46.18871489" lon="6.09563322"><ele></ele><time>2015-7-3T20:58:35Z</time></trkpt>
<trkpt lat="46.18868723" lon="6.09556516"><ele></ele><time>2015-7-3T20:58:38Z</time></trkpt>
<trkpt lat="46.18866183" lon="6.09549835"><ele></ele><time>2015-7-3T20:58:41Z</time></trkpt>
<trkpt lat="46.18863836" lon="6.09543172"><ele></ele><time>2015-7-3T20:58:44Z</time></trkpt>
<trkpt lat="46.18859737" lon="6.09535762"><ele></ele><time>2015-7-3T20:58:47Z</time></trkpt>
<trkpt lat="46.18855898" lon="6.09528872"><ele></ele><time>2015-7-3T20:58:50Z</time></trkpt>
<trkpt lat="46.18851280" lon="6.09522058"><ele></ele><time>2015-7-3T20:58:53Z</time></trkpt>
<trkpt lat="46.18847198" lon="6.09514715"><ele></ele><time>2015-7-3T20:58:56Z</time></trkpt>
<trkpt lat="46.18843745" lon="6.09507096"><ele></ele><time>2015-7-3T20:58:59Z</time></trkpt>
<trkpt lat="46.18840878" lon="6.09499753"><ele></ele><time>2015-7-3T20:59:2Z</time></trkpt>
<trkpt lat="46.18837517" lon="6.09491925"><ele></ele><time>2015-7-3T20:59:5Z</time></trkpt>
<trkpt lat="46.18834030" lon="6.09483853"><ele></ele><time>2015-7-3T20:59:8Z</time></trkpt>
<trkpt lat="46.18830233" lon="6.09475303"><ele></ele><time>2015-7-3T20:59:11Z</time></trkpt>
<trkpt lat="46.18826168" lon="6.09467668"><ele></ele><time>2015-7-3T20:59:14Z</time></trkpt>
<trkpt lat="46.18822874" lon="6.09459495"><ele></ele><time>2015-7-3T20:59:17Z</time></trkpt>
<trkpt lat="46.18820116" lon="6.09451658"><ele></ele><time>2015-7-3T20:59:20Z</time></trkpt>
<trkpt lat="46.18817040" lon="6.09443712"><ele></ele><time>2015-7-3T20:59:23Z</time></trkpt>
<trkpt lat="46.18813863" lon="6.09436219"><ele></ele><time>2015-7-3T20:59:26Z</time></trkpt>
<trkpt lat="46.18810904" lon="6.09428859"><ele></ele><time>2015-7-3T20:59:29Z</time></trkpt>
<trkpt lat="46.18807887" lon="6.09421022"><ele></ele><time>2015-7-3T20:59:32Z</time></trkpt>
<trkpt lat="46.18804794" lon="6.09413043"><ele></ele><time>2015-7-3T20:59:35Z</time></trkpt>
<trkpt lat="46.18801776" lon="6.09404367"><ele></ele><time>2015-7-3T20:59:38Z</time></trkpt>
<trkpt lat="46.18799899" lon="6.09394535"><ele></ele><time>2015-7-3T20:59:41Z</time></trkpt>
<trkpt lat="46.18798398" lon="6.09384569"><ele></ele><time>2015-7-3T20:59:44Z</time></trkpt>
<trkpt lat="46.18796915" lon="6.09375198"><ele></ele><time>2015-7-3T20:59:47Z</time></trkpt>
<trkpt lat="46.18794082" lon="6.09366615"><ele></ele><time>2015-7-3T20:59:50Z</time></trkpt>
<trkpt lat="46.18788977" lon="6.09355367"><ele></ele><time>2015-7-3T20:59:53Z</time></trkpt>
<trkpt lat="46.18785859" lon="6.09345166"><ele></ele><time>2015-7-3T20:59:56Z</time></trkpt>
<trkpt lat="46.18784015" lon="6.09336005"><ele></ele><time>2015-7-3T20:59:59Z</time></trkpt>
<trkpt lat="46.18784216" lon="6.09327748"><ele></ele><time>2015-7-3T21:0:2Z</time></trkpt>
<trkpt lat="46.18784728" lon="6.09319928"><ele></ele><time>2015-7-3T21:0:5Z</time></trkpt>
<trkpt lat="46.18787259" lon="6.09313172"><ele></ele><time>2015-7-3T21:0:8Z</time></trkpt>
<trkpt lat="46.18789547" lon="6.09306676"><ele></ele><time>2015-7-3T21:0:11Z</time></trkpt>
<trkpt lat="46.18791944" lon="6.09300918"><ele></ele><time>2015-7-3T21:0:14Z</time></trkpt>
<trkpt lat="46.18794853" lon="6.09296023"><ele></ele><time>2015-7-3T21:0:17Z</time></trkpt>
<trkpt lat="46.18798055" lon="6.09291463"><ele></ele><time>2015-7-3T21:0:20Z</time></trkpt>
<trkpt lat="46.18801039" lon="6.09286744"><ele></ele><time>2015-7-3T21:0:23Z</time></trkpt>
<trkpt lat="46.18804023" lon="6.09281698"><ele></ele><time>2015-7-3T21:0:26Z</time></trkpt>
<trkpt lat="46.18806789" lon="6.09276476"><ele></ele><time>2015-7-3T21:0:29Z</time></trkpt>
<trkpt lat="46.18809446" lon="6.09271229"><ele></ele><time>2015-7-3T21:0:32Z</time></trkpt>
<trkpt lat="46.18812354" lon="6.09266167"><ele></ele><time>2015-7-3T21:0:35Z</time></trkpt>
<trkpt lat="46.18815397" lon="6.09261230"><ele></ele><time>2015-7-3T21:0:38Z</time></trkpt>
<trkpt lat="46.18818205" lon="6.09256997"><ele></ele><time>2015-7-3T21:0:41Z</time></trkpt>
<trkpt lat="46.18821273" lon="6.09252429"><ele></ele><time>2015-7-3T21:0:44Z</time></trkpt>
<trkpt lat="46.18824298" lon="6.09248648"><ele></ele><time>2015-7-3T21:0:47Z</time></trkpt>
<trkpt lat="46.18826889" lon="6.09245002"><ele></ele><time>2015-7-3T21:0:50Z</time></trkpt>
<trkpt lat="46.18828909" lon="6.09241205"><ele></ele><time>2015-7-3T21:0:53Z</time></trkpt>
<trkpt lat="46.18830107" lon="6.09237115"><ele></ele><time>2015-7-3T21:0:56Z</time></trkpt>
<trkpt lat="46.18830434" lon="6.09233066"><ele></ele><time>2015-7-3T21:0:59Z</time></trkpt>
<trkpt lat="46.18829319" lon="6.09229647"><ele></ele><time>2015-7-3T21:1:2Z</time></trkpt>
<trkpt lat="46.18826889" lon="6.09227325"><ele></ele><time>2015-7-3T21:1:5Z</time></trkpt>
<trkpt lat="46.18824190" lon="6.09224936"><ele></ele><time>2015-7-3T21:1:8Z</time></trkpt>
<trkpt lat="46.18821298" lon="6.09221608"><ele></ele><time>2015-7-3T21:1:11Z</time></trkpt>
<trkpt lat="46.18818389" lon="6.09217853"><ele></ele><time>2015-7-3T21:1:14Z</time></trkpt>
<trkpt lat="46.18815657" lon="6.09213612"><ele></ele><time>2015-7-3T21:1:17Z</time></trkpt>
<trkpt lat="46.18813159" lon="6.09208650"><ele></ele><time>2015-7-3T21:1:20Z</time></trkpt>
<trkpt lat="46.18809882" lon="6.09203143"><ele></ele><time>2015-7-3T21:1:23Z</time></trkpt>
<trkpt lat="46.18806227" lon="6.09197753"><ele></ele><time>2015-7-3T21:1:26Z</time></trkpt>
<trkpt lat="46.18802539" lon="6.09192682"><ele></ele><time>2015-7-3T21:1:29Z</time></trkpt>
<trkpt lat="46.18798876" lon="6.09187444"><ele></ele><time>2015-7-3T21:1:32Z</time></trkpt>
<trkpt lat="46.18794945" lon="6.09181769"><ele></ele><time>2015-7-3T21:1:35Z</time></trkpt>
<trkpt lat="46.18791156" lon="6.09176354"><ele></ele><time>2015-7-3T21:1:38Z</time></trkpt>
<trkpt lat="46.18787435" lon="6.09170982"><ele></ele><time>2015-7-3T21:1:41Z</time></trkpt>
<trkpt lat="46.18783680" lon="6.09165349"><ele></ele><time>2015-7-3T21:1:44Z</time></trkpt>
<trkpt lat="46.18780109" lon="6.09158903"><ele></ele><time>2015-7-3T21:1:47Z</time></trkpt>
<trkpt lat="46.18776740" lon="6.09151837"><ele></ele><time>2015-7-3T21:1:50Z</time></trkpt>
<trkpt lat="46.18773957" lon="6.09144436"><ele></ele><time>2015-7-3T21:1:53Z</time></trkpt>
<trkpt lat="46.18771945" lon="6.09136700"><ele></ele><time>2015-7-3T21:1:56Z</time></trkpt>
<trkpt lat="46.18770135" lon="6.09128879"><ele></ele><time>2015-7-3T21:1:59Z</time></trkpt>
<trkpt lat="46.18768140" lon="6.09121059"><ele></ele><time>2015-7-3T21:2:2Z</time></trkpt>
<trkpt lat="46.18766237" lon="6.09113390"><ele></ele><time>2015-7-3T21:2:5Z</time></trkpt>
<trkpt lat="46.18764435" lon="6.09105838"><ele></ele><time>2015-7-3T21:2:8Z</time></trkpt>
<trkpt lat="46.18762935" lon="6.09098403"><ele></ele><time>2015-7-3T21:2:11Z</time></trkpt>
<trkpt lat="46.18761208" lon="6.09090834"><ele></ele><time>2015-7-3T21:2:14Z</time></trkpt>
<trkpt lat="46.18759716" lon="6.09083433"><ele></ele><time>2015-7-3T21:2:17Z</time></trkpt>
<trkpt lat="46.18757436" lon="6.09075788"><ele></ele><time>2015-7-3T21:2:20Z</time></trkpt>
<trkpt lat="46.18754880" lon="6.09068513"><ele></ele><time>2015-7-3T21:2:23Z</time></trkpt>
<trkpt lat="46.18752516" lon="6.09062009"><ele></ele><time>2015-7-3T21:2:26Z</time></trkpt>
<trkpt lat="46.18749985" lon="6.09055848"><ele></ele><time>2015-7-3T21:2:29Z</time></trkpt>
<trkpt lat="46.18747453" lon="6.09050006"><ele></ele><time>2015-7-3T21:2:32Z</time></trkpt>
<trkpt lat="46.18744863" lon="6.09044675"><ele></ele><time>2015-7-3T21:2:35Z</time></trkpt>
<trkpt lat="46.18742240" lon="6.09039914"><ele></ele><time>2015-7-3T21:2:38Z</time></trkpt>
<trkpt lat="46.18739516" lon="6.09035480"><ele></ele><time>2015-7-3T21:2:41Z</time></trkpt>
<trkpt lat="46.18735978" lon="6.09031859"><ele></ele><time>2015-7-3T21:2:44Z</time></trkpt>
<trkpt lat="46.18731695" lon="6.09028607"><ele></ele><time>2015-7-3T21:2:47Z</time></trkpt>
<trkpt lat="46.18727429" lon="6.09026033"><ele></ele><time>2015-7-3T21:2:50Z</time></trkpt>
<trkpt lat="46.18722660" lon="6.09023309"><ele></ele><time>2015-7-3T21:2:53Z</time></trkpt>
<trkpt lat="46.18718209" lon="6.09020426"><ele></ele><time>2015-7-3T21:2:56Z</time></trkpt>
<trkpt lat="46.18713599" lon="6.09017232"><ele></ele><time>2015-7-3T21:2:59Z</time></trkpt>
<trkpt lat="46.18708863" lon="6.09013855"><ele></ele><time>2015-7-3T21:3:2Z</time></trkpt>
<trkpt lat="46.18704353" lon="6.09010292"><ele></ele><time>2015-7-3T21:3:5Z</time></trkpt>
<trkpt lat="46.18699576" lon="6.09006914"><ele></ele><time>2015-7-3T21:3:8Z</time></trkpt>
<trkpt lat="46.18694756" lon="6.09003704"><ele></ele><time>2015-7-3T21:3:11Z</time></trkpt>
<trkpt lat="46.18689987" lon="6.09000703"><ele></ele><time>2015-7-3T21:3:14Z</time></trkpt>
<trkpt lat="46.18685142" lon="6.08997845"><ele></ele><time>2015-7-3T21:3:17Z</time></trkpt>
<trkpt lat="46.18680524" lon="6.08995087"><ele></ele><time>2015-7-3T21:3:20Z</time></trkpt>
<trkpt lat="46.18675905" lon="6.08992296"><ele></ele><time>2015-7-3T21:3:23Z</time></trkpt>
<trkpt lat="46.18671094" lon="6.08989572"><ele></ele><time>2015-7-3T21:3:26Z</time></trkpt>
<trkpt lat="46.18666233" lon="6.08986932"><ele></ele><time>2015-7-3T21:3:29Z</time></trkpt>
<trkpt lat="46.18661472" lon="6.08984082"><ele></ele><time>2015-7-3T21:3:32Z</time></trkpt>
<trkpt lat="46.18656744" lon="6.08981140"><ele></ele><time>2015-7-3T21:3:35Z</time></trkpt>
<trkpt lat="46.18652067" lon="6.08978298"><ele></ele><time>2015-7-3T21:3:38Z</time></trkpt>
<trkpt lat="46.18647516" lon="6.08975432"><ele></ele><time>2015-7-3T21:3:41Z</time></trkpt>
<trkpt lat="46.18643057" lon="6.08972699"><ele></ele><time>2015-7-3T21:3:44Z</time></trkpt>
<trkpt lat="46.18638765" lon="6.08970252"><ele></ele><time>2015-7-3T21:3:47Z</time></trkpt>
<trkpt lat="46.18634943" lon="6.08967972"><ele></ele><time>2015-7-3T21:3:50Z</time></trkpt>
<trkpt lat="46.18631624" lon="6.08965734"><ele></ele><time>2015-7-3T21:3:53Z</time></trkpt>
<trkpt lat="46.18628698" lon="6.08963395"><ele></ele><time>2015-7-3T21:3:56Z</time></trkpt>
<trkpt lat="46.18625958" lon="6.08961225"><ele></ele><time>2015-7-3T21:3:59Z</time></trkpt>
<trkpt lat="46.18623544" lon="6.08959305"><ele></ele><time>2015-7-3T21:4:2Z</time></trkpt>
<trkpt lat="46.18620794" lon="6.08957746"><ele></ele><time>2015-7-3T21:4:5Z</time></trkpt>
<trkpt lat="46.18618238" lon="6.08956883"><ele></ele><time>2015-7-3T21:4:8Z</time></trkpt>
<trkpt lat="46.18615195" lon="6.08956212"><ele></ele><time>2015-7-3T21:4:11Z</time></trkpt>
<trkpt lat="46.18612513" lon="6.08955483"><ele></ele><time>2015-7-3T21:4:14Z</time></trkpt>
<trkpt lat="46.18610702" lon="6.08954762"><ele></ele><time>2015-7-3T21:4:17Z</time></trkpt>
<trkpt lat="46.18609303" lon="6.08953773"><ele></ele><time>2015-7-3T21:4:20Z</time></trkpt>
<trkpt lat="46.18608238" lon="6.08953077"><ele></ele><time>2015-7-3T21:4:23Z</time></trkpt>
<trkpt lat="46.18606520" lon="6.08953220"><ele></ele><time>2015-7-3T21:4:26Z</time></trkpt>
<trkpt lat="46.18604324" lon="6.08955257"><ele></ele><time>2015-7-3T21:4:29Z</time></trkpt>
<trkpt lat="46.18601792" lon="6.08958685"><ele></ele><time>2015-7-3T21:4:32Z</time></trkpt>
<trkpt lat="46.18599546" lon="6.08962775"><ele></ele><time>2015-7-3T21:4:35Z</time></trkpt>
<trkpt lat="46.18596839" lon="6.08966245"><ele></ele><time>2015-7-3T21:4:38Z</time></trkpt>
<trkpt lat="46.18593335" lon="6.08968835"><ele></ele><time>2015-7-3T21:4:41Z</time></trkpt>
<trkpt lat="46.18589153" lon="6.08971098"><ele></ele><time>2015-7-3T21:4:44Z</time></trkpt>
<trkpt lat="46.18584945" lon="6.08973714"><ele></ele><time>2015-7-3T21:4:47Z</time></trkpt>
<trkpt lat="46.18580804" lon="6.08976446"><ele></ele><time>2015-7-3T21:4:50Z</time></trkpt>
<trkpt lat="46.18576773" lon="6.08979195"><ele></ele><time>2015-7-3T21:4:53Z</time></trkpt>
<trkpt lat="46.18572766" lon="6.08981903"><ele></ele><time>2015-7-3T21:4:56Z</time></trkpt>
<trkpt lat="46.18568634" lon="6.08984543"><ele></ele><time>2015-7-3T21:4:59Z</time></trkpt>
<trkpt lat="46.18564535" lon="6.08987217"><ele></ele><time>2015-7-3T21:5:2Z</time></trkpt>
<trkpt lat="46.18560587" lon="6.08990016"><ele></ele><time>2015-7-3T21:5:5Z</time></trkpt>
<trkpt lat="46.18556287" lon="6.08992732"><ele></ele><time>2015-7-3T21:5:8Z</time></trkpt>
<trkpt lat="46.18551954" lon="6.08995439"><ele></ele><time>2015-7-3T21:5:11Z</time></trkpt>
<trkpt lat="46.18547788" lon="6.08998273"><ele></ele><time>2015-7-3T21:5:14Z</time></trkpt>
<trkpt lat="46.18543672" lon="6.09001089"><ele></ele><time>2015-7-3T21:5:17Z</time></trkpt>
<trkpt lat="46.18539616" lon="6.09004006"><ele></ele><time>2015-7-3T21:5:20Z</time></trkpt>
<trkpt lat="46.18535458" lon="6.09007007"><ele></ele><time>2015-7-3T21:5:23Z</time></trkpt>
<trkpt lat="46.18531150" lon="6.09010133"><ele></ele><time>2015-7-3T21:5:26Z</time></trkpt>
<trkpt lat="46.18526749" lon="6.09013226"><ele></ele><time>2015-7-3T21:5:29Z</time></trkpt>
<trkpt lat="46.18522349" lon="6.09016084"><ele></ele><time>2015-7-3T21:5:32Z</time></trkpt>
<trkpt lat="46.18517697" lon="6.09018465"><ele></ele><time>2015-7-3T21:5:35Z</time></trkpt>
<trkpt lat="46.18512869" lon="6.09020082"><ele></ele><time>2015-7-3T21:5:38Z</time></trkpt>
<trkpt lat="46.18508569" lon="6.09020535"><ele></ele><time>2015-7-3T21:5:41Z</time></trkpt>
<trkpt lat="46.18504277" lon="6.09018934"><ele></ele><time>2015-7-3T21:5:44Z</time></trkpt>
<trkpt lat="46.18500296" lon="6.09015112"><ele></ele><time>2015-7-3T21:5:47Z</time></trkpt>
<trkpt lat="46.18496650" lon="6.09010368"><ele></ele><time>2015-7-3T21:5:50Z</time></trkpt>
<trkpt lat="46.18492677" lon="6.09005657"><ele></ele><time>2015-7-3T21:5:53Z</time></trkpt>
<trkpt lat="46.18488184" lon="6.09001315"><ele></ele><time>2015-7-3T21:5:56Z</time></trkpt>
<trkpt lat="46.18482820" lon="6.08998893"><ele></ele><time>2015-7-3T21:5:59Z</time></trkpt>
<trkpt lat="46.18476223" lon="6.08997644"><ele></ele><time>2015-7-3T21:6:2Z</time></trkpt>
<trkpt lat="46.18471093" lon="6.08998088"><ele></ele><time>2015-7-3T21:6:5Z</time></trkpt>
<trkpt lat="46.18465628" lon="6.09000946"><ele></ele><time>2015-7-3T21:6:8Z</time></trkpt>
<trkpt lat="46.18460239" lon="6.09004224"><ele></ele><time>2015-7-3T21:6:11Z</time></trkpt>
<trkpt lat="46.18454455" lon="6.09008239"><ele></ele><time>2015-7-3T21:6:14Z</time></trkpt>
<trkpt lat="46.18449586" lon="6.09011499"><ele></ele><time>2015-7-3T21:6:17Z</time></trkpt>
<trkpt lat="46.18444573" lon="6.09014827"><ele></ele><time>2015-7-3T21:6:20Z</time></trkpt>
<trkpt lat="46.18438253" lon="6.09017819"><ele></ele><time>2015-7-3T21:6:23Z</time></trkpt>
<trkpt lat="46.18431992" lon="6.09020267"><ele></ele><time>2015-7-3T21:6:26Z</time></trkpt>
<trkpt lat="46.18425337" lon="6.09022404"><ele></ele><time>2015-7-3T21:6:29Z</time></trkpt>
<trkpt lat="46.18420148" lon="6.09025857"><ele></ele><time>2015-7-3T21:6:32Z</time></trkpt>
<trkpt lat="46.18414926" lon="6.09029663"><ele></ele><time>2015-7-3T21:6:35Z</time></trkpt>
<trkpt lat="46.18409847" lon="6.09033644"><ele></ele><time>2015-7-3T21:6:38Z</time></trkpt>
<trkpt lat="46.18405203" lon="6.09038003"><ele></ele><time>2015-7-3T21:6:41Z</time></trkpt>
<trkpt lat="46.18400233" lon="6.09042278"><ele></ele><time>2015-7-3T21:6:44Z</time></trkpt>
<trkpt lat="46.18395346" lon="6.09046938"><ele></ele><time>2015-7-3T21:6:47Z</time></trkpt>
<trkpt lat="46.18390854" lon="6.09051917"><ele></ele><time>2015-7-3T21:6:50Z</time></trkpt>
<trkpt lat="46.18386344" lon="6.09056845"><ele></ele><time>2015-7-3T21:6:53Z</time></trkpt>
<trkpt lat="46.18381315" lon="6.09061263"><ele></ele><time>2015-7-3T21:6:56Z</time></trkpt>
<trkpt lat="46.18375489" lon="6.09065068"><ele></ele><time>2015-7-3T21:6:59Z</time></trkpt>
<trkpt lat="46.18370159" lon="6.09068957"><ele></ele><time>2015-7-3T21:7:2Z</time></trkpt>
<trkpt lat="46.18364568" lon="6.09072628"><ele></ele><time>2015-7-3T21:7:5Z</time></trkpt>
<trkpt lat="46.18359254" lon="6.09076350"><ele></ele><time>2015-7-3T21:7:8Z</time></trkpt>
<trkpt lat="46.18353755" lon="6.09079736"><ele></ele><time>2015-7-3T21:7:11Z</time></trkpt>
<trkpt lat="46.18347947" lon="6.09083072"><ele></ele><time>2015-7-3T21:7:14Z</time></trkpt>
<trkpt lat="46.18341283" lon="6.09085654"><ele></ele><time>2015-7-3T21:7:17Z</time></trkpt>
<trkpt lat="46.18335323" lon="6.09088294"><ele></ele><time>2015-7-3T21:7:20Z</time></trkpt>
<trkpt lat="46.18329397" lon="6.09090826"><ele></ele><time>2015-7-3T21:7:23Z</time></trkpt>
<trkpt lat="46.18323773" lon="6.09093416"><ele></ele><time>2015-7-3T21:7:26Z</time></trkpt>
<trkpt lat="46.18317956" lon="6.09095830"><ele></ele><time>2015-7-3T21:7:29Z</time></trkpt>
<trkpt lat="46.18312466" lon="6.09098327"><ele></ele><time>2015-7-3T21:7:32Z</time></trkpt>
<trkpt lat="46.18306976" lon="6.09100875"><ele></ele><time>2015-7-3T21:7:35Z</time></trkpt>
<trkpt lat="46.18301176" lon="6.09103214"><ele></ele><time>2015-7-3T21:7:38Z</time></trkpt>
<trkpt lat="46.18295417" lon="6.09105603"><ele></ele><time>2015-7-3T21:7:41Z</time></trkpt>
<trkpt lat="46.18289583" lon="6.09108218"><ele></ele><time>2015-7-3T21:7:44Z</time></trkpt>
<trkpt lat="46.18283884" lon="6.09110833"><ele></ele><time>2015-7-3T21:7:47Z</time></trkpt>
<trkpt lat="46.18278494" lon="6.09113524"><ele></ele><time>2015-7-3T21:7:50Z</time></trkpt>
<trkpt lat="46.18273155" lon="6.09116273"><ele></ele><time>2015-7-3T21:7:53Z</time></trkpt>
<trkpt lat="46.18267874" lon="6.09118863"><ele></ele><time>2015-7-3T21:7:56Z</time></trkpt>
<trkpt lat="46.18262510" lon="6.09120539"><ele></ele><time>2015-7-3T21:7:59Z</time></trkpt>
<trkpt lat="46.18256802" lon="6.09116868"><ele></ele><time>2015-7-3T21:8:2Z</time></trkpt>
<trkpt lat="46.18252502" lon="6.09112375"><ele></ele><time>2015-7-3T21:8:5Z</time></trkpt>
<trkpt lat="46.18249266" lon="6.09106894"><ele></ele><time>2015-7-3T21:8:8Z</time></trkpt>
<trkpt lat="46.18247263" lon="6.09099023"><ele></ele><time>2015-7-3T21:8:11Z</time></trkpt>
<trkpt lat="46.18244832" lon="6.09092686"><ele></ele><time>2015-7-3T21:8:14Z</time></trkpt>
<trkpt lat="46.18243667" lon="6.09085285"><ele></ele><time>2015-7-3T21:8:17Z</time></trkpt>
<trkpt lat="46.18241698" lon="6.09078630"><ele></ele><time>2015-7-3T21:8:20Z</time></trkpt>
<trkpt lat="46.18239367" lon="6.09072712"><ele></ele><time>2015-7-3T21:8:23Z</time></trkpt>
<trkpt lat="46.18237490" lon="6.09066132"><ele></ele><time>2015-7-3T21:8:26Z</time></trkpt>
<trkpt lat="46.18235746" lon="6.09059184"><ele></ele><time>2015-7-3T21:8:29Z</time></trkpt>
<trkpt lat="46.18233869" lon="6.09052118"><ele></ele><time>2015-7-3T21:8:32Z</time></trkpt>
<trkpt lat="46.18232385" lon="6.09044968"><ele></ele><time>2015-7-3T21:8:35Z</time></trkpt>
<trkpt lat="46.18231044" lon="6.09037877"><ele></ele><time>2015-7-3T21:8:38Z</time></trkpt>
<trkpt lat="46.18229653" lon="6.09030543"><ele></ele><time>2015-7-3T21:8:41Z</time></trkpt>
<trkpt lat="46.18228697" lon="6.09023133"><ele></ele><time>2015-7-3T21:8:44Z</time></trkpt>
<trkpt lat="46.18228840" lon="6.09015774"><ele></ele><time>2015-7-3T21:8:47Z</time></trkpt>
<trkpt lat="46.18228873" lon="6.09008406"><ele></ele><time>2015-7-3T21:8:50Z</time></trkpt>
<trkpt lat="46.18227867" lon="6.09000695"><ele></ele><time>2015-7-3T21:8:53Z</time></trkpt>
<trkpt lat="46.18223517" lon="6.08992523"><ele></ele><time>2015-7-3T21:8:56Z</time></trkpt>
<trkpt lat="46.18219972" lon="6.08984325"><ele></ele><time>2015-7-3T21:8:59Z</time></trkpt>
<trkpt lat="46.18217432" lon="6.08976337"><ele></ele><time>2015-7-3T21:9:2Z</time></trkpt>
<trkpt lat="46.18215512" lon="6.08968944"><ele></ele><time>2015-7-3T21:9:5Z</time></trkpt>
<trkpt lat="46.18214406" lon="6.08961560"><ele></ele><time>2015-7-3T21:9:8Z</time></trkpt>
<trkpt lat="46.18212948" lon="6.08955206"><ele></ele><time>2015-7-3T21:9:11Z</time></trkpt>
<trkpt lat="46.18211808" lon="6.08948476"><ele></ele><time>2015-7-3T21:9:14Z</time></trkpt>
<trkpt lat="46.18211447" lon="6.08940982"><ele></ele><time>2015-7-3T21:9:17Z</time></trkpt>
<trkpt lat="46.18210576" lon="6.08933472"><ele></ele><time>2015-7-3T21:9:20Z</time></trkpt>
<trkpt lat="46.18210307" lon="6.08925593"><ele></ele><time>2015-7-3T21:9:23Z</time></trkpt>
<trkpt lat="46.18210576" lon="6.08917806"><ele></ele><time>2015-7-3T21:9:26Z</time></trkpt>
<trkpt lat="46.18211020" lon="6.08909793"><ele></ele><time>2015-7-3T21:9:29Z</time></trkpt>
<trkpt lat="46.18212059" lon="6.08903029"><ele></ele><time>2015-7-3T21:9:32Z</time></trkpt>
<trkpt lat="46.18213107" lon="6.08896659"><ele></ele><time>2015-7-3T21:9:35Z</time></trkpt>
<trkpt lat="46.18214507" lon="6.08890263"><ele></ele><time>2015-7-3T21:9:38Z</time></trkpt>
<trkpt lat="46.18215672" lon="6.08884354"><ele></ele><time>2015-7-3T21:9:41Z</time></trkpt>
<trkpt lat="46.18215529" lon="6.08878269"><ele></ele><time>2015-7-3T21:9:44Z</time></trkpt>
<trkpt lat="46.18214725" lon="6.08872485"><ele></ele><time>2015-7-3T21:9:47Z</time></trkpt>
<trkpt lat="46.18213886" lon="6.08866836"><ele></ele><time>2015-7-3T21:9:50Z</time></trkpt>
<trkpt lat="46.18212864" lon="6.08861807"><ele></ele><time>2015-7-3T21:9:53Z</time></trkpt>
<trkpt lat="46.18211196" lon="6.08860994"><ele></ele><time>2015-7-3T21:9:56Z</time></trkpt>
<trkpt lat="46.18207105" lon="6.08859904"><ele></ele><time>2015-7-3T21:9:59Z</time></trkpt>
<trkpt lat="46.18202345" lon="6.08859787"><ele></ele><time>2015-7-3T21:10:2Z</time></trkpt>
<trkpt lat="46.18195706" lon="6.08858848"><ele></ele><time>2015-7-3T21:10:5Z</time></trkpt>
<trkpt lat="46.18188623" lon="6.08857390"><ele></ele><time>2015-7-3T21:10:8Z</time></trkpt>
<trkpt lat="46.18181616" lon="6.08856233"><ele></ele><time>2015-7-3T21:10:11Z</time></trkpt>
<trkpt lat="46.18174450" lon="6.08854976"><ele></ele><time>2015-7-3T21:10:14Z</time></trkpt>
<trkpt lat="46.18167694" lon="6.08853836"><ele></ele><time>2015-7-3T21:10:17Z</time></trkpt>
<trkpt lat="46.18161449" lon="6.08852788"><ele></ele><time>2015-7-3T21:10:20Z</time></trkpt>
<trkpt lat="46.18155154" lon="6.08851388"><ele></ele><time>2015-7-3T21:10:23Z</time></trkpt>
<trkpt lat="46.18149178" lon="6.08849896"><ele></ele><time>2015-7-3T21:10:26Z</time></trkpt>
<trkpt lat="46.18143998" lon="6.08848823"><ele></ele><time>2015-7-3T21:10:29Z</time></trkpt>
<trkpt lat="46.18139656" lon="6.08848035"><ele></ele><time>2015-7-3T21:10:32Z</time></trkpt>
<trkpt lat="46.18135834" lon="6.08847122"><ele></ele><time>2015-7-3T21:10:35Z</time></trkpt>
<trkpt lat="46.18132372" lon="6.08844842"><ele></ele><time>2015-7-3T21:10:38Z</time></trkpt>
<trkpt lat="46.18130025" lon="6.08841489"><ele></ele><time>2015-7-3T21:10:41Z</time></trkpt>
<trkpt lat="46.18130168" lon="6.08836854"><ele></ele><time>2015-7-3T21:10:44Z</time></trkpt>
<trkpt lat="46.18130788" lon="6.08831766"><ele></ele><time>2015-7-3T21:10:47Z</time></trkpt>
<trkpt lat="46.18131593" lon="6.08826226"><ele></ele><time>2015-7-3T21:10:50Z</time></trkpt>
<trkpt lat="46.18132356" lon="6.08819922"><ele></ele><time>2015-7-3T21:10:53Z</time></trkpt>
<trkpt lat="46.18133412" lon="6.08813242"><ele></ele><time>2015-7-3T21:10:56Z</time></trkpt>
<trkpt lat="46.18134962" lon="6.08806436"><ele></ele><time>2015-7-3T21:10:59Z</time></trkpt>
<trkpt lat="46.18136345" lon="6.08799202"><ele></ele><time>2015-7-3T21:11:2Z</time></trkpt>
<trkpt lat="46.18137276" lon="6.08791432"><ele></ele><time>2015-7-3T21:11:5Z</time></trkpt>
<trkpt lat="46.18138005" lon="6.08782983"><ele></ele><time>2015-7-3T21:11:8Z</time></trkpt>
<trkpt lat="46.18138449" lon="6.08773730"><ele></ele><time>2015-7-3T21:11:11Z</time></trkpt>
<trkpt lat="46.18138902" lon="6.08763755"><ele></ele><time>2015-7-3T21:11:14Z</time></trkpt>
<trkpt lat="46.18139002" lon="6.08753026"><ele></ele><time>2015-7-3T21:11:17Z</time></trkpt>
<trkpt lat="46.18139380" lon="6.08741728"><ele></ele><time>2015-7-3T21:11:20Z</time></trkpt>
<trkpt lat="46.18138768" lon="6.08729549"><ele></ele><time>2015-7-3T21:11:23Z</time></trkpt>
<trkpt lat="46.18137703" lon="6.08717127"><ele></ele><time>2015-7-3T21:11:26Z</time></trkpt>
<trkpt lat="46.18136312" lon="6.08704353"><ele></ele><time>2015-7-3T21:11:29Z</time></trkpt>
<trkpt lat="46.18135164" lon="6.08691294"><ele></ele><time>2015-7-3T21:11:32Z</time></trkpt>
<trkpt lat="46.18134929" lon="6.08677958"><ele></ele><time>2015-7-3T21:11:35Z</time></trkpt>
<trkpt lat="46.18134795" lon="6.08664606"><ele></ele><time>2015-7-3T21:11:38Z</time></trkpt>
<trkpt lat="46.18134510" lon="6.08651379"><ele></ele><time>2015-7-3T21:11:41Z</time></trkpt>
<trkpt lat="46.18134066" lon="6.08638119"><ele></ele><time>2015-7-3T21:11:44Z</time></trkpt>
<trkpt lat="46.18133697" lon="6.08625202"><ele></ele><time>2015-7-3T21:11:47Z</time></trkpt>
<trkpt lat="46.18133152" lon="6.08612579"><ele></ele><time>2015-7-3T21:11:50Z</time></trkpt>
<trkpt lat="46.18132515" lon="6.08600333"><ele></ele><time>2015-7-3T21:11:53Z</time></trkpt>
<trkpt lat="46.18132062" lon="6.08588154"><ele></ele><time>2015-7-3T21:11:56Z</time></trkpt>
<trkpt lat="46.18131769" lon="6.08576420"><ele></ele><time>2015-7-3T21:11:59Z</time></trkpt>
<trkpt lat="46.18131568" lon="6.08564928"><ele></ele><time>2015-7-3T21:12:2Z</time></trkpt>
<trkpt lat="46.18131459" lon="6.08553529"><ele></ele><time>2015-7-3T21:12:5Z</time></trkpt>
<trkpt lat="46.18131333" lon="6.08542473"><ele></ele><time>2015-7-3T21:12:8Z</time></trkpt>
<trkpt lat="46.18131207" lon="6.08531937"><ele></ele><time>2015-7-3T21:12:11Z</time></trkpt>
<trkpt lat="46.18130847" lon="6.08521694"><ele></ele><time>2015-7-3T21:12:14Z</time></trkpt>
<trkpt lat="46.18130453" lon="6.08511753"><ele></ele><time>2015-7-3T21:12:17Z</time></trkpt>
<trkpt lat="46.18130185" lon="6.08502106"><ele></ele><time>2015-7-3T21:12:20Z</time></trkpt>
<trkpt lat="46.18129916" lon="6.08492659"><ele></ele><time>2015-7-3T21:12:23Z</time></trkpt>
<trkpt lat="46.18129590" lon="6.08483733"><ele></ele><time>2015-7-3T21:12:26Z</time></trkpt>
<trkpt lat="46.18129338" lon="6.08474873"><ele></ele><time>2015-7-3T21:12:29Z</time></trkpt>
<trkpt lat="46.18128919" lon="6.08465812"><ele></ele><time>2015-7-3T21:12:32Z</time></trkpt>
<trkpt lat="46.18128307" lon="6.08456902"><ele></ele><time>2015-7-3T21:12:35Z</time></trkpt>
<trkpt lat="46.18128022" lon="6.08448369"><ele></ele><time>2015-7-3T21:12:38Z</time></trkpt>
<trkpt lat="46.18127804" lon="6.08440013"><ele></ele><time>2015-7-3T21:12:41Z</time></trkpt>
<trkpt lat="46.18127444" lon="6.08431748"><ele></ele><time>2015-7-3T21:12:44Z</time></trkpt>
<trkpt lat="46.18127033" lon="6.08423534"><ele></ele><time>2015-7-3T21:12:47Z</time></trkpt>
<trkpt lat="46.18126354" lon="6.08414984"><ele></ele><time>2015-7-3T21:12:50Z</time></trkpt>
<trkpt lat="46.18126052" lon="6.08406619"><ele></ele><time>2015-7-3T21:12:53Z</time></trkpt>
<trkpt lat="46.18125893" lon="6.08398187"><ele></ele><time>2015-7-3T21:12:56Z</time></trkpt>
<trkpt lat="46.18126002" lon="6.08390124"><ele></ele><time>2015-7-3T21:12:59Z</time></trkpt>
<trkpt lat="46.18125893" lon="6.08381825"><ele></ele><time>2015-7-3T21:13:2Z</time></trkpt>
<trkpt lat="46.18125667" lon="6.08373066"><ele></ele><time>2015-7-3T21:13:5Z</time></trkpt>
<trkpt lat="46.18125449" lon="6.08364257"><ele></ele><time>2015-7-3T21:13:8Z</time></trkpt>
<trkpt lat="46.18124167" lon="6.08357292"><ele></ele><time>2015-7-3T21:13:11Z</time></trkpt>
<trkpt lat="46.18123345" lon="6.08349295"><ele></ele><time>2015-7-3T21:13:14Z</time></trkpt>
<trkpt lat="46.18122457" lon="6.08340519"><ele></ele><time>2015-7-3T21:13:17Z</time></trkpt>
<trkpt lat="46.18121099" lon="6.08331878"><ele></ele><time>2015-7-3T21:13:20Z</time></trkpt>
<trkpt lat="46.18119858" lon="6.08322909"><ele></ele><time>2015-7-3T21:13:23Z</time></trkpt>
<trkpt lat="46.18118936" lon="6.08313647"><ele></ele><time>2015-7-3T21:13:26Z</time></trkpt>
<trkpt lat="46.18118232" lon="6.08304318"><ele></ele><time>2015-7-3T21:13:29Z</time></trkpt>
<trkpt lat="46.18117796" lon="6.08294964"><ele></ele><time>2015-7-3T21:13:32Z</time></trkpt>
<trkpt lat="46.18117436" lon="6.08285685"><ele></ele><time>2015-7-3T21:13:35Z</time></trkpt>
<trkpt lat="46.18117159" lon="6.08276633"><ele></ele><time>2015-7-3T21:13:38Z</time></trkpt>
<trkpt lat="46.18117243" lon="6.08267765"><ele></ele><time>2015-7-3T21:13:41Z</time></trkpt>
<trkpt lat="46.18117528" lon="6.08258955"><ele></ele><time>2015-7-3T21:13:44Z</time></trkpt>
<trkpt lat="46.18117545" lon="6.08249953"><ele></ele><time>2015-7-3T21:13:47Z</time></trkpt>
<trkpt lat="46.18117260" lon="6.08240834"><ele></ele><time>2015-7-3T21:13:50Z</time></trkpt>
<trkpt lat="46.18116966" lon="6.08231689"><ele></ele><time>2015-7-3T21:13:53Z</time></trkpt>
<trkpt lat="46.18116916" lon="6.08222293"><ele></ele><time>2015-7-3T21:13:56Z</time></trkpt>
<trkpt lat="46.18117000" lon="6.08212855"><ele></ele><time>2015-7-3T21:13:59Z</time></trkpt>
<trkpt lat="46.18116857" lon="6.08203492"><ele></ele><time>2015-7-3T21:14:2Z</time></trkpt>
<trkpt lat="46.18116883" lon="6.08193786"><ele></ele><time>2015-7-3T21:14:5Z</time></trkpt>
<trkpt lat="46.18117059" lon="6.08184633"><ele></ele><time>2015-7-3T21:14:8Z</time></trkpt>
<trkpt lat="46.18117142" lon="6.08175404"><ele></ele><time>2015-7-3T21:14:11Z</time></trkpt>
<trkpt lat="46.18117679" lon="6.08166335"><ele></ele><time>2015-7-3T21:14:14Z</time></trkpt>
<trkpt lat="46.18118626" lon="6.08157333"><ele></ele><time>2015-7-3T21:14:17Z</time></trkpt>
<trkpt lat="46.18120613" lon="6.08149052"><ele></ele><time>2015-7-3T21:14:20Z</time></trkpt>
<trkpt lat="46.18123915" lon="6.08141240"><ele></ele><time>2015-7-3T21:14:23Z</time></trkpt>
<trkpt lat="46.18127653" lon="6.08133914"><ele></ele><time>2015-7-3T21:14:26Z</time></trkpt>
<trkpt lat="46.18131626" lon="6.08126664"><ele></ele><time>2015-7-3T21:14:29Z</time></trkpt>
<trkpt lat="46.18135734" lon="6.08119313"><ele></ele><time>2015-7-3T21:14:32Z</time></trkpt>
<trkpt lat="46.18139665" lon="6.08111333"><ele></ele><time>2015-7-3T21:14:35Z</time></trkpt>
<trkpt lat="46.18142632" lon="6.08102566"><ele></ele><time>2015-7-3T21:14:38Z</time></trkpt>
<trkpt lat="46.18145976" lon="6.08093144"><ele></ele><time>2015-7-3T21:14:41Z</time></trkpt>
<trkpt lat="46.18148927" lon="6.08084369"><ele></ele><time>2015-7-3T21:14:44Z</time></trkpt>
<trkpt lat="46.18151668" lon="6.08076347"><ele></ele><time>2015-7-3T21:14:47Z</time></trkpt>
<trkpt lat="46.18153109" lon="6.08069239"><ele></ele><time>2015-7-3T21:14:50Z</time></trkpt>
<trkpt lat="46.18154618" lon="6.08064017"><ele></ele><time>2015-7-3T21:14:53Z</time></trkpt>
<trkpt lat="46.18155356" lon="6.08059265"><ele></ele><time>2015-7-3T21:14:56Z</time></trkpt>
<trkpt lat="46.18155758" lon="6.08055426"><ele></ele><time>2015-7-3T21:14:59Z</time></trkpt>
<trkpt lat="46.18155506" lon="6.08051805"><ele></ele><time>2015-7-3T21:15:2Z</time></trkpt>
<trkpt lat="46.18154744" lon="6.08047639"><ele></ele><time>2015-7-3T21:15:5Z</time></trkpt>
<trkpt lat="46.18153344" lon="6.08042719"><ele></ele><time>2015-7-3T21:15:8Z</time></trkpt>
<trkpt lat="46.18150846" lon="6.08037505"><ele></ele><time>2015-7-3T21:15:11Z</time></trkpt>
<trkpt lat="46.18148063" lon="6.08032149"><ele></ele><time>2015-7-3T21:15:14Z</time></trkpt>
<trkpt lat="46.18144996" lon="6.08026584"><ele></ele><time>2015-7-3T21:15:17Z</time></trkpt>
<trkpt lat="46.18141827" lon="6.08020674"><ele></ele><time>2015-7-3T21:15:20Z</time></trkpt>
<trkpt lat="46.18138768" lon="6.08014304"><ele></ele><time>2015-7-3T21:15:23Z</time></trkpt>
<trkpt lat="46.18135759" lon="6.08007557"><ele></ele><time>2015-7-3T21:15:26Z</time></trkpt>
<trkpt lat="46.18132926" lon="6.08000399"><ele></ele><time>2015-7-3T21:15:29Z</time></trkpt>
<trkpt lat="46.18130403" lon="6.07992746"><ele></ele><time>2015-7-3T21:15:32Z</time></trkpt>
<trkpt lat="46.18128265" lon="6.07984783"><ele></ele><time>2015-7-3T21:15:35Z</time></trkpt>
<trkpt lat="46.18125943" lon="6.07976929"><ele></ele><time>2015-7-3T21:15:38Z</time></trkpt>
<trkpt lat="46.18124334" lon="6.07968573"><ele></ele><time>2015-7-3T21:15:41Z</time></trkpt>
<trkpt lat="46.18123353" lon="6.07959822"><ele></ele><time>2015-7-3T21:15:44Z</time></trkpt>
<trkpt lat="46.18122306" lon="6.07951197"><ele></ele><time>2015-7-3T21:15:47Z</time></trkpt>
<trkpt lat="46.18121250" lon="6.07942698"><ele></ele><time>2015-7-3T21:15:50Z</time></trkpt>
<trkpt lat="46.18120135" lon="6.07934232"><ele></ele><time>2015-7-3T21:15:53Z</time></trkpt>
<trkpt lat="46.18119095" lon="6.07925992"><ele></ele><time>2015-7-3T21:15:56Z</time></trkpt>
<trkpt lat="46.18118207" lon="6.07917988"><ele></ele><time>2015-7-3T21:15:59Z</time></trkpt>
<trkpt lat="46.18117402" lon="6.07910276"><ele></ele><time>2015-7-3T21:16:2Z</time></trkpt>
<trkpt lat="46.18115634" lon="6.07902875"><ele></ele><time>2015-7-3T21:16:5Z</time></trkpt>
<trkpt lat="46.18114309" lon="6.07896019"><ele></ele><time>2015-7-3T21:16:8Z</time></trkpt>
<trkpt lat="46.18112574" lon="6.07889464"><ele></ele><time>2015-7-3T21:16:11Z</time></trkpt>
<trkpt lat="46.18109783" lon="6.07883563"><ele></ele><time>2015-7-3T21:16:14Z</time></trkpt>
<trkpt lat="46.18105852" lon="6.07879129"><ele></ele><time>2015-7-3T21:16:17Z</time></trkpt>
<trkpt lat="46.18100974" lon="6.07876338"><ele></ele><time>2015-7-3T21:16:20Z</time></trkpt>
<trkpt lat="46.18095710" lon="6.07874729"><ele></ele><time>2015-7-3T21:16:23Z</time></trkpt>
<trkpt lat="46.18090203" lon="6.07874075"><ele></ele><time>2015-7-3T21:16:26Z</time></trkpt>
<trkpt lat="46.18084604" lon="6.07874025"><ele></ele><time>2015-7-3T21:16:29Z</time></trkpt>
<trkpt lat="46.18078938" lon="6.07874142"><ele></ele><time>2015-7-3T21:16:32Z</time></trkpt>
<trkpt lat="46.18072718" lon="6.07874159"><ele></ele><time>2015-7-3T21:16:35Z</time></trkpt>
<trkpt lat="46.18066868" lon="6.07874377"><ele></ele><time>2015-7-3T21:16:38Z</time></trkpt>
<trkpt lat="46.18061042" lon="6.07874645"><ele></ele><time>2015-7-3T21:16:41Z</time></trkpt>
<trkpt lat="46.18055242" lon="6.07874947"><ele></ele><time>2015-7-3T21:16:44Z</time></trkpt>
<trkpt lat="46.18049635" lon="6.07874997"><ele></ele><time>2015-7-3T21:16:47Z</time></trkpt>
<trkpt lat="46.18044086" lon="6.07874729"><ele></ele><time>2015-7-3T21:16:50Z</time></trkpt>
<trkpt lat="46.18038579" lon="6.07874326"><ele></ele><time>2015-7-3T21:16:53Z</time></trkpt>
<trkpt lat="46.18033265" lon="6.07873723"><ele></ele><time>2015-7-3T21:16:56Z</time></trkpt>
<trkpt lat="46.18028135" lon="6.07872868"><ele></ele><time>2015-7-3T21:16:59Z</time></trkpt>
<trkpt lat="46.18023098" lon="6.07871929"><ele></ele><time>2015-7-3T21:17:2Z</time></trkpt>
<trkpt lat="46.18018102" lon="6.07870999"><ele></ele><time>2015-7-3T21:17:5Z</time></trkpt>
<trkpt lat="46.18013400" lon="6.07870127"><ele></ele><time>2015-7-3T21:17:8Z</time></trkpt>
<trkpt lat="46.18008647" lon="6.07869096"><ele></ele><time>2015-7-3T21:17:11Z</time></trkpt>
<trkpt lat="46.18003995" lon="6.07868099"><ele></ele><time>2015-7-3T21:17:14Z</time></trkpt>
<trkpt lat="46.18000207" lon="6.07867068"><ele></ele><time>2015-7-3T21:17:17Z</time></trkpt>
<trkpt lat="46.17996720" lon="6.07866305"><ele></ele><time>2015-7-3T21:17:20Z</time></trkpt>
<trkpt lat="46.17993434" lon="6.07865626"><ele></ele><time>2015-7-3T21:17:23Z</time></trkpt>
<trkpt lat="46.17990584" lon="6.07864612"><ele></ele><time>2015-7-3T21:17:26Z</time></trkpt>
<trkpt lat="46.17988212" lon="6.07862885"><ele></ele><time>2015-7-3T21:17:29Z</time></trkpt>
<trkpt lat="46.17986125" lon="6.07860312"><ele></ele><time>2015-7-3T21:17:32Z</time></trkpt>
<trkpt lat="46.17983904" lon="6.07857428"><ele></ele><time>2015-7-3T21:17:35Z</time></trkpt>
<trkpt lat="46.17981565" lon="6.07854009"><ele></ele><time>2015-7-3T21:17:38Z</time></trkpt>
<trkpt lat="46.17979235" lon="6.07849860"><ele></ele><time>2015-7-3T21:17:41Z</time></trkpt>
<trkpt lat="46.17977533" lon="6.07844336"><ele></ele><time>2015-7-3T21:17:44Z</time></trkpt>
<trkpt lat="46.17975907" lon="6.07838427"><ele></ele><time>2015-7-3T21:17:47Z</time></trkpt>
<trkpt lat="46.17974550" lon="6.07832559"><ele></ele><time>2015-7-3T21:17:50Z</time></trkpt>
<trkpt lat="46.17972915" lon="6.07826684"><ele></ele><time>2015-7-3T21:17:53Z</time></trkpt>
<trkpt lat="46.17971482" lon="6.07820498"><ele></ele><time>2015-7-3T21:17:56Z</time></trkpt>
<trkpt lat="46.17970325" lon="6.07813834"><ele></ele><time>2015-7-3T21:17:59Z</time></trkpt>
<trkpt lat="46.17968766" lon="6.07807313"><ele></ele><time>2015-7-3T21:18:2Z</time></trkpt>
<trkpt lat="46.17967819" lon="6.07800172"><ele></ele><time>2015-7-3T21:18:5Z</time></trkpt>
<trkpt lat="46.17966595" lon="6.07793039"><ele></ele><time>2015-7-3T21:18:8Z</time></trkpt>
<trkpt lat="46.17965438" lon="6.07785369"><ele></ele><time>2015-7-3T21:18:11Z</time></trkpt>
<trkpt lat="46.17965464" lon="6.07777113"><ele></ele><time>2015-7-3T21:18:14Z</time></trkpt>
<trkpt lat="46.17965539" lon="6.07768907"><ele></ele><time>2015-7-3T21:18:17Z</time></trkpt>
<trkpt lat="46.17965438" lon="6.07760534"><ele></ele><time>2015-7-3T21:18:20Z</time></trkpt>
<trkpt lat="46.17965070" lon="6.07752152"><ele></ele><time>2015-7-3T21:18:23Z</time></trkpt>
<trkpt lat="46.17964458" lon="6.07743803"><ele></ele><time>2015-7-3T21:18:26Z</time></trkpt>
<trkpt lat="46.17963879" lon="6.07735245"><ele></ele><time>2015-7-3T21:18:29Z</time></trkpt>
<trkpt lat="46.17962949" lon="6.07726503"><ele></ele><time>2015-7-3T21:18:32Z</time></trkpt>
<trkpt lat="46.17962086" lon="6.07717643"><ele></ele><time>2015-7-3T21:18:35Z</time></trkpt>
<trkpt lat="46.17961306" lon="6.07708734"><ele></ele><time>2015-7-3T21:18:38Z</time></trkpt>
<trkpt lat="46.17960376" lon="6.07699849"><ele></ele><time>2015-7-3T21:18:41Z</time></trkpt>
<trkpt lat="46.17959504" lon="6.07690888"><ele></ele><time>2015-7-3T21:18:44Z</time></trkpt>
<trkpt lat="46.17958490" lon="6.07681836"><ele></ele><time>2015-7-3T21:18:47Z</time></trkpt>
<trkpt lat="46.17957182" lon="6.07672792"><ele></ele><time>2015-7-3T21:18:50Z</time></trkpt>
<trkpt lat="46.17955875" lon="6.07663739"><ele></ele><time>2015-7-3T21:18:53Z</time></trkpt>
<trkpt lat="46.17953712" lon="6.07654553"><ele></ele><time>2015-7-3T21:18:56Z</time></trkpt>
<trkpt lat="46.17951583" lon="6.07645375"><ele></ele><time>2015-7-3T21:18:59Z</time></trkpt>
<trkpt lat="46.17949513" lon="6.07636255"><ele></ele><time>2015-7-3T21:19:2Z</time></trkpt>
<trkpt lat="46.17947359" lon="6.07627253"><ele></ele><time>2015-7-3T21:19:5Z</time></trkpt>
<trkpt lat="46.17945104" lon="6.07618368"><ele></ele><time>2015-7-3T21:19:8Z</time></trkpt>
<trkpt lat="46.17942916" lon="6.07609333"><ele></ele><time>2015-7-3T21:19:11Z</time></trkpt>
<trkpt lat="46.17941692" lon="6.07599836"><ele></ele><time>2015-7-3T21:19:14Z</time></trkpt>
<trkpt lat="46.17939983" lon="6.07590599"><ele></ele><time>2015-7-3T21:19:17Z</time></trkpt>
<trkpt lat="46.17937988" lon="6.07581697"><ele></ele><time>2015-7-3T21:19:20Z</time></trkpt>
<trkpt lat="46.17935599" lon="6.07573072"><ele></ele><time>2015-7-3T21:19:23Z</time></trkpt>
<trkpt lat="46.17933135" lon="6.07564699"><ele></ele><time>2015-7-3T21:19:26Z</time></trkpt>
<trkpt lat="46.17931064" lon="6.07555856"><ele></ele><time>2015-7-3T21:19:29Z</time></trkpt>
<trkpt lat="46.17928072" lon="6.07547189"><ele></ele><time>2015-7-3T21:19:32Z</time></trkpt>
<trkpt lat="46.17925130" lon="6.07538522"><ele></ele><time>2015-7-3T21:19:35Z</time></trkpt>
<trkpt lat="46.17922146" lon="6.07530115"><ele></ele><time>2015-7-3T21:19:38Z</time></trkpt>
<trkpt lat="46.17919078" lon="6.07521742"><ele></ele><time>2015-7-3T21:19:41Z</time></trkpt>
<trkpt lat="46.17916077" lon="6.07513293"><ele></ele><time>2015-7-3T21:19:44Z</time></trkpt>
<trkpt lat="46.17912892" lon="6.07504902"><ele></ele><time>2015-7-3T21:19:47Z</time></trkpt>
<trkpt lat="46.17909682" lon="6.07496420"><ele></ele><time>2015-7-3T21:19:50Z</time></trkpt>
<trkpt lat="46.17906623" lon="6.07487753"><ele></ele><time>2015-7-3T21:19:53Z</time></trkpt>
<trkpt lat="46.17903404" lon="6.07479120"><ele></ele><time>2015-7-3T21:19:56Z</time></trkpt>
<trkpt lat="46.17900169" lon="6.07470503"><ele></ele><time>2015-7-3T21:19:59Z</time></trkpt>
<trkpt lat="46.17897025" lon="6.07461878"><ele></ele><time>2015-7-3T21:20:2Z</time></trkpt>
<trkpt lat="46.17893773" lon="6.07453312"><ele></ele><time>2015-7-3T21:20:5Z</time></trkpt>
<trkpt lat="46.17890655" lon="6.07444695"><ele></ele><time>2015-7-3T21:20:8Z</time></trkpt>
<trkpt lat="46.17887562" lon="6.07436053"><ele></ele><time>2015-7-3T21:20:11Z</time></trkpt>
<trkpt lat="46.17884377" lon="6.07427487"><ele></ele><time>2015-7-3T21:20:14Z</time></trkpt>
<trkpt lat="46.17881108" lon="6.07418946"><ele></ele><time>2015-7-3T21:20:17Z</time></trkpt>
<trkpt lat="46.17877713" lon="6.07410355"><ele></ele><time>2015-7-3T21:20:20Z</time></trkpt>
<trkpt lat="46.17874352" lon="6.07401763"><ele></ele><time>2015-7-3T21:20:23Z</time></trkpt>
<trkpt lat="46.17871243" lon="6.07393163"><ele></ele><time>2015-7-3T21:20:26Z</time></trkpt>
<trkpt lat="46.17868175" lon="6.07384513"><ele></ele><time>2015-7-3T21:20:29Z</time></trkpt>
<trkpt lat="46.17865073" lon="6.07375880"><ele></ele><time>2015-7-3T21:20:32Z</time></trkpt>
<trkpt lat="46.17862039" lon="6.07367313"><ele></ele><time>2015-7-3T21:20:35Z</time></trkpt>
<trkpt lat="46.17859055" lon="6.07358839"><ele></ele><time>2015-7-3T21:20:38Z</time></trkpt>
<trkpt lat="46.17856306" lon="6.07350265"><ele></ele><time>2015-7-3T21:20:41Z</time></trkpt>
<trkpt lat="46.17853247" lon="6.07342084"><ele></ele><time>2015-7-3T21:20:44Z</time></trkpt>
<trkpt lat="46.17850179" lon="6.07334138"><ele></ele><time>2015-7-3T21:20:47Z</time></trkpt>
<trkpt lat="46.17847195" lon="6.07326309"><ele></ele><time>2015-7-3T21:20:50Z</time></trkpt>
<trkpt lat="46.17844982" lon="6.07318103"><ele></ele><time>2015-7-3T21:20:53Z</time></trkpt>
<trkpt lat="46.17842610" lon="6.07310208"><ele></ele><time>2015-7-3T21:20:56Z</time></trkpt>
<trkpt lat="46.17840204" lon="6.07302463"><ele></ele><time>2015-7-3T21:20:59Z</time></trkpt>
<trkpt lat="46.17837145" lon="6.07295305"><ele></ele><time>2015-7-3T21:21:2Z</time></trkpt>
<trkpt lat="46.17834245" lon="6.07288205"><ele></ele><time>2015-7-3T21:21:5Z</time></trkpt>
<trkpt lat="46.17831613" lon="6.07281022"><ele></ele><time>2015-7-3T21:21:8Z</time></trkpt>
<trkpt lat="46.17829207" lon="6.07273897"><ele></ele><time>2015-7-3T21:21:11Z</time></trkpt>
<trkpt lat="46.17827330" lon="6.07266982"><ele></ele><time>2015-7-3T21:21:14Z</time></trkpt>
<trkpt lat="46.17825318" lon="6.07260872"><ele></ele><time>2015-7-3T21:21:17Z</time></trkpt>
<trkpt lat="46.17824815" lon="6.07255038"><ele></ele><time>2015-7-3T21:21:20Z</time></trkpt>
<trkpt lat="46.17824723" lon="6.07250269"><ele></ele><time>2015-7-3T21:21:23Z</time></trkpt>
<trkpt lat="46.17825050" lon="6.07246572"><ele></ele><time>2015-7-3T21:21:26Z</time></trkpt>
<trkpt lat="46.17825142" lon="6.07243873"><ele></ele><time>2015-7-3T21:21:29Z</time></trkpt>
<trkpt lat="46.17825125" lon="6.07241987"><ele></ele><time>2015-7-3T21:21:32Z</time></trkpt>
<trkpt lat="46.17824907" lon="6.07240629"><ele></ele><time>2015-7-3T21:21:35Z</time></trkpt>
<trkpt lat="46.17824798" lon="6.07239976"><ele></ele><time>2015-7-3T21:21:38Z</time></trkpt>
<trkpt lat="46.17824363" lon="6.07240227"><ele></ele><time>2015-7-3T21:21:41Z</time></trkpt>
<trkpt lat="46.17824153" lon="6.07240638"><ele></ele><time>2015-7-3T21:21:44Z</time></trkpt>
<trkpt lat="46.17823876" lon="6.07240814"><ele></ele><time>2015-7-3T21:21:47Z</time></trkpt>
<trkpt lat="46.17823659" lon="6.07240906"><ele></ele><time>2015-7-3T21:21:50Z</time></trkpt>
<trkpt lat="46.17823583" lon="6.07240998"><ele></ele><time>2015-7-3T21:21:53Z</time></trkpt>
<trkpt lat="46.17823516" lon="6.07241107"><ele></ele><time>2015-7-3T21:21:56Z</time></trkpt>
<trkpt lat="46.17823499" lon="6.07241174"><ele></ele><time>2015-7-3T21:21:59Z</time></trkpt>
<trkpt lat="46.17823072" lon="6.07240546"><ele></ele><time>2015-7-3T21:22:2Z</time></trkpt>
<trkpt lat="46.17822158" lon="6.07239230"><ele></ele><time>2015-7-3T21:22:5Z</time></trkpt>
<trkpt lat="46.17820825" lon="6.07237872"><ele></ele><time>2015-7-3T21:22:8Z</time></trkpt>
<trkpt lat="46.17818973" lon="6.07236329"><ele></ele><time>2015-7-3T21:22:11Z</time></trkpt>
<trkpt lat="46.17816785" lon="6.07234217"><ele></ele><time>2015-7-3T21:22:14Z</time></trkpt>
<trkpt lat="46.17814723" lon="6.07231569"><ele></ele><time>2015-7-3T21:22:17Z</time></trkpt>
<trkpt lat="46.17813190" lon="6.07228199"><ele></ele><time>2015-7-3T21:22:20Z</time></trkpt>
<trkpt lat="46.17812242" lon="6.07224234"><ele></ele><time>2015-7-3T21:22:23Z</time></trkpt>
<trkpt lat="46.17811295" lon="6.07219893"><ele></ele><time>2015-7-3T21:22:26Z</time></trkpt>
<trkpt lat="46.17809024" lon="6.07216037"><ele></ele><time>2015-7-3T21:22:29Z</time></trkpt>
<trkpt lat="46.17806006" lon="6.07212164"><ele></ele><time>2015-7-3T21:22:32Z</time></trkpt>
<trkpt lat="46.17802855" lon="6.07206959"><ele></ele><time>2015-7-3T21:22:35Z</time></trkpt>
<trkpt lat="46.17799745" lon="6.07200245"><ele></ele><time>2015-7-3T21:22:38Z</time></trkpt>
<trkpt lat="46.17797239" lon="6.07192853"><ele></ele><time>2015-7-3T21:22:41Z</time></trkpt>
<trkpt lat="46.17795143" lon="6.07184906"><ele></ele><time>2015-7-3T21:22:44Z</time></trkpt>
<trkpt lat="46.17792746" lon="6.07176667"><ele></ele><time>2015-7-3T21:22:47Z</time></trkpt>
<trkpt lat="46.17790433" lon="6.07168227"><ele></ele><time>2015-7-3T21:22:50Z</time></trkpt>
<trkpt lat="46.17788102" lon="6.07159543"><ele></ele><time>2015-7-3T21:22:53Z</time></trkpt>
<trkpt lat="46.17785722" lon="6.07150809"><ele></ele><time>2015-7-3T21:22:56Z</time></trkpt>
<trkpt lat="46.17783325" lon="6.07142108"><ele></ele><time>2015-7-3T21:22:59Z</time></trkpt>
<trkpt lat="46.17780877" lon="6.07133416"><ele></ele><time>2015-7-3T21:23:2Z</time></trkpt>
<trkpt lat="46.17778430" lon="6.07124649"><ele></ele><time>2015-7-3T21:23:5Z</time></trkpt>
<trkpt lat="46.17775965" lon="6.07115932"><ele></ele><time>2015-7-3T21:23:8Z</time></trkpt>
<trkpt lat="46.17773543" lon="6.07107156"><ele></ele><time>2015-7-3T21:23:11Z</time></trkpt>
<trkpt lat="46.17770618" lon="6.07098682"><ele></ele><time>2015-7-3T21:23:14Z</time></trkpt>
<trkpt lat="46.17767726" lon="6.07090124"><ele></ele><time>2015-7-3T21:23:17Z</time></trkpt>
<trkpt lat="46.17764784" lon="6.07081524"><ele></ele><time>2015-7-3T21:23:20Z</time></trkpt>
<trkpt lat="46.17762429" lon="6.07072765"><ele></ele><time>2015-7-3T21:23:23Z</time></trkpt>
<trkpt lat="46.17759956" lon="6.07064090"><ele></ele><time>2015-7-3T21:23:26Z</time></trkpt>
<trkpt lat="46.17756469" lon="6.07055180"><ele></ele><time>2015-7-3T21:23:29Z</time></trkpt>
<trkpt lat="46.17752982" lon="6.07046354"><ele></ele><time>2015-7-3T21:23:32Z</time></trkpt>
<trkpt lat="46.17750158" lon="6.07037846"><ele></ele><time>2015-7-3T21:23:35Z</time></trkpt>
<trkpt lat="46.17747165" lon="6.07029338"><ele></ele><time>2015-7-3T21:23:38Z</time></trkpt>
<trkpt lat="46.17744223" lon="6.07020856"><ele></ele><time>2015-7-3T21:23:41Z</time></trkpt>
<trkpt lat="46.17740627" lon="6.07012122"><ele></ele><time>2015-7-3T21:23:44Z</time></trkpt>
<trkpt lat="46.17737174" lon="6.07003522"><ele></ele><time>2015-7-3T21:23:47Z</time></trkpt>
<trkpt lat="46.17733813" lon="6.06995014"><ele></ele><time>2015-7-3T21:23:50Z</time></trkpt>
<trkpt lat="46.17730334" lon="6.06986649"><ele></ele><time>2015-7-3T21:23:53Z</time></trkpt>
<trkpt lat="46.17726948" lon="6.06978267"><ele></ele><time>2015-7-3T21:23:56Z</time></trkpt>
<trkpt lat="46.17723595" lon="6.06969827"><ele></ele><time>2015-7-3T21:23:59Z</time></trkpt>
<trkpt lat="46.17720226" lon="6.06961252"><ele></ele><time>2015-7-3T21:24:2Z</time></trkpt>
<trkpt lat="46.17717016" lon="6.06952535"><ele></ele><time>2015-7-3T21:24:5Z</time></trkpt>
<trkpt lat="46.17713680" lon="6.06943835"><ele></ele><time>2015-7-3T21:24:8Z</time></trkpt>
<trkpt lat="46.17710369" lon="6.06935126"><ele></ele><time>2015-7-3T21:24:11Z</time></trkpt>
<trkpt lat="46.17707133" lon="6.06926518"><ele></ele><time>2015-7-3T21:24:14Z</time></trkpt>
<trkpt lat="46.17704066" lon="6.06918018"><ele></ele><time>2015-7-3T21:24:17Z</time></trkpt>
<trkpt lat="46.17701165" lon="6.06909553"><ele></ele><time>2015-7-3T21:24:20Z</time></trkpt>
<trkpt lat="46.17698307" lon="6.06901162"><ele></ele><time>2015-7-3T21:24:23Z</time></trkpt>
<trkpt lat="46.17695575" lon="6.06892923"><ele></ele><time>2015-7-3T21:24:26Z</time></trkpt>
<trkpt lat="46.17692783" lon="6.06884809"><ele></ele><time>2015-7-3T21:24:29Z</time></trkpt>
<trkpt lat="46.17690747" lon="6.06876402"><ele></ele><time>2015-7-3T21:24:32Z</time></trkpt>
<trkpt lat="46.17688660" lon="6.06868163"><ele></ele><time>2015-7-3T21:24:35Z</time></trkpt>
<trkpt lat="46.17686262" lon="6.06860342"><ele></ele><time>2015-7-3T21:24:38Z</time></trkpt>
<trkpt lat="46.17683848" lon="6.06852648"><ele></ele><time>2015-7-3T21:24:41Z</time></trkpt>
<trkpt lat="46.17680429" lon="6.06845775"><ele></ele><time>2015-7-3T21:24:44Z</time></trkpt>
<trkpt lat="46.17677487" lon="6.06838508"><ele></ele><time>2015-7-3T21:24:47Z</time></trkpt>
<trkpt lat="46.17674796" lon="6.06831115"><ele></ele><time>2015-7-3T21:24:50Z</time></trkpt>
<trkpt lat="46.17673103" lon="6.06823185"><ele></ele><time>2015-7-3T21:24:53Z</time></trkpt>
<trkpt lat="46.17671116" lon="6.06815214"><ele></ele><time>2015-7-3T21:24:56Z</time></trkpt>
<trkpt lat="46.17669465" lon="6.06807184"><ele></ele><time>2015-7-3T21:24:59Z</time></trkpt>
<trkpt lat="46.17667445" lon="6.06799129"><ele></ele><time>2015-7-3T21:25:2Z</time></trkpt>
<trkpt lat="46.17665266" lon="6.06791150"><ele></ele><time>2015-7-3T21:25:5Z</time></trkpt>
<trkpt lat="46.17663153" lon="6.06782793"><ele></ele><time>2015-7-3T21:25:8Z</time></trkpt>
<trkpt lat="46.17660932" lon="6.06774386"><ele></ele><time>2015-7-3T21:25:11Z</time></trkpt>
<trkpt lat="46.17658594" lon="6.06766004"><ele></ele><time>2015-7-3T21:25:14Z</time></trkpt>
<trkpt lat="46.17656305" lon="6.06757882"><ele></ele><time>2015-7-3T21:25:17Z</time></trkpt>
<trkpt lat="46.17654009" lon="6.06749827"><ele></ele><time>2015-7-3T21:25:20Z</time></trkpt>
<trkpt lat="46.17651570" lon="6.06741630"><ele></ele><time>2015-7-3T21:25:23Z</time></trkpt>
<trkpt lat="46.17648737" lon="6.06733616"><ele></ele><time>2015-7-3T21:25:26Z</time></trkpt>
<trkpt lat="46.17645828" lon="6.06724983"><ele></ele><time>2015-7-3T21:25:29Z</time></trkpt>
<trkpt lat="46.17642785" lon="6.06716777"><ele></ele><time>2015-7-3T21:25:32Z</time></trkpt>
<trkpt lat="46.17639693" lon="6.06708404"><ele></ele><time>2015-7-3T21:25:35Z</time></trkpt>
<trkpt lat="46.17636843" lon="6.06699930"><ele></ele><time>2015-7-3T21:25:38Z</time></trkpt>
<trkpt lat="46.17633976" lon="6.06691405"><ele></ele><time>2015-7-3T21:25:41Z</time></trkpt>
<trkpt lat="46.17631026" lon="6.06682939"><ele></ele><time>2015-7-3T21:25:44Z</time></trkpt>
<trkpt lat="46.17628779" lon="6.06673904"><ele></ele><time>2015-7-3T21:25:47Z</time></trkpt>
<trkpt lat="46.17626047" lon="6.06665212"><ele></ele><time>2015-7-3T21:25:50Z</time></trkpt>
<trkpt lat="46.17622820" lon="6.06656746"><ele></ele><time>2015-7-3T21:25:53Z</time></trkpt>
<trkpt lat="46.17620364" lon="6.06647836"><ele></ele><time>2015-7-3T21:25:56Z</time></trkpt>
<trkpt lat="46.17617606" lon="6.06639144"><ele></ele><time>2015-7-3T21:25:59Z</time></trkpt>
<trkpt lat="46.17613927" lon="6.06629505"><ele></ele><time>2015-7-3T21:26:2Z</time></trkpt>
<trkpt lat="46.17610322" lon="6.06619765"><ele></ele><time>2015-7-3T21:26:5Z</time></trkpt>
<trkpt lat="46.17606886" lon="6.06610084"><ele></ele><time>2015-7-3T21:26:8Z</time></trkpt>
<trkpt lat="46.17603709" lon="6.06600277"><ele></ele><time>2015-7-3T21:26:11Z</time></trkpt>
<trkpt lat="46.17601119" lon="6.06590839"><ele></ele><time>2015-7-3T21:26:14Z</time></trkpt>
<trkpt lat="46.17598688" lon="6.06581217"><ele></ele><time>2015-7-3T21:26:17Z</time></trkpt>
<trkpt lat="46.17596727" lon="6.06571393"><ele></ele><time>2015-7-3T21:26:20Z</time></trkpt>
<trkpt lat="46.17594397" lon="6.06561628"><ele></ele><time>2015-7-3T21:26:23Z</time></trkpt>
<trkpt lat="46.17591279" lon="6.06552106"><ele></ele><time>2015-7-3T21:26:26Z</time></trkpt>
<trkpt lat="46.17588655" lon="6.06542274"><ele></ele><time>2015-7-3T21:26:29Z</time></trkpt>
<trkpt lat="46.17586073" lon="6.06532359"><ele></ele><time>2015-7-3T21:26:32Z</time></trkpt>
<trkpt lat="46.17583517" lon="6.06522342"><ele></ele><time>2015-7-3T21:26:35Z</time></trkpt>
<trkpt lat="46.17581069" lon="6.06512225"><ele></ele><time>2015-7-3T21:26:38Z</time></trkpt>
<trkpt lat="46.17578438" lon="6.06501957"><ele></ele><time>2015-7-3T21:26:41Z</time></trkpt>
<trkpt lat="46.17575655" lon="6.06491782"><ele></ele><time>2015-7-3T21:26:44Z</time></trkpt>
<trkpt lat="46.17573065" lon="6.06481665"><ele></ele><time>2015-7-3T21:26:47Z</time></trkpt>
<trkpt lat="46.17570735" lon="6.06471607"><ele></ele><time>2015-7-3T21:26:50Z</time></trkpt>
<trkpt lat="46.17568606" lon="6.06461934"><ele></ele><time>2015-7-3T21:26:53Z</time></trkpt>
<trkpt lat="46.17566234" lon="6.06452563"><ele></ele><time>2015-7-3T21:26:56Z</time></trkpt>
<trkpt lat="46.17563694" lon="6.06443259"><ele></ele><time>2015-7-3T21:26:59Z</time></trkpt>
<trkpt lat="46.17561288" lon="6.06433469"><ele></ele><time>2015-7-3T21:27:2Z</time></trkpt>
<trkpt lat="46.17558832" lon="6.06423712"><ele></ele><time>2015-7-3T21:27:5Z</time></trkpt>
<trkpt lat="46.17556619" lon="6.06413889"><ele></ele><time>2015-7-3T21:27:8Z</time></trkpt>
<trkpt lat="46.17554599" lon="6.06404006"><ele></ele><time>2015-7-3T21:27:11Z</time></trkpt>
<trkpt lat="46.17552588" lon="6.06393940"><ele></ele><time>2015-7-3T21:27:14Z</time></trkpt>
<trkpt lat="46.17551004" lon="6.06384183"><ele></ele><time>2015-7-3T21:27:17Z</time></trkpt>
<trkpt lat="46.17549336" lon="6.06374284"><ele></ele><time>2015-7-3T21:27:20Z</time></trkpt>
<trkpt lat="46.17547844" lon="6.06364477"><ele></ele><time>2015-7-3T21:27:23Z</time></trkpt>
<trkpt lat="46.17546318" lon="6.06354972"><ele></ele><time>2015-7-3T21:27:26Z</time></trkpt>
<trkpt lat="46.17544927" lon="6.06345249"><ele></ele><time>2015-7-3T21:27:29Z</time></trkpt>
<trkpt lat="46.17543804" lon="6.06335417"><ele></ele><time>2015-7-3T21:27:32Z</time></trkpt>
<trkpt lat="46.17542412" lon="6.06325594"><ele></ele><time>2015-7-3T21:27:35Z</time></trkpt>
<trkpt lat="46.17540937" lon="6.06315569"><ele></ele><time>2015-7-3T21:27:38Z</time></trkpt>
<trkpt lat="46.17539554" lon="6.06305377"><ele></ele><time>2015-7-3T21:27:41Z</time></trkpt>
<trkpt lat="46.17538246" lon="6.06294380"><ele></ele><time>2015-7-3T21:27:44Z</time></trkpt>
<trkpt lat="46.17536888" lon="6.06283634"><ele></ele><time>2015-7-3T21:27:47Z</time></trkpt>
<trkpt lat="46.17535438" lon="6.06272846"><ele></ele><time>2015-7-3T21:27:50Z</time></trkpt>
<trkpt lat="46.17534064" lon="6.06262243"><ele></ele><time>2015-7-3T21:27:53Z</time></trkpt>
<trkpt lat="46.17532865" lon="6.06251682"><ele></ele><time>2015-7-3T21:27:56Z</time></trkpt>
<trkpt lat="46.17531306" lon="6.06240987"><ele></ele><time>2015-7-3T21:27:59Z</time></trkpt>
<trkpt lat="46.17529848" lon="6.06230007"><ele></ele><time>2015-7-3T21:28:2Z</time></trkpt>
<trkpt lat="46.17527844" lon="6.06218356"><ele></ele><time>2015-7-3T21:28:5Z</time></trkpt>
<trkpt lat="46.17526176" lon="6.06207233"><ele></ele><time>2015-7-3T21:28:8Z</time></trkpt>
<trkpt lat="46.17524358" lon="6.06195859"><ele></ele><time>2015-7-3T21:28:11Z</time></trkpt>
<trkpt lat="46.17522924" lon="6.06184878"><ele></ele><time>2015-7-3T21:28:14Z</time></trkpt>
<trkpt lat="46.17521558" lon="6.06173890"><ele></ele><time>2015-7-3T21:28:17Z</time></trkpt>
<trkpt lat="46.17519739" lon="6.06162457"><ele></ele><time>2015-7-3T21:28:20Z</time></trkpt>
<trkpt lat="46.17517929" lon="6.06151133"><ele></ele><time>2015-7-3T21:28:23Z</time></trkpt>
<trkpt lat="46.17516110" lon="6.06139842"><ele></ele><time>2015-7-3T21:28:26Z</time></trkpt>
<trkpt lat="46.17514324" lon="6.06128535"><ele></ele><time>2015-7-3T21:28:29Z</time></trkpt>
<trkpt lat="46.17512958" lon="6.06117488"><ele></ele><time>2015-7-3T21:28:32Z</time></trkpt>
<trkpt lat="46.17511567" lon="6.06106365"><ele></ele><time>2015-7-3T21:28:35Z</time></trkpt>
<trkpt lat="46.17510184" lon="6.06095284"><ele></ele><time>2015-7-3T21:28:38Z</time></trkpt>
<trkpt lat="46.17508843" lon="6.06084262"><ele></ele><time>2015-7-3T21:28:41Z</time></trkpt>
<trkpt lat="46.17507535" lon="6.06073349"><ele></ele><time>2015-7-3T21:28:44Z</time></trkpt>
<trkpt lat="46.17506135" lon="6.06062436"><ele></ele><time>2015-7-3T21:28:47Z</time></trkpt>
<trkpt lat="46.17504794" lon="6.06051489"><ele></ele><time>2015-7-3T21:28:50Z</time></trkpt>
<trkpt lat="46.17503503" lon="6.06040542"><ele></ele><time>2015-7-3T21:28:53Z</time></trkpt>
<trkpt lat="46.17502263" lon="6.06029679"><ele></ele><time>2015-7-3T21:28:56Z</time></trkpt>
<trkpt lat="46.17500913" lon="6.06018866"><ele></ele><time>2015-7-3T21:28:59Z</time></trkpt>
<trkpt lat="46.17499564" lon="6.06008096"><ele></ele><time>2015-7-3T21:29:2Z</time></trkpt>
<trkpt lat="46.17498382" lon="6.05997417"><ele></ele><time>2015-7-3T21:29:5Z</time></trkpt>
<trkpt lat="46.17497276" lon="6.05986789"><ele></ele><time>2015-7-3T21:29:8Z</time></trkpt>
<trkpt lat="46.17496069" lon="6.05976144"><ele></ele><time>2015-7-3T21:29:11Z</time></trkpt>
<trkpt lat="46.17494174" lon="6.05965113"><ele></ele><time>2015-7-3T21:29:14Z</time></trkpt>
<trkpt lat="46.17492406" lon="6.05954167"><ele></ele><time>2015-7-3T21:29:17Z</time></trkpt>
<trkpt lat="46.17490696" lon="6.05943220"><ele></ele><time>2015-7-3T21:29:20Z</time></trkpt>
<trkpt lat="46.17489707" lon="6.05932558"><ele></ele><time>2015-7-3T21:29:23Z</time></trkpt>
<trkpt lat="46.17488634" lon="6.05921896"><ele></ele><time>2015-7-3T21:29:26Z</time></trkpt>
<trkpt lat="46.17487393" lon="6.05911260"><ele></ele><time>2015-7-3T21:29:29Z</time></trkpt>
<trkpt lat="46.17486035" lon="6.05900589"><ele></ele><time>2015-7-3T21:29:32Z</time></trkpt>
<trkpt lat="46.17484745" lon="6.05889886"><ele></ele><time>2015-7-3T21:29:35Z</time></trkpt>
<trkpt lat="46.17483580" lon="6.05879232"><ele></ele><time>2015-7-3T21:29:38Z</time></trkpt>
<trkpt lat="46.17482264" lon="6.05868445"><ele></ele><time>2015-7-3T21:29:41Z</time></trkpt>
<trkpt lat="46.17481065" lon="6.05857632"><ele></ele><time>2015-7-3T21:29:44Z</time></trkpt>
<trkpt lat="46.17479020" lon="6.05846736"><ele></ele><time>2015-7-3T21:29:47Z</time></trkpt>
<trkpt lat="46.17477645" lon="6.05834540"><ele></ele><time>2015-7-3T21:29:50Z</time></trkpt>
<trkpt lat="46.17475558" lon="6.05823736"><ele></ele><time>2015-7-3T21:29:53Z</time></trkpt>
<trkpt lat="46.17474535" lon="6.05810526"><ele></ele><time>2015-7-3T21:29:56Z</time></trkpt>
<trkpt lat="46.17473169" lon="6.05798112"><ele></ele><time>2015-7-3T21:29:59Z</time></trkpt>
<trkpt lat="46.17471359" lon="6.05786319"><ele></ele><time>2015-7-3T21:30:2Z</time></trkpt>
<trkpt lat="46.17469599" lon="6.05775406"><ele></ele><time>2015-7-3T21:30:5Z</time></trkpt>
<trkpt lat="46.17467813" lon="6.05764383"><ele></ele><time>2015-7-3T21:30:8Z</time></trkpt>
<trkpt lat="46.17467067" lon="6.05752917"><ele></ele><time>2015-7-3T21:30:11Z</time></trkpt>
<trkpt lat="46.17468727" lon="6.05741417"><ele></ele><time>2015-7-3T21:30:14Z</time></trkpt>
<trkpt lat="46.17471367" lon="6.05729984"><ele></ele><time>2015-7-3T21:30:17Z</time></trkpt>
<trkpt lat="46.17472976" lon="6.05717730"><ele></ele><time>2015-7-3T21:30:20Z</time></trkpt>
<trkpt lat="46.17471619" lon="6.05706347"><ele></ele><time>2015-7-3T21:30:23Z</time></trkpt>
<trkpt lat="46.17467092" lon="6.05695778"><ele></ele><time>2015-7-3T21:30:26Z</time></trkpt>
<trkpt lat="46.17462398" lon="6.05685535"><ele></ele><time>2015-7-3T21:30:29Z</time></trkpt>
<trkpt lat="46.17458593" lon="6.05674395"><ele></ele><time>2015-7-3T21:30:32Z</time></trkpt>
<trkpt lat="46.17456095" lon="6.05662510"><ele></ele><time>2015-7-3T21:30:35Z</time></trkpt>
<trkpt lat="46.17454176" lon="6.05650264"><ele></ele><time>2015-7-3T21:30:38Z</time></trkpt>
<trkpt lat="46.17452717" lon="6.05637842"><ele></ele><time>2015-7-3T21:30:41Z</time></trkpt>
<trkpt lat="46.17451209" lon="6.05625269"><ele></ele><time>2015-7-3T21:30:44Z</time></trkpt>
<trkpt lat="46.17449683" lon="6.05612713"><ele></ele><time>2015-7-3T21:30:47Z</time></trkpt>
<trkpt lat="46.17448074" lon="6.05600249"><ele></ele><time>2015-7-3T21:30:50Z</time></trkpt>
<trkpt lat="46.17446515" lon="6.05587869"><ele></ele><time>2015-7-3T21:30:53Z</time></trkpt>
<trkpt lat="46.17444905" lon="6.05575556"><ele></ele><time>2015-7-3T21:30:56Z</time></trkpt>
<trkpt lat="46.17443237" lon="6.05563293"><ele></ele><time>2015-7-3T21:30:59Z</time></trkpt>
<trkpt lat="46.17441393" lon="6.05551207"><ele></ele><time>2015-7-3T21:31:2Z</time></trkpt>
<trkpt lat="46.17439583" lon="6.05539137"><ele></ele><time>2015-7-3T21:31:5Z</time></trkpt>
<trkpt lat="46.17437588" lon="6.05527092"><ele></ele><time>2015-7-3T21:31:8Z</time></trkpt>
<trkpt lat="46.17435484" lon="6.05515156"><ele></ele><time>2015-7-3T21:31:11Z</time></trkpt>
<trkpt lat="46.17433364" lon="6.05503287"><ele></ele><time>2015-7-3T21:31:14Z</time></trkpt>
<trkpt lat="46.17431914" lon="6.05491268"><ele></ele><time>2015-7-3T21:31:17Z</time></trkpt>
<trkpt lat="46.17430103" lon="6.05479416"><ele></ele><time>2015-7-3T21:31:20Z</time></trkpt>
<trkpt lat="46.17428267" lon="6.05467664"><ele></ele><time>2015-7-3T21:31:23Z</time></trkpt>
<trkpt lat="46.17426356" lon="6.05456030"><ele></ele><time>2015-7-3T21:31:26Z</time></trkpt>
<trkpt lat="46.17424454" lon="6.05444438"><ele></ele><time>2015-7-3T21:31:29Z</time></trkpt>
<trkpt lat="46.17422274" lon="6.05433072"><ele></ele><time>2015-7-3T21:31:32Z</time></trkpt>
<trkpt lat="46.17419994" lon="6.05421815"><ele></ele><time>2015-7-3T21:31:35Z</time></trkpt>
<trkpt lat="46.17417907" lon="6.05410424"><ele></ele><time>2015-7-3T21:31:38Z</time></trkpt>
<trkpt lat="46.17415988" lon="6.05399050"><ele></ele><time>2015-7-3T21:31:41Z</time></trkpt>
<trkpt lat="46.17414119" lon="6.05387743"><ele></ele><time>2015-7-3T21:31:44Z</time></trkpt>
<trkpt lat="46.17412199" lon="6.05376494"><ele></ele><time>2015-7-3T21:31:47Z</time></trkpt>
<trkpt lat="46.17410154" lon="6.05365262"><ele></ele><time>2015-7-3T21:31:50Z</time></trkpt>
<trkpt lat="46.17408084" lon="6.05354073"><ele></ele><time>2015-7-3T21:31:53Z</time></trkpt>
<trkpt lat="46.17405963" lon="6.05343008"><ele></ele><time>2015-7-3T21:31:56Z</time></trkpt>
<trkpt lat="46.17403868" lon="6.05332045"><ele></ele><time>2015-7-3T21:31:59Z</time></trkpt>
<trkpt lat="46.17401680" lon="6.05321107"><ele></ele><time>2015-7-3T21:32:2Z</time></trkpt>
<trkpt lat="46.17399543" lon="6.05310227"><ele></ele><time>2015-7-3T21:32:5Z</time></trkpt>
<trkpt lat="46.17397447" lon="6.05299448"><ele></ele><time>2015-7-3T21:32:8Z</time></trkpt>
<trkpt lat="46.17395276" lon="6.05288778"><ele></ele><time>2015-7-3T21:32:11Z</time></trkpt>
<trkpt lat="46.17393114" lon="6.05278225"><ele></ele><time>2015-7-3T21:32:14Z</time></trkpt>
<trkpt lat="46.17390943" lon="6.05267789"><ele></ele><time>2015-7-3T21:32:17Z</time></trkpt>
<trkpt lat="46.17388789" lon="6.05257429"><ele></ele><time>2015-7-3T21:32:20Z</time></trkpt>
<trkpt lat="46.17386643" lon="6.05247170"><ele></ele><time>2015-7-3T21:32:23Z</time></trkpt>
<trkpt lat="46.17384396" lon="6.05236927"><ele></ele><time>2015-7-3T21:32:26Z</time></trkpt>
<trkpt lat="46.17382108" lon="6.05226634"><ele></ele><time>2015-7-3T21:32:29Z</time></trkpt>
<trkpt lat="46.17379803" lon="6.05216308"><ele></ele><time>2015-7-3T21:32:32Z</time></trkpt>
<trkpt lat="46.17377607" lon="6.05205922"><ele></ele><time>2015-7-3T21:32:35Z</time></trkpt>
<trkpt lat="46.17375176" lon="6.05195646"><ele></ele><time>2015-7-3T21:32:38Z</time></trkpt>
<trkpt lat="46.17372796" lon="6.05185345"><ele></ele><time>2015-7-3T21:32:41Z</time></trkpt>
<trkpt lat="46.17370273" lon="6.05175270"><ele></ele><time>2015-7-3T21:32:44Z</time></trkpt>
<trkpt lat="46.17367775" lon="6.05165304"><ele></ele><time>2015-7-3T21:32:47Z</time></trkpt>
<trkpt lat="46.17365059" lon="6.05155296"><ele></ele><time>2015-7-3T21:32:50Z</time></trkpt>
<trkpt lat="46.17362386" lon="6.05145229"><ele></ele><time>2015-7-3T21:32:53Z</time></trkpt>
<trkpt lat="46.17359737" lon="6.05135154"><ele></ele><time>2015-7-3T21:32:56Z</time></trkpt>
<trkpt lat="46.17357449" lon="6.05124987"><ele></ele><time>2015-7-3T21:32:59Z</time></trkpt>
<trkpt lat="46.17354683" lon="6.05114937"><ele></ele><time>2015-7-3T21:33:2Z</time></trkpt>
<trkpt lat="46.17352026" lon="6.05104912"><ele></ele><time>2015-7-3T21:33:5Z</time></trkpt>
<trkpt lat="46.17349377" lon="6.05094837"><ele></ele><time>2015-7-3T21:33:8Z</time></trkpt>
<trkpt lat="46.17346745" lon="6.05084837"><ele></ele><time>2015-7-3T21:33:11Z</time></trkpt>
<trkpt lat="46.17344373" lon="6.05074855"><ele></ele><time>2015-7-3T21:33:14Z</time></trkpt>
<trkpt lat="46.17342403" lon="6.05064796"><ele></ele><time>2015-7-3T21:33:17Z</time></trkpt>
<trkpt lat="46.17340358" lon="6.05054864"><ele></ele><time>2015-7-3T21:33:20Z</time></trkpt>
<trkpt lat="46.17338254" lon="6.05044998"><ele></ele><time>2015-7-3T21:33:23Z</time></trkpt>
<trkpt lat="46.17335446" lon="6.05035208"><ele></ele><time>2015-7-3T21:33:26Z</time></trkpt>
<trkpt lat="46.17332856" lon="6.05025359"><ele></ele><time>2015-7-3T21:33:29Z</time></trkpt>
<trkpt lat="46.17330325" lon="6.05015553"><ele></ele><time>2015-7-3T21:33:32Z</time></trkpt>
<trkpt lat="46.17327768" lon="6.05005712"><ele></ele><time>2015-7-3T21:33:35Z</time></trkpt>
<trkpt lat="46.17325354" lon="6.04995830"><ele></ele><time>2015-7-3T21:33:38Z</time></trkpt>
<trkpt lat="46.17322982" lon="6.04985906"><ele></ele><time>2015-7-3T21:33:41Z</time></trkpt>
<trkpt lat="46.17320694" lon="6.04976099"><ele></ele><time>2015-7-3T21:33:44Z</time></trkpt>
<trkpt lat="46.17318490" lon="6.04966393"><ele></ele><time>2015-7-3T21:33:47Z</time></trkpt>
<trkpt lat="46.17316268" lon="6.04956745"><ele></ele><time>2015-7-3T21:33:50Z</time></trkpt>
<trkpt lat="46.17314089" lon="6.04947156"><ele></ele><time>2015-7-3T21:33:53Z</time></trkpt>
<trkpt lat="46.17311885" lon="6.04937593"><ele></ele><time>2015-7-3T21:33:56Z</time></trkpt>
<trkpt lat="46.17309697" lon="6.04927953"><ele></ele><time>2015-7-3T21:33:59Z</time></trkpt>
<trkpt lat="46.17307459" lon="6.04918197"><ele></ele><time>2015-7-3T21:34:2Z</time></trkpt>
<trkpt lat="46.17305188" lon="6.04908415"><ele></ele><time>2015-7-3T21:34:5Z</time></trkpt>
<trkpt lat="46.17302908" lon="6.04898717"><ele></ele><time>2015-7-3T21:34:8Z</time></trkpt>
<trkpt lat="46.17300645" lon="6.04889019"><ele></ele><time>2015-7-3T21:34:11Z</time></trkpt>
<trkpt lat="46.17298365" lon="6.04879347"><ele></ele><time>2015-7-3T21:34:14Z</time></trkpt>
<trkpt lat="46.17296143" lon="6.04869699"><ele></ele><time>2015-7-3T21:34:17Z</time></trkpt>
<trkpt lat="46.17294040" lon="6.04860060"><ele></ele><time>2015-7-3T21:34:20Z</time></trkpt>
<trkpt lat="46.17291978" lon="6.04850463"><ele></ele><time>2015-7-3T21:34:23Z</time></trkpt>
<trkpt lat="46.17290033" lon="6.04840999"><ele></ele><time>2015-7-3T21:34:26Z</time></trkpt>
<trkpt lat="46.17288038" lon="6.04831587"><ele></ele><time>2015-7-3T21:34:29Z</time></trkpt>
<trkpt lat="46.17286094" lon="6.04822232"><ele></ele><time>2015-7-3T21:34:32Z</time></trkpt>
<trkpt lat="46.17284115" lon="6.04812736"><ele></ele><time>2015-7-3T21:34:35Z</time></trkpt>
<trkpt lat="46.17282255" lon="6.04803113"><ele></ele><time>2015-7-3T21:34:38Z</time></trkpt>
<trkpt lat="46.17280427" lon="6.04793449"><ele></ele><time>2015-7-3T21:34:41Z</time></trkpt>
<trkpt lat="46.17278659" lon="6.04783743"><ele></ele><time>2015-7-3T21:34:44Z</time></trkpt>
<trkpt lat="46.17276966" lon="6.04774045"><ele></ele><time>2015-7-3T21:34:47Z</time></trkpt>
<trkpt lat="46.17275407" lon="6.04764339"><ele></ele><time>2015-7-3T21:34:50Z</time></trkpt>
<trkpt lat="46.17273898" lon="6.04754599"><ele></ele><time>2015-7-3T21:34:53Z</time></trkpt>
<trkpt lat="46.17272398" lon="6.04744884"><ele></ele><time>2015-7-3T21:34:56Z</time></trkpt>
<trkpt lat="46.17271107" lon="6.04735136"><ele></ele><time>2015-7-3T21:34:59Z</time></trkpt>
<trkpt lat="46.17269950" lon="6.04725849"><ele></ele><time>2015-7-3T21:35:2Z</time></trkpt>
<trkpt lat="46.17268986" lon="6.04716470"><ele></ele><time>2015-7-3T21:35:5Z</time></trkpt>
<trkpt lat="46.17268198" lon="6.04707115"><ele></ele><time>2015-7-3T21:35:8Z</time></trkpt>
<trkpt lat="46.17267578" lon="6.04697778"><ele></ele><time>2015-7-3T21:35:11Z</time></trkpt>
<trkpt lat="46.17266396" lon="6.04688600"><ele></ele><time>2015-7-3T21:35:14Z</time></trkpt>
<trkpt lat="46.17265197" lon="6.04679505"><ele></ele><time>2015-7-3T21:35:17Z</time></trkpt>
<trkpt lat="46.17264384" lon="6.04669824"><ele></ele><time>2015-7-3T21:35:20Z</time></trkpt>
<trkpt lat="46.17263722" lon="6.04660168"><ele></ele><time>2015-7-3T21:35:23Z</time></trkpt>
<trkpt lat="46.17263085" lon="6.04651049"><ele></ele><time>2015-7-3T21:35:26Z</time></trkpt>
<trkpt lat="46.17262658" lon="6.04641845"><ele></ele><time>2015-7-3T21:35:29Z</time></trkpt>
<trkpt lat="46.17262322" lon="6.04632508"><ele></ele><time>2015-7-3T21:35:32Z</time></trkpt>
<trkpt lat="46.17261987" lon="6.04623112"><ele></ele><time>2015-7-3T21:35:35Z</time></trkpt>
<trkpt lat="46.17261744" lon="6.04613758"><ele></ele><time>2015-7-3T21:35:38Z</time></trkpt>
<trkpt lat="46.17261778" lon="6.04604546"><ele></ele><time>2015-7-3T21:35:41Z</time></trkpt>
<trkpt lat="46.17261685" lon="6.04595443"><ele></ele><time>2015-7-3T21:35:44Z</time></trkpt>
<trkpt lat="46.17261568" lon="6.04586466"><ele></ele><time>2015-7-3T21:35:47Z</time></trkpt>
<trkpt lat="46.17261384" lon="6.04577514"><ele></ele><time>2015-7-3T21:35:50Z</time></trkpt>
<trkpt lat="46.17261183" lon="6.04568495"><ele></ele><time>2015-7-3T21:35:53Z</time></trkpt>
<trkpt lat="46.17261132" lon="6.04559267"><ele></ele><time>2015-7-3T21:35:56Z</time></trkpt>
<trkpt lat="46.17260680" lon="6.04550097"><ele></ele><time>2015-7-3T21:35:59Z</time></trkpt>
<trkpt lat="46.17260512" lon="6.04541145"><ele></ele><time>2015-7-3T21:36:2Z</time></trkpt>
<trkpt lat="46.17260336" lon="6.04532328"><ele></ele><time>2015-7-3T21:36:5Z</time></trkpt>
<trkpt lat="46.17260110" lon="6.04523602"><ele></ele><time>2015-7-3T21:36:8Z</time></trkpt>
<trkpt lat="46.17259925" lon="6.04514893"><ele></ele><time>2015-7-3T21:36:11Z</time></trkpt>
<trkpt lat="46.17259908" lon="6.04505950"><ele></ele><time>2015-7-3T21:36:14Z</time></trkpt>
<trkpt lat="46.17259883" lon="6.04497040"><ele></ele><time>2015-7-3T21:36:17Z</time></trkpt>
<trkpt lat="46.17259808" lon="6.04488197"><ele></ele><time>2015-7-3T21:36:20Z</time></trkpt>
<trkpt lat="46.17259573" lon="6.04479589"><ele></ele><time>2015-7-3T21:36:23Z</time></trkpt>
<trkpt lat="46.17258928" lon="6.04470679"><ele></ele><time>2015-7-3T21:36:26Z</time></trkpt>
<trkpt lat="46.17258517" lon="6.04461660"><ele></ele><time>2015-7-3T21:36:29Z</time></trkpt>
<trkpt lat="46.17258266" lon="6.04452607"><ele></ele><time>2015-7-3T21:36:32Z</time></trkpt>
<trkpt lat="46.17257520" lon="6.04443588"><ele></ele><time>2015-7-3T21:36:35Z</time></trkpt>
<trkpt lat="46.17257503" lon="6.04434762"><ele></ele><time>2015-7-3T21:36:38Z</time></trkpt>
<trkpt lat="46.17257218" lon="6.04426028"><ele></ele><time>2015-7-3T21:36:41Z</time></trkpt>
<trkpt lat="46.17256857" lon="6.04417454"><ele></ele><time>2015-7-3T21:36:44Z</time></trkpt>
<trkpt lat="46.17256413" lon="6.04409080"><ele></ele><time>2015-7-3T21:36:47Z</time></trkpt>
<trkpt lat="46.17255273" lon="6.04400564"><ele></ele><time>2015-7-3T21:36:50Z</time></trkpt>
<trkpt lat="46.17253907" lon="6.04392132"><ele></ele><time>2015-7-3T21:36:53Z</time></trkpt>
<trkpt lat="46.17252692" lon="6.04383834"><ele></ele><time>2015-7-3T21:36:56Z</time></trkpt>
<trkpt lat="46.17251460" lon="6.04375754"><ele></ele><time>2015-7-3T21:36:59Z</time></trkpt>
<trkpt lat="46.17251208" lon="6.04368109"><ele></ele><time>2015-7-3T21:37:2Z</time></trkpt>
<trkpt lat="46.17251988" lon="6.04360909"><ele></ele><time>2015-7-3T21:37:5Z</time></trkpt>
<trkpt lat="46.17253840" lon="6.04354346"><ele></ele><time>2015-7-3T21:37:8Z</time></trkpt>
<trkpt lat="46.17257025" lon="6.04348714"><ele></ele><time>2015-7-3T21:37:11Z</time></trkpt>
<trkpt lat="46.17260395" lon="6.04343064"><ele></ele><time>2015-7-3T21:37:14Z</time></trkpt>
<trkpt lat="46.17263605" lon="6.04336895"><ele></ele><time>2015-7-3T21:37:17Z</time></trkpt>
<trkpt lat="46.17266966" lon="6.04330550"><ele></ele><time>2015-7-3T21:37:20Z</time></trkpt>
<trkpt lat="46.17270738" lon="6.04324188"><ele></ele><time>2015-7-3T21:37:23Z</time></trkpt>
<trkpt lat="46.17274786" lon="6.04317709"><ele></ele><time>2015-7-3T21:37:26Z</time></trkpt>
<trkpt lat="46.17278575" lon="6.04310978"><ele></ele><time>2015-7-3T21:37:29Z</time></trkpt>
<trkpt lat="46.17282162" lon="6.04303963"><ele></ele><time>2015-7-3T21:37:32Z</time></trkpt>
<trkpt lat="46.17285959" lon="6.04297006"><ele></ele><time>2015-7-3T21:37:35Z</time></trkpt>
<trkpt lat="46.17289740" lon="6.04290158"><ele></ele><time>2015-7-3T21:37:38Z</time></trkpt>
<trkpt lat="46.17293478" lon="6.04283502"><ele></ele><time>2015-7-3T21:37:41Z</time></trkpt>
<trkpt lat="46.17297686" lon="6.04277258"><ele></ele><time>2015-7-3T21:37:44Z</time></trkpt>
<trkpt lat="46.17301558" lon="6.04271022"><ele></ele><time>2015-7-3T21:37:47Z</time></trkpt>
<trkpt lat="46.17305104" lon="6.04264794"><ele></ele><time>2015-7-3T21:37:50Z</time></trkpt>
<trkpt lat="46.17308473" lon="6.04258860"><ele></ele><time>2015-7-3T21:37:53Z</time></trkpt>
<trkpt lat="46.17311658" lon="6.04252833"><ele></ele><time>2015-7-3T21:37:56Z</time></trkpt>
<trkpt lat="46.17314994" lon="6.04246563"><ele></ele><time>2015-7-3T21:37:59Z</time></trkpt>
<trkpt lat="46.17318272" lon="6.04240235"><ele></ele><time>2015-7-3T21:38:2Z</time></trkpt>
<trkpt lat="46.17321423" lon="6.04233865"><ele></ele><time>2015-7-3T21:38:5Z</time></trkpt>
<trkpt lat="46.17324466" lon="6.04227394"><ele></ele><time>2015-7-3T21:38:8Z</time></trkpt>
<trkpt lat="46.17327282" lon="6.04220697"><ele></ele><time>2015-7-3T21:38:11Z</time></trkpt>
<trkpt lat="46.17330099" lon="6.04213865"><ele></ele><time>2015-7-3T21:38:14Z</time></trkpt>
<trkpt lat="46.17332412" lon="6.04206867"><ele></ele><time>2015-7-3T21:38:17Z</time></trkpt>
<trkpt lat="46.17334658" lon="6.04199742"><ele></ele><time>2015-7-3T21:38:20Z</time></trkpt>
<trkpt lat="46.17336955" lon="6.04192559"><ele></ele><time>2015-7-3T21:38:23Z</time></trkpt>
<trkpt lat="46.17339319" lon="6.04185417"><ele></ele><time>2015-7-3T21:38:26Z</time></trkpt>
<trkpt lat="46.17341406" lon="6.04178268"><ele></ele><time>2015-7-3T21:38:29Z</time></trkpt>
<trkpt lat="46.17343543" lon="6.04171218"><ele></ele><time>2015-7-3T21:38:32Z</time></trkpt>
<trkpt lat="46.17345865" lon="6.04164178"><ele></ele><time>2015-7-3T21:38:35Z</time></trkpt>
<trkpt lat="46.17348614" lon="6.04157279"><ele></ele><time>2015-7-3T21:38:38Z</time></trkpt>
<trkpt lat="46.17351372" lon="6.04150322"><ele></ele><time>2015-7-3T21:38:41Z</time></trkpt>
<trkpt lat="46.17353752" lon="6.04143332"><ele></ele><time>2015-7-3T21:38:44Z</time></trkpt>
<trkpt lat="46.17355948" lon="6.04136417"><ele></ele><time>2015-7-3T21:38:47Z</time></trkpt>
<trkpt lat="46.17358220" lon="6.04129183"><ele></ele><time>2015-7-3T21:38:50Z</time></trkpt>
<trkpt lat="46.17359636" lon="6.04122058"><ele></ele><time>2015-7-3T21:38:53Z</time></trkpt>
<trkpt lat="46.17360240" lon="6.04114925"><ele></ele><time>2015-7-3T21:38:56Z</time></trkpt>
<trkpt lat="46.17360785" lon="6.04107910"><ele></ele><time>2015-7-3T21:38:59Z</time></trkpt>
<trkpt lat="46.17363920" lon="6.04100090"><ele></ele><time>2015-7-3T21:39:2Z</time></trkpt>
<trkpt lat="46.17366342" lon="6.04093510"><ele></ele><time>2015-7-3T21:39:5Z</time></trkpt>
<trkpt lat="46.17364238" lon="6.04086494"><ele></ele><time>2015-7-3T21:39:8Z</time></trkpt>
<trkpt lat="46.17361715" lon="6.04077903"><ele></ele><time>2015-7-3T21:39:11Z</time></trkpt>
<trkpt lat="46.17359485" lon="6.04069496"><ele></ele><time>2015-7-3T21:39:14Z</time></trkpt>
<trkpt lat="46.17357038" lon="6.04061692"><ele></ele><time>2015-7-3T21:39:17Z</time></trkpt>
<trkpt lat="46.17354926" lon="6.04054584"><ele></ele><time>2015-7-3T21:39:20Z</time></trkpt>
<trkpt lat="46.17353057" lon="6.04046915"><ele></ele><time>2015-7-3T21:39:23Z</time></trkpt>
<trkpt lat="46.17350928" lon="6.04039396"><ele></ele><time>2015-7-3T21:39:26Z</time></trkpt>
<trkpt lat="46.17348145" lon="6.04032448"><ele></ele><time>2015-7-3T21:39:29Z</time></trkpt>
<trkpt lat="46.17345513" lon="6.04025323"><ele></ele><time>2015-7-3T21:39:32Z</time></trkpt>
<trkpt lat="46.17342294" lon="6.04017662"><ele></ele><time>2015-7-3T21:39:35Z</time></trkpt>
<trkpt lat="46.17339520" lon="6.04010059"><ele></ele><time>2015-7-3T21:39:38Z</time></trkpt>
<trkpt lat="46.17336988" lon="6.04002264"><ele></ele><time>2015-7-3T21:39:41Z</time></trkpt>
<trkpt lat="46.17334809" lon="6.03994779"><ele></ele><time>2015-7-3T21:39:44Z</time></trkpt>
<trkpt lat="46.17333158" lon="6.03987085"><ele></ele><time>2015-7-3T21:39:47Z</time></trkpt>
<trkpt lat="46.17331364" lon="6.03979566"><ele></ele><time>2015-7-3T21:39:50Z</time></trkpt>
<trkpt lat="46.17330073" lon="6.03971897"><ele></ele><time>2015-7-3T21:39:53Z</time></trkpt>
<trkpt lat="46.17328816" lon="6.03964395"><ele></ele><time>2015-7-3T21:39:56Z</time></trkpt>
<trkpt lat="46.17327869" lon="6.03956776"><ele></ele><time>2015-7-3T21:39:59Z</time></trkpt>
<trkpt lat="46.17326939" lon="6.03949307"><ele></ele><time>2015-7-3T21:40:2Z</time></trkpt>
<trkpt lat="46.17326092" lon="6.03941839"><ele></ele><time>2015-7-3T21:40:5Z</time></trkpt>
<trkpt lat="46.17324818" lon="6.03934564"><ele></ele><time>2015-7-3T21:40:8Z</time></trkpt>
<trkpt lat="46.17323569" lon="6.03927297"><ele></ele><time>2015-7-3T21:40:11Z</time></trkpt>
<trkpt lat="46.17322220" lon="6.03919937"><ele></ele><time>2015-7-3T21:40:14Z</time></trkpt>
<trkpt lat="46.17321256" lon="6.03912452"><ele></ele><time>2015-7-3T21:40:17Z</time></trkpt>
<trkpt lat="46.17320585" lon="6.03904942"><ele></ele><time>2015-7-3T21:40:20Z</time></trkpt>
<trkpt lat="46.17319588" lon="6.03897549"><ele></ele><time>2015-7-3T21:40:23Z</time></trkpt>
<trkpt lat="46.17316838" lon="6.03891623"><ele></ele><time>2015-7-3T21:40:26Z</time></trkpt>
<trkpt lat="46.17312404" lon="6.03888606"><ele></ele><time>2015-7-3T21:40:29Z</time></trkpt>
<trkpt lat="46.17307325" lon="6.03888782"><ele></ele><time>2015-7-3T21:40:32Z</time></trkpt>
<trkpt lat="46.17302103" lon="6.03891196"><ele></ele><time>2015-7-3T21:40:35Z</time></trkpt>
<trkpt lat="46.17296755" lon="6.03894657"><ele></ele><time>2015-7-3T21:40:38Z</time></trkpt>
<trkpt lat="46.17291399" lon="6.03898454"><ele></ele><time>2015-7-3T21:40:41Z</time></trkpt>
<trkpt lat="46.17285976" lon="6.03902134"><ele></ele><time>2015-7-3T21:40:44Z</time></trkpt>
<trkpt lat="46.17280486" lon="6.03905705"><ele></ele><time>2015-7-3T21:40:47Z</time></trkpt>
<trkpt lat="46.17275038" lon="6.03909292"><ele></ele><time>2015-7-3T21:40:50Z</time></trkpt>
<trkpt lat="46.17269732" lon="6.03912704"><ele></ele><time>2015-7-3T21:40:53Z</time></trkpt>
<trkpt lat="46.17264485" lon="6.03916107"><ele></ele><time>2015-7-3T21:40:56Z</time></trkpt>
<trkpt lat="46.17259288" lon="6.03919552"><ele></ele><time>2015-7-3T21:40:59Z</time></trkpt>
<trkpt lat="46.17254050" lon="6.03922913"><ele></ele><time>2015-7-3T21:41:2Z</time></trkpt>
<trkpt lat="46.17248828" lon="6.03926282"><ele></ele><time>2015-7-3T21:41:5Z</time></trkpt>
<trkpt lat="46.17243648" lon="6.03929685"><ele></ele><time>2015-7-3T21:41:8Z</time></trkpt>
<trkpt lat="46.17238426" lon="6.03933072"><ele></ele><time>2015-7-3T21:41:11Z</time></trkpt>
<trkpt lat="46.17233179" lon="6.03936475"><ele></ele><time>2015-7-3T21:41:14Z</time></trkpt>
<trkpt lat="46.17227923" lon="6.03939945"><ele></ele><time>2015-7-3T21:41:17Z</time></trkpt>
<trkpt lat="46.17222668" lon="6.03943390"><ele></ele><time>2015-7-3T21:41:20Z</time></trkpt>
<trkpt lat="46.17217437" lon="6.03946709"><ele></ele><time>2015-7-3T21:41:23Z</time></trkpt>
<trkpt lat="46.17212266" lon="6.03950028"><ele></ele><time>2015-7-3T21:41:26Z</time></trkpt>
<trkpt lat="46.17207170" lon="6.03953448"><ele></ele><time>2015-7-3T21:41:29Z</time></trkpt>
<trkpt lat="46.17202132" lon="6.03956935"><ele></ele><time>2015-7-3T21:41:32Z</time></trkpt>
<trkpt lat="46.17197078" lon="6.03960212"><ele></ele><time>2015-7-3T21:41:35Z</time></trkpt>
<trkpt lat="46.17192023" lon="6.03963322"><ele></ele><time>2015-7-3T21:41:38Z</time></trkpt>
<trkpt lat="46.17187036" lon="6.03966448"><ele></ele><time>2015-7-3T21:41:41Z</time></trkpt>
<trkpt lat="46.17182032" lon="6.03969499"><ele></ele><time>2015-7-3T21:41:44Z</time></trkpt>
<trkpt lat="46.17177137" lon="6.03972584"><ele></ele><time>2015-7-3T21:41:47Z</time></trkpt>
<trkpt lat="46.17172477" lon="6.03975836"><ele></ele><time>2015-7-3T21:41:50Z</time></trkpt>
<trkpt lat="46.17167984" lon="6.03978996"><ele></ele><time>2015-7-3T21:41:53Z</time></trkpt>
<trkpt lat="46.17163533" lon="6.03981754"><ele></ele><time>2015-7-3T21:41:56Z</time></trkpt>
<trkpt lat="46.17159334" lon="6.03984327"><ele></ele><time>2015-7-3T21:41:59Z</time></trkpt>
<trkpt lat="46.17155453" lon="6.03986833"><ele></ele><time>2015-7-3T21:42:2Z</time></trkpt>
<trkpt lat="46.17151966" lon="6.03988585"><ele></ele><time>2015-7-3T21:42:5Z</time></trkpt>
<trkpt lat="46.17148764" lon="6.03988250"><ele></ele><time>2015-7-3T21:42:8Z</time></trkpt>
<trkpt lat="46.17145948" lon="6.03985316"><ele></ele><time>2015-7-3T21:42:11Z</time></trkpt>
<trkpt lat="46.17143844" lon="6.03980857"><ele></ele><time>2015-7-3T21:42:14Z</time></trkpt>
<trkpt lat="46.17141833" lon="6.03975526"><ele></ele><time>2015-7-3T21:42:17Z</time></trkpt>
<trkpt lat="46.17139502" lon="6.03969826"><ele></ele><time>2015-7-3T21:42:20Z</time></trkpt>
<trkpt lat="46.17136996" lon="6.03963867"><ele></ele><time>2015-7-3T21:42:23Z</time></trkpt>
<trkpt lat="46.17134565" lon="6.03957614"><ele></ele><time>2015-7-3T21:42:26Z</time></trkpt>
<trkpt lat="46.17131967" lon="6.03951168"><ele></ele><time>2015-7-3T21:42:29Z</time></trkpt>
<trkpt lat="46.17129528" lon="6.03944505"><ele></ele><time>2015-7-3T21:42:32Z</time></trkpt>
<trkpt lat="46.17126619" lon="6.03937950"><ele></ele><time>2015-7-3T21:42:35Z</time></trkpt>
<trkpt lat="46.17123887" lon="6.03931253"><ele></ele><time>2015-7-3T21:42:38Z</time></trkpt>
<trkpt lat="46.17121188" lon="6.03924572"><ele></ele><time>2015-7-3T21:42:41Z</time></trkpt>
<trkpt lat="46.17118673" lon="6.03917699"><ele></ele><time>2015-7-3T21:42:44Z</time></trkpt>
<trkpt lat="46.17116276" lon="6.03911086"><ele></ele><time>2015-7-3T21:42:47Z</time></trkpt>
<trkpt lat="46.17113879" lon="6.03904464"><ele></ele><time>2015-7-3T21:42:50Z</time></trkpt>
<trkpt lat="46.17111289" lon="6.03897608"><ele></ele><time>2015-7-3T21:42:53Z</time></trkpt>
<trkpt lat="46.17108339" lon="6.03890483"><ele></ele><time>2015-7-3T21:42:56Z</time></trkpt>
<trkpt lat="46.17104667" lon="6.03883442"><ele></ele><time>2015-7-3T21:42:59Z</time></trkpt>
<trkpt lat="46.17101206" lon="6.03876502"><ele></ele><time>2015-7-3T21:43:2Z</time></trkpt>
<trkpt lat="46.17098574" lon="6.03869663"><ele></ele><time>2015-7-3T21:43:5Z</time></trkpt>
<trkpt lat="46.17096839" lon="6.03862504"><ele></ele><time>2015-7-3T21:43:8Z</time></trkpt>
<trkpt lat="46.17096352" lon="6.03855112"><ele></ele><time>2015-7-3T21:43:11Z</time></trkpt>
<trkpt lat="46.17096512" lon="6.03848347"><ele></ele><time>2015-7-3T21:43:14Z</time></trkpt>
<trkpt lat="46.17096394" lon="6.03842262"><ele></ele><time>2015-7-3T21:43:17Z</time></trkpt>
<trkpt lat="46.17095078" lon="6.03836906"><ele></ele><time>2015-7-3T21:43:20Z</time></trkpt>
<trkpt lat="46.17093259" lon="6.03831793"><ele></ele><time>2015-7-3T21:43:23Z</time></trkpt>
<trkpt lat="46.17090854" lon="6.03827225"><ele></ele><time>2015-7-3T21:43:26Z</time></trkpt>
<trkpt lat="46.17087275" lon="6.03823487"><ele></ele><time>2015-7-3T21:43:29Z</time></trkpt>
<trkpt lat="46.17082992" lon="6.03820696"><ele></ele><time>2015-7-3T21:43:32Z</time></trkpt>
<trkpt lat="46.17078449" lon="6.03818013"><ele></ele><time>2015-7-3T21:43:35Z</time></trkpt>
<trkpt lat="46.17073973" lon="6.03813822"><ele></ele><time>2015-7-3T21:43:38Z</time></trkpt>
<trkpt lat="46.17069857" lon="6.03808047"><ele></ele><time>2015-7-3T21:43:41Z</time></trkpt>
<trkpt lat="46.17066178" lon="6.03801275"><ele></ele><time>2015-7-3T21:43:44Z</time></trkpt>
<trkpt lat="46.17062758" lon="6.03794016"><ele></ele><time>2015-7-3T21:43:47Z</time></trkpt>
<trkpt lat="46.17059438" lon="6.03786514"><ele></ele><time>2015-7-3T21:43:50Z</time></trkpt>
<trkpt lat="46.17056077" lon="6.03778887"><ele></ele><time>2015-7-3T21:43:53Z</time></trkpt>
<trkpt lat="46.17052616" lon="6.03771259"><ele></ele><time>2015-7-3T21:43:56Z</time></trkpt>
<trkpt lat="46.17049112" lon="6.03763640"><ele></ele><time>2015-7-3T21:43:59Z</time></trkpt>
<trkpt lat="46.17045667" lon="6.03755912"><ele></ele><time>2015-7-3T21:44:2Z</time></trkpt>
<trkpt lat="46.17042172" lon="6.03748184"><ele></ele><time>2015-7-3T21:44:5Z</time></trkpt>
<trkpt lat="46.17038593" lon="6.03740447"><ele></ele><time>2015-7-3T21:44:8Z</time></trkpt>
<trkpt lat="46.17035056" lon="6.03732577"><ele></ele><time>2015-7-3T21:44:11Z</time></trkpt>
<trkpt lat="46.17031435" lon="6.03724622"><ele></ele><time>2015-7-3T21:44:14Z</time></trkpt>
<trkpt lat="46.17027839" lon="6.03716525"><ele></ele><time>2015-7-3T21:44:17Z</time></trkpt>
<trkpt lat="46.17024226" lon="6.03708319"><ele></ele><time>2015-7-3T21:44:20Z</time></trkpt>
<trkpt lat="46.17020588" lon="6.03700080"><ele></ele><time>2015-7-3T21:44:23Z</time></trkpt>
<trkpt lat="46.17017018" lon="6.03691874"><ele></ele><time>2015-7-3T21:44:26Z</time></trkpt>
<trkpt lat="46.17013439" lon="6.03683702"><ele></ele><time>2015-7-3T21:44:29Z</time></trkpt>
<trkpt lat="46.17009885" lon="6.03675412"><ele></ele><time>2015-7-3T21:44:32Z</time></trkpt>
<trkpt lat="46.17006356" lon="6.03666997"><ele></ele><time>2015-7-3T21:44:35Z</time></trkpt>
<trkpt lat="46.17002794" lon="6.03658564"><ele></ele><time>2015-7-3T21:44:38Z</time></trkpt>
<trkpt lat="46.16999215" lon="6.03650107"><ele></ele><time>2015-7-3T21:44:41Z</time></trkpt>
<trkpt lat="46.16995694" lon="6.03641524"><ele></ele><time>2015-7-3T21:44:44Z</time></trkpt>
<trkpt lat="46.16992149" lon="6.03632933"><ele></ele><time>2015-7-3T21:44:47Z</time></trkpt>
<trkpt lat="46.16988586" lon="6.03624375"><ele></ele><time>2015-7-3T21:44:50Z</time></trkpt>
<trkpt lat="46.16984974" lon="6.03615884"><ele></ele><time>2015-7-3T21:44:53Z</time></trkpt>
<trkpt lat="46.16981428" lon="6.03607384"><ele></ele><time>2015-7-3T21:44:56Z</time></trkpt>
<trkpt lat="46.16977958" lon="6.03598718"><ele></ele><time>2015-7-3T21:44:59Z</time></trkpt>
<trkpt lat="46.16974505" lon="6.03589992"><ele></ele><time>2015-7-3T21:45:2Z</time></trkpt>
<trkpt lat="46.16971076" lon="6.03581317"><ele></ele><time>2015-7-3T21:45:5Z</time></trkpt>
<trkpt lat="46.16967590" lon="6.03572658"><ele></ele><time>2015-7-3T21:45:8Z</time></trkpt>
<trkpt lat="46.16964203" lon="6.03563983"><ele></ele><time>2015-7-3T21:45:11Z</time></trkpt>
<trkpt lat="46.16960867" lon="6.03555324"><ele></ele><time>2015-7-3T21:45:14Z</time></trkpt>
<trkpt lat="46.16957506" lon="6.03546607"><ele></ele><time>2015-7-3T21:45:17Z</time></trkpt>
<trkpt lat="46.16954120" lon="6.03537815"><ele></ele><time>2015-7-3T21:45:20Z</time></trkpt>
<trkpt lat="46.16950725" lon="6.03528972"><ele></ele><time>2015-7-3T21:45:23Z</time></trkpt>
<trkpt lat="46.16947414" lon="6.03520104"><ele></ele><time>2015-7-3T21:45:26Z</time></trkpt>
<trkpt lat="46.16943609" lon="6.03510657"><ele></ele><time>2015-7-3T21:45:29Z</time></trkpt>
<trkpt lat="46.16939552" lon="6.03501454"><ele></ele><time>2015-7-3T21:45:32Z</time></trkpt>
<trkpt lat="46.16935445" lon="6.03492334"><ele></ele><time>2015-7-3T21:45:35Z</time></trkpt>
<trkpt lat="46.16931849" lon="6.03482947"><ele></ele><time>2015-7-3T21:45:38Z</time></trkpt>
<trkpt lat="46.16928396" lon="6.03473425"><ele></ele><time>2015-7-3T21:45:41Z</time></trkpt>
<trkpt lat="46.16924993" lon="6.03463844"><ele></ele><time>2015-7-3T21:45:44Z</time></trkpt>
<trkpt lat="46.16921506" lon="6.03454339"><ele></ele><time>2015-7-3T21:45:47Z</time></trkpt>
<trkpt lat="46.16917877" lon="6.03444926"><ele></ele><time>2015-7-3T21:45:50Z</time></trkpt>
<trkpt lat="46.16914289" lon="6.03435505"><ele></ele><time>2015-7-3T21:45:53Z</time></trkpt>
<trkpt lat="46.16910718" lon="6.03426034"><ele></ele><time>2015-7-3T21:45:56Z</time></trkpt>
<trkpt lat="46.16907273" lon="6.03416487"><ele></ele><time>2015-7-3T21:45:59Z</time></trkpt>
<trkpt lat="46.16903887" lon="6.03406822"><ele></ele><time>2015-7-3T21:46:2Z</time></trkpt>
<trkpt lat="46.16900476" lon="6.03397150"><ele></ele><time>2015-7-3T21:46:5Z</time></trkpt>
<trkpt lat="46.16897014" lon="6.03387418"><ele></ele><time>2015-7-3T21:46:8Z</time></trkpt>
<trkpt lat="46.16893569" lon="6.03377586"><ele></ele><time>2015-7-3T21:46:11Z</time></trkpt>
<trkpt lat="46.16890149" lon="6.03367796"><ele></ele><time>2015-7-3T21:46:14Z</time></trkpt>
<trkpt lat="46.16886947" lon="6.03357822"><ele></ele><time>2015-7-3T21:46:17Z</time></trkpt>
<trkpt lat="46.16883452" lon="6.03348006"><ele></ele><time>2015-7-3T21:46:20Z</time></trkpt>
<trkpt lat="46.16879923" lon="6.03338166"><ele></ele><time>2015-7-3T21:46:23Z</time></trkpt>
<trkpt lat="46.16876495" lon="6.03328217"><ele></ele><time>2015-7-3T21:46:26Z</time></trkpt>
<trkpt lat="46.16873126" lon="6.03318217"><ele></ele><time>2015-7-3T21:46:29Z</time></trkpt>
<trkpt lat="46.16869756" lon="6.03308218"><ele></ele><time>2015-7-3T21:46:32Z</time></trkpt>
<trkpt lat="46.16866454" lon="6.03298193"><ele></ele><time>2015-7-3T21:46:35Z</time></trkpt>
<trkpt lat="46.16863218" lon="6.03288168"><ele></ele><time>2015-7-3T21:46:38Z</time></trkpt>
<trkpt lat="46.16859958" lon="6.03278110"><ele></ele><time>2015-7-3T21:46:41Z</time></trkpt>
<trkpt lat="46.16856655" lon="6.03268026"><ele></ele><time>2015-7-3T21:46:44Z</time></trkpt>
<trkpt lat="46.16853369" lon="6.03257968"><ele></ele><time>2015-7-3T21:46:47Z</time></trkpt>
<trkpt lat="46.16850017" lon="6.03247977"><ele></ele><time>2015-7-3T21:46:50Z</time></trkpt>
<trkpt lat="46.16846513" lon="6.03238128"><ele></ele><time>2015-7-3T21:46:53Z</time></trkpt>
<trkpt lat="46.16843076" lon="6.03228296"><ele></ele><time>2015-7-3T21:46:56Z</time></trkpt>
<trkpt lat="46.16839539" lon="6.03218498"><ele></ele><time>2015-7-3T21:46:59Z</time></trkpt>
<trkpt lat="46.16836002" lon="6.03208724"><ele></ele><time>2015-7-3T21:47:2Z</time></trkpt>
<trkpt lat="46.16832549" lon="6.03198934"><ele></ele><time>2015-7-3T21:47:5Z</time></trkpt>
<trkpt lat="46.16829154" lon="6.03189178"><ele></ele><time>2015-7-3T21:47:8Z</time></trkpt>
<trkpt lat="46.16825726" lon="6.03179388"><ele></ele><time>2015-7-3T21:47:11Z</time></trkpt>
<trkpt lat="46.16822273" lon="6.03169640"><ele></ele><time>2015-7-3T21:47:14Z</time></trkpt>
<trkpt lat="46.16818853" lon="6.03160009"><ele></ele><time>2015-7-3T21:47:17Z</time></trkpt>
<trkpt lat="46.16815852" lon="6.03150177"><ele></ele><time>2015-7-3T21:47:20Z</time></trkpt>
<trkpt lat="46.16812910" lon="6.03140328"><ele></ele><time>2015-7-3T21:47:23Z</time></trkpt>
<trkpt lat="46.16810043" lon="6.03130429"><ele></ele><time>2015-7-3T21:47:26Z</time></trkpt>
<trkpt lat="46.16807177" lon="6.03120572"><ele></ele><time>2015-7-3T21:47:29Z</time></trkpt>
<trkpt lat="46.16804478" lon="6.03110623"><ele></ele><time>2015-7-3T21:47:32Z</time></trkpt>
<trkpt lat="46.16801695" lon="6.03100732"><ele></ele><time>2015-7-3T21:47:35Z</time></trkpt>
<trkpt lat="46.16798912" lon="6.03090925"><ele></ele><time>2015-7-3T21:47:38Z</time></trkpt>
<trkpt lat="46.16796196" lon="6.03081085"><ele></ele><time>2015-7-3T21:47:41Z</time></trkpt>
<trkpt lat="46.16792995" lon="6.03071664"><ele></ele><time>2015-7-3T21:47:44Z</time></trkpt>
<trkpt lat="46.16789768" lon="6.03062267"><ele></ele><time>2015-7-3T21:47:47Z</time></trkpt>
<trkpt lat="46.16786440" lon="6.03052930"><ele></ele><time>2015-7-3T21:47:50Z</time></trkpt>
<trkpt lat="46.16783087" lon="6.03043618"><ele></ele><time>2015-7-3T21:47:53Z</time></trkpt>
<trkpt lat="46.16780304" lon="6.03033937"><ele></ele><time>2015-7-3T21:47:56Z</time></trkpt>
<trkpt lat="46.16777496" lon="6.03024297"><ele></ele><time>2015-7-3T21:47:59Z</time></trkpt>
<trkpt lat="46.16774647" lon="6.03014809"><ele></ele><time>2015-7-3T21:48:2Z</time></trkpt>
<trkpt lat="46.16771847" lon="6.03005379"><ele></ele><time>2015-7-3T21:48:5Z</time></trkpt>
<trkpt lat="46.16769257" lon="6.02995732"><ele></ele><time>2015-7-3T21:48:8Z</time></trkpt>
<trkpt lat="46.16766784" lon="6.02986009"><ele></ele><time>2015-7-3T21:48:11Z</time></trkpt>
<trkpt lat="46.16764203" lon="6.02976269"><ele></ele><time>2015-7-3T21:48:14Z</time></trkpt>
<trkpt lat="46.16761546" lon="6.02966554"><ele></ele><time>2015-7-3T21:48:17Z</time></trkpt>
<trkpt lat="46.16758889" lon="6.02956823"><ele></ele><time>2015-7-3T21:48:20Z</time></trkpt>
<trkpt lat="46.16755502" lon="6.02947695"><ele></ele><time>2015-7-3T21:48:23Z</time></trkpt>
<trkpt lat="46.16752099" lon="6.02938643"><ele></ele><time>2015-7-3T21:48:26Z</time></trkpt>
<trkpt lat="46.16748654" lon="6.02929632"><ele></ele><time>2015-7-3T21:48:29Z</time></trkpt>
<trkpt lat="46.16745318" lon="6.02920546"><ele></ele><time>2015-7-3T21:48:32Z</time></trkpt>
<trkpt lat="46.16742058" lon="6.02911385"><ele></ele><time>2015-7-3T21:48:35Z</time></trkpt>
<trkpt lat="46.16738797" lon="6.02902357"><ele></ele><time>2015-7-3T21:48:38Z</time></trkpt>
<trkpt lat="46.16735763" lon="6.02893137"><ele></ele><time>2015-7-3T21:48:41Z</time></trkpt>
<trkpt lat="46.16732779" lon="6.02883859"><ele></ele><time>2015-7-3T21:48:44Z</time></trkpt>
<trkpt lat="46.16729669" lon="6.02874773"><ele></ele><time>2015-7-3T21:48:47Z</time></trkpt>
<trkpt lat="46.16726493" lon="6.02865729"><ele></ele><time>2015-7-3T21:48:50Z</time></trkpt>
<trkpt lat="46.16723257" lon="6.02856676"><ele></ele><time>2015-7-3T21:48:53Z</time></trkpt>
<trkpt lat="46.16719930" lon="6.02847632"><ele></ele><time>2015-7-3T21:48:56Z</time></trkpt>
<trkpt lat="46.16716602" lon="6.02838605"><ele></ele><time>2015-7-3T21:48:59Z</time></trkpt>
<trkpt lat="46.16713258" lon="6.02829552"><ele></ele><time>2015-7-3T21:49:2Z</time></trkpt>
<trkpt lat="46.16709930" lon="6.02820483"><ele></ele><time>2015-7-3T21:49:5Z</time></trkpt>
<trkpt lat="46.16706569" lon="6.02811472"><ele></ele><time>2015-7-3T21:49:8Z</time></trkpt>
<trkpt lat="46.16703182" lon="6.02802504"><ele></ele><time>2015-7-3T21:49:11Z</time></trkpt>
<trkpt lat="46.16699846" lon="6.02793493"><ele></ele><time>2015-7-3T21:49:14Z</time></trkpt>
<trkpt lat="46.16696502" lon="6.02784516"><ele></ele><time>2015-7-3T21:49:17Z</time></trkpt>
<trkpt lat="46.16693074" lon="6.02775606"><ele></ele><time>2015-7-3T21:49:20Z</time></trkpt>
<trkpt lat="46.16689604" lon="6.02766696"><ele></ele><time>2015-7-3T21:49:23Z</time></trkpt>
<trkpt lat="46.16686217" lon="6.02757719"><ele></ele><time>2015-7-3T21:49:26Z</time></trkpt>
<trkpt lat="46.16682798" lon="6.02748759"><ele></ele><time>2015-7-3T21:49:29Z</time></trkpt>
<trkpt lat="46.16679269" lon="6.02739883"><ele></ele><time>2015-7-3T21:49:32Z</time></trkpt>
<trkpt lat="46.16675757" lon="6.02730973"><ele></ele><time>2015-7-3T21:49:35Z</time></trkpt>
<trkpt lat="46.16672329" lon="6.02721987"><ele></ele><time>2015-7-3T21:49:38Z</time></trkpt>
<trkpt lat="46.16668976" lon="6.02713002"><ele></ele><time>2015-7-3T21:49:41Z</time></trkpt>
<trkpt lat="46.16665590" lon="6.02704109"><ele></ele><time>2015-7-3T21:49:44Z</time></trkpt>
<trkpt lat="46.16663343" lon="6.02694419"><ele></ele><time>2015-7-3T21:49:47Z</time></trkpt>
<trkpt lat="46.16660887" lon="6.02684889"><ele></ele><time>2015-7-3T21:49:50Z</time></trkpt>
<trkpt lat="46.16657602" lon="6.02675912"><ele></ele><time>2015-7-3T21:49:53Z</time></trkpt>
<trkpt lat="46.16654257" lon="6.02666943"><ele></ele><time>2015-7-3T21:49:56Z</time></trkpt>
<trkpt lat="46.16650837" lon="6.02658000"><ele></ele><time>2015-7-3T21:49:59Z</time></trkpt>
<trkpt lat="46.16647359" lon="6.02649174"><ele></ele><time>2015-7-3T21:50:2Z</time></trkpt>
<trkpt lat="46.16643713" lon="6.02640457"><ele></ele><time>2015-7-3T21:50:5Z</time></trkpt>
<trkpt lat="46.16640788" lon="6.02631329"><ele></ele><time>2015-7-3T21:50:8Z</time></trkpt>
<trkpt lat="46.16637695" lon="6.02622343"><ele></ele><time>2015-7-3T21:50:11Z</time></trkpt>
<trkpt lat="46.16635130" lon="6.02613056"><ele></ele><time>2015-7-3T21:50:14Z</time></trkpt>
<trkpt lat="46.16632557" lon="6.02603836"><ele></ele><time>2015-7-3T21:50:17Z</time></trkpt>
<trkpt lat="46.16629849" lon="6.02594792"><ele></ele><time>2015-7-3T21:50:20Z</time></trkpt>
<trkpt lat="46.16626957" lon="6.02586066"><ele></ele><time>2015-7-3T21:50:23Z</time></trkpt>
<trkpt lat="46.16624082" lon="6.02577508"><ele></ele><time>2015-7-3T21:50:26Z</time></trkpt>
<trkpt lat="46.16621224" lon="6.02569319"><ele></ele><time>2015-7-3T21:50:29Z</time></trkpt>
<trkpt lat="46.16618232" lon="6.02561382"><ele></ele><time>2015-7-3T21:50:32Z</time></trkpt>
<trkpt lat="46.16615147" lon="6.02553813"><ele></ele><time>2015-7-3T21:50:35Z</time></trkpt>
<trkpt lat="46.16613504" lon="6.02545934"><ele></ele><time>2015-7-3T21:50:38Z</time></trkpt>
<trkpt lat="46.16613580" lon="6.02537887"><ele></ele><time>2015-7-3T21:50:41Z</time></trkpt>
<trkpt lat="46.16614007" lon="6.02530075"><ele></ele><time>2015-7-3T21:50:44Z</time></trkpt>
<trkpt lat="46.16613043" lon="6.02522674"><ele></ele><time>2015-7-3T21:50:47Z</time></trkpt>
<trkpt lat="46.16609892" lon="6.02516379"><ele></ele><time>2015-7-3T21:50:50Z</time></trkpt>
<trkpt lat="46.16605332" lon="6.02511534"><ele></ele><time>2015-7-3T21:50:53Z</time></trkpt>
<trkpt lat="46.16599876" lon="6.02508165"><ele></ele><time>2015-7-3T21:50:56Z</time></trkpt>
<trkpt lat="46.16594553" lon="6.02504443"><ele></ele><time>2015-7-3T21:50:59Z</time></trkpt>
<trkpt lat="46.16590136" lon="6.02498266"><ele></ele><time>2015-7-3T21:51:2Z</time></trkpt>
<trkpt lat="46.16586875" lon="6.02490286"><ele></ele><time>2015-7-3T21:51:5Z</time></trkpt>
<trkpt lat="46.16583833" lon="6.02481695"><ele></ele><time>2015-7-3T21:51:8Z</time></trkpt>
<trkpt lat="46.16580547" lon="6.02473003"><ele></ele><time>2015-7-3T21:51:11Z</time></trkpt>
<trkpt lat="46.16577093" lon="6.02464353"><ele></ele><time>2015-7-3T21:51:14Z</time></trkpt>
<trkpt lat="46.16573506" lon="6.02455803"><ele></ele><time>2015-7-3T21:51:17Z</time></trkpt>
<trkpt lat="46.16569734" lon="6.02447262"><ele></ele><time>2015-7-3T21:51:20Z</time></trkpt>
<trkpt lat="46.16566666" lon="6.02437975"><ele></ele><time>2015-7-3T21:51:23Z</time></trkpt>
<trkpt lat="46.16563037" lon="6.02428922"><ele></ele><time>2015-7-3T21:51:26Z</time></trkpt>
<trkpt lat="46.16559483" lon="6.02419828"><ele></ele><time>2015-7-3T21:51:29Z</time></trkpt>
<trkpt lat="46.16556147" lon="6.02410566"><ele></ele><time>2015-7-3T21:51:32Z</time></trkpt>
<trkpt lat="46.16552476" lon="6.02401027"><ele></ele><time>2015-7-3T21:51:35Z</time></trkpt>
<trkpt lat="46.16548645" lon="6.02391422"><ele></ele><time>2015-7-3T21:51:38Z</time></trkpt>
<trkpt lat="46.16544982" lon="6.02381866"><ele></ele><time>2015-7-3T21:51:41Z</time></trkpt>
<trkpt lat="46.16541144" lon="6.02372319"><ele></ele><time>2015-7-3T21:51:44Z</time></trkpt>
<trkpt lat="46.16537229" lon="6.02362563"><ele></ele><time>2015-7-3T21:51:47Z</time></trkpt>
<trkpt lat="46.16532829" lon="6.02352614"><ele></ele><time>2015-7-3T21:51:50Z</time></trkpt>
<trkpt lat="46.16528369" lon="6.02342614"><ele></ele><time>2015-7-3T21:51:53Z</time></trkpt>
<trkpt lat="46.16523885" lon="6.02332489"><ele></ele><time>2015-7-3T21:51:56Z</time></trkpt>
<trkpt lat="46.16519325" lon="6.02322279"><ele></ele><time>2015-7-3T21:51:59Z</time></trkpt>
<trkpt lat="46.16515344" lon="6.02311584"><ele></ele><time>2015-7-3T21:52:2Z</time></trkpt>
<trkpt lat="46.16511329" lon="6.02300864"><ele></ele><time>2015-7-3T21:52:5Z</time></trkpt>
<trkpt lat="46.16507239" lon="6.02290059"><ele></ele><time>2015-7-3T21:52:8Z</time></trkpt>
<trkpt lat="46.16503073" lon="6.02279196"><ele></ele><time>2015-7-3T21:52:11Z</time></trkpt>
<trkpt lat="46.16498823" lon="6.02268375"><ele></ele><time>2015-7-3T21:52:14Z</time></trkpt>
<trkpt lat="46.16494490" lon="6.02257588"><ele></ele><time>2015-7-3T21:52:17Z</time></trkpt>
<trkpt lat="46.16490106" lon="6.02246809"><ele></ele><time>2015-7-3T21:52:20Z</time></trkpt>
<trkpt lat="46.16485697" lon="6.02236055"><ele></ele><time>2015-7-3T21:52:23Z</time></trkpt>
<trkpt lat="46.16481313" lon="6.02225318"><ele></ele><time>2015-7-3T21:52:26Z</time></trkpt>
<trkpt lat="46.16476930" lon="6.02214614"><ele></ele><time>2015-7-3T21:52:29Z</time></trkpt>
<trkpt lat="46.16472605" lon="6.02203927"><ele></ele><time>2015-7-3T21:52:32Z</time></trkpt>
<trkpt lat="46.16468389" lon="6.02193274"><ele></ele><time>2015-7-3T21:52:35Z</time></trkpt>
<trkpt lat="46.16464147" lon="6.02182754"><ele></ele><time>2015-7-3T21:52:38Z</time></trkpt>
<trkpt lat="46.16459873" lon="6.02172369"><ele></ele><time>2015-7-3T21:52:41Z</time></trkpt>
<trkpt lat="46.16455615" lon="6.02162085"><ele></ele><time>2015-7-3T21:52:44Z</time></trkpt>
<trkpt lat="46.16451357" lon="6.02151859"><ele></ele><time>2015-7-3T21:52:47Z</time></trkpt>
<trkpt lat="46.16447040" lon="6.02141473"><ele></ele><time>2015-7-3T21:52:50Z</time></trkpt>
<trkpt lat="46.16443000" lon="6.02131356"><ele></ele><time>2015-7-3T21:52:53Z</time></trkpt>
<trkpt lat="46.16438918" lon="6.02121365"><ele></ele><time>2015-7-3T21:52:56Z</time></trkpt>
<trkpt lat="46.16434643" lon="6.02111525"><ele></ele><time>2015-7-3T21:52:59Z</time></trkpt>
<trkpt lat="46.16430553" lon="6.02101358"><ele></ele><time>2015-7-3T21:53:2Z</time></trkpt>
<trkpt lat="46.16426404" lon="6.02091249"><ele></ele><time>2015-7-3T21:53:5Z</time></trkpt>
<trkpt lat="46.16422137" lon="6.02081099"><ele></ele><time>2015-7-3T21:53:8Z</time></trkpt>
<trkpt lat="46.16417795" lon="6.02071686"><ele></ele><time>2015-7-3T21:53:11Z</time></trkpt>
<trkpt lat="46.16413286" lon="6.02062290"><ele></ele><time>2015-7-3T21:53:14Z</time></trkpt>
<trkpt lat="46.16408684" lon="6.02053086"><ele></ele><time>2015-7-3T21:53:17Z</time></trkpt>
<trkpt lat="46.16404368" lon="6.02043623"><ele></ele><time>2015-7-3T21:53:20Z</time></trkpt>
<trkpt lat="46.16399883" lon="6.02034495"><ele></ele><time>2015-7-3T21:53:23Z</time></trkpt>
<trkpt lat="46.16395365" lon="6.02025527"><ele></ele><time>2015-7-3T21:53:26Z</time></trkpt>
<trkpt lat="46.16391107" lon="6.02016306"><ele></ele><time>2015-7-3T21:53:29Z</time></trkpt>
<trkpt lat="46.16387067" lon="6.02007405"><ele></ele><time>2015-7-3T21:53:32Z</time></trkpt>
<trkpt lat="46.16383715" lon="6.01998042"><ele></ele><time>2015-7-3T21:53:35Z</time></trkpt>
<trkpt lat="46.16379968" lon="6.01988847"><ele></ele><time>2015-7-3T21:53:38Z</time></trkpt>
<trkpt lat="46.16376447" lon="6.01979384"><ele></ele><time>2015-7-3T21:53:41Z</time></trkpt>
<trkpt lat="46.16373028" lon="6.01969904"><ele></ele><time>2015-7-3T21:53:44Z</time></trkpt>
<trkpt lat="46.16369859" lon="6.01960374"><ele></ele><time>2015-7-3T21:53:47Z</time></trkpt>
<trkpt lat="46.16366155" lon="6.01951028"><ele></ele><time>2015-7-3T21:53:50Z</time></trkpt>
<trkpt lat="46.16362710" lon="6.01941724"><ele></ele><time>2015-7-3T21:53:53Z</time></trkpt>
<trkpt lat="46.16359005" lon="6.01932244"><ele></ele><time>2015-7-3T21:53:56Z</time></trkpt>
<trkpt lat="46.16355417" lon="6.01922639"><ele></ele><time>2015-7-3T21:53:59Z</time></trkpt>
<trkpt lat="46.16352257" lon="6.01912958"><ele></ele><time>2015-7-3T21:54:2Z</time></trkpt>
<trkpt lat="46.16348988" lon="6.01903419"><ele></ele><time>2015-7-3T21:54:5Z</time></trkpt>
<trkpt lat="46.16345619" lon="6.01894115"><ele></ele><time>2015-7-3T21:54:8Z</time></trkpt>
<trkpt lat="46.16342266" lon="6.01885633"><ele></ele><time>2015-7-3T21:54:11Z</time></trkpt>
<trkpt lat="46.16338846" lon="6.01877184"><ele></ele><time>2015-7-3T21:54:14Z</time></trkpt>
<trkpt lat="46.16335150" lon="6.01868969"><ele></ele><time>2015-7-3T21:54:17Z</time></trkpt>
<trkpt lat="46.16331504" lon="6.01861107"><ele></ele><time>2015-7-3T21:54:20Z</time></trkpt>
<trkpt lat="46.16328109" lon="6.01853555"><ele></ele><time>2015-7-3T21:54:23Z</time></trkpt>
<trkpt lat="46.16324723" lon="6.01846254"><ele></ele><time>2015-7-3T21:54:26Z</time></trkpt>
<trkpt lat="46.16321487" lon="6.01839214"><ele></ele><time>2015-7-3T21:54:29Z</time></trkpt>
<trkpt lat="46.16317959" lon="6.01832139"><ele></ele><time>2015-7-3T21:54:32Z</time></trkpt>
<trkpt lat="46.16315142" lon="6.01825099"><ele></ele><time>2015-7-3T21:54:35Z</time></trkpt>
<trkpt lat="46.16312108" lon="6.01817270"><ele></ele><time>2015-7-3T21:54:38Z</time></trkpt>
<trkpt lat="46.16309904" lon="6.01808838"><ele></ele><time>2015-7-3T21:54:41Z</time></trkpt>
<trkpt lat="46.16308604" lon="6.01800648"><ele></ele><time>2015-7-3T21:54:44Z</time></trkpt>
<trkpt lat="46.16307766" lon="6.01792652"><ele></ele><time>2015-7-3T21:54:47Z</time></trkpt>
<trkpt lat="46.16306199" lon="6.01784999"><ele></ele><time>2015-7-3T21:54:50Z</time></trkpt>
<trkpt lat="46.16303433" lon="6.01777665"><ele></ele><time>2015-7-3T21:54:53Z</time></trkpt>
<trkpt lat="46.16298563" lon="6.01771756"><ele></ele><time>2015-7-3T21:54:56Z</time></trkpt>
<trkpt lat="46.16292218" lon="6.01767708"><ele></ele><time>2015-7-3T21:54:59Z</time></trkpt>
<trkpt lat="46.16285923" lon="6.01763827"><ele></ele><time>2015-7-3T21:55:2Z</time></trkpt>
<trkpt lat="46.16280994" lon="6.01758043"><ele></ele><time>2015-7-3T21:55:5Z</time></trkpt>
<trkpt lat="46.16276862" lon="6.01750575"><ele></ele><time>2015-7-3T21:55:8Z</time></trkpt>
<trkpt lat="46.16273342" lon="6.01742294"><ele></ele><time>2015-7-3T21:55:11Z</time></trkpt>
<trkpt lat="46.16269880" lon="6.01733719"><ele></ele><time>2015-7-3T21:55:14Z</time></trkpt>
<trkpt lat="46.16266293" lon="6.01725144"><ele></ele><time>2015-7-3T21:55:17Z</time></trkpt>
<trkpt lat="46.16262848" lon="6.01716444"><ele></ele><time>2015-7-3T21:55:20Z</time></trkpt>
<trkpt lat="46.16259394" lon="6.01707576"><ele></ele><time>2015-7-3T21:55:23Z</time></trkpt>
<trkpt lat="46.16255974" lon="6.01698582"><ele></ele><time>2015-7-3T21:55:26Z</time></trkpt>
<trkpt lat="46.16252488" lon="6.01689622"><ele></ele><time>2015-7-3T21:55:29Z</time></trkpt>
<trkpt lat="46.16248833" lon="6.01680645"><ele></ele><time>2015-7-3T21:55:32Z</time></trkpt>
<trkpt lat="46.16245044" lon="6.01671643"><ele></ele><time>2015-7-3T21:55:35Z</time></trkpt>
<trkpt lat="46.16241289" lon="6.01662573"><ele></ele><time>2015-7-3T21:55:38Z</time></trkpt>
<trkpt lat="46.16237559" lon="6.01653454"><ele></ele><time>2015-7-3T21:55:41Z</time></trkpt>
<trkpt lat="46.16233863" lon="6.01644368"><ele></ele><time>2015-7-3T21:55:44Z</time></trkpt>
<trkpt lat="46.16230074" lon="6.01635366"><ele></ele><time>2015-7-3T21:55:47Z</time></trkpt>
<trkpt lat="46.16226286" lon="6.01626405"><ele></ele><time>2015-7-3T21:55:50Z</time></trkpt>
<trkpt lat="46.16222573" lon="6.01617353"><ele></ele><time>2015-7-3T21:55:53Z</time></trkpt>
<trkpt lat="46.16218859" lon="6.01608234"><ele></ele><time>2015-7-3T21:55:56Z</time></trkpt>
<trkpt lat="46.16215062" lon="6.01599072"><ele></ele><time>2015-7-3T21:55:59Z</time></trkpt>
<trkpt lat="46.16211249" lon="6.01589852"><ele></ele><time>2015-7-3T21:56:2Z</time></trkpt>
<trkpt lat="46.16207410" lon="6.01580573"><ele></ele><time>2015-7-3T21:56:5Z</time></trkpt>
<trkpt lat="46.16203495" lon="6.01571236"><ele></ele><time>2015-7-3T21:56:8Z</time></trkpt>
<trkpt lat="46.16199489" lon="6.01561798"><ele></ele><time>2015-7-3T21:56:11Z</time></trkpt>
<trkpt lat="46.16195482" lon="6.01552184"><ele></ele><time>2015-7-3T21:56:14Z</time></trkpt>
<trkpt lat="46.16191484" lon="6.01542503"><ele></ele><time>2015-7-3T21:56:17Z</time></trkpt>
<trkpt lat="46.16187427" lon="6.01532830"><ele></ele><time>2015-7-3T21:56:20Z</time></trkpt>
<trkpt lat="46.16182976" lon="6.01523182"><ele></ele><time>2015-7-3T21:56:23Z</time></trkpt>
<trkpt lat="46.16178626" lon="6.01513652"><ele></ele><time>2015-7-3T21:56:26Z</time></trkpt>
<trkpt lat="46.16174452" lon="6.01504005"><ele></ele><time>2015-7-3T21:56:29Z</time></trkpt>
<trkpt lat="46.16170186" lon="6.01494072"><ele></ele><time>2015-7-3T21:56:32Z</time></trkpt>
<trkpt lat="46.16165819" lon="6.01484114"><ele></ele><time>2015-7-3T21:56:35Z</time></trkpt>
<trkpt lat="46.16161737" lon="6.01474366"><ele></ele><time>2015-7-3T21:56:38Z</time></trkpt>
<trkpt lat="46.16157579" lon="6.01464593"><ele></ele><time>2015-7-3T21:56:41Z</time></trkpt>
<trkpt lat="46.16153439" lon="6.01454820"><ele></ele><time>2015-7-3T21:56:44Z</time></trkpt>
<trkpt lat="46.16149290" lon="6.01445004"><ele></ele><time>2015-7-3T21:56:47Z</time></trkpt>
<trkpt lat="46.16145182" lon="6.01435189"><ele></ele><time>2015-7-3T21:56:50Z</time></trkpt>
<trkpt lat="46.16141008" lon="6.01425399"><ele></ele><time>2015-7-3T21:56:53Z</time></trkpt>
<trkpt lat="46.16136868" lon="6.01415643"><ele></ele><time>2015-7-3T21:56:56Z</time></trkpt>
<trkpt lat="46.16132727" lon="6.01405878"><ele></ele><time>2015-7-3T21:56:59Z</time></trkpt>
<trkpt lat="46.16128569" lon="6.01396046"><ele></ele><time>2015-7-3T21:57:2Z</time></trkpt>
<trkpt lat="46.16124446" lon="6.01386189"><ele></ele><time>2015-7-3T21:57:5Z</time></trkpt>
<trkpt lat="46.16120263" lon="6.01376340"><ele></ele><time>2015-7-3T21:57:8Z</time></trkpt>
<trkpt lat="46.16116055" lon="6.01366525"><ele></ele><time>2015-7-3T21:57:11Z</time></trkpt>
<trkpt lat="46.16111898" lon="6.01356684"><ele></ele><time>2015-7-3T21:57:14Z</time></trkpt>
<trkpt lat="46.16107724" lon="6.01346785"><ele></ele><time>2015-7-3T21:57:17Z</time></trkpt>
<trkpt lat="46.16103566" lon="6.01336920"><ele></ele><time>2015-7-3T21:57:20Z</time></trkpt>
<trkpt lat="46.16099333" lon="6.01327088"><ele></ele><time>2015-7-3T21:57:23Z</time></trkpt>
<trkpt lat="46.16095117" lon="6.01317256"><ele></ele><time>2015-7-3T21:57:26Z</time></trkpt>
<trkpt lat="46.16090935" lon="6.01307407"><ele></ele><time>2015-7-3T21:57:29Z</time></trkpt>
<trkpt lat="46.16086744" lon="6.01297508"><ele></ele><time>2015-7-3T21:57:32Z</time></trkpt>
<trkpt lat="46.16082519" lon="6.01287617"><ele></ele><time>2015-7-3T21:57:35Z</time></trkpt>
<trkpt lat="46.16078345" lon="6.01277668"><ele></ele><time>2015-7-3T21:57:38Z</time></trkpt>
<trkpt lat="46.16074188" lon="6.01267635"><ele></ele><time>2015-7-3T21:57:41Z</time></trkpt>
<trkpt lat="46.16069955" lon="6.01257635"><ele></ele><time>2015-7-3T21:57:44Z</time></trkpt>
<trkpt lat="46.16065672" lon="6.01247619"><ele></ele><time>2015-7-3T21:57:47Z</time></trkpt>
<trkpt lat="46.16061405" lon="6.01237586"><ele></ele><time>2015-7-3T21:57:50Z</time></trkpt>
<trkpt lat="46.16057156" lon="6.01227477"><ele></ele><time>2015-7-3T21:57:53Z</time></trkpt>
<trkpt lat="46.16052923" lon="6.01217318"><ele></ele><time>2015-7-3T21:57:56Z</time></trkpt>
<trkpt lat="46.16048648" lon="6.01207210"><ele></ele><time>2015-7-3T21:57:59Z</time></trkpt>
<trkpt lat="46.16044306" lon="6.01197093"><ele></ele><time>2015-7-3T21:58:2Z</time></trkpt>
<trkpt lat="46.16039973" lon="6.01186942"><ele></ele><time>2015-7-3T21:58:5Z</time></trkpt>
<trkpt lat="46.16035698" lon="6.01176783"><ele></ele><time>2015-7-3T21:58:8Z</time></trkpt>
<trkpt lat="46.16031415" lon="6.01166633"><ele></ele><time>2015-7-3T21:58:11Z</time></trkpt>
<trkpt lat="46.16027132" lon="6.01156524"><ele></ele><time>2015-7-3T21:58:14Z</time></trkpt>
<trkpt lat="46.16022807" lon="6.01146508"><ele></ele><time>2015-7-3T21:58:17Z</time></trkpt>
<trkpt lat="46.16018490" lon="6.01136517"><ele></ele><time>2015-7-3T21:58:20Z</time></trkpt>
<trkpt lat="46.16014148" lon="6.01126517"><ele></ele><time>2015-7-3T21:58:23Z</time></trkpt>
<trkpt lat="46.16009823" lon="6.01116559"><ele></ele><time>2015-7-3T21:58:26Z</time></trkpt>
<trkpt lat="46.16005582" lon="6.01106560"><ele></ele><time>2015-7-3T21:58:29Z</time></trkpt>
<trkpt lat="46.16001357" lon="6.01096552"><ele></ele><time>2015-7-3T21:58:32Z</time></trkpt>
<trkpt lat="46.15997066" lon="6.01086569"><ele></ele><time>2015-7-3T21:58:35Z</time></trkpt>
<trkpt lat="46.15992808" lon="6.01076603"><ele></ele><time>2015-7-3T21:58:38Z</time></trkpt>
<trkpt lat="46.15988567" lon="6.01066654"><ele></ele><time>2015-7-3T21:58:41Z</time></trkpt>
<trkpt lat="46.15984334" lon="6.01056746"><ele></ele><time>2015-7-3T21:58:44Z</time></trkpt>
<trkpt lat="46.15980168" lon="6.01046713"><ele></ele><time>2015-7-3T21:58:47Z</time></trkpt>
<trkpt lat="46.15975985" lon="6.01036646"><ele></ele><time>2015-7-3T21:58:50Z</time></trkpt>
<trkpt lat="46.15971786" lon="6.01026588"><ele></ele><time>2015-7-3T21:58:53Z</time></trkpt>
<trkpt lat="46.15967570" lon="6.01016513"><ele></ele><time>2015-7-3T21:58:56Z</time></trkpt>
<trkpt lat="46.15963295" lon="6.01006497"><ele></ele><time>2015-7-3T21:58:59Z</time></trkpt>
<trkpt lat="46.15958920" lon="6.00996606"><ele></ele><time>2015-7-3T21:59:2Z</time></trkpt>
<trkpt lat="46.15954553" lon="6.00986640"><ele></ele><time>2015-7-3T21:59:5Z</time></trkpt>
<trkpt lat="46.15950253" lon="6.00976565"><ele></ele><time>2015-7-3T21:59:8Z</time></trkpt>
<trkpt lat="46.15945986" lon="6.00966414"><ele></ele><time>2015-7-3T21:59:11Z</time></trkpt>
<trkpt lat="46.15941728" lon="6.00956222"><ele></ele><time>2015-7-3T21:59:14Z</time></trkpt>
<trkpt lat="46.15937429" lon="6.00946030"><ele></ele><time>2015-7-3T21:59:17Z</time></trkpt>
<trkpt lat="46.15933137" lon="6.00935728"><ele></ele><time>2015-7-3T21:59:20Z</time></trkpt>
<trkpt lat="46.15928829" lon="6.00925393"><ele></ele><time>2015-7-3T21:59:23Z</time></trkpt>
<trkpt lat="46.15924462" lon="6.00915067"><ele></ele><time>2015-7-3T21:59:26Z</time></trkpt>
<trkpt lat="46.15920078" lon="6.00904724"><ele></ele><time>2015-7-3T21:59:29Z</time></trkpt>
<trkpt lat="46.15915644" lon="6.00894397"><ele></ele><time>2015-7-3T21:59:32Z</time></trkpt>
<trkpt lat="46.15911252" lon="6.00884029"><ele></ele><time>2015-7-3T21:59:35Z</time></trkpt>
<trkpt lat="46.15906902" lon="6.00873685"><ele></ele><time>2015-7-3T21:59:38Z</time></trkpt>
<trkpt lat="46.15902619" lon="6.00863292"><ele></ele><time>2015-7-3T21:59:41Z</time></trkpt>
<trkpt lat="46.15898319" lon="6.00852965"><ele></ele><time>2015-7-3T21:59:44Z</time></trkpt>
<trkpt lat="46.15893926" lon="6.00842798"><ele></ele><time>2015-7-3T21:59:47Z</time></trkpt>
<trkpt lat="46.15889509" lon="6.00832715"><ele></ele><time>2015-7-3T21:59:50Z</time></trkpt>
<trkpt lat="46.15885125" lon="6.00822665"><ele></ele><time>2015-7-3T21:59:53Z</time></trkpt>
<trkpt lat="46.15880876" lon="6.00812464"><ele></ele><time>2015-7-3T21:59:56Z</time></trkpt>
<trkpt lat="46.15876618" lon="6.00802272"><ele></ele><time>2015-7-3T21:59:59Z</time></trkpt>
<trkpt lat="46.15872335" lon="6.00792138"><ele></ele><time>2015-7-3T22:0:2Z</time></trkpt>
<trkpt lat="46.15868018" lon="6.00782013"><ele></ele><time>2015-7-3T22:0:5Z</time></trkpt>
<trkpt lat="46.15863752" lon="6.00771887"><ele></ele><time>2015-7-3T22:0:8Z</time></trkpt>
<trkpt lat="46.15859477" lon="6.00761737"><ele></ele><time>2015-7-3T22:0:11Z</time></trkpt>
<trkpt lat="46.15855219" lon="6.00751578"><ele></ele><time>2015-7-3T22:0:14Z</time></trkpt>
<trkpt lat="46.15850885" lon="6.00741427"><ele></ele><time>2015-7-3T22:0:17Z</time></trkpt>
<trkpt lat="46.15846552" lon="6.00731319"><ele></ele><time>2015-7-3T22:0:20Z</time></trkpt>
<trkpt lat="46.15842277" lon="6.00721177"><ele></ele><time>2015-7-3T22:0:23Z</time></trkpt>
<trkpt lat="46.15838019" lon="6.00711035"><ele></ele><time>2015-7-3T22:0:26Z</time></trkpt>
<trkpt lat="46.15833736" lon="6.00700909"><ele></ele><time>2015-7-3T22:0:29Z</time></trkpt>
<trkpt lat="46.15829436" lon="6.00690776"><ele></ele><time>2015-7-3T22:0:32Z</time></trkpt>
<trkpt lat="46.15825170" lon="6.00680642"><ele></ele><time>2015-7-3T22:0:35Z</time></trkpt>
<trkpt lat="46.15820870" lon="6.00670516"><ele></ele><time>2015-7-3T22:0:38Z</time></trkpt>
<trkpt lat="46.15816587" lon="6.00660408"><ele></ele><time>2015-7-3T22:0:41Z</time></trkpt>
<trkpt lat="46.15812303" lon="6.00650358"><ele></ele><time>2015-7-3T22:0:44Z</time></trkpt>
<trkpt lat="46.15808045" lon="6.00640325"><ele></ele><time>2015-7-3T22:0:47Z</time></trkpt>
<trkpt lat="46.15803804" lon="6.00630233"><ele></ele><time>2015-7-3T22:0:50Z</time></trkpt>
<trkpt lat="46.15799496" lon="6.00620158"><ele></ele><time>2015-7-3T22:0:53Z</time></trkpt>
<trkpt lat="46.15795154" lon="6.00610116"><ele></ele><time>2015-7-3T22:0:56Z</time></trkpt>
<trkpt lat="46.15790896" lon="6.00600025"><ele></ele><time>2015-7-3T22:0:59Z</time></trkpt>
<trkpt lat="46.15786672" lon="6.00589908"><ele></ele><time>2015-7-3T22:1:2Z</time></trkpt>
<trkpt lat="46.15782422" lon="6.00579824"><ele></ele><time>2015-7-3T22:1:5Z</time></trkpt>
<trkpt lat="46.15778105" lon="6.00569800"><ele></ele><time>2015-7-3T22:1:8Z</time></trkpt>
<trkpt lat="46.15773747" lon="6.00559758"><ele></ele><time>2015-7-3T22:1:11Z</time></trkpt>
<trkpt lat="46.15769304" lon="6.00549683"><ele></ele><time>2015-7-3T22:1:14Z</time></trkpt>
<trkpt lat="46.15764887" lon="6.00539633"><ele></ele><time>2015-7-3T22:1:17Z</time></trkpt>
<trkpt lat="46.15760512" lon="6.00529524"><ele></ele><time>2015-7-3T22:1:20Z</time></trkpt>
<trkpt lat="46.15756195" lon="6.00519382"><ele></ele><time>2015-7-3T22:1:23Z</time></trkpt>
<trkpt lat="46.15751870" lon="6.00509232"><ele></ele><time>2015-7-3T22:1:26Z</time></trkpt>
<trkpt lat="46.15747553" lon="6.00499107"><ele></ele><time>2015-7-3T22:1:29Z</time></trkpt>
<trkpt lat="46.15743279" lon="6.00488964"><ele></ele><time>2015-7-3T22:1:32Z</time></trkpt>
<trkpt lat="46.15738987" lon="6.00478839"><ele></ele><time>2015-7-3T22:1:35Z</time></trkpt>
<trkpt lat="46.15734612" lon="6.00468806"><ele></ele><time>2015-7-3T22:1:38Z</time></trkpt>
<trkpt lat="46.15730295" lon="6.00458756"><ele></ele><time>2015-7-3T22:1:41Z</time></trkpt>
<trkpt lat="46.15725970" lon="6.00448689"><ele></ele><time>2015-7-3T22:1:44Z</time></trkpt>
<trkpt lat="46.15721645" lon="6.00438623"><ele></ele><time>2015-7-3T22:1:47Z</time></trkpt>
<trkpt lat="46.15717345" lon="6.00428573"><ele></ele><time>2015-7-3T22:1:50Z</time></trkpt>
<trkpt lat="46.15712970" lon="6.00418682"><ele></ele><time>2015-7-3T22:1:53Z</time></trkpt>
<trkpt lat="46.15708645" lon="6.00408817"><ele></ele><time>2015-7-3T22:1:56Z</time></trkpt>
<trkpt lat="46.15704403" lon="6.00399018"><ele></ele><time>2015-7-3T22:1:59Z</time></trkpt>
<trkpt lat="46.15700179" lon="6.00389346"><ele></ele><time>2015-7-3T22:2:2Z</time></trkpt>
<trkpt lat="46.15695954" lon="6.00379782"><ele></ele><time>2015-7-3T22:2:5Z</time></trkpt>
<trkpt lat="46.15691805" lon="6.00370285"><ele></ele><time>2015-7-3T22:2:8Z</time></trkpt>
<trkpt lat="46.15687715" lon="6.00360822"><ele></ele><time>2015-7-3T22:2:11Z</time></trkpt>
<trkpt lat="46.15683625" lon="6.00351468"><ele></ele><time>2015-7-3T22:2:14Z</time></trkpt>
<trkpt lat="46.15679534" lon="6.00342197"><ele></ele><time>2015-7-3T22:2:17Z</time></trkpt>
<trkpt lat="46.15675444" lon="6.00332902"><ele></ele><time>2015-7-3T22:2:20Z</time></trkpt>
<trkpt lat="46.15671387" lon="6.00323657"><ele></ele><time>2015-7-3T22:2:23Z</time></trkpt>
<trkpt lat="46.15667414" lon="6.00314478"><ele></ele><time>2015-7-3T22:2:26Z</time></trkpt>
<trkpt lat="46.15663692" lon="6.00305183"><ele></ele><time>2015-7-3T22:2:29Z</time></trkpt>
<trkpt lat="46.15660599" lon="6.00295988"><ele></ele><time>2015-7-3T22:2:32Z</time></trkpt>
<trkpt lat="46.15657389" lon="6.00286726"><ele></ele><time>2015-7-3T22:2:35Z</time></trkpt>
<trkpt lat="46.15654556" lon="6.00278025"><ele></ele><time>2015-7-3T22:2:38Z</time></trkpt>
<trkpt lat="46.15651044" lon="6.00269719"><ele></ele><time>2015-7-3T22:2:41Z</time></trkpt>
<trkpt lat="46.15646593" lon="6.00261253"><ele></ele><time>2015-7-3T22:2:44Z</time></trkpt>
<trkpt lat="46.15642319" lon="6.00252494"><ele></ele><time>2015-7-3T22:2:47Z</time></trkpt>
<trkpt lat="46.15638538" lon="6.00243157"><ele></ele><time>2015-7-3T22:2:50Z</time></trkpt>
<trkpt lat="46.15634708" lon="6.00233459"><ele></ele><time>2015-7-3T22:2:53Z</time></trkpt>
<trkpt lat="46.15630676" lon="6.00223669"><ele></ele><time>2015-7-3T22:2:56Z</time></trkpt>
<trkpt lat="46.15626669" lon="6.00213812"><ele></ele><time>2015-7-3T22:2:59Z</time></trkpt>
<trkpt lat="46.15622789" lon="6.00203862"><ele></ele><time>2015-7-3T22:3:2Z</time></trkpt>
<trkpt lat="46.15618899" lon="6.00193880"><ele></ele><time>2015-7-3T22:3:5Z</time></trkpt>
<trkpt lat="46.15615102" lon="6.00183805"><ele></ele><time>2015-7-3T22:3:8Z</time></trkpt>
<trkpt lat="46.15611289" lon="6.00173662"><ele></ele><time>2015-7-3T22:3:11Z</time></trkpt>
<trkpt lat="46.15607374" lon="6.00163537"><ele></ele><time>2015-7-3T22:3:14Z</time></trkpt>
<trkpt lat="46.15603477" lon="6.00153286"><ele></ele><time>2015-7-3T22:3:17Z</time></trkpt>
<trkpt lat="46.15599546" lon="6.00142892"><ele></ele><time>2015-7-3T22:3:20Z</time></trkpt>
<trkpt lat="46.15595623" lon="6.00132457"><ele></ele><time>2015-7-3T22:3:23Z</time></trkpt>
<trkpt lat="46.15591809" lon="6.00121963"><ele></ele><time>2015-7-3T22:3:26Z</time></trkpt>
<trkpt lat="46.15588029" lon="6.00111469"><ele></ele><time>2015-7-3T22:3:29Z</time></trkpt>
<trkpt lat="46.15584257" lon="6.00100949"><ele></ele><time>2015-7-3T22:3:32Z</time></trkpt>
<trkpt lat="46.15580552" lon="6.00090388"><ele></ele><time>2015-7-3T22:3:35Z</time></trkpt>
<trkpt lat="46.15576864" lon="6.00079802"><ele></ele><time>2015-7-3T22:3:38Z</time></trkpt>
<trkpt lat="46.15573235" lon="6.00069207"><ele></ele><time>2015-7-3T22:3:41Z</time></trkpt>
<trkpt lat="46.15569723" lon="6.00058587"><ele></ele><time>2015-7-3T22:3:44Z</time></trkpt>
<trkpt lat="46.15566135" lon="6.00048018"><ele></ele><time>2015-7-3T22:3:47Z</time></trkpt>
<trkpt lat="46.15562347" lon="6.00037373"><ele></ele><time>2015-7-3T22:3:50Z</time></trkpt>
<trkpt lat="46.15558659" lon="6.00026594"><ele></ele><time>2015-7-3T22:3:53Z</time></trkpt>
<trkpt lat="46.15555038" lon="6.00015689"><ele></ele><time>2015-7-3T22:3:56Z</time></trkpt>
<trkpt lat="46.15551492" lon="6.00004734"><ele></ele><time>2015-7-3T22:3:59Z</time></trkpt>
<trkpt lat="46.15547972" lon="5.99993812"><ele></ele><time>2015-7-3T22:4:2Z</time></trkpt>
<trkpt lat="46.15544477" lon="5.99982907"><ele></ele><time>2015-7-3T22:4:5Z</time></trkpt>
<trkpt lat="46.15540948" lon="5.99972019"><ele></ele><time>2015-7-3T22:4:8Z</time></trkpt>
<trkpt lat="46.15537226" lon="5.99961173"><ele></ele><time>2015-7-3T22:4:11Z</time></trkpt>
<trkpt lat="46.15533547" lon="5.99950293"><ele></ele><time>2015-7-3T22:4:14Z</time></trkpt>
<trkpt lat="46.15529808" lon="5.99939497"><ele></ele><time>2015-7-3T22:4:17Z</time></trkpt>
<trkpt lat="46.15526305" lon="5.99928768"><ele></ele><time>2015-7-3T22:4:20Z</time></trkpt>
<trkpt lat="46.15523346" lon="5.99917998"><ele></ele><time>2015-7-3T22:4:23Z</time></trkpt>
<trkpt lat="46.15520613" lon="5.99907193"><ele></ele><time>2015-7-3T22:4:26Z</time></trkpt>
<trkpt lat="46.15517755" lon="5.99896406"><ele></ele><time>2015-7-3T22:4:29Z</time></trkpt>
<trkpt lat="46.15514679" lon="5.99885576"><ele></ele><time>2015-7-3T22:4:32Z</time></trkpt>
<trkpt lat="46.15511552" lon="5.99874705"><ele></ele><time>2015-7-3T22:4:35Z</time></trkpt>
<trkpt lat="46.15508518" lon="5.99863716"><ele></ele><time>2015-7-3T22:4:38Z</time></trkpt>
<trkpt lat="46.15505484" lon="5.99852686"><ele></ele><time>2015-7-3T22:4:41Z</time></trkpt>
<trkpt lat="46.15502475" lon="5.99841647"><ele></ele><time>2015-7-3T22:4:44Z</time></trkpt>
<trkpt lat="46.15499499" lon="5.99830809"><ele></ele><time>2015-7-3T22:4:47Z</time></trkpt>
<trkpt lat="46.15496440" lon="5.99820332"><ele></ele><time>2015-7-3T22:4:50Z</time></trkpt>
<trkpt lat="46.15493456" lon="5.99810047"><ele></ele><time>2015-7-3T22:4:53Z</time></trkpt>
<trkpt lat="46.15490522" lon="5.99799762"><ele></ele><time>2015-7-3T22:4:56Z</time></trkpt>
<trkpt lat="46.15487639" lon="5.99789285"><ele></ele><time>2015-7-3T22:4:59Z</time></trkpt>
<trkpt lat="46.15484638" lon="5.99778732"><ele></ele><time>2015-7-3T22:5:2Z</time></trkpt>
<trkpt lat="46.15481612" lon="5.99768112"><ele></ele><time>2015-7-3T22:5:5Z</time></trkpt>
<trkpt lat="46.15478578" lon="5.99757367"><ele></ele><time>2015-7-3T22:5:8Z</time></trkpt>
<trkpt lat="46.15475519" lon="5.99746663"><ele></ele><time>2015-7-3T22:5:11Z</time></trkpt>
<trkpt lat="46.15472585" lon="5.99735834"><ele></ele><time>2015-7-3T22:5:14Z</time></trkpt>
<trkpt lat="46.15469920" lon="5.99724786"><ele></ele><time>2015-7-3T22:5:17Z</time></trkpt>
<trkpt lat="46.15467874" lon="5.99713588"><ele></ele><time>2015-7-3T22:5:20Z</time></trkpt>
<trkpt lat="46.15466265" lon="5.99702298"><ele></ele><time>2015-7-3T22:5:23Z</time></trkpt>
<trkpt lat="46.15465024" lon="5.99690773"><ele></ele><time>2015-7-3T22:5:26Z</time></trkpt>
<trkpt lat="46.15464102" lon="5.99678988"><ele></ele><time>2015-7-3T22:5:29Z</time></trkpt>
<trkpt lat="46.15463683" lon="5.99666893"><ele></ele><time>2015-7-3T22:5:32Z</time></trkpt>
<trkpt lat="46.15463935" lon="5.99654630"><ele></ele><time>2015-7-3T22:5:35Z</time></trkpt>
<trkpt lat="46.15464765" lon="5.99642183"><ele></ele><time>2015-7-3T22:5:38Z</time></trkpt>
<trkpt lat="46.15465804" lon="5.99629576"><ele></ele><time>2015-7-3T22:5:41Z</time></trkpt>
<trkpt lat="46.15466977" lon="5.99617272"><ele></ele><time>2015-7-3T22:5:44Z</time></trkpt>
<trkpt lat="46.15468687" lon="5.99604464"><ele></ele><time>2015-7-3T22:5:47Z</time></trkpt>
<trkpt lat="46.15470523" lon="5.99591807"><ele></ele><time>2015-7-3T22:5:50Z</time></trkpt>
<trkpt lat="46.15472367" lon="5.99579033"><ele></ele><time>2015-7-3T22:5:53Z</time></trkpt>
<trkpt lat="46.15474798" lon="5.99565933"><ele></ele><time>2015-7-3T22:5:56Z</time></trkpt>
<trkpt lat="46.15477229" lon="5.99552739"><ele></ele><time>2015-7-3T22:5:59Z</time></trkpt>
<trkpt lat="46.15479383" lon="5.99539479"><ele></ele><time>2015-7-3T22:6:2Z</time></trkpt>
<trkpt lat="46.15481378" lon="5.99525984"><ele></ele><time>2015-7-3T22:6:5Z</time></trkpt>
<trkpt lat="46.15483666" lon="5.99512364"><ele></ele><time>2015-7-3T22:6:8Z</time></trkpt>
<trkpt lat="46.15485803" lon="5.99498492"><ele></ele><time>2015-7-3T22:6:11Z</time></trkpt>
<trkpt lat="46.15487899" lon="5.99484452"><ele></ele><time>2015-7-3T22:6:14Z</time></trkpt>
<trkpt lat="46.15490019" lon="5.99469909"><ele></ele><time>2015-7-3T22:6:17Z</time></trkpt>
<trkpt lat="46.15492224" lon="5.99455467"><ele></ele><time>2015-7-3T22:6:20Z</time></trkpt>
<trkpt lat="46.15494839" lon="5.99441294"><ele></ele><time>2015-7-3T22:6:23Z</time></trkpt>
<trkpt lat="46.15498242" lon="5.99426567"><ele></ele><time>2015-7-3T22:6:26Z</time></trkpt>
<trkpt lat="46.15500866" lon="5.99411714"><ele></ele><time>2015-7-3T22:6:29Z</time></trkpt>
<trkpt lat="46.15504126" lon="5.99396677"><ele></ele><time>2015-7-3T22:6:32Z</time></trkpt>
<trkpt lat="46.15506750" lon="5.99381807"><ele></ele><time>2015-7-3T22:6:35Z</time></trkpt>
<trkpt lat="46.15509432" lon="5.99366854"><ele></ele><time>2015-7-3T22:6:38Z</time></trkpt>
<trkpt lat="46.15513128" lon="5.99351842"><ele></ele><time>2015-7-3T22:6:41Z</time></trkpt>
<trkpt lat="46.15516682" lon="5.99337199"><ele></ele><time>2015-7-3T22:6:44Z</time></trkpt>
<trkpt lat="46.15520898" lon="5.99322782"><ele></ele><time>2015-7-3T22:6:47Z</time></trkpt>
<trkpt lat="46.15525936" lon="5.99309228"><ele></ele><time>2015-7-3T22:6:50Z</time></trkpt>
<trkpt lat="46.15531594" lon="5.99296312"><ele></ele><time>2015-7-3T22:6:53Z</time></trkpt>
<trkpt lat="46.15537964" lon="5.99283974"><ele></ele><time>2015-7-3T22:6:56Z</time></trkpt>
<trkpt lat="46.15545415" lon="5.99272516"><ele></ele><time>2015-7-3T22:6:59Z</time></trkpt>
<trkpt lat="46.15553353" lon="5.99261468"><ele></ele><time>2015-7-3T22:7:2Z</time></trkpt>
<trkpt lat="46.15561333" lon="5.99250413"><ele></ele><time>2015-7-3T22:7:5Z</time></trkpt>
<trkpt lat="46.15569069" lon="5.99239307"><ele></ele><time>2015-7-3T22:7:8Z</time></trkpt>
<trkpt lat="46.15576847" lon="5.99228066"><ele></ele><time>2015-7-3T22:7:11Z</time></trkpt>
<trkpt lat="46.15584735" lon="5.99216952"><ele></ele><time>2015-7-3T22:7:14Z</time></trkpt>
<trkpt lat="46.15592865" lon="5.99205947"><ele></ele><time>2015-7-3T22:7:17Z</time></trkpt>
<trkpt lat="46.15600845" lon="5.99194949"><ele></ele><time>2015-7-3T22:7:20Z</time></trkpt>
<trkpt lat="46.15608648" lon="5.99183936"><ele></ele><time>2015-7-3T22:7:23Z</time></trkpt>
<trkpt lat="46.15616192" lon="5.99172687"><ele></ele><time>2015-7-3T22:7:26Z</time></trkpt>
<trkpt lat="46.15623359" lon="5.99161078"><ele></ele><time>2015-7-3T22:7:29Z</time></trkpt>
<trkpt lat="46.15630936" lon="5.99149067"><ele></ele><time>2015-7-3T22:7:32Z</time></trkpt>
<trkpt lat="46.15636745" lon="5.99137190"><ele></ele><time>2015-7-3T22:7:35Z</time></trkpt>
<trkpt lat="46.15642637" lon="5.99123527"><ele></ele><time>2015-7-3T22:7:38Z</time></trkpt>
<trkpt lat="46.15647700" lon="5.99108608"><ele></ele><time>2015-7-3T22:7:41Z</time></trkpt>
<trkpt lat="46.15653299" lon="5.99092682"><ele></ele><time>2015-7-3T22:7:44Z</time></trkpt>
<trkpt lat="46.15657498" lon="5.99076999"><ele></ele><time>2015-7-3T22:7:47Z</time></trkpt>
<trkpt lat="46.15661329" lon="5.99060738"><ele></ele><time>2015-7-3T22:7:50Z</time></trkpt>
<trkpt lat="46.15664522" lon="5.99044427"><ele></ele><time>2015-7-3T22:7:53Z</time></trkpt>
<trkpt lat="46.15666886" lon="5.99028242"><ele></ele><time>2015-7-3T22:7:56Z</time></trkpt>
<trkpt lat="46.15668286" lon="5.99011797"><ele></ele><time>2015-7-3T22:7:59Z</time></trkpt>
<trkpt lat="46.15669233" lon="5.98995217"><ele></ele><time>2015-7-3T22:8:2Z</time></trkpt>
<trkpt lat="46.15669744" lon="5.98978738"><ele></ele><time>2015-7-3T22:8:5Z</time></trkpt>
<trkpt lat="46.15669828" lon="5.98962075"><ele></ele><time>2015-7-3T22:8:8Z</time></trkpt>
<trkpt lat="46.15670079" lon="5.98946082"><ele></ele><time>2015-7-3T22:8:11Z</time></trkpt>
<trkpt lat="46.15670054" lon="5.98929972"><ele></ele><time>2015-7-3T22:8:14Z</time></trkpt>
<trkpt lat="46.15669593" lon="5.98914005"><ele></ele><time>2015-7-3T22:8:17Z</time></trkpt>
<trkpt lat="46.15669082" lon="5.98897794"><ele></ele><time>2015-7-3T22:8:20Z</time></trkpt>
<trkpt lat="46.15668948" lon="5.98881424"><ele></ele><time>2015-7-3T22:8:23Z</time></trkpt>
<trkpt lat="46.15668814" lon="5.98864837"><ele></ele><time>2015-7-3T22:8:26Z</time></trkpt>
<trkpt lat="46.15668495" lon="5.98848467"><ele></ele><time>2015-7-3T22:8:29Z</time></trkpt>
<trkpt lat="46.15668084" lon="5.98832265"><ele></ele><time>2015-7-3T22:8:32Z</time></trkpt>
<trkpt lat="46.15667682" lon="5.98816129"><ele></ele><time>2015-7-3T22:8:35Z</time></trkpt>
<trkpt lat="46.15667397" lon="5.98800036"><ele></ele><time>2015-7-3T22:8:38Z</time></trkpt>
<trkpt lat="46.15667003" lon="5.98784085"><ele></ele><time>2015-7-3T22:8:41Z</time></trkpt>
<trkpt lat="46.15666743" lon="5.98768143"><ele></ele><time>2015-7-3T22:8:44Z</time></trkpt>
<trkpt lat="46.15666534" lon="5.98752192"><ele></ele><time>2015-7-3T22:8:47Z</time></trkpt>
<trkpt lat="46.15666282" lon="5.98736309"><ele></ele><time>2015-7-3T22:8:50Z</time></trkpt>
<trkpt lat="46.15666064" lon="5.98720433"><ele></ele><time>2015-7-3T22:8:53Z</time></trkpt>
<trkpt lat="46.15665939" lon="5.98704625"><ele></ele><time>2015-7-3T22:8:56Z</time></trkpt>
<trkpt lat="46.15665805" lon="5.98688817"><ele></ele><time>2015-7-3T22:8:59Z</time></trkpt>
<trkpt lat="46.15665746" lon="5.98673067"><ele></ele><time>2015-7-3T22:9:2Z</time></trkpt>
<trkpt lat="46.15665612" lon="5.98657393"><ele></ele><time>2015-7-3T22:9:5Z</time></trkpt>
<trkpt lat="46.15665486" lon="5.98641819"><ele></ele><time>2015-7-3T22:9:8Z</time></trkpt>
<trkpt lat="46.15665385" lon="5.98626313"><ele></ele><time>2015-7-3T22:9:11Z</time></trkpt>
<trkpt lat="46.15665235" lon="5.98610857"><ele></ele><time>2015-7-3T22:9:14Z</time></trkpt>
<trkpt lat="46.15665025" lon="5.98595409"><ele></ele><time>2015-7-3T22:9:17Z</time></trkpt>
<trkpt lat="46.15664832" lon="5.98580028"><ele></ele><time>2015-7-3T22:9:20Z</time></trkpt>
<trkpt lat="46.15664614" lon="5.98564697"><ele></ele><time>2015-7-3T22:9:23Z</time></trkpt>
<trkpt lat="46.15664388" lon="5.98549434"><ele></ele><time>2015-7-3T22:9:26Z</time></trkpt>
<trkpt lat="46.15664162" lon="5.98534187"><ele></ele><time>2015-7-3T22:9:29Z</time></trkpt>
<trkpt lat="46.15663986" lon="5.98518899"><ele></ele><time>2015-7-3T22:9:32Z</time></trkpt>
<trkpt lat="46.15663793" lon="5.98503543"><ele></ele><time>2015-7-3T22:9:35Z</time></trkpt>
<trkpt lat="46.15663634" lon="5.98488187"><ele></ele><time>2015-7-3T22:9:38Z</time></trkpt>
<trkpt lat="46.15663525" lon="5.98472823"><ele></ele><time>2015-7-3T22:9:41Z</time></trkpt>
<trkpt lat="46.15663449" lon="5.98457476"><ele></ele><time>2015-7-3T22:9:44Z</time></trkpt>
<trkpt lat="46.15663282" lon="5.98442104"><ele></ele><time>2015-7-3T22:9:47Z</time></trkpt>
<trkpt lat="46.15663240" lon="5.98426656"><ele></ele><time>2015-7-3T22:9:50Z</time></trkpt>
<trkpt lat="46.15663114" lon="5.98411158"><ele></ele><time>2015-7-3T22:9:53Z</time></trkpt>
<trkpt lat="46.15663064" lon="5.98395718"><ele></ele><time>2015-7-3T22:9:56Z</time></trkpt>
<trkpt lat="46.15662988" lon="5.98380312"><ele></ele><time>2015-7-3T22:9:59Z</time></trkpt>
<trkpt lat="46.15662879" lon="5.98364848"><ele></ele><time>2015-7-3T22:10:2Z</time></trkpt>
<trkpt lat="46.15662812" lon="5.98349366"><ele></ele><time>2015-7-3T22:10:5Z</time></trkpt>
<trkpt lat="46.15662544" lon="5.98333902"><ele></ele><time>2015-7-3T22:10:8Z</time></trkpt>
<trkpt lat="46.15662184" lon="5.98318596"><ele></ele><time>2015-7-3T22:10:11Z</time></trkpt>
<trkpt lat="46.15661295" lon="5.98303325"><ele></ele><time>2015-7-3T22:10:14Z</time></trkpt>
<trkpt lat="46.15659795" lon="5.98288086"><ele></ele><time>2015-7-3T22:10:17Z</time></trkpt>
<trkpt lat="46.15657833" lon="5.98272907"><ele></ele><time>2015-7-3T22:10:20Z</time></trkpt>
<trkpt lat="46.15654967" lon="5.98257853"><ele></ele><time>2015-7-3T22:10:23Z</time></trkpt>
<trkpt lat="46.15651279" lon="5.98243168"><ele></ele><time>2015-7-3T22:10:26Z</time></trkpt>
<trkpt lat="46.15646887" lon="5.98229027"><ele></ele><time>2015-7-3T22:10:29Z</time></trkpt>
<trkpt lat="46.15641614" lon="5.98215474"><ele></ele><time>2015-7-3T22:10:32Z</time></trkpt>
<trkpt lat="46.15635504" lon="5.98202817"><ele></ele><time>2015-7-3T22:10:35Z</time></trkpt>
<trkpt lat="46.15629058" lon="5.98190437"><ele></ele><time>2015-7-3T22:10:38Z</time></trkpt>
<trkpt lat="46.15622546" lon="5.98178124"><ele></ele><time>2015-7-3T22:10:41Z</time></trkpt>
<trkpt lat="46.15616100" lon="5.98165819"><ele></ele><time>2015-7-3T22:10:44Z</time></trkpt>
<trkpt lat="46.15609713" lon="5.98153473"><ele></ele><time>2015-7-3T22:10:47Z</time></trkpt>
<trkpt lat="46.15603418" lon="5.98141093"><ele></ele><time>2015-7-3T22:10:50Z</time></trkpt>
<trkpt lat="46.15597174" lon="5.98128654"><ele></ele><time>2015-7-3T22:10:53Z</time></trkpt>
<trkpt lat="46.15590896" lon="5.98116232"><ele></ele><time>2015-7-3T22:10:56Z</time></trkpt>
<trkpt lat="46.15584643" lon="5.98103802"><ele></ele><time>2015-7-3T22:10:59Z</time></trkpt>
<trkpt lat="46.15578390" lon="5.98091355"><ele></ele><time>2015-7-3T22:11:2Z</time></trkpt>
<trkpt lat="46.15572103" lon="5.98078924"><ele></ele><time>2015-7-3T22:11:5Z</time></trkpt>
<trkpt lat="46.15565825" lon="5.98066452"><ele></ele><time>2015-7-3T22:11:8Z</time></trkpt>
<trkpt lat="46.15559539" lon="5.98053904"><ele></ele><time>2015-7-3T22:11:11Z</time></trkpt>
<trkpt lat="46.15553227" lon="5.98041357"><ele></ele><time>2015-7-3T22:11:14Z</time></trkpt>
<trkpt lat="46.15546865" lon="5.98029027"><ele></ele><time>2015-7-3T22:11:17Z</time></trkpt>
<trkpt lat="46.15540369" lon="5.98016865"><ele></ele><time>2015-7-3T22:11:20Z</time></trkpt>
<trkpt lat="46.15533848" lon="5.98004719"><ele></ele><time>2015-7-3T22:11:23Z</time></trkpt>
<trkpt lat="46.15527386" lon="5.97992607"><ele></ele><time>2015-7-3T22:11:26Z</time></trkpt>
<trkpt lat="46.15521049" lon="5.97980496"><ele></ele><time>2015-7-3T22:11:29Z</time></trkpt>
<trkpt lat="46.15514587" lon="5.97968627"><ele></ele><time>2015-7-3T22:11:32Z</time></trkpt>
<trkpt lat="46.15507797" lon="5.97957219"><ele></ele><time>2015-7-3T22:11:35Z</time></trkpt>
<trkpt lat="46.15500773" lon="5.97946205"><ele></ele><time>2015-7-3T22:11:38Z</time></trkpt>
<trkpt lat="46.15493598" lon="5.97935510"><ele></ele><time>2015-7-3T22:11:41Z</time></trkpt>
<trkpt lat="46.15486264" lon="5.97925183"><ele></ele><time>2015-7-3T22:11:44Z</time></trkpt>
<trkpt lat="46.15478796" lon="5.97915058"><ele></ele><time>2015-7-3T22:11:47Z</time></trkpt>
<trkpt lat="46.15471286" lon="5.97905084"><ele></ele><time>2015-7-3T22:11:50Z</time></trkpt>
<trkpt lat="46.15463683" lon="5.97895327"><ele></ele><time>2015-7-3T22:11:53Z</time></trkpt>
<trkpt lat="46.15455888" lon="5.97885939"><ele></ele><time>2015-7-3T22:11:56Z</time></trkpt>
<trkpt lat="46.15447934" lon="5.97876837"><ele></ele><time>2015-7-3T22:11:59Z</time></trkpt>
<trkpt lat="46.15439845" lon="5.97868019"><ele></ele><time>2015-7-3T22:12:2Z</time></trkpt>
<trkpt lat="46.15431614" lon="5.97859587"><ele></ele><time>2015-7-3T22:12:5Z</time></trkpt>
<trkpt lat="46.15423308" lon="5.97851498"><ele></ele><time>2015-7-3T22:12:8Z</time></trkpt>
<trkpt lat="46.15415043" lon="5.97843552"><ele></ele><time>2015-7-3T22:12:11Z</time></trkpt>
<trkpt lat="46.15406745" lon="5.97835665"><ele></ele><time>2015-7-3T22:12:14Z</time></trkpt>
<trkpt lat="46.15398464" lon="5.97828029"><ele></ele><time>2015-7-3T22:12:17Z</time></trkpt>
<trkpt lat="46.15390358" lon="5.97820418"><ele></ele><time>2015-7-3T22:12:20Z</time></trkpt>
<trkpt lat="46.15382488" lon="5.97812715"><ele></ele><time>2015-7-3T22:12:23Z</time></trkpt>
<trkpt lat="46.15374768" lon="5.97805046"><ele></ele><time>2015-7-3T22:12:26Z</time></trkpt>
<trkpt lat="46.15367132" lon="5.97797519"><ele></ele><time>2015-7-3T22:12:29Z</time></trkpt>
<trkpt lat="46.15359563" lon="5.97790159"><ele></ele><time>2015-7-3T22:12:32Z</time></trkpt>
<trkpt lat="46.15352028" lon="5.97782884"><ele></ele><time>2015-7-3T22:12:35Z</time></trkpt>
<trkpt lat="46.15344577" lon="5.97775784"><ele></ele><time>2015-7-3T22:12:38Z</time></trkpt>
<trkpt lat="46.15337284" lon="5.97768769"><ele></ele><time>2015-7-3T22:12:41Z</time></trkpt>
<trkpt lat="46.15330084" lon="5.97761787"><ele></ele><time>2015-7-3T22:12:44Z</time></trkpt>
<trkpt lat="46.15322985" lon="5.97754939"><ele></ele><time>2015-7-3T22:12:47Z</time></trkpt>
<trkpt lat="46.15315977" lon="5.97748116"><ele></ele><time>2015-7-3T22:12:50Z</time></trkpt>
<trkpt lat="46.15308995" lon="5.97741293"><ele></ele><time>2015-7-3T22:12:53Z</time></trkpt>
<trkpt lat="46.15302089" lon="5.97734470"><ele></ele><time>2015-7-3T22:12:56Z</time></trkpt>
<trkpt lat="46.15295283" lon="5.97727513"><ele></ele><time>2015-7-3T22:12:59Z</time></trkpt>
<trkpt lat="46.15288644" lon="5.97720413"><ele></ele><time>2015-7-3T22:13:2Z</time></trkpt>
<trkpt lat="46.15282215" lon="5.97713188"><ele></ele><time>2015-7-3T22:13:5Z</time></trkpt>
<trkpt lat="46.15275987" lon="5.97705837"><ele></ele><time>2015-7-3T22:13:8Z</time></trkpt>
<trkpt lat="46.15269885" lon="5.97698394"><ele></ele><time>2015-7-3T22:13:11Z</time></trkpt>
<trkpt lat="46.15263892" lon="5.97690859"><ele></ele><time>2015-7-3T22:13:14Z</time></trkpt>
<trkpt lat="46.15258008" lon="5.97683206"><ele></ele><time>2015-7-3T22:13:17Z</time></trkpt>
<trkpt lat="46.15252233" lon="5.97675528"><ele></ele><time>2015-7-3T22:13:20Z</time></trkpt>
<trkpt lat="46.15246575" lon="5.97667817"><ele></ele><time>2015-7-3T22:13:23Z</time></trkpt>
<trkpt lat="46.15240918" lon="5.97660148"><ele></ele><time>2015-7-3T22:13:26Z</time></trkpt>
<trkpt lat="46.15235285" lon="5.97652528"><ele></ele><time>2015-7-3T22:13:29Z</time></trkpt>
<trkpt lat="46.15229719" lon="5.97644859"><ele></ele><time>2015-7-3T22:13:32Z</time></trkpt>
<trkpt lat="46.15224229" lon="5.97637139"><ele></ele><time>2015-7-3T22:13:35Z</time></trkpt>
<trkpt lat="46.15218714" lon="5.97629503"><ele></ele><time>2015-7-3T22:13:38Z</time></trkpt>
<trkpt lat="46.15213173" lon="5.97621943"><ele></ele><time>2015-7-3T22:13:41Z</time></trkpt>
<trkpt lat="46.15207667" lon="5.97614349"><ele></ele><time>2015-7-3T22:13:44Z</time></trkpt>
<trkpt lat="46.15202218" lon="5.97606730"><ele></ele><time>2015-7-3T22:13:47Z</time></trkpt>
<trkpt lat="46.15196829" lon="5.97599144"><ele></ele><time>2015-7-3T22:13:50Z</time></trkpt>
<trkpt lat="46.15191364" lon="5.97591584"><ele></ele><time>2015-7-3T22:13:53Z</time></trkpt>
<trkpt lat="46.15185882" lon="5.97583906"><ele></ele><time>2015-7-3T22:13:56Z</time></trkpt>
<trkpt lat="46.15180375" lon="5.97576094"><ele></ele><time>2015-7-3T22:13:59Z</time></trkpt>
<trkpt lat="46.15174692" lon="5.97568123"><ele></ele><time>2015-7-3T22:14:2Z</time></trkpt>
<trkpt lat="46.15169034" lon="5.97560177"><ele></ele><time>2015-7-3T22:14:5Z</time></trkpt>
<trkpt lat="46.15163435" lon="5.97552298"><ele></ele><time>2015-7-3T22:14:8Z</time></trkpt>
<trkpt lat="46.15157844" lon="5.97544343"><ele></ele><time>2015-7-3T22:14:11Z</time></trkpt>
<trkpt lat="46.15152287" lon="5.97536204"><ele></ele><time>2015-7-3T22:14:14Z</time></trkpt>
<trkpt lat="46.15146705" lon="5.97528049"><ele></ele><time>2015-7-3T22:14:17Z</time></trkpt>
<trkpt lat="46.15141139" lon="5.97519893"><ele></ele><time>2015-7-3T22:14:20Z</time></trkpt>
<trkpt lat="46.15135507" lon="5.97511704"><ele></ele><time>2015-7-3T22:14:23Z</time></trkpt>
<trkpt lat="46.15129673" lon="5.97503725"><ele></ele><time>2015-7-3T22:14:26Z</time></trkpt>
<trkpt lat="46.15123789" lon="5.97495887"><ele></ele><time>2015-7-3T22:14:29Z</time></trkpt>
<trkpt lat="46.15117930" lon="5.97487908"><ele></ele><time>2015-7-3T22:14:32Z</time></trkpt>
<trkpt lat="46.15112213" lon="5.97479777"><ele></ele><time>2015-7-3T22:14:35Z</time></trkpt>
<trkpt lat="46.15106329" lon="5.97471672"><ele></ele><time>2015-7-3T22:14:38Z</time></trkpt>
<trkpt lat="46.15100613" lon="5.97463416"><ele></ele><time>2015-7-3T22:14:41Z</time></trkpt>
<trkpt lat="46.15094829" lon="5.97455319"><ele></ele><time>2015-7-3T22:14:44Z</time></trkpt>
<trkpt lat="46.15088945" lon="5.97447323"><ele></ele><time>2015-7-3T22:14:47Z</time></trkpt>
<trkpt lat="46.15082885" lon="5.97439192"><ele></ele><time>2015-7-3T22:14:50Z</time></trkpt>
<trkpt lat="46.15076808" lon="5.97431003"><ele></ele><time>2015-7-3T22:14:53Z</time></trkpt>
<trkpt lat="46.15070798" lon="5.97422646"><ele></ele><time>2015-7-3T22:14:56Z</time></trkpt>
<trkpt lat="46.15064939" lon="5.97414164"><ele></ele><time>2015-7-3T22:14:59Z</time></trkpt>
<trkpt lat="46.15059164" lon="5.97405748"><ele></ele><time>2015-7-3T22:15:2Z</time></trkpt>
<trkpt lat="46.15053322" lon="5.97397576"><ele></ele><time>2015-7-3T22:15:5Z</time></trkpt>
<trkpt lat="46.15047379" lon="5.97389555"><ele></ele><time>2015-7-3T22:15:8Z</time></trkpt>
<trkpt lat="46.15041353" lon="5.97381684"><ele></ele><time>2015-7-3T22:15:11Z</time></trkpt>
<trkpt lat="46.15035477" lon="5.97373872"><ele></ele><time>2015-7-3T22:15:14Z</time></trkpt>
<trkpt lat="46.15029484" lon="5.97366286"><ele></ele><time>2015-7-3T22:15:17Z</time></trkpt>
<trkpt lat="46.15023416" lon="5.97358919"><ele></ele><time>2015-7-3T22:15:20Z</time></trkpt>
<trkpt lat="46.15017775" lon="5.97351383"><ele></ele><time>2015-7-3T22:15:23Z</time></trkpt>
<trkpt lat="46.15011857" lon="5.97343898"><ele></ele><time>2015-7-3T22:15:26Z</time></trkpt>
<trkpt lat="46.15006073" lon="5.97336874"><ele></ele><time>2015-7-3T22:15:29Z</time></trkpt>
<trkpt lat="46.15000147" lon="5.97330462"><ele></ele><time>2015-7-3T22:15:32Z</time></trkpt>
<trkpt lat="46.14994322" lon="5.97324385"><ele></ele><time>2015-7-3T22:15:35Z</time></trkpt>
<trkpt lat="46.14988312" lon="5.97318065"><ele></ele><time>2015-7-3T22:15:38Z</time></trkpt>
<trkpt lat="46.14982445" lon="5.97311863"><ele></ele><time>2015-7-3T22:15:41Z</time></trkpt>
<trkpt lat="46.14977038" lon="5.97304512"><ele></ele><time>2015-7-3T22:15:44Z</time></trkpt>
<trkpt lat="46.14971942" lon="5.97296884"><ele></ele><time>2015-7-3T22:15:47Z</time></trkpt>
<trkpt lat="46.14967324" lon="5.97288905"><ele></ele><time>2015-7-3T22:15:50Z</time></trkpt>
<trkpt lat="46.14962873" lon="5.97280037"><ele></ele><time>2015-7-3T22:15:53Z</time></trkpt>
<trkpt lat="46.14958196" lon="5.97273608"><ele></ele><time>2015-7-3T22:15:56Z</time></trkpt>
<trkpt lat="46.14955246" lon="5.97267087"><ele></ele><time>2015-7-3T22:15:59Z</time></trkpt>
<trkpt lat="46.14951784" lon="5.97261437"><ele></ele><time>2015-7-3T22:16:2Z</time></trkpt>
<trkpt lat="46.14946746" lon="5.97257322"><ele></ele><time>2015-7-3T22:16:5Z</time></trkpt>
<trkpt lat="46.14940535" lon="5.97253609"><ele></ele><time>2015-7-3T22:16:8Z</time></trkpt>
<trkpt lat="46.14934718" lon="5.97248563"><ele></ele><time>2015-7-3T22:16:11Z</time></trkpt>
<trkpt lat="46.14928306" lon="5.97243458"><ele></ele><time>2015-7-3T22:16:14Z</time></trkpt>
<trkpt lat="46.14921072" lon="5.97238789"><ele></ele><time>2015-7-3T22:16:17Z</time></trkpt>
<trkpt lat="46.14915599" lon="5.97231975"><ele></ele><time>2015-7-3T22:16:20Z</time></trkpt>
<trkpt lat="46.14911140" lon="5.97224565"><ele></ele><time>2015-7-3T22:16:23Z</time></trkpt>
<trkpt lat="46.14906329" lon="5.97217055"><ele></ele><time>2015-7-3T22:16:26Z</time></trkpt>
<trkpt lat="46.14901057" lon="5.97209377"><ele></ele><time>2015-7-3T22:16:29Z</time></trkpt>
<trkpt lat="46.14895415" lon="5.97202102"><ele></ele><time>2015-7-3T22:16:32Z</time></trkpt>
<trkpt lat="46.14889766" lon="5.97195212"><ele></ele><time>2015-7-3T22:16:35Z</time></trkpt>
<trkpt lat="46.14884184" lon="5.97188800"><ele></ele><time>2015-7-3T22:16:38Z</time></trkpt>
<trkpt lat="46.14878157" lon="5.97182706"><ele></ele><time>2015-7-3T22:16:41Z</time></trkpt>
<trkpt lat="46.14872357" lon="5.97176612"><ele></ele><time>2015-7-3T22:16:44Z</time></trkpt>
<trkpt lat="46.14866565" lon="5.97170116"><ele></ele><time>2015-7-3T22:16:47Z</time></trkpt>
<trkpt lat="46.14860480" lon="5.97163746"><ele></ele><time>2015-7-3T22:16:50Z</time></trkpt>
<trkpt lat="46.14855576" lon="5.97156303"><ele></ele><time>2015-7-3T22:16:53Z</time></trkpt>
<trkpt lat="46.14851058" lon="5.97148223"><ele></ele><time>2015-7-3T22:16:56Z</time></trkpt>
<trkpt lat="46.14846096" lon="5.97140109"><ele></ele><time>2015-7-3T22:16:59Z</time></trkpt>
<trkpt lat="46.14842165" lon="5.97131392"><ele></ele><time>2015-7-3T22:17:2Z</time></trkpt>
<trkpt lat="46.14837639" lon="5.97123203"><ele></ele><time>2015-7-3T22:17:5Z</time></trkpt>
<trkpt lat="46.14832593" lon="5.97115458"><ele></ele><time>2015-7-3T22:17:8Z</time></trkpt>
<trkpt lat="46.14827304" lon="5.97106716"><ele></ele><time>2015-7-3T22:17:11Z</time></trkpt>
<trkpt lat="46.14821294" lon="5.97099884"><ele></ele><time>2015-7-3T22:17:14Z</time></trkpt>
<trkpt lat="46.14815234" lon="5.97093288"><ele></ele><time>2015-7-3T22:17:17Z</time></trkpt>
<trkpt lat="46.14809962" lon="5.97086708"><ele></ele><time>2015-7-3T22:17:20Z</time></trkpt>
<trkpt lat="46.14804002" lon="5.97080346"><ele></ele><time>2015-7-3T22:17:23Z</time></trkpt>
<trkpt lat="46.14800105" lon="5.97071227"><ele></ele><time>2015-7-3T22:17:26Z</time></trkpt>
<trkpt lat="46.14795956" lon="5.97063188"><ele></ele><time>2015-7-3T22:17:29Z</time></trkpt>
<trkpt lat="46.14791849" lon="5.97055787"><ele></ele><time>2015-7-3T22:17:32Z</time></trkpt>
<trkpt lat="46.14787859" lon="5.97048637"><ele></ele><time>2015-7-3T22:17:35Z</time></trkpt>
<trkpt lat="46.14783819" lon="5.97041898"><ele></ele><time>2015-7-3T22:17:38Z</time></trkpt>
<trkpt lat="46.14779980" lon="5.97035796"><ele></ele><time>2015-7-3T22:17:41Z</time></trkpt>
<trkpt lat="46.14776703" lon="5.97031195"><ele></ele><time>2015-7-3T22:17:44Z</time></trkpt>
<trkpt lat="46.14773953" lon="5.97026878"><ele></ele><time>2015-7-3T22:17:47Z</time></trkpt>
<trkpt lat="46.14771539" lon="5.97022737"><ele></ele><time>2015-7-3T22:17:50Z</time></trkpt>
</trkseg></trk></gpx>